<?xml version="1.0" encoding="UTF-8" standalone="no" ?>
<gpx xmlns="http://www.topografix.com/GPX/1/1" xmlns:xsi="http://www.w3.org/2001/XMLSchema-instance" xsi:schemaLocation="http://www.topografix.com/GPX/1/1 http://www.topografix.com/GPX/1/1/gpx.xsd" version="1.1" creator="VisuGPX - https://www.visugpx.com">
  <metadata>
    <name>Vélo bleu - Circuit 32</name>
    <desc><![CDATA[Petit patrimoine sur ce circuit :
- Château de Arc-en-Barrois, Château et Abbaye de Longuay à Aubepierre-sur-Aube, Château de Dancevoir.
- Lavoirs de Arc-en-Barrois, Giey-sur-Aujon, St-Loup-sur-Aujon, Rouvres-sur-Aube, Aubepierre-sur-Aube, Dancevoir
- Chapelle ND de Pitié à Arc-en-Barrois, Chapelle ND de Montrot, Chapelle Ste-Anne à Courcelles-sur-Aujon, ]]></desc>
  </metadata>
  <trk>
    <name><![CDATA[45 donc 32]]></name>
    <trkseg>
      <trkpt lat="47.94774" lon="5.00767">
        <ele>273.66</ele>
        <time>2025-03-11T14:01:57.000Z</time>
      </trkpt>
      <trkpt lat="47.94773" lon="5.00767">
        <ele>273.56</ele>
        <time>2025-03-11T14:01:57.000Z</time>
      </trkpt>
      <trkpt lat="47.94768" lon="5.00771">
        <ele>273.46</ele>
        <time>2025-03-11T14:01:57.001Z</time>
      </trkpt>
      <trkpt lat="47.94779" lon="5.00763">
        <ele>273.34</ele>
        <time>2025-03-11T14:01:57.004Z</time>
      </trkpt>
      <trkpt lat="47.9478" lon="5.00762">
        <ele>273.22</ele>
        <time>2025-03-11T14:01:57.007Z</time>
      </trkpt>
      <trkpt lat="47.94788" lon="5.00757">
        <ele>273.1</ele>
        <time>2025-03-11T14:01:57.011Z</time>
      </trkpt>
      <trkpt lat="47.94807" lon="5.00748">
        <ele>272.9</ele>
        <time>2025-03-11T14:01:57.019Z</time>
      </trkpt>
      <trkpt lat="47.94813" lon="5.00766">
        <ele>272.7</ele>
        <time>2025-03-11T14:01:57.029Z</time>
      </trkpt>
      <trkpt lat="47.9483" lon="5.00759">
        <ele>272.46</ele>
        <time>2025-03-11T14:01:57.042Z</time>
      </trkpt>
      <trkpt lat="47.94839" lon="5.00732">
        <ele>272.25</ele>
        <time>2025-03-11T14:01:57.058Z</time>
      </trkpt>
      <trkpt lat="47.94848" lon="5.00698">
        <ele>272.01</ele>
        <time>2025-03-11T14:01:57.078Z</time>
      </trkpt>
      <trkpt lat="47.94845" lon="5.00661">
        <ele>271.84</ele>
        <time>2025-03-11T14:01:57.102Z</time>
      </trkpt>
      <trkpt lat="47.9484" lon="5.00634">
        <ele>271.64</ele>
        <time>2025-03-11T14:01:57.129Z</time>
      </trkpt>
      <trkpt lat="47.94835" lon="5.00608">
        <ele>271.44</ele>
        <time>2025-03-11T14:01:57.159Z</time>
      </trkpt>
      <trkpt lat="47.94831" lon="5.00589">
        <ele>271.29</ele>
        <time>2025-03-11T14:01:57.191Z</time>
      </trkpt>
      <trkpt lat="47.94826" lon="5.0059">
        <ele>271.18</ele>
        <time>2025-03-11T14:01:57.224Z</time>
      </trkpt>
      <trkpt lat="47.94831" lon="5.0059">
        <ele>271.09</ele>
        <time>2025-03-11T14:01:57.257Z</time>
      </trkpt>
      <trkpt lat="47.94831" lon="5.00592">
        <ele>271.03</ele>
        <time>2025-03-11T14:01:57.291Z</time>
      </trkpt>
      <trkpt lat="47.9483" lon="5.00582">
        <ele>271</ele>
        <time>2025-03-11T14:01:57.326Z</time>
      </trkpt>
      <trkpt lat="47.94832" lon="5.00575">
        <ele>270.95</ele>
        <time>2025-03-11T14:01:57.362Z</time>
      </trkpt>
      <trkpt lat="47.94826" lon="5.00562">
        <ele>270.94</ele>
        <time>2025-03-11T14:01:57.399Z</time>
      </trkpt>
      <trkpt lat="47.94825" lon="5.00557">
        <ele>270.94</ele>
        <time>2025-03-11T14:01:57.437Z</time>
      </trkpt>
      <trkpt lat="47.94824" lon="5.00554">
        <ele>270.96</ele>
        <time>2025-03-11T14:01:57.475Z</time>
      </trkpt>
      <trkpt lat="47.94808" lon="5.00559">
        <ele>270.97</ele>
        <time>2025-03-11T14:01:57.516Z</time>
      </trkpt>
      <trkpt lat="47.9479" lon="5.00565">
        <ele>270.94</ele>
        <time>2025-03-11T14:01:57.560Z</time>
      </trkpt>
      <trkpt lat="47.94773" lon="5.00572">
        <ele>270.95</ele>
        <time>2025-03-11T14:01:57.607Z</time>
      </trkpt>
      <trkpt lat="47.94759" lon="5.00578">
        <ele>270.96</ele>
        <time>2025-03-11T14:01:57.656Z</time>
      </trkpt>
      <trkpt lat="47.94743" lon="5.00595">
        <ele>271.04</ele>
        <time>2025-03-11T14:01:57.708Z</time>
      </trkpt>
      <trkpt lat="47.94726" lon="5.00612">
        <ele>271.17</ele>
        <time>2025-03-11T14:01:57.763Z</time>
      </trkpt>
      <trkpt lat="47.9472" lon="5.00619">
        <ele>271.27</ele>
        <time>2025-03-11T14:01:57.820Z</time>
      </trkpt>
      <trkpt lat="47.94713" lon="5.00626">
        <ele>271.38</ele>
        <time>2025-03-11T14:01:57.878Z</time>
      </trkpt>
      <trkpt lat="47.9471" lon="5.00629">
        <ele>271.46</ele>
        <time>2025-03-11T14:01:57.937Z</time>
      </trkpt>
      <trkpt lat="47.94705" lon="5.00634">
        <ele>271.54</ele>
        <time>2025-03-11T14:01:57.996Z</time>
      </trkpt>
      <trkpt lat="47.94696" lon="5.00643">
        <ele>271.62</ele>
        <time>2025-03-11T14:01:58.057Z</time>
      </trkpt>
      <trkpt lat="47.94689" lon="5.00649">
        <ele>271.68</ele>
        <time>2025-03-11T14:01:58.119Z</time>
      </trkpt>
      <trkpt lat="47.94688" lon="5.00649">
        <ele>271.7</ele>
        <time>2025-03-11T14:01:58.182Z</time>
      </trkpt>
      <trkpt lat="47.94678" lon="5.0064">
        <ele>271.69</ele>
        <time>2025-03-11T14:01:58.247Z</time>
      </trkpt>
      <trkpt lat="47.94673" lon="5.00638">
        <ele>271.67</ele>
        <time>2025-03-11T14:01:58.312Z</time>
      </trkpt>
      <trkpt lat="47.94678" lon="5.0064">
        <ele>271.69</ele>
        <time>2025-03-11T14:01:58.378Z</time>
      </trkpt>
      <trkpt lat="47.9469" lon="5.0062">
        <ele>271.46</ele>
        <time>2025-03-11T14:01:58.447Z</time>
      </trkpt>
      <trkpt lat="47.94705" lon="5.00595">
        <ele>271.25</ele>
        <time>2025-03-11T14:01:58.520Z</time>
      </trkpt>
      <trkpt lat="47.94726" lon="5.00568">
        <ele>271</ele>
        <time>2025-03-11T14:01:58.597Z</time>
      </trkpt>
      <trkpt lat="47.94746" lon="5.00548">
        <ele>270.82</ele>
        <time>2025-03-11T14:01:58.678Z</time>
      </trkpt>
      <trkpt lat="47.94757" lon="5.00541">
        <ele>270.68</ele>
        <time>2025-03-11T14:01:58.761Z</time>
      </trkpt>
      <trkpt lat="47.94769" lon="5.00536">
        <ele>270.58</ele>
        <time>2025-03-11T14:01:58.846Z</time>
      </trkpt>
      <trkpt lat="47.94784" lon="5.00529">
        <ele>270.52</ele>
        <time>2025-03-11T14:01:58.933Z</time>
      </trkpt>
      <trkpt lat="47.94796" lon="5.00523">
        <ele>270.51</ele>
        <time>2025-03-11T14:01:59.022Z</time>
      </trkpt>
      <trkpt lat="47.94814" lon="5.00515">
        <ele>270.53</ele>
        <time>2025-03-11T14:01:59.115Z</time>
      </trkpt>
      <trkpt lat="47.94825" lon="5.00502">
        <ele>270.58</ele>
        <time>2025-03-11T14:01:59.210Z</time>
      </trkpt>
      <trkpt lat="47.94837" lon="5.00486">
        <ele>270.67</ele>
        <time>2025-03-11T14:01:59.307Z</time>
      </trkpt>
      <trkpt lat="47.94831" lon="5.00475">
        <ele>270.81</ele>
        <time>2025-03-11T14:01:59.406Z</time>
      </trkpt>
      <trkpt lat="47.9482" lon="5.00464">
        <ele>270.99</ele>
        <time>2025-03-11T14:01:59.507Z</time>
      </trkpt>
      <trkpt lat="47.94814" lon="5.00459">
        <ele>271.22</ele>
        <time>2025-03-11T14:01:59.609Z</time>
      </trkpt>
      <trkpt lat="47.94806" lon="5.00455">
        <ele>271.51</ele>
        <time>2025-03-11T14:01:59.712Z</time>
      </trkpt>
      <trkpt lat="47.94807" lon="5.00457">
        <ele>271.82</ele>
        <time>2025-03-11T14:01:59.815Z</time>
      </trkpt>
      <trkpt lat="47.9481" lon="5.00458">
        <ele>272.17</ele>
        <time>2025-03-11T14:01:59.919Z</time>
      </trkpt>
      <trkpt lat="47.94817" lon="5.00461">
        <ele>272.54</ele>
        <time>2025-03-11T14:02:00.024Z</time>
      </trkpt>
      <trkpt lat="47.94818" lon="5.00462">
        <ele>272.97</ele>
        <time>2025-03-11T14:02:00.129Z</time>
      </trkpt>
      <trkpt lat="47.94812" lon="5.0046">
        <ele>273.45</ele>
        <time>2025-03-11T14:02:00.235Z</time>
      </trkpt>
      <trkpt lat="47.94809" lon="5.00457">
        <ele>273.96</ele>
        <time>2025-03-11T14:02:00.342Z</time>
      </trkpt>
      <trkpt lat="47.94796" lon="5.0045">
        <ele>274.53</ele>
        <time>2025-03-11T14:02:00.451Z</time>
      </trkpt>
      <trkpt lat="47.94793" lon="5.00449">
        <ele>275.1</ele>
        <time>2025-03-11T14:02:00.561Z</time>
      </trkpt>
      <trkpt lat="47.94783" lon="5.00429">
        <ele>275.73</ele>
        <time>2025-03-11T14:02:00.673Z</time>
      </trkpt>
      <trkpt lat="47.94774" lon="5.00396">
        <ele>276.4</ele>
        <time>2025-03-11T14:02:00.789Z</time>
      </trkpt>
      <trkpt lat="47.94764" lon="5.00361">
        <ele>277.09</ele>
        <time>2025-03-11T14:02:00.909Z</time>
      </trkpt>
      <trkpt lat="47.94756" lon="5.00329">
        <ele>277.83</ele>
        <time>2025-03-11T14:02:01.033Z</time>
      </trkpt>
      <trkpt lat="47.94753" lon="5.003">
        <ele>278.58</ele>
        <time>2025-03-11T14:02:01.160Z</time>
      </trkpt>
      <trkpt lat="47.94752" lon="5.00268">
        <ele>279.37</ele>
        <time>2025-03-11T14:02:01.290Z</time>
      </trkpt>
      <trkpt lat="47.94751" lon="5.00236">
        <ele>280.13</ele>
        <time>2025-03-11T14:02:01.424Z</time>
      </trkpt>
      <trkpt lat="47.94741" lon="5.00217">
        <ele>280.75</ele>
        <time>2025-03-11T14:02:01.560Z</time>
      </trkpt>
      <trkpt lat="47.9473" lon="5.00198">
        <ele>281.3</ele>
        <time>2025-03-11T14:02:01.699Z</time>
      </trkpt>
      <trkpt lat="47.94723" lon="5.00189">
        <ele>281.78</ele>
        <time>2025-03-11T14:02:01.840Z</time>
      </trkpt>
      <trkpt lat="47.94722" lon="5.00187">
        <ele>282.21</ele>
        <time>2025-03-11T14:02:01.981Z</time>
      </trkpt>
      <trkpt lat="47.94731" lon="5.00177">
        <ele>282.61</ele>
        <time>2025-03-11T14:02:02.124Z</time>
      </trkpt>
      <trkpt lat="47.94747" lon="5.00175">
        <ele>282.93</ele>
        <time>2025-03-11T14:02:02.269Z</time>
      </trkpt>
      <trkpt lat="47.94778" lon="5.00171">
        <ele>283.11</ele>
        <time>2025-03-11T14:02:02.419Z</time>
      </trkpt>
      <trkpt lat="47.94799" lon="5.00169">
        <ele>283.22</ele>
        <time>2025-03-11T14:02:02.573Z</time>
      </trkpt>
      <trkpt lat="47.94821" lon="5.00167">
        <ele>283.3</ele>
        <time>2025-03-11T14:02:02.730Z</time>
      </trkpt>
      <trkpt lat="47.94841" lon="5.00164">
        <ele>283.35</ele>
        <time>2025-03-11T14:02:02.890Z</time>
      </trkpt>
      <trkpt lat="47.94862" lon="5.00162">
        <ele>283.32</ele>
        <time>2025-03-11T14:02:03.054Z</time>
      </trkpt>
      <trkpt lat="47.94881" lon="5.00163">
        <ele>283.29</ele>
        <time>2025-03-11T14:02:03.221Z</time>
      </trkpt>
      <trkpt lat="47.949" lon="5.00163">
        <ele>283.24</ele>
        <time>2025-03-11T14:02:03.391Z</time>
      </trkpt>
      <trkpt lat="47.94928" lon="5.0018">
        <ele>283.23</ele>
        <time>2025-03-11T14:02:03.566Z</time>
      </trkpt>
      <trkpt lat="47.94948" lon="5.00202">
        <ele>283.17</ele>
        <time>2025-03-11T14:02:03.745Z</time>
      </trkpt>
      <trkpt lat="47.94954" lon="5.00209">
        <ele>283.09</ele>
        <time>2025-03-11T14:02:03.925Z</time>
      </trkpt>
      <trkpt lat="47.94959" lon="5.00205">
        <ele>283.03</ele>
        <time>2025-03-11T14:02:04.106Z</time>
      </trkpt>
      <trkpt lat="47.94959" lon="5.00202">
        <ele>282.93</ele>
        <time>2025-03-11T14:02:04.287Z</time>
      </trkpt>
      <trkpt lat="47.94959" lon="5.00197">
        <ele>282.82</ele>
        <time>2025-03-11T14:02:04.469Z</time>
      </trkpt>
      <trkpt lat="47.94958" lon="5.00193">
        <ele>282.68</ele>
        <time>2025-03-11T14:02:04.651Z</time>
      </trkpt>
      <trkpt lat="47.9495" lon="5.00169">
        <ele>282.57</ele>
        <time>2025-03-11T14:02:04.836Z</time>
      </trkpt>
      <trkpt lat="47.94944" lon="5.00144">
        <ele>282.45</ele>
        <time>2025-03-11T14:02:05.024Z</time>
      </trkpt>
      <trkpt lat="47.94937" lon="5.00118">
        <ele>282.31</ele>
        <time>2025-03-11T14:02:05.215Z</time>
      </trkpt>
      <trkpt lat="47.94931" lon="5.00095">
        <ele>282.15</ele>
        <time>2025-03-11T14:02:05.408Z</time>
      </trkpt>
      <trkpt lat="47.94923" lon="5.00068">
        <ele>282.04</ele>
        <time>2025-03-11T14:02:05.605Z</time>
      </trkpt>
      <trkpt lat="47.94918" lon="5.00047">
        <ele>281.87</ele>
        <time>2025-03-11T14:02:05.804Z</time>
      </trkpt>
      <trkpt lat="47.94925" lon="5.00057">
        <ele>281.47</ele>
        <time>2025-03-11T14:02:06.005Z</time>
      </trkpt>
      <trkpt lat="47.94922" lon="5.00063">
        <ele>281.04</ele>
        <time>2025-03-11T14:02:06.206Z</time>
      </trkpt>
      <trkpt lat="47.94929" lon="5.0009">
        <ele>280.44</ele>
        <time>2025-03-11T14:02:06.411Z</time>
      </trkpt>
      <trkpt lat="47.94935" lon="5.00112">
        <ele>279.84</ele>
        <time>2025-03-11T14:02:06.618Z</time>
      </trkpt>
      <trkpt lat="47.94941" lon="5.00134">
        <ele>279.23</ele>
        <time>2025-03-11T14:02:06.828Z</time>
      </trkpt>
      <trkpt lat="47.94951" lon="5.00172">
        <ele>278.54</ele>
        <time>2025-03-11T14:02:07.042Z</time>
      </trkpt>
      <trkpt lat="47.94958" lon="5.00194">
        <ele>277.88</ele>
        <time>2025-03-11T14:02:07.259Z</time>
      </trkpt>
      <trkpt lat="47.94964" lon="5.00225">
        <ele>277.17</ele>
        <time>2025-03-11T14:02:07.479Z</time>
      </trkpt>
      <trkpt lat="47.9497" lon="5.00237">
        <ele>276.48</ele>
        <time>2025-03-11T14:02:07.701Z</time>
      </trkpt>
      <trkpt lat="47.94978" lon="5.00259">
        <ele>275.8</ele>
        <time>2025-03-11T14:02:07.926Z</time>
      </trkpt>
      <trkpt lat="47.94986" lon="5.00281">
        <ele>275.12</ele>
        <time>2025-03-11T14:02:08.153Z</time>
      </trkpt>
      <trkpt lat="47.94994" lon="5.00309">
        <ele>274.35</ele>
        <time>2025-03-11T14:02:08.383Z</time>
      </trkpt>
      <trkpt lat="47.95003" lon="5.00336">
        <ele>273.61</ele>
        <time>2025-03-11T14:02:08.617Z</time>
      </trkpt>
      <trkpt lat="47.95011" lon="5.00366">
        <ele>272.86</ele>
        <time>2025-03-11T14:02:08.854Z</time>
      </trkpt>
      <trkpt lat="47.95019" lon="5.00396">
        <ele>272.18</ele>
        <time>2025-03-11T14:02:09.095Z</time>
      </trkpt>
      <trkpt lat="47.95027" lon="5.00422">
        <ele>271.57</ele>
        <time>2025-03-11T14:02:09.339Z</time>
      </trkpt>
      <trkpt lat="47.95034" lon="5.00448">
        <ele>271</ele>
        <time>2025-03-11T14:02:09.586Z</time>
      </trkpt>
      <trkpt lat="47.95042" lon="5.00482">
        <ele>270.48</ele>
        <time>2025-03-11T14:02:09.837Z</time>
      </trkpt>
      <trkpt lat="47.95048" lon="5.00504">
        <ele>270.04</ele>
        <time>2025-03-11T14:02:10.090Z</time>
      </trkpt>
      <trkpt lat="47.95054" lon="5.00526">
        <ele>269.66</ele>
        <time>2025-03-11T14:02:10.346Z</time>
      </trkpt>
      <trkpt lat="47.95064" lon="5.00562">
        <ele>269.38</ele>
        <time>2025-03-11T14:02:10.606Z</time>
      </trkpt>
      <trkpt lat="47.95068" lon="5.00574">
        <ele>269.13</ele>
        <time>2025-03-11T14:02:10.867Z</time>
      </trkpt>
      <trkpt lat="47.95063" lon="5.00589">
        <ele>268.92</ele>
        <time>2025-03-11T14:02:11.130Z</time>
      </trkpt>
      <trkpt lat="47.9506" lon="5.0059">
        <ele>268.73</ele>
        <time>2025-03-11T14:02:11.394Z</time>
      </trkpt>
      <trkpt lat="47.95039" lon="5.00598">
        <ele>268.55</ele>
        <time>2025-03-11T14:02:11.661Z</time>
      </trkpt>
      <trkpt lat="47.9502" lon="5.00608">
        <ele>268.43</ele>
        <time>2025-03-11T14:02:11.931Z</time>
      </trkpt>
      <trkpt lat="47.95001" lon="5.00617">
        <ele>268.32</ele>
        <time>2025-03-11T14:02:12.204Z</time>
      </trkpt>
      <trkpt lat="47.94976" lon="5.00642">
        <ele>268.28</ele>
        <time>2025-03-11T14:02:12.482Z</time>
      </trkpt>
      <trkpt lat="47.94972" lon="5.00647">
        <ele>268.32</ele>
        <time>2025-03-11T14:02:12.761Z</time>
      </trkpt>
      <trkpt lat="47.94962" lon="5.00662">
        <ele>268.43</ele>
        <time>2025-03-11T14:02:13.042Z</time>
      </trkpt>
      <trkpt lat="47.94947" lon="5.00686">
        <ele>268.55</ele>
        <time>2025-03-11T14:02:13.327Z</time>
      </trkpt>
      <trkpt lat="47.9494" lon="5.00695">
        <ele>268.71</ele>
        <time>2025-03-11T14:02:13.613Z</time>
      </trkpt>
      <trkpt lat="47.94929" lon="5.00712">
        <ele>268.88</ele>
        <time>2025-03-11T14:02:13.902Z</time>
      </trkpt>
      <trkpt lat="47.94918" lon="5.00728">
        <ele>269.09</ele>
        <time>2025-03-11T14:02:14.193Z</time>
      </trkpt>
      <trkpt lat="47.94906" lon="5.00747">
        <ele>269.33</ele>
        <time>2025-03-11T14:02:14.487Z</time>
      </trkpt>
      <trkpt lat="47.94903" lon="5.00752">
        <ele>269.56</ele>
        <time>2025-03-11T14:02:14.782Z</time>
      </trkpt>
      <trkpt lat="47.94893" lon="5.00772">
        <ele>269.82</ele>
        <time>2025-03-11T14:02:15.080Z</time>
      </trkpt>
      <trkpt lat="47.94882" lon="5.00793">
        <ele>270.11</ele>
        <time>2025-03-11T14:02:15.380Z</time>
      </trkpt>
      <trkpt lat="47.9487" lon="5.00817">
        <ele>270.41</ele>
        <time>2025-03-11T14:02:15.684Z</time>
      </trkpt>
      <trkpt lat="47.94868" lon="5.0082">
        <ele>270.68</ele>
        <time>2025-03-11T14:02:15.988Z</time>
      </trkpt>
      <trkpt lat="47.94861" lon="5.00817">
        <ele>270.94</ele>
        <time>2025-03-11T14:02:16.293Z</time>
      </trkpt>
      <trkpt lat="47.94846" lon="5.00805">
        <ele>271.18</ele>
        <time>2025-03-11T14:02:16.601Z</time>
      </trkpt>
      <trkpt lat="47.94829" lon="5.0079">
        <ele>271.44</ele>
        <time>2025-03-11T14:02:16.912Z</time>
      </trkpt>
      <trkpt lat="47.94824" lon="5.00786">
        <ele>271.7</ele>
        <time>2025-03-11T14:02:17.224Z</time>
      </trkpt>
      <trkpt lat="47.94822" lon="5.00783">
        <ele>271.95</ele>
        <time>2025-03-11T14:02:17.537Z</time>
      </trkpt>
      <trkpt lat="47.94821" lon="5.0079">
        <ele>272.19</ele>
        <time>2025-03-11T14:02:17.850Z</time>
      </trkpt>
      <trkpt lat="47.94848" lon="5.00807">
        <ele>272.4</ele>
        <time>2025-03-11T14:02:18.168Z</time>
      </trkpt>
      <trkpt lat="47.94861" lon="5.00817">
        <ele>272.63</ele>
        <time>2025-03-11T14:02:18.488Z</time>
      </trkpt>
      <trkpt lat="47.94866" lon="5.00825">
        <ele>272.86</ele>
        <time>2025-03-11T14:02:18.809Z</time>
      </trkpt>
      <trkpt lat="47.94864" lon="5.00827">
        <ele>273.06</ele>
        <time>2025-03-11T14:02:19.131Z</time>
      </trkpt>
      <trkpt lat="47.94854" lon="5.00848">
        <ele>273.25</ele>
        <time>2025-03-11T14:02:19.455Z</time>
      </trkpt>
      <trkpt lat="47.94842" lon="5.00881">
        <ele>273.48</ele>
        <time>2025-03-11T14:02:19.784Z</time>
      </trkpt>
      <trkpt lat="47.94827" lon="5.0092">
        <ele>273.73</ele>
        <time>2025-03-11T14:02:20.117Z</time>
      </trkpt>
      <trkpt lat="47.94826" lon="5.00925">
        <ele>273.9</ele>
        <time>2025-03-11T14:02:20.451Z</time>
      </trkpt>
      <trkpt lat="47.94822" lon="5.00949">
        <ele>274.05</ele>
        <time>2025-03-11T14:02:20.788Z</time>
      </trkpt>
      <trkpt lat="47.94815" lon="5.0099">
        <ele>274.12</ele>
        <time>2025-03-11T14:02:21.129Z</time>
      </trkpt>
      <trkpt lat="47.94811" lon="5.01033">
        <ele>274.24</ele>
        <time>2025-03-11T14:02:21.475Z</time>
      </trkpt>
      <trkpt lat="47.94809" lon="5.01048">
        <ele>274.32</ele>
        <time>2025-03-11T14:02:21.822Z</time>
      </trkpt>
      <trkpt lat="47.94805" lon="5.01051">
        <ele>274.42</ele>
        <time>2025-03-11T14:02:22.170Z</time>
      </trkpt>
      <trkpt lat="47.94787" lon="5.01048">
        <ele>274.49</ele>
        <time>2025-03-11T14:02:22.521Z</time>
      </trkpt>
      <trkpt lat="47.94769" lon="5.01045">
        <ele>274.6</ele>
        <time>2025-03-11T14:02:22.875Z</time>
      </trkpt>
      <trkpt lat="47.94751" lon="5.01043">
        <ele>274.73</ele>
        <time>2025-03-11T14:02:23.232Z</time>
      </trkpt>
      <trkpt lat="47.9472" lon="5.01041">
        <ele>274.91</ele>
        <time>2025-03-11T14:02:23.594Z</time>
      </trkpt>
      <trkpt lat="47.94696" lon="5.01039">
        <ele>275.04</ele>
        <time>2025-03-11T14:02:23.960Z</time>
      </trkpt>
      <trkpt lat="47.94673" lon="5.01037">
        <ele>275.14</ele>
        <time>2025-03-11T14:02:24.329Z</time>
      </trkpt>
      <trkpt lat="47.94655" lon="5.01035">
        <ele>275.3</ele>
        <time>2025-03-11T14:02:24.701Z</time>
      </trkpt>
      <trkpt lat="47.94637" lon="5.01033">
        <ele>275.45</ele>
        <time>2025-03-11T14:02:25.076Z</time>
      </trkpt>
      <trkpt lat="47.94628" lon="5.01032">
        <ele>275.62</ele>
        <time>2025-03-11T14:02:25.453Z</time>
      </trkpt>
      <trkpt lat="47.94614" lon="5.01025">
        <ele>275.77</ele>
        <time>2025-03-11T14:02:25.832Z</time>
      </trkpt>
      <trkpt lat="47.94597" lon="5.01015">
        <ele>275.92</ele>
        <time>2025-03-11T14:02:26.214Z</time>
      </trkpt>
      <trkpt lat="47.94579" lon="5.01004">
        <ele>276.11</ele>
        <time>2025-03-11T14:02:26.599Z</time>
      </trkpt>
      <trkpt lat="47.94563" lon="5.01001">
        <ele>276.29</ele>
        <time>2025-03-11T14:02:26.987Z</time>
      </trkpt>
      <trkpt lat="47.94547" lon="5.00997">
        <ele>276.49</ele>
        <time>2025-03-11T14:02:27.377Z</time>
      </trkpt>
      <trkpt lat="47.94517" lon="5.00989">
        <ele>276.69</ele>
        <time>2025-03-11T14:02:27.772Z</time>
      </trkpt>
      <trkpt lat="47.94494" lon="5.00983">
        <ele>276.92</ele>
        <time>2025-03-11T14:02:28.171Z</time>
      </trkpt>
      <trkpt lat="47.94488" lon="5.00982">
        <ele>277.12</ele>
        <time>2025-03-11T14:02:28.571Z</time>
      </trkpt>
      <trkpt lat="47.94467" lon="5.00978">
        <ele>277.32</ele>
        <time>2025-03-11T14:02:28.974Z</time>
      </trkpt>
      <trkpt lat="47.94447" lon="5.00975">
        <ele>277.54</ele>
        <time>2025-03-11T14:02:29.380Z</time>
      </trkpt>
      <trkpt lat="47.9443" lon="5.00973">
        <ele>277.77</ele>
        <time>2025-03-11T14:02:29.789Z</time>
      </trkpt>
      <trkpt lat="47.94414" lon="5.00972">
        <ele>278.01</ele>
        <time>2025-03-11T14:02:30.201Z</time>
      </trkpt>
      <trkpt lat="47.94397" lon="5.00972">
        <ele>278.24</ele>
        <time>2025-03-11T14:02:30.615Z</time>
      </trkpt>
      <trkpt lat="47.9438" lon="5.00972">
        <ele>278.47</ele>
        <time>2025-03-11T14:02:31.032Z</time>
      </trkpt>
      <trkpt lat="47.94362" lon="5.00972">
        <ele>278.67</ele>
        <time>2025-03-11T14:02:31.452Z</time>
      </trkpt>
      <trkpt lat="47.94349" lon="5.00972">
        <ele>278.88</ele>
        <time>2025-03-11T14:02:31.874Z</time>
      </trkpt>
      <trkpt lat="47.94329" lon="5.00972">
        <ele>279.06</ele>
        <time>2025-03-11T14:02:32.299Z</time>
      </trkpt>
      <trkpt lat="47.94308" lon="5.00972">
        <ele>279.21</ele>
        <time>2025-03-11T14:02:32.728Z</time>
      </trkpt>
      <trkpt lat="47.94289" lon="5.00974">
        <ele>279.37</ele>
        <time>2025-03-11T14:02:33.160Z</time>
      </trkpt>
      <trkpt lat="47.94269" lon="5.00976">
        <ele>279.57</ele>
        <time>2025-03-11T14:02:33.595Z</time>
      </trkpt>
      <trkpt lat="47.94243" lon="5.00979">
        <ele>279.78</ele>
        <time>2025-03-11T14:02:34.034Z</time>
      </trkpt>
      <trkpt lat="47.94218" lon="5.00982">
        <ele>279.9</ele>
        <time>2025-03-11T14:02:34.477Z</time>
      </trkpt>
      <trkpt lat="47.94201" lon="5.00985">
        <ele>279.99</ele>
        <time>2025-03-11T14:02:34.923Z</time>
      </trkpt>
      <trkpt lat="47.94184" lon="5.00988">
        <ele>280.07</ele>
        <time>2025-03-11T14:02:35.372Z</time>
      </trkpt>
      <trkpt lat="47.94162" lon="5.00993">
        <ele>280.14</ele>
        <time>2025-03-11T14:02:35.824Z</time>
      </trkpt>
      <trkpt lat="47.94141" lon="5.00998">
        <ele>280.22</ele>
        <time>2025-03-11T14:02:36.280Z</time>
      </trkpt>
      <trkpt lat="47.94122" lon="5.0101">
        <ele>280.27</ele>
        <time>2025-03-11T14:02:36.739Z</time>
      </trkpt>
      <trkpt lat="47.94102" lon="5.01022">
        <ele>280.3</ele>
        <time>2025-03-11T14:02:37.201Z</time>
      </trkpt>
      <trkpt lat="47.9408" lon="5.01039">
        <ele>280.27</ele>
        <time>2025-03-11T14:02:37.667Z</time>
      </trkpt>
      <trkpt lat="47.94058" lon="5.01056">
        <ele>280.31</ele>
        <time>2025-03-11T14:02:38.137Z</time>
      </trkpt>
      <trkpt lat="47.94042" lon="5.01075">
        <ele>280.52</ele>
        <time>2025-03-11T14:02:38.610Z</time>
      </trkpt>
      <trkpt lat="47.94027" lon="5.01094">
        <ele>280.76</ele>
        <time>2025-03-11T14:02:39.087Z</time>
      </trkpt>
      <trkpt lat="47.9401" lon="5.01117">
        <ele>280.99</ele>
        <time>2025-03-11T14:02:39.567Z</time>
      </trkpt>
      <trkpt lat="47.93994" lon="5.0114">
        <ele>281.07</ele>
        <time>2025-03-11T14:02:40.051Z</time>
      </trkpt>
      <trkpt lat="47.93982" lon="5.01161">
        <ele>281.1</ele>
        <time>2025-03-11T14:02:40.538Z</time>
      </trkpt>
      <trkpt lat="47.93969" lon="5.01182">
        <ele>281.12</ele>
        <time>2025-03-11T14:02:41.028Z</time>
      </trkpt>
      <trkpt lat="47.93958" lon="5.01203">
        <ele>281.16</ele>
        <time>2025-03-11T14:02:41.521Z</time>
      </trkpt>
      <trkpt lat="47.93947" lon="5.01224">
        <ele>281.17</ele>
        <time>2025-03-11T14:02:42.017Z</time>
      </trkpt>
      <trkpt lat="47.93937" lon="5.01244">
        <ele>281.19</ele>
        <time>2025-03-11T14:02:42.515Z</time>
      </trkpt>
      <trkpt lat="47.93927" lon="5.01264">
        <ele>281.23</ele>
        <time>2025-03-11T14:02:43.016Z</time>
      </trkpt>
      <trkpt lat="47.93921" lon="5.01277">
        <ele>281.19</ele>
        <time>2025-03-11T14:02:43.519Z</time>
      </trkpt>
      <trkpt lat="47.93915" lon="5.01288">
        <ele>281.11</ele>
        <time>2025-03-11T14:02:44.023Z</time>
      </trkpt>
      <trkpt lat="47.93911" lon="5.01297">
        <ele>281</ele>
        <time>2025-03-11T14:02:44.528Z</time>
      </trkpt>
      <trkpt lat="47.93905" lon="5.01309">
        <ele>280.85</ele>
        <time>2025-03-11T14:02:45.035Z</time>
      </trkpt>
      <trkpt lat="47.93902" lon="5.01315">
        <ele>280.67</ele>
        <time>2025-03-11T14:02:45.543Z</time>
      </trkpt>
      <trkpt lat="47.93877" lon="5.0134">
        <ele>280.43</ele>
        <time>2025-03-11T14:02:46.056Z</time>
      </trkpt>
      <trkpt lat="47.93855" lon="5.01359">
        <ele>280.17</ele>
        <time>2025-03-11T14:02:46.573Z</time>
      </trkpt>
      <trkpt lat="47.93849" lon="5.01352">
        <ele>279.91</ele>
        <time>2025-03-11T14:02:47.091Z</time>
      </trkpt>
      <trkpt lat="47.93843" lon="5.01344">
        <ele>279.64</ele>
        <time>2025-03-11T14:02:47.610Z</time>
      </trkpt>
      <trkpt lat="47.93836" lon="5.01336">
        <ele>279.39</ele>
        <time>2025-03-11T14:02:48.131Z</time>
      </trkpt>
      <trkpt lat="47.93828" lon="5.01327">
        <ele>279.12</ele>
        <time>2025-03-11T14:02:48.653Z</time>
      </trkpt>
      <trkpt lat="47.93823" lon="5.01317">
        <ele>278.86</ele>
        <time>2025-03-11T14:02:49.177Z</time>
      </trkpt>
      <trkpt lat="47.93817" lon="5.01305">
        <ele>278.59</ele>
        <time>2025-03-11T14:02:49.702Z</time>
      </trkpt>
      <trkpt lat="47.93812" lon="5.01296">
        <ele>278.32</ele>
        <time>2025-03-11T14:02:50.228Z</time>
      </trkpt>
      <trkpt lat="47.93804" lon="5.01279">
        <ele>278.03</ele>
        <time>2025-03-11T14:02:50.757Z</time>
      </trkpt>
      <trkpt lat="47.93794" lon="5.01257">
        <ele>277.71</ele>
        <time>2025-03-11T14:02:51.288Z</time>
      </trkpt>
      <trkpt lat="47.93786" lon="5.01243">
        <ele>277.43</ele>
        <time>2025-03-11T14:02:51.821Z</time>
      </trkpt>
      <trkpt lat="47.93779" lon="5.0123">
        <ele>277.18</ele>
        <time>2025-03-11T14:02:52.356Z</time>
      </trkpt>
      <trkpt lat="47.93769" lon="5.01224">
        <ele>276.97</ele>
        <time>2025-03-11T14:02:52.893Z</time>
      </trkpt>
      <trkpt lat="47.93765" lon="5.01223">
        <ele>276.79</ele>
        <time>2025-03-11T14:02:53.431Z</time>
      </trkpt>
      <trkpt lat="47.93749" lon="5.01217">
        <ele>276.57</ele>
        <time>2025-03-11T14:02:53.971Z</time>
      </trkpt>
      <trkpt lat="47.93738" lon="5.01219">
        <ele>276.41</ele>
        <time>2025-03-11T14:02:54.513Z</time>
      </trkpt>
      <trkpt lat="47.93728" lon="5.01221">
        <ele>276.33</ele>
        <time>2025-03-11T14:02:55.057Z</time>
      </trkpt>
      <trkpt lat="47.93707" lon="5.01232">
        <ele>276.29</ele>
        <time>2025-03-11T14:02:55.604Z</time>
      </trkpt>
      <trkpt lat="47.93697" lon="5.01239">
        <ele>276.35</ele>
        <time>2025-03-11T14:02:56.153Z</time>
      </trkpt>
      <trkpt lat="47.93688" lon="5.01248">
        <ele>276.48</ele>
        <time>2025-03-11T14:02:56.704Z</time>
      </trkpt>
      <trkpt lat="47.93685" lon="5.01254">
        <ele>276.6</ele>
        <time>2025-03-11T14:02:57.256Z</time>
      </trkpt>
      <trkpt lat="47.93682" lon="5.0126">
        <ele>276.78</ele>
        <time>2025-03-11T14:02:57.808Z</time>
      </trkpt>
      <trkpt lat="47.93672" lon="5.01289">
        <ele>277</ele>
        <time>2025-03-11T14:02:58.364Z</time>
      </trkpt>
      <trkpt lat="47.93666" lon="5.01314">
        <ele>277.28</ele>
        <time>2025-03-11T14:02:58.923Z</time>
      </trkpt>
      <trkpt lat="47.9366" lon="5.01338">
        <ele>277.55</ele>
        <time>2025-03-11T14:02:59.484Z</time>
      </trkpt>
      <trkpt lat="47.93653" lon="5.01367">
        <ele>277.93</ele>
        <time>2025-03-11T14:03:00.049Z</time>
      </trkpt>
      <trkpt lat="47.93647" lon="5.01395">
        <ele>278.4</ele>
        <time>2025-03-11T14:03:00.617Z</time>
      </trkpt>
      <trkpt lat="47.93643" lon="5.01426">
        <ele>278.85</ele>
        <time>2025-03-11T14:03:01.188Z</time>
      </trkpt>
      <trkpt lat="47.9364" lon="5.01457">
        <ele>279.34</ele>
        <time>2025-03-11T14:03:01.763Z</time>
      </trkpt>
      <trkpt lat="47.93636" lon="5.01493">
        <ele>279.84</ele>
        <time>2025-03-11T14:03:02.342Z</time>
      </trkpt>
      <trkpt lat="47.93635" lon="5.01511">
        <ele>280.33</ele>
        <time>2025-03-11T14:03:02.923Z</time>
      </trkpt>
      <trkpt lat="47.93634" lon="5.0152">
        <ele>280.83</ele>
        <time>2025-03-11T14:03:03.505Z</time>
      </trkpt>
      <trkpt lat="47.93631" lon="5.01547">
        <ele>281.3</ele>
        <time>2025-03-11T14:03:04.090Z</time>
      </trkpt>
      <trkpt lat="47.93626" lon="5.01575">
        <ele>281.83</ele>
        <time>2025-03-11T14:03:04.678Z</time>
      </trkpt>
      <trkpt lat="47.93621" lon="5.01602">
        <ele>282.37</ele>
        <time>2025-03-11T14:03:05.269Z</time>
      </trkpt>
      <trkpt lat="47.93617" lon="5.0162">
        <ele>282.94</ele>
        <time>2025-03-11T14:03:05.862Z</time>
      </trkpt>
      <trkpt lat="47.9361" lon="5.01647">
        <ele>283.54</ele>
        <time>2025-03-11T14:03:06.458Z</time>
      </trkpt>
      <trkpt lat="47.93597" lon="5.01686">
        <ele>284.16</ele>
        <time>2025-03-11T14:03:07.058Z</time>
      </trkpt>
      <trkpt lat="47.93583" lon="5.01721">
        <ele>284.63</ele>
        <time>2025-03-11T14:03:07.663Z</time>
      </trkpt>
      <trkpt lat="47.93572" lon="5.01742">
        <ele>285.07</ele>
        <time>2025-03-11T14:03:08.271Z</time>
      </trkpt>
      <trkpt lat="47.93561" lon="5.01763">
        <ele>285.57</ele>
        <time>2025-03-11T14:03:08.882Z</time>
      </trkpt>
      <trkpt lat="47.9355" lon="5.01789">
        <ele>285.95</ele>
        <time>2025-03-11T14:03:09.496Z</time>
      </trkpt>
      <trkpt lat="47.9354" lon="5.01814">
        <ele>286.08</ele>
        <time>2025-03-11T14:03:10.113Z</time>
      </trkpt>
      <trkpt lat="47.93527" lon="5.01851">
        <ele>286.3</ele>
        <time>2025-03-11T14:03:10.735Z</time>
      </trkpt>
      <trkpt lat="47.93514" lon="5.01887">
        <ele>286.46</ele>
        <time>2025-03-11T14:03:11.361Z</time>
      </trkpt>
      <trkpt lat="47.93499" lon="5.0191">
        <ele>286.62</ele>
        <time>2025-03-11T14:03:11.990Z</time>
      </trkpt>
      <trkpt lat="47.93483" lon="5.01933">
        <ele>286.61</ele>
        <time>2025-03-11T14:03:12.623Z</time>
      </trkpt>
      <trkpt lat="47.93478" lon="5.01938">
        <ele>286.76</ele>
        <time>2025-03-11T14:03:13.257Z</time>
      </trkpt>
      <trkpt lat="47.93463" lon="5.01951">
        <ele>286.87</ele>
        <time>2025-03-11T14:03:13.894Z</time>
      </trkpt>
      <trkpt lat="47.93446" lon="5.01961">
        <ele>286.98</ele>
        <time>2025-03-11T14:03:14.534Z</time>
      </trkpt>
      <trkpt lat="47.93429" lon="5.01971">
        <ele>287.08</ele>
        <time>2025-03-11T14:03:15.176Z</time>
      </trkpt>
      <trkpt lat="47.93423" lon="5.01972">
        <ele>287.07</ele>
        <time>2025-03-11T14:03:15.819Z</time>
      </trkpt>
      <trkpt lat="47.93399" lon="5.0198">
        <ele>287.05</ele>
        <time>2025-03-11T14:03:16.467Z</time>
      </trkpt>
      <trkpt lat="47.93369" lon="5.01988">
        <ele>286.8</ele>
        <time>2025-03-11T14:03:17.119Z</time>
      </trkpt>
      <trkpt lat="47.93342" lon="5.01994">
        <ele>286.5</ele>
        <time>2025-03-11T14:03:17.776Z</time>
      </trkpt>
      <trkpt lat="47.93321" lon="5.01995">
        <ele>286.27</ele>
        <time>2025-03-11T14:03:18.436Z</time>
      </trkpt>
      <trkpt lat="47.93301" lon="5.01996">
        <ele>286.03</ele>
        <time>2025-03-11T14:03:19.099Z</time>
      </trkpt>
      <trkpt lat="47.93276" lon="5.01997">
        <ele>285.8</ele>
        <time>2025-03-11T14:03:19.766Z</time>
      </trkpt>
      <trkpt lat="47.93252" lon="5.01999">
        <ele>285.6</ele>
        <time>2025-03-11T14:03:20.437Z</time>
      </trkpt>
      <trkpt lat="47.93228" lon="5.02">
        <ele>285.42</ele>
        <time>2025-03-11T14:03:21.112Z</time>
      </trkpt>
      <trkpt lat="47.93205" lon="5.02001">
        <ele>285.21</ele>
        <time>2025-03-11T14:03:21.791Z</time>
      </trkpt>
      <trkpt lat="47.93176" lon="5.02006">
        <ele>284.99</ele>
        <time>2025-03-11T14:03:22.474Z</time>
      </trkpt>
      <trkpt lat="47.93159" lon="5.02015">
        <ele>284.53</ele>
        <time>2025-03-11T14:03:23.160Z</time>
      </trkpt>
      <trkpt lat="47.93142" lon="5.02023">
        <ele>284.08</ele>
        <time>2025-03-11T14:03:23.849Z</time>
      </trkpt>
      <trkpt lat="47.9312" lon="5.02031">
        <ele>283.55</ele>
        <time>2025-03-11T14:03:24.542Z</time>
      </trkpt>
      <trkpt lat="47.93098" lon="5.02039">
        <ele>282.96</ele>
        <time>2025-03-11T14:03:25.238Z</time>
      </trkpt>
      <trkpt lat="47.93076" lon="5.02047">
        <ele>282.56</ele>
        <time>2025-03-11T14:03:25.938Z</time>
      </trkpt>
      <trkpt lat="47.93054" lon="5.02055">
        <ele>282.15</ele>
        <time>2025-03-11T14:03:26.642Z</time>
      </trkpt>
      <trkpt lat="47.93033" lon="5.02066">
        <ele>281.77</ele>
        <time>2025-03-11T14:03:27.349Z</time>
      </trkpt>
      <trkpt lat="47.93012" lon="5.02077">
        <ele>281.32</ele>
        <time>2025-03-11T14:03:28.060Z</time>
      </trkpt>
      <trkpt lat="47.92988" lon="5.02085">
        <ele>280.98</ele>
        <time>2025-03-11T14:03:28.775Z</time>
      </trkpt>
      <trkpt lat="47.92964" lon="5.02092">
        <ele>280.59</ele>
        <time>2025-03-11T14:03:29.494Z</time>
      </trkpt>
      <trkpt lat="47.92944" lon="5.02096">
        <ele>280.28</ele>
        <time>2025-03-11T14:03:30.216Z</time>
      </trkpt>
      <trkpt lat="47.92923" lon="5.021">
        <ele>280.01</ele>
        <time>2025-03-11T14:03:30.941Z</time>
      </trkpt>
      <trkpt lat="47.92904" lon="5.02107">
        <ele>279.77</ele>
        <time>2025-03-11T14:03:31.669Z</time>
      </trkpt>
      <trkpt lat="47.92901" lon="5.02116">
        <ele>279.53</ele>
        <time>2025-03-11T14:03:32.398Z</time>
      </trkpt>
      <trkpt lat="47.92901" lon="5.02123">
        <ele>279.31</ele>
        <time>2025-03-11T14:03:33.128Z</time>
      </trkpt>
      <trkpt lat="47.92902" lon="5.02143">
        <ele>279.11</ele>
        <time>2025-03-11T14:03:33.860Z</time>
      </trkpt>
      <trkpt lat="47.92904" lon="5.02163">
        <ele>278.94</ele>
        <time>2025-03-11T14:03:34.594Z</time>
      </trkpt>
      <trkpt lat="47.92906" lon="5.02169">
        <ele>278.8</ele>
        <time>2025-03-11T14:03:35.329Z</time>
      </trkpt>
      <trkpt lat="47.92913" lon="5.022">
        <ele>278.7</ele>
        <time>2025-03-11T14:03:36.068Z</time>
      </trkpt>
      <trkpt lat="47.92919" lon="5.02222">
        <ele>278.63</ele>
        <time>2025-03-11T14:03:36.809Z</time>
      </trkpt>
      <trkpt lat="47.92925" lon="5.02245">
        <ele>278.55</ele>
        <time>2025-03-11T14:03:37.553Z</time>
      </trkpt>
      <trkpt lat="47.92918" lon="5.02266">
        <ele>278.6</ele>
        <time>2025-03-11T14:03:38.299Z</time>
      </trkpt>
      <trkpt lat="47.92912" lon="5.02291">
        <ele>278.64</ele>
        <time>2025-03-11T14:03:39.048Z</time>
      </trkpt>
      <trkpt lat="47.92912" lon="5.02292">
        <ele>278.66</ele>
        <time>2025-03-11T14:03:39.797Z</time>
      </trkpt>
      <trkpt lat="47.92913" lon="5.02289">
        <ele>278.7</ele>
        <time>2025-03-11T14:03:40.547Z</time>
      </trkpt>
      <trkpt lat="47.92913" lon="5.02286">
        <ele>278.76</ele>
        <time>2025-03-11T14:03:41.297Z</time>
      </trkpt>
      <trkpt lat="47.92917" lon="5.02269">
        <ele>278.82</ele>
        <time>2025-03-11T14:03:42.049Z</time>
      </trkpt>
      <trkpt lat="47.92918" lon="5.02263">
        <ele>278.93</ele>
        <time>2025-03-11T14:03:42.802Z</time>
      </trkpt>
      <trkpt lat="47.92929" lon="5.02261">
        <ele>278.98</ele>
        <time>2025-03-11T14:03:43.556Z</time>
      </trkpt>
      <trkpt lat="47.92931" lon="5.02267">
        <ele>279.18</ele>
        <time>2025-03-11T14:03:44.311Z</time>
      </trkpt>
      <trkpt lat="47.92935" lon="5.02289">
        <ele>279.39</ele>
        <time>2025-03-11T14:03:45.068Z</time>
      </trkpt>
      <trkpt lat="47.92933" lon="5.02328">
        <ele>279.65</ele>
        <time>2025-03-11T14:03:45.830Z</time>
      </trkpt>
      <trkpt lat="47.92931" lon="5.02355">
        <ele>279.98</ele>
        <time>2025-03-11T14:03:46.595Z</time>
      </trkpt>
      <trkpt lat="47.92929" lon="5.02382">
        <ele>280.32</ele>
        <time>2025-03-11T14:03:47.363Z</time>
      </trkpt>
      <trkpt lat="47.92927" lon="5.0242">
        <ele>280.75</ele>
        <time>2025-03-11T14:03:48.135Z</time>
      </trkpt>
      <trkpt lat="47.92926" lon="5.02441">
        <ele>281.21</ele>
        <time>2025-03-11T14:03:48.909Z</time>
      </trkpt>
      <trkpt lat="47.92913" lon="5.02448">
        <ele>281.76</ele>
        <time>2025-03-11T14:03:49.685Z</time>
      </trkpt>
      <trkpt lat="47.92903" lon="5.02439">
        <ele>282.34</ele>
        <time>2025-03-11T14:03:50.463Z</time>
      </trkpt>
      <trkpt lat="47.92902" lon="5.0244">
        <ele>282.93</ele>
        <time>2025-03-11T14:03:51.241Z</time>
      </trkpt>
      <trkpt lat="47.92898" lon="5.02452">
        <ele>283.56</ele>
        <time>2025-03-11T14:03:52.021Z</time>
      </trkpt>
      <trkpt lat="47.9289" lon="5.02473">
        <ele>284.17</ele>
        <time>2025-03-11T14:03:52.803Z</time>
      </trkpt>
      <trkpt lat="47.92875" lon="5.0251">
        <ele>284.8</ele>
        <time>2025-03-11T14:03:53.590Z</time>
      </trkpt>
      <trkpt lat="47.92862" lon="5.02542">
        <ele>285.41</ele>
        <time>2025-03-11T14:03:54.381Z</time>
      </trkpt>
      <trkpt lat="47.92843" lon="5.02575">
        <ele>286.11</ele>
        <time>2025-03-11T14:03:55.177Z</time>
      </trkpt>
      <trkpt lat="47.92833" lon="5.0259">
        <ele>286.81</ele>
        <time>2025-03-11T14:03:55.975Z</time>
      </trkpt>
      <trkpt lat="47.92829" lon="5.02595">
        <ele>287.49</ele>
        <time>2025-03-11T14:03:56.774Z</time>
      </trkpt>
      <trkpt lat="47.92804" lon="5.02568">
        <ele>288.31</ele>
        <time>2025-03-11T14:03:57.578Z</time>
      </trkpt>
      <trkpt lat="47.92778" lon="5.02547">
        <ele>289</ele>
        <time>2025-03-11T14:03:58.386Z</time>
      </trkpt>
      <trkpt lat="47.92748" lon="5.02533">
        <ele>289.73</ele>
        <time>2025-03-11T14:03:59.199Z</time>
      </trkpt>
      <trkpt lat="47.92732" lon="5.02529">
        <ele>290.42</ele>
        <time>2025-03-11T14:04:00.015Z</time>
      </trkpt>
      <trkpt lat="47.92715" lon="5.02525">
        <ele>291.08</ele>
        <time>2025-03-11T14:04:00.834Z</time>
      </trkpt>
      <trkpt lat="47.92692" lon="5.02525">
        <ele>291.79</ele>
        <time>2025-03-11T14:04:01.656Z</time>
      </trkpt>
      <trkpt lat="47.92676" lon="5.02528">
        <ele>292.28</ele>
        <time>2025-03-11T14:04:02.481Z</time>
      </trkpt>
      <trkpt lat="47.92674" lon="5.02533">
        <ele>292.45</ele>
        <time>2025-03-11T14:04:03.307Z</time>
      </trkpt>
      <trkpt lat="47.92677" lon="5.02531">
        <ele>292.42</ele>
        <time>2025-03-11T14:04:04.133Z</time>
      </trkpt>
      <trkpt lat="47.92679" lon="5.02526">
        <ele>292.3</ele>
        <time>2025-03-11T14:04:04.960Z</time>
      </trkpt>
      <trkpt lat="47.92681" lon="5.02525">
        <ele>292.05</ele>
        <time>2025-03-11T14:04:05.787Z</time>
      </trkpt>
      <trkpt lat="47.92691" lon="5.02523">
        <ele>291.55</ele>
        <time>2025-03-11T14:04:06.616Z</time>
      </trkpt>
      <trkpt lat="47.927" lon="5.02521">
        <ele>290.94</ele>
        <time>2025-03-11T14:04:07.446Z</time>
      </trkpt>
      <trkpt lat="47.92717" lon="5.02524">
        <ele>290.12</ele>
        <time>2025-03-11T14:04:08.279Z</time>
      </trkpt>
      <trkpt lat="47.92734" lon="5.02529">
        <ele>289.25</ele>
        <time>2025-03-11T14:04:09.115Z</time>
      </trkpt>
      <trkpt lat="47.92758" lon="5.02538">
        <ele>288.29</ele>
        <time>2025-03-11T14:04:09.955Z</time>
      </trkpt>
      <trkpt lat="47.92775" lon="5.02545">
        <ele>287.46</ele>
        <time>2025-03-11T14:04:10.798Z</time>
      </trkpt>
      <trkpt lat="47.92788" lon="5.02556">
        <ele>286.62</ele>
        <time>2025-03-11T14:04:11.643Z</time>
      </trkpt>
      <trkpt lat="47.92811" lon="5.02577">
        <ele>285.67</ele>
        <time>2025-03-11T14:04:12.492Z</time>
      </trkpt>
      <trkpt lat="47.92829" lon="5.02595">
        <ele>284.67</ele>
        <time>2025-03-11T14:04:13.345Z</time>
      </trkpt>
      <trkpt lat="47.92835" lon="5.02587">
        <ele>283.79</ele>
        <time>2025-03-11T14:04:14.199Z</time>
      </trkpt>
      <trkpt lat="47.92844" lon="5.02572">
        <ele>282.89</ele>
        <time>2025-03-11T14:04:15.055Z</time>
      </trkpt>
      <trkpt lat="47.92862" lon="5.02542">
        <ele>282.01</ele>
        <time>2025-03-11T14:04:15.915Z</time>
      </trkpt>
      <trkpt lat="47.92871" lon="5.02519">
        <ele>281.22</ele>
        <time>2025-03-11T14:04:16.778Z</time>
      </trkpt>
      <trkpt lat="47.92881" lon="5.02495">
        <ele>280.45</ele>
        <time>2025-03-11T14:04:17.644Z</time>
      </trkpt>
      <trkpt lat="47.92895" lon="5.02458">
        <ele>279.7</ele>
        <time>2025-03-11T14:04:18.515Z</time>
      </trkpt>
      <trkpt lat="47.92901" lon="5.02443">
        <ele>278.94</ele>
        <time>2025-03-11T14:04:19.388Z</time>
      </trkpt>
      <trkpt lat="47.92909" lon="5.02448">
        <ele>278.24</ele>
        <time>2025-03-11T14:04:20.262Z</time>
      </trkpt>
      <trkpt lat="47.92925" lon="5.02453">
        <ele>277.55</ele>
        <time>2025-03-11T14:04:21.139Z</time>
      </trkpt>
      <trkpt lat="47.92928" lon="5.0247">
        <ele>276.96</ele>
        <time>2025-03-11T14:04:22.018Z</time>
      </trkpt>
      <trkpt lat="47.92932" lon="5.02489">
        <ele>276.44</ele>
        <time>2025-03-11T14:04:22.899Z</time>
      </trkpt>
      <trkpt lat="47.92935" lon="5.02503">
        <ele>276</ele>
        <time>2025-03-11T14:04:23.781Z</time>
      </trkpt>
      <trkpt lat="47.92941" lon="5.02538">
        <ele>275.63</ele>
        <time>2025-03-11T14:04:24.667Z</time>
      </trkpt>
      <trkpt lat="47.92942" lon="5.02546">
        <ele>275.37</ele>
        <time>2025-03-11T14:04:25.554Z</time>
      </trkpt>
      <trkpt lat="47.92944" lon="5.02577">
        <ele>275.16</ele>
        <time>2025-03-11T14:04:26.445Z</time>
      </trkpt>
      <trkpt lat="47.92946" lon="5.02607">
        <ele>275.09</ele>
        <time>2025-03-11T14:04:27.339Z</time>
      </trkpt>
      <trkpt lat="47.92949" lon="5.02646">
        <ele>275.15</ele>
        <time>2025-03-11T14:04:28.237Z</time>
      </trkpt>
      <trkpt lat="47.92952" lon="5.02683">
        <ele>275.25</ele>
        <time>2025-03-11T14:04:29.139Z</time>
      </trkpt>
      <trkpt lat="47.92954" lon="5.02716">
        <ele>275.44</ele>
        <time>2025-03-11T14:04:30.045Z</time>
      </trkpt>
      <trkpt lat="47.92957" lon="5.02748">
        <ele>275.74</ele>
        <time>2025-03-11T14:04:30.954Z</time>
      </trkpt>
      <trkpt lat="47.9296" lon="5.02791">
        <ele>276.19</ele>
        <time>2025-03-11T14:04:31.868Z</time>
      </trkpt>
      <trkpt lat="47.92963" lon="5.02834">
        <ele>276.64</ele>
        <time>2025-03-11T14:04:32.786Z</time>
      </trkpt>
      <trkpt lat="47.92964" lon="5.02854">
        <ele>277.16</ele>
        <time>2025-03-11T14:04:33.707Z</time>
      </trkpt>
      <trkpt lat="47.92967" lon="5.02893">
        <ele>277.81</ele>
        <time>2025-03-11T14:04:34.632Z</time>
      </trkpt>
      <trkpt lat="47.9297" lon="5.02932">
        <ele>278.5</ele>
        <time>2025-03-11T14:04:35.561Z</time>
      </trkpt>
      <trkpt lat="47.92973" lon="5.02968">
        <ele>279.22</ele>
        <time>2025-03-11T14:04:36.494Z</time>
      </trkpt>
      <trkpt lat="47.92976" lon="5.03005">
        <ele>279.96</ele>
        <time>2025-03-11T14:04:37.431Z</time>
      </trkpt>
      <trkpt lat="47.92977" lon="5.03041">
        <ele>280.78</ele>
        <time>2025-03-11T14:04:38.372Z</time>
      </trkpt>
      <trkpt lat="47.92977" lon="5.03077">
        <ele>281.73</ele>
        <time>2025-03-11T14:04:39.317Z</time>
      </trkpt>
      <trkpt lat="47.92976" lon="5.03104">
        <ele>282.65</ele>
        <time>2025-03-11T14:04:40.265Z</time>
      </trkpt>
      <trkpt lat="47.92975" lon="5.0313">
        <ele>283.59</ele>
        <time>2025-03-11T14:04:41.215Z</time>
      </trkpt>
      <trkpt lat="47.92974" lon="5.03156">
        <ele>284.48</ele>
        <time>2025-03-11T14:04:42.168Z</time>
      </trkpt>
      <trkpt lat="47.92973" lon="5.03182">
        <ele>285.36</ele>
        <time>2025-03-11T14:04:43.124Z</time>
      </trkpt>
      <trkpt lat="47.92972" lon="5.03211">
        <ele>286.28</ele>
        <time>2025-03-11T14:04:44.083Z</time>
      </trkpt>
      <trkpt lat="47.9297" lon="5.0324">
        <ele>287.16</ele>
        <time>2025-03-11T14:04:45.045Z</time>
      </trkpt>
      <trkpt lat="47.92969" lon="5.03266">
        <ele>288</ele>
        <time>2025-03-11T14:04:46.010Z</time>
      </trkpt>
      <trkpt lat="47.92968" lon="5.03291">
        <ele>288.76</ele>
        <time>2025-03-11T14:04:46.978Z</time>
      </trkpt>
      <trkpt lat="47.92967" lon="5.03316">
        <ele>289.47</ele>
        <time>2025-03-11T14:04:47.948Z</time>
      </trkpt>
      <trkpt lat="47.92966" lon="5.03341">
        <ele>290.21</ele>
        <time>2025-03-11T14:04:48.921Z</time>
      </trkpt>
      <trkpt lat="47.92965" lon="5.03365">
        <ele>290.91</ele>
        <time>2025-03-11T14:04:49.897Z</time>
      </trkpt>
      <trkpt lat="47.92964" lon="5.03389">
        <ele>291.58</ele>
        <time>2025-03-11T14:04:50.875Z</time>
      </trkpt>
      <trkpt lat="47.92967" lon="5.03428">
        <ele>292.29</ele>
        <time>2025-03-11T14:04:51.858Z</time>
      </trkpt>
      <trkpt lat="47.92964" lon="5.03452">
        <ele>292.76</ele>
        <time>2025-03-11T14:04:52.843Z</time>
      </trkpt>
      <trkpt lat="47.9296" lon="5.03474">
        <ele>293.16</ele>
        <time>2025-03-11T14:04:53.831Z</time>
      </trkpt>
      <trkpt lat="47.92956" lon="5.03506">
        <ele>293.49</ele>
        <time>2025-03-11T14:04:54.822Z</time>
      </trkpt>
      <trkpt lat="47.92952" lon="5.03538">
        <ele>293.8</ele>
        <time>2025-03-11T14:04:55.817Z</time>
      </trkpt>
      <trkpt lat="47.92949" lon="5.03571">
        <ele>294.02</ele>
        <time>2025-03-11T14:04:56.815Z</time>
      </trkpt>
      <trkpt lat="47.92946" lon="5.03605">
        <ele>294.14</ele>
        <time>2025-03-11T14:04:57.817Z</time>
      </trkpt>
      <trkpt lat="47.92946" lon="5.03639">
        <ele>294.18</ele>
        <time>2025-03-11T14:04:58.823Z</time>
      </trkpt>
      <trkpt lat="47.92945" lon="5.03674">
        <ele>294.16</ele>
        <time>2025-03-11T14:04:59.832Z</time>
      </trkpt>
      <trkpt lat="47.92944" lon="5.03711">
        <ele>294.12</ele>
        <time>2025-03-11T14:05:00.845Z</time>
      </trkpt>
      <trkpt lat="47.92943" lon="5.03748">
        <ele>294.06</ele>
        <time>2025-03-11T14:05:01.862Z</time>
      </trkpt>
      <trkpt lat="47.92939" lon="5.03778">
        <ele>293.8</ele>
        <time>2025-03-11T14:05:02.883Z</time>
      </trkpt>
      <trkpt lat="47.92934" lon="5.03808">
        <ele>293.48</ele>
        <time>2025-03-11T14:05:03.907Z</time>
      </trkpt>
      <trkpt lat="47.9293" lon="5.03834">
        <ele>293.12</ele>
        <time>2025-03-11T14:05:04.934Z</time>
      </trkpt>
      <trkpt lat="47.92926" lon="5.0386">
        <ele>292.69</ele>
        <time>2025-03-11T14:05:05.964Z</time>
      </trkpt>
      <trkpt lat="47.92918" lon="5.03897">
        <ele>292.13</ele>
        <time>2025-03-11T14:05:06.998Z</time>
      </trkpt>
      <trkpt lat="47.92911" lon="5.03935">
        <ele>291.52</ele>
        <time>2025-03-11T14:05:08.036Z</time>
      </trkpt>
      <trkpt lat="47.92902" lon="5.03968">
        <ele>290.92</ele>
        <time>2025-03-11T14:05:09.078Z</time>
      </trkpt>
      <trkpt lat="47.92893" lon="5.04001">
        <ele>290.35</ele>
        <time>2025-03-11T14:05:10.124Z</time>
      </trkpt>
      <trkpt lat="47.9288" lon="5.04039">
        <ele>289.65</ele>
        <time>2025-03-11T14:05:11.174Z</time>
      </trkpt>
      <trkpt lat="47.92867" lon="5.04078">
        <ele>288.89</ele>
        <time>2025-03-11T14:05:12.229Z</time>
      </trkpt>
      <trkpt lat="47.92864" lon="5.04088">
        <ele>288.27</ele>
        <time>2025-03-11T14:05:13.285Z</time>
      </trkpt>
      <trkpt lat="47.92852" lon="5.04124">
        <ele>287.66</ele>
        <time>2025-03-11T14:05:14.346Z</time>
      </trkpt>
      <trkpt lat="47.92839" lon="5.0416">
        <ele>287.1</ele>
        <time>2025-03-11T14:05:15.411Z</time>
      </trkpt>
      <trkpt lat="47.92828" lon="5.04192">
        <ele>286.53</ele>
        <time>2025-03-11T14:05:16.480Z</time>
      </trkpt>
      <trkpt lat="47.92813" lon="5.04226">
        <ele>285.96</ele>
        <time>2025-03-11T14:05:17.553Z</time>
      </trkpt>
      <trkpt lat="47.92798" lon="5.0426">
        <ele>285.41</ele>
        <time>2025-03-11T14:05:18.631Z</time>
      </trkpt>
      <trkpt lat="47.92787" lon="5.04276">
        <ele>284.96</ele>
        <time>2025-03-11T14:05:19.711Z</time>
      </trkpt>
      <trkpt lat="47.92774" lon="5.04286">
        <ele>284.56</ele>
        <time>2025-03-11T14:05:20.793Z</time>
      </trkpt>
      <trkpt lat="47.92755" lon="5.04299">
        <ele>284.2</ele>
        <time>2025-03-11T14:05:21.879Z</time>
      </trkpt>
      <trkpt lat="47.92736" lon="5.04313">
        <ele>283.93</ele>
        <time>2025-03-11T14:05:22.968Z</time>
      </trkpt>
      <trkpt lat="47.92712" lon="5.0433">
        <ele>283.75</ele>
        <time>2025-03-11T14:05:24.061Z</time>
      </trkpt>
      <trkpt lat="47.92688" lon="5.04348">
        <ele>283.61</ele>
        <time>2025-03-11T14:05:25.159Z</time>
      </trkpt>
      <trkpt lat="47.9267" lon="5.04361">
        <ele>283.49</ele>
        <time>2025-03-11T14:05:26.260Z</time>
      </trkpt>
      <trkpt lat="47.92652" lon="5.04374">
        <ele>283.35</ele>
        <time>2025-03-11T14:05:27.364Z</time>
      </trkpt>
      <trkpt lat="47.92636" lon="5.04385">
        <ele>283.27</ele>
        <time>2025-03-11T14:05:28.471Z</time>
      </trkpt>
      <trkpt lat="47.92621" lon="5.04396">
        <ele>283.21</ele>
        <time>2025-03-11T14:05:29.581Z</time>
      </trkpt>
      <trkpt lat="47.92617" lon="5.04399">
        <ele>283.26</ele>
        <time>2025-03-11T14:05:30.691Z</time>
      </trkpt>
      <trkpt lat="47.92598" lon="5.04413">
        <ele>283.33</ele>
        <time>2025-03-11T14:05:31.805Z</time>
      </trkpt>
      <trkpt lat="47.92579" lon="5.04427">
        <ele>283.49</ele>
        <time>2025-03-11T14:05:32.922Z</time>
      </trkpt>
      <trkpt lat="47.9256" lon="5.04449">
        <ele>283.71</ele>
        <time>2025-03-11T14:05:34.043Z</time>
      </trkpt>
      <trkpt lat="47.92541" lon="5.04471">
        <ele>283.93</ele>
        <time>2025-03-11T14:05:35.168Z</time>
      </trkpt>
      <trkpt lat="47.9253" lon="5.0449">
        <ele>284.17</ele>
        <time>2025-03-11T14:05:36.296Z</time>
      </trkpt>
      <trkpt lat="47.92518" lon="5.0451">
        <ele>284.45</ele>
        <time>2025-03-11T14:05:37.426Z</time>
      </trkpt>
      <trkpt lat="47.92505" lon="5.04534">
        <ele>284.85</ele>
        <time>2025-03-11T14:05:38.560Z</time>
      </trkpt>
      <trkpt lat="47.92491" lon="5.04559">
        <ele>285.27</ele>
        <time>2025-03-11T14:05:39.697Z</time>
      </trkpt>
      <trkpt lat="47.92473" lon="5.04591">
        <ele>285.68</ele>
        <time>2025-03-11T14:05:40.839Z</time>
      </trkpt>
      <trkpt lat="47.92455" lon="5.04624">
        <ele>286.07</ele>
        <time>2025-03-11T14:05:41.985Z</time>
      </trkpt>
      <trkpt lat="47.92439" lon="5.04654">
        <ele>286.51</ele>
        <time>2025-03-11T14:05:43.135Z</time>
      </trkpt>
      <trkpt lat="47.92423" lon="5.04685">
        <ele>286.97</ele>
        <time>2025-03-11T14:05:44.290Z</time>
      </trkpt>
      <trkpt lat="47.92411" lon="5.04709">
        <ele>287.4</ele>
        <time>2025-03-11T14:05:45.448Z</time>
      </trkpt>
      <trkpt lat="47.924" lon="5.04733">
        <ele>287.85</ele>
        <time>2025-03-11T14:05:46.609Z</time>
      </trkpt>
      <trkpt lat="47.92386" lon="5.04764">
        <ele>288.26</ele>
        <time>2025-03-11T14:05:47.774Z</time>
      </trkpt>
      <trkpt lat="47.92372" lon="5.04795">
        <ele>288.67</ele>
        <time>2025-03-11T14:05:48.943Z</time>
      </trkpt>
      <trkpt lat="47.92358" lon="5.04828">
        <ele>289.07</ele>
        <time>2025-03-11T14:05:50.116Z</time>
      </trkpt>
      <trkpt lat="47.92343" lon="5.04861">
        <ele>289.42</ele>
        <time>2025-03-11T14:05:51.293Z</time>
      </trkpt>
      <trkpt lat="47.92331" lon="5.04888">
        <ele>289.7</ele>
        <time>2025-03-11T14:05:52.474Z</time>
      </trkpt>
      <trkpt lat="47.92319" lon="5.04915">
        <ele>289.99</ele>
        <time>2025-03-11T14:05:53.658Z</time>
      </trkpt>
      <trkpt lat="47.92308" lon="5.04941">
        <ele>290.2</ele>
        <time>2025-03-11T14:05:54.846Z</time>
      </trkpt>
      <trkpt lat="47.92296" lon="5.04966">
        <ele>290.39</ele>
        <time>2025-03-11T14:05:56.037Z</time>
      </trkpt>
      <trkpt lat="47.92283" lon="5.04997">
        <ele>290.56</ele>
        <time>2025-03-11T14:05:57.232Z</time>
      </trkpt>
      <trkpt lat="47.92269" lon="5.05028">
        <ele>290.73</ele>
        <time>2025-03-11T14:05:58.431Z</time>
      </trkpt>
      <trkpt lat="47.92254" lon="5.05063">
        <ele>290.95</ele>
        <time>2025-03-11T14:05:59.634Z</time>
      </trkpt>
      <trkpt lat="47.92238" lon="5.05098">
        <ele>291.09</ele>
        <time>2025-03-11T14:06:00.842Z</time>
      </trkpt>
      <trkpt lat="47.92227" lon="5.05123">
        <ele>291.21</ele>
        <time>2025-03-11T14:06:02.053Z</time>
      </trkpt>
      <trkpt lat="47.92216" lon="5.05149">
        <ele>291.29</ele>
        <time>2025-03-11T14:06:03.267Z</time>
      </trkpt>
      <trkpt lat="47.92202" lon="5.05179">
        <ele>291.34</ele>
        <time>2025-03-11T14:06:04.485Z</time>
      </trkpt>
      <trkpt lat="47.92189" lon="5.05209">
        <ele>291.4</ele>
        <time>2025-03-11T14:06:05.707Z</time>
      </trkpt>
      <trkpt lat="47.92175" lon="5.0524">
        <ele>291.47</ele>
        <time>2025-03-11T14:06:06.933Z</time>
      </trkpt>
      <trkpt lat="47.92161" lon="5.05271">
        <ele>291.58</ele>
        <time>2025-03-11T14:06:08.163Z</time>
      </trkpt>
      <trkpt lat="47.92145" lon="5.05308">
        <ele>291.76</ele>
        <time>2025-03-11T14:06:09.398Z</time>
      </trkpt>
      <trkpt lat="47.92129" lon="5.05345">
        <ele>291.95</ele>
        <time>2025-03-11T14:06:10.638Z</time>
      </trkpt>
      <trkpt lat="47.92125" lon="5.05353">
        <ele>292.17</ele>
        <time>2025-03-11T14:06:11.879Z</time>
      </trkpt>
      <trkpt lat="47.9211" lon="5.05385">
        <ele>292.43</ele>
        <time>2025-03-11T14:06:13.124Z</time>
      </trkpt>
      <trkpt lat="47.92096" lon="5.05417">
        <ele>292.66</ele>
        <time>2025-03-11T14:06:14.373Z</time>
      </trkpt>
      <trkpt lat="47.92082" lon="5.05448">
        <ele>292.95</ele>
        <time>2025-03-11T14:06:15.626Z</time>
      </trkpt>
      <trkpt lat="47.92069" lon="5.05478">
        <ele>293.36</ele>
        <time>2025-03-11T14:06:16.883Z</time>
      </trkpt>
      <trkpt lat="47.92057" lon="5.05504">
        <ele>293.77</ele>
        <time>2025-03-11T14:06:18.143Z</time>
      </trkpt>
      <trkpt lat="47.92045" lon="5.0553">
        <ele>294.17</ele>
        <time>2025-03-11T14:06:19.407Z</time>
      </trkpt>
      <trkpt lat="47.92032" lon="5.0556">
        <ele>294.49</ele>
        <time>2025-03-11T14:06:20.675Z</time>
      </trkpt>
      <trkpt lat="47.92018" lon="5.0559">
        <ele>294.87</ele>
        <time>2025-03-11T14:06:21.947Z</time>
      </trkpt>
      <trkpt lat="47.92008" lon="5.05613">
        <ele>295.29</ele>
        <time>2025-03-11T14:06:23.222Z</time>
      </trkpt>
      <trkpt lat="47.91998" lon="5.05636">
        <ele>295.74</ele>
        <time>2025-03-11T14:06:24.499Z</time>
      </trkpt>
      <trkpt lat="47.91987" lon="5.0566">
        <ele>296.18</ele>
        <time>2025-03-11T14:06:25.780Z</time>
      </trkpt>
      <trkpt lat="47.91976" lon="5.05684">
        <ele>296.59</ele>
        <time>2025-03-11T14:06:27.064Z</time>
      </trkpt>
      <trkpt lat="47.91966" lon="5.05708">
        <ele>297.03</ele>
        <time>2025-03-11T14:06:28.351Z</time>
      </trkpt>
      <trkpt lat="47.91955" lon="5.05732">
        <ele>297.43</ele>
        <time>2025-03-11T14:06:29.641Z</time>
      </trkpt>
      <trkpt lat="47.91941" lon="5.05762">
        <ele>297.89</ele>
        <time>2025-03-11T14:06:30.935Z</time>
      </trkpt>
      <trkpt lat="47.91933" lon="5.05779">
        <ele>298.18</ele>
        <time>2025-03-11T14:06:32.231Z</time>
      </trkpt>
      <trkpt lat="47.91922" lon="5.05805">
        <ele>298.5</ele>
        <time>2025-03-11T14:06:33.530Z</time>
      </trkpt>
      <trkpt lat="47.9191" lon="5.0583">
        <ele>298.72</ele>
        <time>2025-03-11T14:06:34.833Z</time>
      </trkpt>
      <trkpt lat="47.91896" lon="5.05856">
        <ele>298.9</ele>
        <time>2025-03-11T14:06:36.139Z</time>
      </trkpt>
      <trkpt lat="47.91883" lon="5.05883">
        <ele>299.03</ele>
        <time>2025-03-11T14:06:37.449Z</time>
      </trkpt>
      <trkpt lat="47.91868" lon="5.05907">
        <ele>299.07</ele>
        <time>2025-03-11T14:06:38.762Z</time>
      </trkpt>
      <trkpt lat="47.91854" lon="5.05931">
        <ele>299.05</ele>
        <time>2025-03-11T14:06:40.079Z</time>
      </trkpt>
      <trkpt lat="47.91836" lon="5.05956">
        <ele>298.88</ele>
        <time>2025-03-11T14:06:41.400Z</time>
      </trkpt>
      <trkpt lat="47.91818" lon="5.05981">
        <ele>298.7</ele>
        <time>2025-03-11T14:06:42.725Z</time>
      </trkpt>
      <trkpt lat="47.91798" lon="5.0601">
        <ele>298.51</ele>
        <time>2025-03-11T14:06:44.054Z</time>
      </trkpt>
      <trkpt lat="47.91777" lon="5.06038">
        <ele>298.22</ele>
        <time>2025-03-11T14:06:45.388Z</time>
      </trkpt>
      <trkpt lat="47.91761" lon="5.06061">
        <ele>297.89</ele>
        <time>2025-03-11T14:06:46.725Z</time>
      </trkpt>
      <trkpt lat="47.91741" lon="5.06087">
        <ele>297.52</ele>
        <time>2025-03-11T14:06:48.066Z</time>
      </trkpt>
      <trkpt lat="47.91721" lon="5.06112">
        <ele>297.15</ele>
        <time>2025-03-11T14:06:49.412Z</time>
      </trkpt>
      <trkpt lat="47.91698" lon="5.06138">
        <ele>296.8</ele>
        <time>2025-03-11T14:06:50.762Z</time>
      </trkpt>
      <trkpt lat="47.91676" lon="5.06163">
        <ele>296.44</ele>
        <time>2025-03-11T14:06:52.117Z</time>
      </trkpt>
      <trkpt lat="47.91657" lon="5.06184">
        <ele>296.06</ele>
        <time>2025-03-11T14:06:53.476Z</time>
      </trkpt>
      <trkpt lat="47.91633" lon="5.06212">
        <ele>295.7</ele>
        <time>2025-03-11T14:06:54.839Z</time>
      </trkpt>
      <trkpt lat="47.91608" lon="5.06239">
        <ele>295.4</ele>
        <time>2025-03-11T14:06:56.207Z</time>
      </trkpt>
      <trkpt lat="47.91587" lon="5.06264">
        <ele>295.1</ele>
        <time>2025-03-11T14:06:57.580Z</time>
      </trkpt>
      <trkpt lat="47.91565" lon="5.06289">
        <ele>294.82</ele>
        <time>2025-03-11T14:06:58.957Z</time>
      </trkpt>
      <trkpt lat="47.91559" lon="5.06295">
        <ele>294.55</ele>
        <time>2025-03-11T14:07:00.335Z</time>
      </trkpt>
      <trkpt lat="47.91536" lon="5.06322">
        <ele>294.34</ele>
        <time>2025-03-11T14:07:01.718Z</time>
      </trkpt>
      <trkpt lat="47.91513" lon="5.06348">
        <ele>294.11</ele>
        <time>2025-03-11T14:07:03.106Z</time>
      </trkpt>
      <trkpt lat="47.91507" lon="5.06354">
        <ele>293.88</ele>
        <time>2025-03-11T14:07:04.495Z</time>
      </trkpt>
      <trkpt lat="47.91488" lon="5.06375">
        <ele>293.69</ele>
        <time>2025-03-11T14:07:05.887Z</time>
      </trkpt>
      <trkpt lat="47.91469" lon="5.06396">
        <ele>293.5</ele>
        <time>2025-03-11T14:07:07.283Z</time>
      </trkpt>
      <trkpt lat="47.91447" lon="5.06422">
        <ele>293.39</ele>
        <time>2025-03-11T14:07:08.684Z</time>
      </trkpt>
      <trkpt lat="47.91425" lon="5.06447">
        <ele>293.29</ele>
        <time>2025-03-11T14:07:10.089Z</time>
      </trkpt>
      <trkpt lat="47.9142" lon="5.06452">
        <ele>293.16</ele>
        <time>2025-03-11T14:07:11.495Z</time>
      </trkpt>
      <trkpt lat="47.91398" lon="5.06478">
        <ele>293.06</ele>
        <time>2025-03-11T14:07:12.906Z</time>
      </trkpt>
      <trkpt lat="47.91375" lon="5.06503">
        <ele>292.95</ele>
        <time>2025-03-11T14:07:14.321Z</time>
      </trkpt>
      <trkpt lat="47.91358" lon="5.06522">
        <ele>292.86</ele>
        <time>2025-03-11T14:07:15.740Z</time>
      </trkpt>
      <trkpt lat="47.9134" lon="5.06542">
        <ele>292.79</ele>
        <time>2025-03-11T14:07:17.162Z</time>
      </trkpt>
      <trkpt lat="47.9132" lon="5.06565">
        <ele>292.71</ele>
        <time>2025-03-11T14:07:18.588Z</time>
      </trkpt>
      <trkpt lat="47.913" lon="5.06588">
        <ele>292.64</ele>
        <time>2025-03-11T14:07:20.018Z</time>
      </trkpt>
      <trkpt lat="47.91279" lon="5.06611">
        <ele>292.63</ele>
        <time>2025-03-11T14:07:21.452Z</time>
      </trkpt>
      <trkpt lat="47.91259" lon="5.06634">
        <ele>292.61</ele>
        <time>2025-03-11T14:07:22.890Z</time>
      </trkpt>
      <trkpt lat="47.91233" lon="5.06658">
        <ele>292.62</ele>
        <time>2025-03-11T14:07:24.333Z</time>
      </trkpt>
      <trkpt lat="47.91227" lon="5.06661">
        <ele>292.66</ele>
        <time>2025-03-11T14:07:25.777Z</time>
      </trkpt>
      <trkpt lat="47.91214" lon="5.06665">
        <ele>292.71</ele>
        <time>2025-03-11T14:07:27.223Z</time>
      </trkpt>
      <trkpt lat="47.912" lon="5.06663">
        <ele>292.78</ele>
        <time>2025-03-11T14:07:28.672Z</time>
      </trkpt>
      <trkpt lat="47.91193" lon="5.06662">
        <ele>292.87</ele>
        <time>2025-03-11T14:07:30.122Z</time>
      </trkpt>
      <trkpt lat="47.91171" lon="5.06655">
        <ele>292.97</ele>
        <time>2025-03-11T14:07:31.575Z</time>
      </trkpt>
      <trkpt lat="47.91154" lon="5.06643">
        <ele>293.05</ele>
        <time>2025-03-11T14:07:33.031Z</time>
      </trkpt>
      <trkpt lat="47.91137" lon="5.06632">
        <ele>293.15</ele>
        <time>2025-03-11T14:07:34.491Z</time>
      </trkpt>
      <trkpt lat="47.91116" lon="5.06619">
        <ele>293.27</ele>
        <time>2025-03-11T14:07:35.954Z</time>
      </trkpt>
      <trkpt lat="47.91101" lon="5.06606">
        <ele>293.41</ele>
        <time>2025-03-11T14:07:37.420Z</time>
      </trkpt>
      <trkpt lat="47.91085" lon="5.06594">
        <ele>293.62</ele>
        <time>2025-03-11T14:07:38.889Z</time>
      </trkpt>
      <trkpt lat="47.91072" lon="5.06581">
        <ele>293.88</ele>
        <time>2025-03-11T14:07:40.360Z</time>
      </trkpt>
      <trkpt lat="47.91058" lon="5.06568">
        <ele>294.12</ele>
        <time>2025-03-11T14:07:41.834Z</time>
      </trkpt>
      <trkpt lat="47.91054" lon="5.06564">
        <ele>294.31</ele>
        <time>2025-03-11T14:07:43.309Z</time>
      </trkpt>
      <trkpt lat="47.91041" lon="5.06551">
        <ele>294.52</ele>
        <time>2025-03-11T14:07:44.786Z</time>
      </trkpt>
      <trkpt lat="47.91013" lon="5.06531">
        <ele>294.57</ele>
        <time>2025-03-11T14:07:46.268Z</time>
      </trkpt>
      <trkpt lat="47.90998" lon="5.06521">
        <ele>294.71</ele>
        <time>2025-03-11T14:07:47.753Z</time>
      </trkpt>
      <trkpt lat="47.90982" lon="5.0651">
        <ele>294.87</ele>
        <time>2025-03-11T14:07:49.241Z</time>
      </trkpt>
      <trkpt lat="47.90969" lon="5.06509">
        <ele>295.09</ele>
        <time>2025-03-11T14:07:50.731Z</time>
      </trkpt>
      <trkpt lat="47.90956" lon="5.06511">
        <ele>295.31</ele>
        <time>2025-03-11T14:07:52.223Z</time>
      </trkpt>
      <trkpt lat="47.90938" lon="5.06517">
        <ele>295.6</ele>
        <time>2025-03-11T14:07:53.718Z</time>
      </trkpt>
      <trkpt lat="47.9092" lon="5.06523">
        <ele>295.88</ele>
        <time>2025-03-11T14:07:55.216Z</time>
      </trkpt>
      <trkpt lat="47.90897" lon="5.06534">
        <ele>296.18</ele>
        <time>2025-03-11T14:07:56.717Z</time>
      </trkpt>
      <trkpt lat="47.90887" lon="5.06539">
        <ele>296.45</ele>
        <time>2025-03-11T14:07:58.220Z</time>
      </trkpt>
      <trkpt lat="47.90861" lon="5.0656">
        <ele>296.75</ele>
        <time>2025-03-11T14:07:59.728Z</time>
      </trkpt>
      <trkpt lat="47.90846" lon="5.06576">
        <ele>297.03</ele>
        <time>2025-03-11T14:08:01.239Z</time>
      </trkpt>
      <trkpt lat="47.90832" lon="5.06591">
        <ele>297.28</ele>
        <time>2025-03-11T14:08:02.753Z</time>
      </trkpt>
      <trkpt lat="47.90814" lon="5.06608">
        <ele>297.53</ele>
        <time>2025-03-11T14:08:04.270Z</time>
      </trkpt>
      <trkpt lat="47.90797" lon="5.06626">
        <ele>297.77</ele>
        <time>2025-03-11T14:08:05.790Z</time>
      </trkpt>
      <trkpt lat="47.90782" lon="5.06639">
        <ele>298.02</ele>
        <time>2025-03-11T14:08:07.313Z</time>
      </trkpt>
      <trkpt lat="47.90768" lon="5.06653">
        <ele>298.28</ele>
        <time>2025-03-11T14:08:08.839Z</time>
      </trkpt>
      <trkpt lat="47.90748" lon="5.06667">
        <ele>298.52</ele>
        <time>2025-03-11T14:08:10.368Z</time>
      </trkpt>
      <trkpt lat="47.90746" lon="5.06669">
        <ele>298.74</ele>
        <time>2025-03-11T14:08:11.898Z</time>
      </trkpt>
      <trkpt lat="47.90744" lon="5.0667">
        <ele>298.95</ele>
        <time>2025-03-11T14:08:13.428Z</time>
      </trkpt>
      <trkpt lat="47.90746" lon="5.06669">
        <ele>299.16</ele>
        <time>2025-03-11T14:08:14.959Z</time>
      </trkpt>
      <trkpt lat="47.9074" lon="5.06674">
        <ele>299.35</ele>
        <time>2025-03-11T14:08:16.491Z</time>
      </trkpt>
      <trkpt lat="47.90736" lon="5.06676">
        <ele>299.54</ele>
        <time>2025-03-11T14:08:18.023Z</time>
      </trkpt>
      <trkpt lat="47.90723" lon="5.06686">
        <ele>299.73</ele>
        <time>2025-03-11T14:08:19.558Z</time>
      </trkpt>
      <trkpt lat="47.90704" lon="5.067">
        <ele>299.93</ele>
        <time>2025-03-11T14:08:21.096Z</time>
      </trkpt>
      <trkpt lat="47.90693" lon="5.06716">
        <ele>300.11</ele>
        <time>2025-03-11T14:08:22.636Z</time>
      </trkpt>
      <trkpt lat="47.90677" lon="5.06739">
        <ele>300.28</ele>
        <time>2025-03-11T14:08:24.180Z</time>
      </trkpt>
      <trkpt lat="47.9066" lon="5.06772">
        <ele>300.45</ele>
        <time>2025-03-11T14:08:25.728Z</time>
      </trkpt>
      <trkpt lat="47.90653" lon="5.06788">
        <ele>300.59</ele>
        <time>2025-03-11T14:08:27.278Z</time>
      </trkpt>
      <trkpt lat="47.90647" lon="5.06803">
        <ele>300.69</ele>
        <time>2025-03-11T14:08:28.830Z</time>
      </trkpt>
      <trkpt lat="47.90634" lon="5.06841">
        <ele>300.76</ele>
        <time>2025-03-11T14:08:30.387Z</time>
      </trkpt>
      <trkpt lat="47.9062" lon="5.06877">
        <ele>300.82</ele>
        <time>2025-03-11T14:08:31.948Z</time>
      </trkpt>
      <trkpt lat="47.9061" lon="5.0689">
        <ele>300.93</ele>
        <time>2025-03-11T14:08:33.512Z</time>
      </trkpt>
      <trkpt lat="47.90618" lon="5.06879">
        <ele>301</ele>
        <time>2025-03-11T14:08:35.077Z</time>
      </trkpt>
      <trkpt lat="47.90619" lon="5.06878">
        <ele>301.09</ele>
        <time>2025-03-11T14:08:36.643Z</time>
      </trkpt>
      <trkpt lat="47.90616" lon="5.06882">
        <ele>301.18</ele>
        <time>2025-03-11T14:08:38.209Z</time>
      </trkpt>
      <trkpt lat="47.90614" lon="5.06884">
        <ele>301.26</ele>
        <time>2025-03-11T14:08:39.776Z</time>
      </trkpt>
      <trkpt lat="47.9061" lon="5.0689">
        <ele>300.93</ele>
        <time>2025-03-11T14:08:41.344Z</time>
      </trkpt>
      <trkpt lat="47.90605" lon="5.06891">
        <ele>301.44</ele>
        <time>2025-03-11T14:08:42.913Z</time>
      </trkpt>
      <trkpt lat="47.90582" lon="5.06894">
        <ele>301.56</ele>
        <time>2025-03-11T14:08:44.485Z</time>
      </trkpt>
      <trkpt lat="47.90571" lon="5.06905">
        <ele>301.62</ele>
        <time>2025-03-11T14:08:46.059Z</time>
      </trkpt>
      <trkpt lat="47.90558" lon="5.06917">
        <ele>301.72</ele>
        <time>2025-03-11T14:08:47.636Z</time>
      </trkpt>
      <trkpt lat="47.90547" lon="5.06927">
        <ele>301.8</ele>
        <time>2025-03-11T14:08:49.215Z</time>
      </trkpt>
      <trkpt lat="47.90546" lon="5.06928">
        <ele>301.88</ele>
        <time>2025-03-11T14:08:50.794Z</time>
      </trkpt>
      <trkpt lat="47.9055" lon="5.0693">
        <ele>301.96</ele>
        <time>2025-03-11T14:08:52.374Z</time>
      </trkpt>
      <trkpt lat="47.90559" lon="5.06916">
        <ele>302.06</ele>
        <time>2025-03-11T14:08:53.956Z</time>
      </trkpt>
      <trkpt lat="47.90576" lon="5.069">
        <ele>302.15</ele>
        <time>2025-03-11T14:08:55.541Z</time>
      </trkpt>
      <trkpt lat="47.90579" lon="5.06897">
        <ele>302.25</ele>
        <time>2025-03-11T14:08:57.127Z</time>
      </trkpt>
      <trkpt lat="47.90578" lon="5.06892">
        <ele>302.35</ele>
        <time>2025-03-11T14:08:58.713Z</time>
      </trkpt>
      <trkpt lat="47.90566" lon="5.06883">
        <ele>302.46</ele>
        <time>2025-03-11T14:09:00.301Z</time>
      </trkpt>
      <trkpt lat="47.90539" lon="5.06865">
        <ele>302.58</ele>
        <time>2025-03-11T14:09:01.894Z</time>
      </trkpt>
      <trkpt lat="47.9052" lon="5.06849">
        <ele>302.7</ele>
        <time>2025-03-11T14:09:03.490Z</time>
      </trkpt>
      <trkpt lat="47.90506" lon="5.06834">
        <ele>302.82</ele>
        <time>2025-03-11T14:09:05.089Z</time>
      </trkpt>
      <trkpt lat="47.90503" lon="5.06832">
        <ele>302.91</ele>
        <time>2025-03-11T14:09:06.689Z</time>
      </trkpt>
      <trkpt lat="47.90501" lon="5.06829">
        <ele>302.99</ele>
        <time>2025-03-11T14:09:08.289Z</time>
      </trkpt>
      <trkpt lat="47.90496" lon="5.06824">
        <ele>303.08</ele>
        <time>2025-03-11T14:09:09.890Z</time>
      </trkpt>
      <trkpt lat="47.90496" lon="5.06824">
        <ele>303.15</ele>
        <time>2025-03-11T14:09:11.491Z</time>
      </trkpt>
      <trkpt lat="47.90494" lon="5.06832">
        <ele>303.2</ele>
        <time>2025-03-11T14:09:13.093Z</time>
      </trkpt>
      <trkpt lat="47.90489" lon="5.06858">
        <ele>303.2</ele>
        <time>2025-03-11T14:09:14.698Z</time>
      </trkpt>
      <trkpt lat="47.90481" lon="5.069">
        <ele>303.14</ele>
        <time>2025-03-11T14:09:16.308Z</time>
      </trkpt>
      <trkpt lat="47.90469" lon="5.06938">
        <ele>303.21</ele>
        <time>2025-03-11T14:09:17.922Z</time>
      </trkpt>
      <trkpt lat="47.90463" lon="5.0696">
        <ele>303.31</ele>
        <time>2025-03-11T14:09:19.539Z</time>
      </trkpt>
      <trkpt lat="47.90457" lon="5.06982">
        <ele>303.46</ele>
        <time>2025-03-11T14:09:21.158Z</time>
      </trkpt>
      <trkpt lat="47.90459" lon="5.06998">
        <ele>303.56</ele>
        <time>2025-03-11T14:09:22.779Z</time>
      </trkpt>
      <trkpt lat="47.90459" lon="5.07001">
        <ele>303.6</ele>
        <time>2025-03-11T14:09:24.400Z</time>
      </trkpt>
      <trkpt lat="47.90468" lon="5.07002">
        <ele>303.6</ele>
        <time>2025-03-11T14:09:26.023Z</time>
      </trkpt>
      <trkpt lat="47.90477" lon="5.07007">
        <ele>303.62</ele>
        <time>2025-03-11T14:09:27.647Z</time>
      </trkpt>
      <trkpt lat="47.90497" lon="5.0702">
        <ele>303.62</ele>
        <time>2025-03-11T14:09:29.275Z</time>
      </trkpt>
      <trkpt lat="47.9051" lon="5.07027">
        <ele>303.61</ele>
        <time>2025-03-11T14:09:30.905Z</time>
      </trkpt>
      <trkpt lat="47.90521" lon="5.07034">
        <ele>303.59</ele>
        <time>2025-03-11T14:09:32.537Z</time>
      </trkpt>
      <trkpt lat="47.90545" lon="5.07049">
        <ele>303.56</ele>
        <time>2025-03-11T14:09:34.173Z</time>
      </trkpt>
      <trkpt lat="47.90549" lon="5.0705">
        <ele>303.54</ele>
        <time>2025-03-11T14:09:35.810Z</time>
      </trkpt>
      <trkpt lat="47.90571" lon="5.07056">
        <ele>303.51</ele>
        <time>2025-03-11T14:09:37.450Z</time>
      </trkpt>
      <trkpt lat="47.9058" lon="5.07059">
        <ele>303.48</ele>
        <time>2025-03-11T14:09:39.092Z</time>
      </trkpt>
      <trkpt lat="47.90591" lon="5.07066">
        <ele>303.45</ele>
        <time>2025-03-11T14:09:40.736Z</time>
      </trkpt>
      <trkpt lat="47.90606" lon="5.07078">
        <ele>303.41</ele>
        <time>2025-03-11T14:09:42.383Z</time>
      </trkpt>
      <trkpt lat="47.90607" lon="5.07081">
        <ele>303.37</ele>
        <time>2025-03-11T14:09:44.030Z</time>
      </trkpt>
      <trkpt lat="47.90609" lon="5.07088">
        <ele>303.34</ele>
        <time>2025-03-11T14:09:45.678Z</time>
      </trkpt>
      <trkpt lat="47.90611" lon="5.07096">
        <ele>303.31</ele>
        <time>2025-03-11T14:09:47.327Z</time>
      </trkpt>
      <trkpt lat="47.90614" lon="5.07104">
        <ele>303.28</ele>
        <time>2025-03-11T14:09:48.977Z</time>
      </trkpt>
      <trkpt lat="47.90624" lon="5.07098">
        <ele>303.26</ele>
        <time>2025-03-11T14:09:50.628Z</time>
      </trkpt>
      <trkpt lat="47.90625" lon="5.07097">
        <ele>303.24</ele>
        <time>2025-03-11T14:09:52.280Z</time>
      </trkpt>
      <trkpt lat="47.90625" lon="5.07097">
        <ele>303.24</ele>
        <time>2025-03-11T14:09:53.932Z</time>
      </trkpt>
      <trkpt lat="47.90625" lon="5.07097">
        <ele>303.25</ele>
        <time>2025-03-11T14:09:55.584Z</time>
      </trkpt>
      <trkpt lat="47.90621" lon="5.07104">
        <ele>303.28</ele>
        <time>2025-03-11T14:09:57.237Z</time>
      </trkpt>
      <trkpt lat="47.90613" lon="5.07103">
        <ele>303.32</ele>
        <time>2025-03-11T14:09:58.891Z</time>
      </trkpt>
      <trkpt lat="47.90606" lon="5.07076">
        <ele>303.37</ele>
        <time>2025-03-11T14:10:00.548Z</time>
      </trkpt>
      <trkpt lat="47.90587" lon="5.07063">
        <ele>303.44</ele>
        <time>2025-03-11T14:10:02.208Z</time>
      </trkpt>
      <trkpt lat="47.90583" lon="5.07061">
        <ele>303.53</ele>
        <time>2025-03-11T14:10:03.869Z</time>
      </trkpt>
      <trkpt lat="47.90566" lon="5.07055">
        <ele>303.64</ele>
        <time>2025-03-11T14:10:05.533Z</time>
      </trkpt>
      <trkpt lat="47.9055" lon="5.07049">
        <ele>303.77</ele>
        <time>2025-03-11T14:10:07.199Z</time>
      </trkpt>
      <trkpt lat="47.90534" lon="5.07042">
        <ele>303.93</ele>
        <time>2025-03-11T14:10:08.868Z</time>
      </trkpt>
      <trkpt lat="47.9052" lon="5.07033">
        <ele>304.12</ele>
        <time>2025-03-11T14:10:10.540Z</time>
      </trkpt>
      <trkpt lat="47.90505" lon="5.07024">
        <ele>304.34</ele>
        <time>2025-03-11T14:10:12.214Z</time>
      </trkpt>
      <trkpt lat="47.90482" lon="5.0701">
        <ele>304.57</ele>
        <time>2025-03-11T14:10:13.892Z</time>
      </trkpt>
      <trkpt lat="47.90474" lon="5.07005">
        <ele>304.82</ele>
        <time>2025-03-11T14:10:15.572Z</time>
      </trkpt>
      <trkpt lat="47.90466" lon="5.07004">
        <ele>305.11</ele>
        <time>2025-03-11T14:10:17.253Z</time>
      </trkpt>
      <trkpt lat="47.90464" lon="5.07006">
        <ele>305.44</ele>
        <time>2025-03-11T14:10:18.934Z</time>
      </trkpt>
      <trkpt lat="47.90453" lon="5.0702">
        <ele>305.85</ele>
        <time>2025-03-11T14:10:20.618Z</time>
      </trkpt>
      <trkpt lat="47.90439" lon="5.07042">
        <ele>306.23</ele>
        <time>2025-03-11T14:10:22.305Z</time>
      </trkpt>
      <trkpt lat="47.9042" lon="5.07075">
        <ele>306.59</ele>
        <time>2025-03-11T14:10:23.996Z</time>
      </trkpt>
      <trkpt lat="47.90404" lon="5.07105">
        <ele>306.93</ele>
        <time>2025-03-11T14:10:25.692Z</time>
      </trkpt>
      <trkpt lat="47.90391" lon="5.07128">
        <ele>307.28</ele>
        <time>2025-03-11T14:10:27.391Z</time>
      </trkpt>
      <trkpt lat="47.90378" lon="5.07151">
        <ele>307.7</ele>
        <time>2025-03-11T14:10:29.093Z</time>
      </trkpt>
      <trkpt lat="47.9036" lon="5.07184">
        <ele>308.16</ele>
        <time>2025-03-11T14:10:30.800Z</time>
      </trkpt>
      <trkpt lat="47.90347" lon="5.07208">
        <ele>308.64</ele>
        <time>2025-03-11T14:10:32.510Z</time>
      </trkpt>
      <trkpt lat="47.90334" lon="5.07231">
        <ele>309.13</ele>
        <time>2025-03-11T14:10:34.223Z</time>
      </trkpt>
      <trkpt lat="47.90319" lon="5.07258">
        <ele>309.67</ele>
        <time>2025-03-11T14:10:35.940Z</time>
      </trkpt>
      <trkpt lat="47.90304" lon="5.07285">
        <ele>310.19</ele>
        <time>2025-03-11T14:10:37.661Z</time>
      </trkpt>
      <trkpt lat="47.90292" lon="5.07307">
        <ele>310.7</ele>
        <time>2025-03-11T14:10:39.385Z</time>
      </trkpt>
      <trkpt lat="47.90279" lon="5.07329">
        <ele>311.22</ele>
        <time>2025-03-11T14:10:41.112Z</time>
      </trkpt>
      <trkpt lat="47.90269" lon="5.07348">
        <ele>311.73</ele>
        <time>2025-03-11T14:10:42.842Z</time>
      </trkpt>
      <trkpt lat="47.90259" lon="5.07366">
        <ele>312.24</ele>
        <time>2025-03-11T14:10:44.574Z</time>
      </trkpt>
      <trkpt lat="47.90247" lon="5.07388">
        <ele>312.74</ele>
        <time>2025-03-11T14:10:46.309Z</time>
      </trkpt>
      <trkpt lat="47.90235" lon="5.0741">
        <ele>313.22</ele>
        <time>2025-03-11T14:10:48.047Z</time>
      </trkpt>
      <trkpt lat="47.90221" lon="5.07434">
        <ele>313.69</ele>
        <time>2025-03-11T14:10:49.789Z</time>
      </trkpt>
      <trkpt lat="47.90208" lon="5.07458">
        <ele>314.13</ele>
        <time>2025-03-11T14:10:51.534Z</time>
      </trkpt>
      <trkpt lat="47.90196" lon="5.0748">
        <ele>314.51</ele>
        <time>2025-03-11T14:10:53.282Z</time>
      </trkpt>
      <trkpt lat="47.90183" lon="5.07503">
        <ele>314.85</ele>
        <time>2025-03-11T14:10:55.033Z</time>
      </trkpt>
      <trkpt lat="47.90172" lon="5.07523">
        <ele>315.19</ele>
        <time>2025-03-11T14:10:56.787Z</time>
      </trkpt>
      <trkpt lat="47.90161" lon="5.07542">
        <ele>315.5</ele>
        <time>2025-03-11T14:10:58.544Z</time>
      </trkpt>
      <trkpt lat="47.90148" lon="5.07563">
        <ele>315.76</ele>
        <time>2025-03-11T14:11:00.304Z</time>
      </trkpt>
      <trkpt lat="47.90134" lon="5.07584">
        <ele>315.93</ele>
        <time>2025-03-11T14:11:02.067Z</time>
      </trkpt>
      <trkpt lat="47.90126" lon="5.07593">
        <ele>316.07</ele>
        <time>2025-03-11T14:11:03.832Z</time>
      </trkpt>
      <trkpt lat="47.90108" lon="5.07601">
        <ele>316.2</ele>
        <time>2025-03-11T14:11:05.600Z</time>
      </trkpt>
      <trkpt lat="47.90087" lon="5.07609">
        <ele>316.29</ele>
        <time>2025-03-11T14:11:07.371Z</time>
      </trkpt>
      <trkpt lat="47.90067" lon="5.07617">
        <ele>316.38</ele>
        <time>2025-03-11T14:11:09.145Z</time>
      </trkpt>
      <trkpt lat="47.90039" lon="5.07628">
        <ele>316.49</ele>
        <time>2025-03-11T14:11:10.924Z</time>
      </trkpt>
      <trkpt lat="47.90011" lon="5.07639">
        <ele>316.52</ele>
        <time>2025-03-11T14:11:12.708Z</time>
      </trkpt>
      <trkpt lat="47.89985" lon="5.07651">
        <ele>316.55</ele>
        <time>2025-03-11T14:11:14.496Z</time>
      </trkpt>
      <trkpt lat="47.89958" lon="5.07663">
        <ele>316.68</ele>
        <time>2025-03-11T14:11:16.288Z</time>
      </trkpt>
      <trkpt lat="47.89951" lon="5.07668">
        <ele>316.7</ele>
        <time>2025-03-11T14:11:18.082Z</time>
      </trkpt>
      <trkpt lat="47.8993" lon="5.0768">
        <ele>316.75</ele>
        <time>2025-03-11T14:11:19.879Z</time>
      </trkpt>
      <trkpt lat="47.8991" lon="5.07693">
        <ele>316.73</ele>
        <time>2025-03-11T14:11:21.680Z</time>
      </trkpt>
      <trkpt lat="47.89891" lon="5.07707">
        <ele>316.66</ele>
        <time>2025-03-11T14:11:23.484Z</time>
      </trkpt>
      <trkpt lat="47.89872" lon="5.07721">
        <ele>316.7</ele>
        <time>2025-03-11T14:11:25.292Z</time>
      </trkpt>
      <trkpt lat="47.89853" lon="5.07742">
        <ele>316.64</ele>
        <time>2025-03-11T14:11:27.103Z</time>
      </trkpt>
      <trkpt lat="47.89835" lon="5.07763">
        <ele>316.45</ele>
        <time>2025-03-11T14:11:28.918Z</time>
      </trkpt>
      <trkpt lat="47.89817" lon="5.07794">
        <ele>316.31</ele>
        <time>2025-03-11T14:11:30.737Z</time>
      </trkpt>
      <trkpt lat="47.89799" lon="5.07824">
        <ele>316.11</ele>
        <time>2025-03-11T14:11:32.561Z</time>
      </trkpt>
      <trkpt lat="47.8978" lon="5.07859">
        <ele>315.81</ele>
        <time>2025-03-11T14:11:34.390Z</time>
      </trkpt>
      <trkpt lat="47.89761" lon="5.07894">
        <ele>315.54</ele>
        <time>2025-03-11T14:11:36.223Z</time>
      </trkpt>
      <trkpt lat="47.89746" lon="5.07924">
        <ele>315.45</ele>
        <time>2025-03-11T14:11:38.061Z</time>
      </trkpt>
      <trkpt lat="47.8973" lon="5.07954">
        <ele>315.46</ele>
        <time>2025-03-11T14:11:39.903Z</time>
      </trkpt>
      <trkpt lat="47.89717" lon="5.07979">
        <ele>315.48</ele>
        <time>2025-03-11T14:11:41.748Z</time>
      </trkpt>
      <trkpt lat="47.89704" lon="5.08004">
        <ele>315.55</ele>
        <time>2025-03-11T14:11:43.596Z</time>
      </trkpt>
      <trkpt lat="47.89693" lon="5.08024">
        <ele>315.61</ele>
        <time>2025-03-11T14:11:45.447Z</time>
      </trkpt>
      <trkpt lat="47.89682" lon="5.08045">
        <ele>315.75</ele>
        <time>2025-03-11T14:11:47.301Z</time>
      </trkpt>
      <trkpt lat="47.8967" lon="5.08068">
        <ele>315.88</ele>
        <time>2025-03-11T14:11:49.158Z</time>
      </trkpt>
      <trkpt lat="47.89658" lon="5.0809">
        <ele>316.04</ele>
        <time>2025-03-11T14:11:51.018Z</time>
      </trkpt>
      <trkpt lat="47.89647" lon="5.08111">
        <ele>316.13</ele>
        <time>2025-03-11T14:11:52.881Z</time>
      </trkpt>
      <trkpt lat="47.89636" lon="5.08132">
        <ele>316.19</ele>
        <time>2025-03-11T14:11:54.747Z</time>
      </trkpt>
      <trkpt lat="47.89625" lon="5.08151">
        <ele>316.25</ele>
        <time>2025-03-11T14:11:56.616Z</time>
      </trkpt>
      <trkpt lat="47.89614" lon="5.0817">
        <ele>316.31</ele>
        <time>2025-03-11T14:11:58.487Z</time>
      </trkpt>
      <trkpt lat="47.8961" lon="5.08176">
        <ele>316.37</ele>
        <time>2025-03-11T14:12:00.359Z</time>
      </trkpt>
      <trkpt lat="47.89596" lon="5.08198">
        <ele>316.42</ele>
        <time>2025-03-11T14:12:02.234Z</time>
      </trkpt>
      <trkpt lat="47.89583" lon="5.08219">
        <ele>316.42</ele>
        <time>2025-03-11T14:12:04.113Z</time>
      </trkpt>
      <trkpt lat="47.8957" lon="5.0824">
        <ele>316.45</ele>
        <time>2025-03-11T14:12:05.995Z</time>
      </trkpt>
      <trkpt lat="47.89553" lon="5.08267">
        <ele>316.35</ele>
        <time>2025-03-11T14:12:07.881Z</time>
      </trkpt>
      <trkpt lat="47.89538" lon="5.08292">
        <ele>316.34</ele>
        <time>2025-03-11T14:12:09.770Z</time>
      </trkpt>
      <trkpt lat="47.89523" lon="5.08316">
        <ele>316.33</ele>
        <time>2025-03-11T14:12:11.663Z</time>
      </trkpt>
      <trkpt lat="47.89512" lon="5.08348">
        <ele>316.33</ele>
        <time>2025-03-11T14:12:13.560Z</time>
      </trkpt>
      <trkpt lat="47.89507" lon="5.08362">
        <ele>316.25</ele>
        <time>2025-03-11T14:12:15.458Z</time>
      </trkpt>
      <trkpt lat="47.89499" lon="5.08387">
        <ele>316.15</ele>
        <time>2025-03-11T14:12:17.359Z</time>
      </trkpt>
      <trkpt lat="47.89491" lon="5.08413">
        <ele>316.02</ele>
        <time>2025-03-11T14:12:19.263Z</time>
      </trkpt>
      <trkpt lat="47.89481" lon="5.08441">
        <ele>315.9</ele>
        <time>2025-03-11T14:12:21.171Z</time>
      </trkpt>
      <trkpt lat="47.89479" lon="5.08447">
        <ele>315.71</ele>
        <time>2025-03-11T14:12:23.080Z</time>
      </trkpt>
      <trkpt lat="47.89478" lon="5.08451">
        <ele>315.49</ele>
        <time>2025-03-11T14:12:24.989Z</time>
      </trkpt>
      <trkpt lat="47.89488" lon="5.08461">
        <ele>315.25</ele>
        <time>2025-03-11T14:12:26.900Z</time>
      </trkpt>
      <trkpt lat="47.89497" lon="5.08466">
        <ele>314.98</ele>
        <time>2025-03-11T14:12:28.813Z</time>
      </trkpt>
      <trkpt lat="47.89506" lon="5.08472">
        <ele>314.68</ele>
        <time>2025-03-11T14:12:30.727Z</time>
      </trkpt>
      <trkpt lat="47.8953" lon="5.08486">
        <ele>314.34</ele>
        <time>2025-03-11T14:12:32.645Z</time>
      </trkpt>
      <trkpt lat="47.89553" lon="5.08499">
        <ele>313.96</ele>
        <time>2025-03-11T14:12:34.567Z</time>
      </trkpt>
      <trkpt lat="47.89571" lon="5.08513">
        <ele>313.59</ele>
        <time>2025-03-11T14:12:36.492Z</time>
      </trkpt>
      <trkpt lat="47.89589" lon="5.08526">
        <ele>313.22</ele>
        <time>2025-03-11T14:12:38.421Z</time>
      </trkpt>
      <trkpt lat="47.89604" lon="5.08553">
        <ele>312.81</ele>
        <time>2025-03-11T14:12:40.353Z</time>
      </trkpt>
      <trkpt lat="47.89607" lon="5.08562">
        <ele>312.45</ele>
        <time>2025-03-11T14:12:42.286Z</time>
      </trkpt>
      <trkpt lat="47.89613" lon="5.0858">
        <ele>312.06</ele>
        <time>2025-03-11T14:12:44.222Z</time>
      </trkpt>
      <trkpt lat="47.89615" lon="5.08601">
        <ele>311.7</ele>
        <time>2025-03-11T14:12:46.160Z</time>
      </trkpt>
      <trkpt lat="47.89614" lon="5.08624">
        <ele>311.33</ele>
        <time>2025-03-11T14:12:48.100Z</time>
      </trkpt>
      <trkpt lat="47.89611" lon="5.08635">
        <ele>311.04</ele>
        <time>2025-03-11T14:12:50.042Z</time>
      </trkpt>
      <trkpt lat="47.89607" lon="5.08646">
        <ele>310.78</ele>
        <time>2025-03-11T14:12:51.985Z</time>
      </trkpt>
      <trkpt lat="47.89595" lon="5.08684">
        <ele>310.49</ele>
        <time>2025-03-11T14:12:53.933Z</time>
      </trkpt>
      <trkpt lat="47.89582" lon="5.08723">
        <ele>310.27</ele>
        <time>2025-03-11T14:12:55.885Z</time>
      </trkpt>
      <trkpt lat="47.8957" lon="5.08762">
        <ele>310.08</ele>
        <time>2025-03-11T14:12:57.842Z</time>
      </trkpt>
      <trkpt lat="47.89566" lon="5.08774">
        <ele>310.03</ele>
        <time>2025-03-11T14:12:59.800Z</time>
      </trkpt>
      <trkpt lat="47.89565" lon="5.08787">
        <ele>310.02</ele>
        <time>2025-03-11T14:13:01.760Z</time>
      </trkpt>
      <trkpt lat="47.89561" lon="5.08813">
        <ele>310.12</ele>
        <time>2025-03-11T14:13:03.723Z</time>
      </trkpt>
      <trkpt lat="47.8956" lon="5.08825">
        <ele>310.24</ele>
        <time>2025-03-11T14:13:05.687Z</time>
      </trkpt>
      <trkpt lat="47.89556" lon="5.0885">
        <ele>310.5</ele>
        <time>2025-03-11T14:13:07.654Z</time>
      </trkpt>
      <trkpt lat="47.89552" lon="5.08876">
        <ele>310.77</ele>
        <time>2025-03-11T14:13:09.623Z</time>
      </trkpt>
      <trkpt lat="47.89546" lon="5.08903">
        <ele>311.1</ele>
        <time>2025-03-11T14:13:11.596Z</time>
      </trkpt>
      <trkpt lat="47.89539" lon="5.08929">
        <ele>311.37</ele>
        <time>2025-03-11T14:13:13.572Z</time>
      </trkpt>
      <trkpt lat="47.89534" lon="5.08952">
        <ele>311.5</ele>
        <time>2025-03-11T14:13:15.550Z</time>
      </trkpt>
      <trkpt lat="47.89528" lon="5.08974">
        <ele>311.65</ele>
        <time>2025-03-11T14:13:17.531Z</time>
      </trkpt>
      <trkpt lat="47.89522" lon="5.09">
        <ele>311.84</ele>
        <time>2025-03-11T14:13:19.515Z</time>
      </trkpt>
      <trkpt lat="47.89515" lon="5.09025">
        <ele>312.08</ele>
        <time>2025-03-11T14:13:21.502Z</time>
      </trkpt>
      <trkpt lat="47.89509" lon="5.0905">
        <ele>312.3</ele>
        <time>2025-03-11T14:13:23.491Z</time>
      </trkpt>
      <trkpt lat="47.89503" lon="5.09075">
        <ele>312.51</ele>
        <time>2025-03-11T14:13:25.483Z</time>
      </trkpt>
      <trkpt lat="47.89496" lon="5.09101">
        <ele>312.72</ele>
        <time>2025-03-11T14:13:27.478Z</time>
      </trkpt>
      <trkpt lat="47.8949" lon="5.09127">
        <ele>312.9</ele>
        <time>2025-03-11T14:13:29.476Z</time>
      </trkpt>
      <trkpt lat="47.89484" lon="5.09149">
        <ele>313.06</ele>
        <time>2025-03-11T14:13:31.477Z</time>
      </trkpt>
      <trkpt lat="47.89478" lon="5.09171">
        <ele>313.21</ele>
        <time>2025-03-11T14:13:33.480Z</time>
      </trkpt>
      <trkpt lat="47.89475" lon="5.09184">
        <ele>313.37</ele>
        <time>2025-03-11T14:13:35.485Z</time>
      </trkpt>
      <trkpt lat="47.89467" lon="5.09214">
        <ele>313.51</ele>
        <time>2025-03-11T14:13:37.493Z</time>
      </trkpt>
      <trkpt lat="47.89459" lon="5.09242">
        <ele>313.67</ele>
        <time>2025-03-11T14:13:39.505Z</time>
      </trkpt>
      <trkpt lat="47.89452" lon="5.0927">
        <ele>313.84</ele>
        <time>2025-03-11T14:13:41.520Z</time>
      </trkpt>
      <trkpt lat="47.89443" lon="5.09294">
        <ele>313.94</ele>
        <time>2025-03-11T14:13:43.538Z</time>
      </trkpt>
      <trkpt lat="47.89426" lon="5.09316">
        <ele>314.1</ele>
        <time>2025-03-11T14:13:45.559Z</time>
      </trkpt>
      <trkpt lat="47.89415" lon="5.0933">
        <ele>314.18</ele>
        <time>2025-03-11T14:13:47.583Z</time>
      </trkpt>
      <trkpt lat="47.894" lon="5.09336">
        <ele>314.28</ele>
        <time>2025-03-11T14:13:49.609Z</time>
      </trkpt>
      <trkpt lat="47.89397" lon="5.09337">
        <ele>314.37</ele>
        <time>2025-03-11T14:13:51.636Z</time>
      </trkpt>
      <trkpt lat="47.89386" lon="5.09337">
        <ele>314.45</ele>
        <time>2025-03-11T14:13:53.664Z</time>
      </trkpt>
      <trkpt lat="47.8937" lon="5.09332">
        <ele>314.52</ele>
        <time>2025-03-11T14:13:55.695Z</time>
      </trkpt>
      <trkpt lat="47.89345" lon="5.09324">
        <ele>314.63</ele>
        <time>2025-03-11T14:13:57.730Z</time>
      </trkpt>
      <trkpt lat="47.8933" lon="5.0932">
        <ele>314.7</ele>
        <time>2025-03-11T14:13:59.768Z</time>
      </trkpt>
      <trkpt lat="47.89314" lon="5.09315">
        <ele>314.78</ele>
        <time>2025-03-11T14:14:01.808Z</time>
      </trkpt>
      <trkpt lat="47.89286" lon="5.09315">
        <ele>314.86</ele>
        <time>2025-03-11T14:14:03.853Z</time>
      </trkpt>
      <trkpt lat="47.89266" lon="5.09307">
        <ele>315.02</ele>
        <time>2025-03-11T14:14:05.901Z</time>
      </trkpt>
      <trkpt lat="47.89251" lon="5.09299">
        <ele>315.24</ele>
        <time>2025-03-11T14:14:07.952Z</time>
      </trkpt>
      <trkpt lat="47.89237" lon="5.09291">
        <ele>315.52</ele>
        <time>2025-03-11T14:14:10.005Z</time>
      </trkpt>
      <trkpt lat="47.89219" lon="5.09281">
        <ele>315.81</ele>
        <time>2025-03-11T14:14:12.061Z</time>
      </trkpt>
      <trkpt lat="47.89205" lon="5.09271">
        <ele>316.12</ele>
        <time>2025-03-11T14:14:14.120Z</time>
      </trkpt>
      <trkpt lat="47.8919" lon="5.09261">
        <ele>316.41</ele>
        <time>2025-03-11T14:14:16.181Z</time>
      </trkpt>
      <trkpt lat="47.89176" lon="5.09248">
        <ele>316.75</ele>
        <time>2025-03-11T14:14:18.245Z</time>
      </trkpt>
      <trkpt lat="47.89161" lon="5.09234">
        <ele>317.14</ele>
        <time>2025-03-11T14:14:20.312Z</time>
      </trkpt>
      <trkpt lat="47.8914" lon="5.09216">
        <ele>317.57</ele>
        <time>2025-03-11T14:14:22.382Z</time>
      </trkpt>
      <trkpt lat="47.8912" lon="5.09197">
        <ele>318.08</ele>
        <time>2025-03-11T14:14:24.456Z</time>
      </trkpt>
      <trkpt lat="47.89101" lon="5.09186">
        <ele>318.6</ele>
        <time>2025-03-11T14:14:26.534Z</time>
      </trkpt>
      <trkpt lat="47.89082" lon="5.09174">
        <ele>319.26</ele>
        <time>2025-03-11T14:14:28.615Z</time>
      </trkpt>
      <trkpt lat="47.89063" lon="5.09162">
        <ele>320.01</ele>
        <time>2025-03-11T14:14:30.699Z</time>
      </trkpt>
      <trkpt lat="47.89043" lon="5.0915">
        <ele>320.8</ele>
        <time>2025-03-11T14:14:32.787Z</time>
      </trkpt>
      <trkpt lat="47.89028" lon="5.09141">
        <ele>321.57</ele>
        <time>2025-03-11T14:14:34.877Z</time>
      </trkpt>
      <trkpt lat="47.89012" lon="5.09131">
        <ele>322.36</ele>
        <time>2025-03-11T14:14:36.970Z</time>
      </trkpt>
      <trkpt lat="47.88997" lon="5.09123">
        <ele>323.13</ele>
        <time>2025-03-11T14:14:39.066Z</time>
      </trkpt>
      <trkpt lat="47.88981" lon="5.09114">
        <ele>323.93</ele>
        <time>2025-03-11T14:14:41.164Z</time>
      </trkpt>
      <trkpt lat="47.88964" lon="5.09104">
        <ele>324.75</ele>
        <time>2025-03-11T14:14:43.265Z</time>
      </trkpt>
      <trkpt lat="47.88947" lon="5.09095">
        <ele>325.59</ele>
        <time>2025-03-11T14:14:45.369Z</time>
      </trkpt>
      <trkpt lat="47.88943" lon="5.09092">
        <ele>326.44</ele>
        <time>2025-03-11T14:14:47.474Z</time>
      </trkpt>
      <trkpt lat="47.88928" lon="5.09079">
        <ele>327.34</ele>
        <time>2025-03-11T14:14:49.582Z</time>
      </trkpt>
      <trkpt lat="47.88913" lon="5.09067">
        <ele>328.25</ele>
        <time>2025-03-11T14:14:51.692Z</time>
      </trkpt>
      <trkpt lat="47.88897" lon="5.09044">
        <ele>329.19</ele>
        <time>2025-03-11T14:14:53.806Z</time>
      </trkpt>
      <trkpt lat="47.88875" lon="5.09013">
        <ele>330.18</ele>
        <time>2025-03-11T14:14:55.925Z</time>
      </trkpt>
      <trkpt lat="47.88854" lon="5.08986">
        <ele>331.1</ele>
        <time>2025-03-11T14:14:58.048Z</time>
      </trkpt>
      <trkpt lat="47.88837" lon="5.08959">
        <ele>331.98</ele>
        <time>2025-03-11T14:15:00.175Z</time>
      </trkpt>
      <trkpt lat="47.8883" lon="5.08935">
        <ele>332.82</ele>
        <time>2025-03-11T14:15:02.305Z</time>
      </trkpt>
      <trkpt lat="47.88824" lon="5.08909">
        <ele>333.59</ele>
        <time>2025-03-11T14:15:04.438Z</time>
      </trkpt>
      <trkpt lat="47.88816" lon="5.0889">
        <ele>334.32</ele>
        <time>2025-03-11T14:15:06.573Z</time>
      </trkpt>
      <trkpt lat="47.88807" lon="5.08871">
        <ele>334.98</ele>
        <time>2025-03-11T14:15:08.711Z</time>
      </trkpt>
      <trkpt lat="47.88796" lon="5.08878">
        <ele>335.63</ele>
        <time>2025-03-11T14:15:10.851Z</time>
      </trkpt>
      <trkpt lat="47.88782" lon="5.08888">
        <ele>336.24</ele>
        <time>2025-03-11T14:15:12.993Z</time>
      </trkpt>
      <trkpt lat="47.88765" lon="5.08884">
        <ele>336.82</ele>
        <time>2025-03-11T14:15:15.138Z</time>
      </trkpt>
      <trkpt lat="47.88739" lon="5.08875">
        <ele>337.42</ele>
        <time>2025-03-11T14:15:17.287Z</time>
      </trkpt>
      <trkpt lat="47.88727" lon="5.08872">
        <ele>337.92</ele>
        <time>2025-03-11T14:15:19.438Z</time>
      </trkpt>
      <trkpt lat="47.88721" lon="5.0887">
        <ele>338.35</ele>
        <time>2025-03-11T14:15:21.590Z</time>
      </trkpt>
      <trkpt lat="47.88725" lon="5.08875">
        <ele>338.72</ele>
        <time>2025-03-11T14:15:23.743Z</time>
      </trkpt>
      <trkpt lat="47.88732" lon="5.08873">
        <ele>339.04</ele>
        <time>2025-03-11T14:15:25.897Z</time>
      </trkpt>
      <trkpt lat="47.88755" lon="5.0888">
        <ele>339.25</ele>
        <time>2025-03-11T14:15:28.055Z</time>
      </trkpt>
      <trkpt lat="47.88771" lon="5.08889">
        <ele>339.46</ele>
        <time>2025-03-11T14:15:30.216Z</time>
      </trkpt>
      <trkpt lat="47.88775" lon="5.08892">
        <ele>339.68</ele>
        <time>2025-03-11T14:15:32.378Z</time>
      </trkpt>
      <trkpt lat="47.88779" lon="5.0889">
        <ele>339.87</ele>
        <time>2025-03-11T14:15:34.540Z</time>
      </trkpt>
      <trkpt lat="47.88787" lon="5.08884">
        <ele>340.02</ele>
        <time>2025-03-11T14:15:36.704Z</time>
      </trkpt>
      <trkpt lat="47.88784" lon="5.08886">
        <ele>340.16</ele>
        <time>2025-03-11T14:15:38.868Z</time>
      </trkpt>
      <trkpt lat="47.88781" lon="5.08889">
        <ele>340.28</ele>
        <time>2025-03-11T14:15:41.033Z</time>
      </trkpt>
      <trkpt lat="47.88768" lon="5.08887">
        <ele>340.39</ele>
        <time>2025-03-11T14:15:43.200Z</time>
      </trkpt>
      <trkpt lat="47.88746" lon="5.08877">
        <ele>340.53</ele>
        <time>2025-03-11T14:15:45.371Z</time>
      </trkpt>
      <trkpt lat="47.88718" lon="5.0887">
        <ele>340.65</ele>
        <time>2025-03-11T14:15:47.546Z</time>
      </trkpt>
      <trkpt lat="47.88702" lon="5.08865">
        <ele>340.7</ele>
        <time>2025-03-11T14:15:49.724Z</time>
      </trkpt>
      <trkpt lat="47.88685" lon="5.08861">
        <ele>340.73</ele>
        <time>2025-03-11T14:15:51.904Z</time>
      </trkpt>
      <trkpt lat="47.8866" lon="5.08854">
        <ele>340.76</ele>
        <time>2025-03-11T14:15:54.088Z</time>
      </trkpt>
      <trkpt lat="47.88642" lon="5.08849">
        <ele>340.76</ele>
        <time>2025-03-11T14:15:56.275Z</time>
      </trkpt>
      <trkpt lat="47.88628" lon="5.08846">
        <ele>340.75</ele>
        <time>2025-03-11T14:15:58.465Z</time>
      </trkpt>
      <trkpt lat="47.88606" lon="5.08834">
        <ele>340.7</ele>
        <time>2025-03-11T14:16:00.658Z</time>
      </trkpt>
      <trkpt lat="47.88596" lon="5.08817">
        <ele>340.6</ele>
        <time>2025-03-11T14:16:02.854Z</time>
      </trkpt>
      <trkpt lat="47.88591" lon="5.08807">
        <ele>340.49</ele>
        <time>2025-03-11T14:16:05.051Z</time>
      </trkpt>
      <trkpt lat="47.8858" lon="5.08771">
        <ele>340.39</ele>
        <time>2025-03-11T14:16:07.252Z</time>
      </trkpt>
      <trkpt lat="47.88572" lon="5.08746">
        <ele>340.3</ele>
        <time>2025-03-11T14:16:09.456Z</time>
      </trkpt>
      <trkpt lat="47.88565" lon="5.08721">
        <ele>340.17</ele>
        <time>2025-03-11T14:16:11.663Z</time>
      </trkpt>
      <trkpt lat="47.88555" lon="5.08691">
        <ele>340.06</ele>
        <time>2025-03-11T14:16:13.874Z</time>
      </trkpt>
      <trkpt lat="47.88546" lon="5.08661">
        <ele>339.91</ele>
        <time>2025-03-11T14:16:16.088Z</time>
      </trkpt>
      <trkpt lat="47.88537" lon="5.08635">
        <ele>339.78</ele>
        <time>2025-03-11T14:16:18.306Z</time>
      </trkpt>
      <trkpt lat="47.88527" lon="5.0861">
        <ele>339.69</ele>
        <time>2025-03-11T14:16:20.527Z</time>
      </trkpt>
      <trkpt lat="47.88515" lon="5.08585">
        <ele>339.66</ele>
        <time>2025-03-11T14:16:22.751Z</time>
      </trkpt>
      <trkpt lat="47.88504" lon="5.08559">
        <ele>339.69</ele>
        <time>2025-03-11T14:16:24.978Z</time>
      </trkpt>
      <trkpt lat="47.88489" lon="5.08529">
        <ele>339.77</ele>
        <time>2025-03-11T14:16:27.209Z</time>
      </trkpt>
      <trkpt lat="47.88475" lon="5.08499">
        <ele>339.86</ele>
        <time>2025-03-11T14:16:29.444Z</time>
      </trkpt>
      <trkpt lat="47.88462" lon="5.0847">
        <ele>339.97</ele>
        <time>2025-03-11T14:16:31.683Z</time>
      </trkpt>
      <trkpt lat="47.88448" lon="5.08441">
        <ele>340.18</ele>
        <time>2025-03-11T14:16:33.926Z</time>
      </trkpt>
      <trkpt lat="47.88433" lon="5.08414">
        <ele>340.51</ele>
        <time>2025-03-11T14:16:36.173Z</time>
      </trkpt>
      <trkpt lat="47.88418" lon="5.08387">
        <ele>340.89</ele>
        <time>2025-03-11T14:16:38.423Z</time>
      </trkpt>
      <trkpt lat="47.884" lon="5.08367">
        <ele>341.39</ele>
        <time>2025-03-11T14:16:40.677Z</time>
      </trkpt>
      <trkpt lat="47.88382" lon="5.08347">
        <ele>342.02</ele>
        <time>2025-03-11T14:16:42.935Z</time>
      </trkpt>
      <trkpt lat="47.88362" lon="5.08326">
        <ele>342.76</ele>
        <time>2025-03-11T14:16:45.197Z</time>
      </trkpt>
      <trkpt lat="47.88341" lon="5.08304">
        <ele>343.53</ele>
        <time>2025-03-11T14:16:47.463Z</time>
      </trkpt>
      <trkpt lat="47.88326" lon="5.08295">
        <ele>344.36</ele>
        <time>2025-03-11T14:16:49.731Z</time>
      </trkpt>
      <trkpt lat="47.8831" lon="5.08286">
        <ele>345.3</ele>
        <time>2025-03-11T14:16:52.002Z</time>
      </trkpt>
      <trkpt lat="47.88289" lon="5.08276">
        <ele>346.39</ele>
        <time>2025-03-11T14:16:54.276Z</time>
      </trkpt>
      <trkpt lat="47.88269" lon="5.08266">
        <ele>347.53</ele>
        <time>2025-03-11T14:16:56.554Z</time>
      </trkpt>
      <trkpt lat="47.88246" lon="5.08255">
        <ele>348.78</ele>
        <time>2025-03-11T14:16:58.836Z</time>
      </trkpt>
      <trkpt lat="47.88222" lon="5.08244">
        <ele>350.12</ele>
        <time>2025-03-11T14:17:01.122Z</time>
      </trkpt>
      <trkpt lat="47.88206" lon="5.08236">
        <ele>351.52</ele>
        <time>2025-03-11T14:17:03.411Z</time>
      </trkpt>
      <trkpt lat="47.88189" lon="5.08228">
        <ele>353.04</ele>
        <time>2025-03-11T14:17:05.702Z</time>
      </trkpt>
      <trkpt lat="47.8817" lon="5.08219">
        <ele>354.63</ele>
        <time>2025-03-11T14:17:07.997Z</time>
      </trkpt>
      <trkpt lat="47.8815" lon="5.08209">
        <ele>356.24</ele>
        <time>2025-03-11T14:17:10.295Z</time>
      </trkpt>
      <trkpt lat="47.88134" lon="5.08201">
        <ele>357.98</ele>
        <time>2025-03-11T14:17:12.596Z</time>
      </trkpt>
      <trkpt lat="47.88117" lon="5.08193">
        <ele>359.76</ele>
        <time>2025-03-11T14:17:14.899Z</time>
      </trkpt>
      <trkpt lat="47.88089" lon="5.0818">
        <ele>361.66</ele>
        <time>2025-03-11T14:17:17.207Z</time>
      </trkpt>
      <trkpt lat="47.88064" lon="5.08168">
        <ele>363.46</ele>
        <time>2025-03-11T14:17:19.519Z</time>
      </trkpt>
      <trkpt lat="47.88049" lon="5.08161">
        <ele>365.24</ele>
        <time>2025-03-11T14:17:21.834Z</time>
      </trkpt>
      <trkpt lat="47.88028" lon="5.08152">
        <ele>367.07</ele>
        <time>2025-03-11T14:17:24.152Z</time>
      </trkpt>
      <trkpt lat="47.8801" lon="5.08148">
        <ele>368.93</ele>
        <time>2025-03-11T14:17:26.473Z</time>
      </trkpt>
      <trkpt lat="47.8799" lon="5.08148">
        <ele>370.69</ele>
        <time>2025-03-11T14:17:28.797Z</time>
      </trkpt>
      <trkpt lat="47.87972" lon="5.08148">
        <ele>372.41</ele>
        <time>2025-03-11T14:17:31.124Z</time>
      </trkpt>
      <trkpt lat="47.87951" lon="5.08149">
        <ele>374.15</ele>
        <time>2025-03-11T14:17:33.455Z</time>
      </trkpt>
      <trkpt lat="47.87925" lon="5.08149">
        <ele>375.94</ele>
        <time>2025-03-11T14:17:35.790Z</time>
      </trkpt>
      <trkpt lat="47.87905" lon="5.0815">
        <ele>377.64</ele>
        <time>2025-03-11T14:17:38.128Z</time>
      </trkpt>
      <trkpt lat="47.87886" lon="5.08147">
        <ele>379.24</ele>
        <time>2025-03-11T14:17:40.469Z</time>
      </trkpt>
      <trkpt lat="47.87866" lon="5.08137">
        <ele>380.77</ele>
        <time>2025-03-11T14:17:42.814Z</time>
      </trkpt>
      <trkpt lat="47.87847" lon="5.08129">
        <ele>382.32</ele>
        <time>2025-03-11T14:17:45.162Z</time>
      </trkpt>
      <trkpt lat="47.87824" lon="5.08118">
        <ele>383.87</ele>
        <time>2025-03-11T14:17:47.514Z</time>
      </trkpt>
      <trkpt lat="47.87801" lon="5.08108">
        <ele>385.37</ele>
        <time>2025-03-11T14:17:49.869Z</time>
      </trkpt>
      <trkpt lat="47.87783" lon="5.081">
        <ele>386.77</ele>
        <time>2025-03-11T14:17:52.227Z</time>
      </trkpt>
      <trkpt lat="47.87756" lon="5.08081">
        <ele>388.13</ele>
        <time>2025-03-11T14:17:54.590Z</time>
      </trkpt>
      <trkpt lat="47.87739" lon="5.08066">
        <ele>389.43</ele>
        <time>2025-03-11T14:17:56.956Z</time>
      </trkpt>
      <trkpt lat="47.87721" lon="5.08044">
        <ele>390.68</ele>
        <time>2025-03-11T14:17:59.326Z</time>
      </trkpt>
      <trkpt lat="47.87706" lon="5.08018">
        <ele>392.03</ele>
        <time>2025-03-11T14:18:01.700Z</time>
      </trkpt>
      <trkpt lat="47.87696" lon="5.0798">
        <ele>393.27</ele>
        <time>2025-03-11T14:18:04.078Z</time>
      </trkpt>
      <trkpt lat="47.87693" lon="5.07952">
        <ele>394.29</ele>
        <time>2025-03-11T14:18:06.459Z</time>
      </trkpt>
      <trkpt lat="47.8769" lon="5.07927">
        <ele>395.26</ele>
        <time>2025-03-11T14:18:08.843Z</time>
      </trkpt>
      <trkpt lat="47.87686" lon="5.07895">
        <ele>396.2</ele>
        <time>2025-03-11T14:18:11.230Z</time>
      </trkpt>
      <trkpt lat="47.87683" lon="5.07865">
        <ele>397.09</ele>
        <time>2025-03-11T14:18:13.621Z</time>
      </trkpt>
      <trkpt lat="47.87677" lon="5.07831">
        <ele>397.9</ele>
        <time>2025-03-11T14:18:16.016Z</time>
      </trkpt>
      <trkpt lat="47.87669" lon="5.07805">
        <ele>398.66</ele>
        <time>2025-03-11T14:18:18.414Z</time>
      </trkpt>
      <trkpt lat="47.87654" lon="5.07773">
        <ele>399.48</ele>
        <time>2025-03-11T14:18:20.816Z</time>
      </trkpt>
      <trkpt lat="47.87641" lon="5.07745">
        <ele>400.22</ele>
        <time>2025-03-11T14:18:23.221Z</time>
      </trkpt>
      <trkpt lat="47.87631" lon="5.07725">
        <ele>400.9</ele>
        <time>2025-03-11T14:18:25.629Z</time>
      </trkpt>
      <trkpt lat="47.87614" lon="5.077">
        <ele>401.56</ele>
        <time>2025-03-11T14:18:28.041Z</time>
      </trkpt>
      <trkpt lat="47.87602" lon="5.07682">
        <ele>402.15</ele>
        <time>2025-03-11T14:18:30.456Z</time>
      </trkpt>
      <trkpt lat="47.87582" lon="5.07662">
        <ele>402.74</ele>
        <time>2025-03-11T14:18:32.875Z</time>
      </trkpt>
      <trkpt lat="47.87567" lon="5.07647">
        <ele>403.32</ele>
        <time>2025-03-11T14:18:35.297Z</time>
      </trkpt>
      <trkpt lat="47.87546" lon="5.07627">
        <ele>404</ele>
        <time>2025-03-11T14:18:37.722Z</time>
      </trkpt>
      <trkpt lat="47.87531" lon="5.07611">
        <ele>404.68</ele>
        <time>2025-03-11T14:18:40.150Z</time>
      </trkpt>
      <trkpt lat="47.87518" lon="5.07599">
        <ele>405.36</ele>
        <time>2025-03-11T14:18:42.581Z</time>
      </trkpt>
      <trkpt lat="47.87499" lon="5.07579">
        <ele>405.97</ele>
        <time>2025-03-11T14:18:45.016Z</time>
      </trkpt>
      <trkpt lat="47.87481" lon="5.07563">
        <ele>406.52</ele>
        <time>2025-03-11T14:18:47.454Z</time>
      </trkpt>
      <trkpt lat="47.87462" lon="5.07548">
        <ele>407.08</ele>
        <time>2025-03-11T14:18:49.895Z</time>
      </trkpt>
      <trkpt lat="47.87441" lon="5.07531">
        <ele>407.72</ele>
        <time>2025-03-11T14:18:52.340Z</time>
      </trkpt>
      <trkpt lat="47.87434" lon="5.07525">
        <ele>408.34</ele>
        <time>2025-03-11T14:18:54.787Z</time>
      </trkpt>
      <trkpt lat="47.87428" lon="5.07521">
        <ele>408.96</ele>
        <time>2025-03-11T14:18:57.235Z</time>
      </trkpt>
      <trkpt lat="47.87412" lon="5.07509">
        <ele>409.6</ele>
        <time>2025-03-11T14:18:59.685Z</time>
      </trkpt>
      <trkpt lat="47.874" lon="5.07499">
        <ele>410.25</ele>
        <time>2025-03-11T14:19:02.138Z</time>
      </trkpt>
      <trkpt lat="47.87383" lon="5.07485">
        <ele>410.89</ele>
        <time>2025-03-11T14:19:04.594Z</time>
      </trkpt>
      <trkpt lat="47.87365" lon="5.07466">
        <ele>411.51</ele>
        <time>2025-03-11T14:19:07.053Z</time>
      </trkpt>
      <trkpt lat="47.87354" lon="5.07454">
        <ele>412.22</ele>
        <time>2025-03-11T14:19:09.515Z</time>
      </trkpt>
      <trkpt lat="47.87338" lon="5.07431">
        <ele>412.99</ele>
        <time>2025-03-11T14:19:11.980Z</time>
      </trkpt>
      <trkpt lat="47.87322" lon="5.07402">
        <ele>413.91</ele>
        <time>2025-03-11T14:19:14.449Z</time>
      </trkpt>
      <trkpt lat="47.87305" lon="5.07372">
        <ele>414.85</ele>
        <time>2025-03-11T14:19:16.922Z</time>
      </trkpt>
      <trkpt lat="47.87293" lon="5.07351">
        <ele>415.75</ele>
        <time>2025-03-11T14:19:19.398Z</time>
      </trkpt>
      <trkpt lat="47.87273" lon="5.07316">
        <ele>416.65</ele>
        <time>2025-03-11T14:19:21.879Z</time>
      </trkpt>
      <trkpt lat="47.87261" lon="5.07294">
        <ele>417.53</ele>
        <time>2025-03-11T14:19:24.363Z</time>
      </trkpt>
      <trkpt lat="47.87248" lon="5.07272">
        <ele>418.41</ele>
        <time>2025-03-11T14:19:26.850Z</time>
      </trkpt>
      <trkpt lat="47.87234" lon="5.07248">
        <ele>419.33</ele>
        <time>2025-03-11T14:19:29.341Z</time>
      </trkpt>
      <trkpt lat="47.87221" lon="5.07224">
        <ele>420.38</ele>
        <time>2025-03-11T14:19:31.835Z</time>
      </trkpt>
      <trkpt lat="47.87209" lon="5.07204">
        <ele>421.43</ele>
        <time>2025-03-11T14:19:34.332Z</time>
      </trkpt>
      <trkpt lat="47.87198" lon="5.07184">
        <ele>422.52</ele>
        <time>2025-03-11T14:19:36.832Z</time>
      </trkpt>
      <trkpt lat="47.87187" lon="5.07165">
        <ele>423.63</ele>
        <time>2025-03-11T14:19:39.335Z</time>
      </trkpt>
      <trkpt lat="47.87175" lon="5.07145">
        <ele>424.71</ele>
        <time>2025-03-11T14:19:41.840Z</time>
      </trkpt>
      <trkpt lat="47.87157" lon="5.07112">
        <ele>425.77</ele>
        <time>2025-03-11T14:19:44.350Z</time>
      </trkpt>
      <trkpt lat="47.87147" lon="5.07094">
        <ele>426.75</ele>
        <time>2025-03-11T14:19:46.863Z</time>
      </trkpt>
      <trkpt lat="47.87137" lon="5.07076">
        <ele>427.69</ele>
        <time>2025-03-11T14:19:49.378Z</time>
      </trkpt>
      <trkpt lat="47.87126" lon="5.07058">
        <ele>428.64</ele>
        <time>2025-03-11T14:19:51.896Z</time>
      </trkpt>
      <trkpt lat="47.87116" lon="5.0704">
        <ele>429.58</ele>
        <time>2025-03-11T14:19:54.416Z</time>
      </trkpt>
      <trkpt lat="47.87098" lon="5.07009">
        <ele>430.44</ele>
        <time>2025-03-11T14:19:56.941Z</time>
      </trkpt>
      <trkpt lat="47.87077" lon="5.06981">
        <ele>431.18</ele>
        <time>2025-03-11T14:19:59.470Z</time>
      </trkpt>
      <trkpt lat="47.87073" lon="5.06978">
        <ele>431.97</ele>
        <time>2025-03-11T14:20:02.000Z</time>
      </trkpt>
      <trkpt lat="47.8707" lon="5.06976">
        <ele>432.72</ele>
        <time>2025-03-11T14:20:04.530Z</time>
      </trkpt>
      <trkpt lat="47.87058" lon="5.06973">
        <ele>433.47</ele>
        <time>2025-03-11T14:20:07.062Z</time>
      </trkpt>
      <trkpt lat="47.87054" lon="5.06973">
        <ele>434.15</ele>
        <time>2025-03-11T14:20:09.595Z</time>
      </trkpt>
      <trkpt lat="47.87038" lon="5.06972">
        <ele>434.85</ele>
        <time>2025-03-11T14:20:12.131Z</time>
      </trkpt>
      <trkpt lat="47.87022" lon="5.0697">
        <ele>435.46</ele>
        <time>2025-03-11T14:20:14.669Z</time>
      </trkpt>
      <trkpt lat="47.87003" lon="5.06971">
        <ele>436.06</ele>
        <time>2025-03-11T14:20:17.210Z</time>
      </trkpt>
      <trkpt lat="47.86985" lon="5.06972">
        <ele>436.57</ele>
        <time>2025-03-11T14:20:19.754Z</time>
      </trkpt>
      <trkpt lat="47.86955" lon="5.06973">
        <ele>437</ele>
        <time>2025-03-11T14:20:22.303Z</time>
      </trkpt>
      <trkpt lat="47.86927" lon="5.06974">
        <ele>437.38</ele>
        <time>2025-03-11T14:20:24.856Z</time>
      </trkpt>
      <trkpt lat="47.86903" lon="5.06975">
        <ele>437.71</ele>
        <time>2025-03-11T14:20:27.413Z</time>
      </trkpt>
      <trkpt lat="47.86873" lon="5.06976">
        <ele>437.86</ele>
        <time>2025-03-11T14:20:29.975Z</time>
      </trkpt>
      <trkpt lat="47.86843" lon="5.06977">
        <ele>437.96</ele>
        <time>2025-03-11T14:20:32.542Z</time>
      </trkpt>
      <trkpt lat="47.86815" lon="5.06978">
        <ele>437.96</ele>
        <time>2025-03-11T14:20:35.113Z</time>
      </trkpt>
      <trkpt lat="47.86805" lon="5.06979">
        <ele>437.86</ele>
        <time>2025-03-11T14:20:37.686Z</time>
      </trkpt>
      <trkpt lat="47.86785" lon="5.0698">
        <ele>437.66</ele>
        <time>2025-03-11T14:20:40.262Z</time>
      </trkpt>
      <trkpt lat="47.86776" lon="5.0698">
        <ele>437.41</ele>
        <time>2025-03-11T14:20:42.839Z</time>
      </trkpt>
      <trkpt lat="47.86772" lon="5.06965">
        <ele>437.06</ele>
        <time>2025-03-11T14:20:45.418Z</time>
      </trkpt>
      <trkpt lat="47.86773" lon="5.0696">
        <ele>436.72</ele>
        <time>2025-03-11T14:20:47.998Z</time>
      </trkpt>
      <trkpt lat="47.86777" lon="5.06947">
        <ele>436.32</ele>
        <time>2025-03-11T14:20:50.579Z</time>
      </trkpt>
      <trkpt lat="47.86786" lon="5.06918">
        <ele>435.82</ele>
        <time>2025-03-11T14:20:53.164Z</time>
      </trkpt>
      <trkpt lat="47.86788" lon="5.06911">
        <ele>435.32</ele>
        <time>2025-03-11T14:20:55.750Z</time>
      </trkpt>
      <trkpt lat="47.86791" lon="5.06904">
        <ele>434.81</ele>
        <time>2025-03-11T14:20:58.337Z</time>
      </trkpt>
      <trkpt lat="47.86797" lon="5.06883">
        <ele>434.3</ele>
        <time>2025-03-11T14:21:00.926Z</time>
      </trkpt>
      <trkpt lat="47.86805" lon="5.06859">
        <ele>433.69</ele>
        <time>2025-03-11T14:21:03.518Z</time>
      </trkpt>
      <trkpt lat="47.86813" lon="5.06834">
        <ele>433.07</ele>
        <time>2025-03-11T14:21:06.113Z</time>
      </trkpt>
      <trkpt lat="47.86822" lon="5.06806">
        <ele>432.48</ele>
        <time>2025-03-11T14:21:08.711Z</time>
      </trkpt>
      <trkpt lat="47.8683" lon="5.06777">
        <ele>431.91</ele>
        <time>2025-03-11T14:21:11.313Z</time>
      </trkpt>
      <trkpt lat="47.86839" lon="5.06751">
        <ele>431.44</ele>
        <time>2025-03-11T14:21:13.918Z</time>
      </trkpt>
      <trkpt lat="47.86847" lon="5.06725">
        <ele>431</ele>
        <time>2025-03-11T14:21:16.526Z</time>
      </trkpt>
      <trkpt lat="47.86854" lon="5.06691">
        <ele>430.64</ele>
        <time>2025-03-11T14:21:19.138Z</time>
      </trkpt>
      <trkpt lat="47.86862" lon="5.06656">
        <ele>430.31</ele>
        <time>2025-03-11T14:21:21.754Z</time>
      </trkpt>
      <trkpt lat="47.86868" lon="5.06617">
        <ele>430.04</ele>
        <time>2025-03-11T14:21:24.374Z</time>
      </trkpt>
      <trkpt lat="47.86873" lon="5.06577">
        <ele>429.84</ele>
        <time>2025-03-11T14:21:26.998Z</time>
      </trkpt>
      <trkpt lat="47.86878" lon="5.06544">
        <ele>429.57</ele>
        <time>2025-03-11T14:21:29.626Z</time>
      </trkpt>
      <trkpt lat="47.86882" lon="5.0651">
        <ele>429.34</ele>
        <time>2025-03-11T14:21:32.258Z</time>
      </trkpt>
      <trkpt lat="47.86886" lon="5.06486">
        <ele>429.22</ele>
        <time>2025-03-11T14:21:34.892Z</time>
      </trkpt>
      <trkpt lat="47.86889" lon="5.06462">
        <ele>429.24</ele>
        <time>2025-03-11T14:21:37.529Z</time>
      </trkpt>
      <trkpt lat="47.86895" lon="5.0642">
        <ele>429.38</ele>
        <time>2025-03-11T14:21:40.171Z</time>
      </trkpt>
      <trkpt lat="47.86898" lon="5.06397">
        <ele>429.54</ele>
        <time>2025-03-11T14:21:42.815Z</time>
      </trkpt>
      <trkpt lat="47.86902" lon="5.06374">
        <ele>429.78</ele>
        <time>2025-03-11T14:21:45.462Z</time>
      </trkpt>
      <trkpt lat="47.86906" lon="5.06339">
        <ele>430.1</ele>
        <time>2025-03-11T14:21:48.113Z</time>
      </trkpt>
      <trkpt lat="47.8691" lon="5.0631">
        <ele>430.53</ele>
        <time>2025-03-11T14:21:50.767Z</time>
      </trkpt>
      <trkpt lat="47.86914" lon="5.06282">
        <ele>431.01</ele>
        <time>2025-03-11T14:21:53.424Z</time>
      </trkpt>
      <trkpt lat="47.86918" lon="5.06244">
        <ele>431.59</ele>
        <time>2025-03-11T14:21:56.085Z</time>
      </trkpt>
      <trkpt lat="47.86921" lon="5.06206">
        <ele>432.18</ele>
        <time>2025-03-11T14:21:58.750Z</time>
      </trkpt>
      <trkpt lat="47.86922" lon="5.06179">
        <ele>432.81</ele>
        <time>2025-03-11T14:22:01.418Z</time>
      </trkpt>
      <trkpt lat="47.86923" lon="5.06169">
        <ele>433.5</ele>
        <time>2025-03-11T14:22:04.087Z</time>
      </trkpt>
      <trkpt lat="47.86924" lon="5.06142">
        <ele>434.29</ele>
        <time>2025-03-11T14:22:06.759Z</time>
      </trkpt>
      <trkpt lat="47.86925" lon="5.06114">
        <ele>435.13</ele>
        <time>2025-03-11T14:22:09.434Z</time>
      </trkpt>
      <trkpt lat="47.86927" lon="5.06085">
        <ele>435.95</ele>
        <time>2025-03-11T14:22:12.112Z</time>
      </trkpt>
      <trkpt lat="47.86928" lon="5.06056">
        <ele>436.75</ele>
        <time>2025-03-11T14:22:14.793Z</time>
      </trkpt>
      <trkpt lat="47.8693" lon="5.06009">
        <ele>437.53</ele>
        <time>2025-03-11T14:22:17.479Z</time>
      </trkpt>
      <trkpt lat="47.86931" lon="5.06002">
        <ele>438.39</ele>
        <time>2025-03-11T14:22:20.166Z</time>
      </trkpt>
      <trkpt lat="47.86933" lon="5.0596">
        <ele>439.36</ele>
        <time>2025-03-11T14:22:22.858Z</time>
      </trkpt>
      <trkpt lat="47.86934" lon="5.05936">
        <ele>440.24</ele>
        <time>2025-03-11T14:22:25.552Z</time>
      </trkpt>
      <trkpt lat="47.86935" lon="5.05913">
        <ele>441.16</ele>
        <time>2025-03-11T14:22:28.249Z</time>
      </trkpt>
      <trkpt lat="47.86937" lon="5.05869">
        <ele>442.18</ele>
        <time>2025-03-11T14:22:30.950Z</time>
      </trkpt>
      <trkpt lat="47.86939" lon="5.0583">
        <ele>443.14</ele>
        <time>2025-03-11T14:22:33.656Z</time>
      </trkpt>
      <trkpt lat="47.8694" lon="5.058">
        <ele>443.99</ele>
        <time>2025-03-11T14:22:36.365Z</time>
      </trkpt>
      <trkpt lat="47.86942" lon="5.05769">
        <ele>444.87</ele>
        <time>2025-03-11T14:22:39.077Z</time>
      </trkpt>
      <trkpt lat="47.86944" lon="5.05725">
        <ele>445.69</ele>
        <time>2025-03-11T14:22:41.794Z</time>
      </trkpt>
      <trkpt lat="47.86944" lon="5.05705">
        <ele>446.45</ele>
        <time>2025-03-11T14:22:44.513Z</time>
      </trkpt>
      <trkpt lat="47.86945" lon="5.05692">
        <ele>447.15</ele>
        <time>2025-03-11T14:22:47.233Z</time>
      </trkpt>
      <trkpt lat="47.86946" lon="5.0567">
        <ele>447.8</ele>
        <time>2025-03-11T14:22:49.956Z</time>
      </trkpt>
      <trkpt lat="47.86946" lon="5.05667">
        <ele>448.36</ele>
        <time>2025-03-11T14:22:52.679Z</time>
      </trkpt>
      <trkpt lat="47.86948" lon="5.05644">
        <ele>448.84</ele>
        <time>2025-03-11T14:22:55.405Z</time>
      </trkpt>
      <trkpt lat="47.86948" lon="5.05637">
        <ele>449.28</ele>
        <time>2025-03-11T14:22:58.131Z</time>
      </trkpt>
      <trkpt lat="47.8695" lon="5.05615">
        <ele>449.64</ele>
        <time>2025-03-11T14:23:00.860Z</time>
      </trkpt>
      <trkpt lat="47.86952" lon="5.05591">
        <ele>449.93</ele>
        <time>2025-03-11T14:23:03.591Z</time>
      </trkpt>
      <trkpt lat="47.86954" lon="5.05567">
        <ele>450.2</ele>
        <time>2025-03-11T14:23:06.325Z</time>
      </trkpt>
      <trkpt lat="47.86955" lon="5.05558">
        <ele>450.38</ele>
        <time>2025-03-11T14:23:09.060Z</time>
      </trkpt>
      <trkpt lat="47.86957" lon="5.05527">
        <ele>450.49</ele>
        <time>2025-03-11T14:23:11.798Z</time>
      </trkpt>
      <trkpt lat="47.8696" lon="5.05496">
        <ele>450.51</ele>
        <time>2025-03-11T14:23:14.540Z</time>
      </trkpt>
      <trkpt lat="47.86962" lon="5.05468">
        <ele>450.44</ele>
        <time>2025-03-11T14:23:17.285Z</time>
      </trkpt>
      <trkpt lat="47.86964" lon="5.05441">
        <ele>450.3</ele>
        <time>2025-03-11T14:23:20.033Z</time>
      </trkpt>
      <trkpt lat="47.86964" lon="5.05412">
        <ele>450.15</ele>
        <time>2025-03-11T14:23:22.784Z</time>
      </trkpt>
      <trkpt lat="47.86964" lon="5.05383">
        <ele>449.95</ele>
        <time>2025-03-11T14:23:25.538Z</time>
      </trkpt>
      <trkpt lat="47.86961" lon="5.05357">
        <ele>449.7</ele>
        <time>2025-03-11T14:23:28.295Z</time>
      </trkpt>
      <trkpt lat="47.86957" lon="5.05329">
        <ele>449.37</ele>
        <time>2025-03-11T14:23:31.055Z</time>
      </trkpt>
      <trkpt lat="47.86952" lon="5.05296">
        <ele>449</ele>
        <time>2025-03-11T14:23:33.819Z</time>
      </trkpt>
      <trkpt lat="47.86947" lon="5.05262">
        <ele>448.59</ele>
        <time>2025-03-11T14:23:36.586Z</time>
      </trkpt>
      <trkpt lat="47.86942" lon="5.05229">
        <ele>448.11</ele>
        <time>2025-03-11T14:23:39.357Z</time>
      </trkpt>
      <trkpt lat="47.86937" lon="5.05195">
        <ele>447.64</ele>
        <time>2025-03-11T14:23:42.132Z</time>
      </trkpt>
      <trkpt lat="47.86932" lon="5.05165">
        <ele>447.14</ele>
        <time>2025-03-11T14:23:44.910Z</time>
      </trkpt>
      <trkpt lat="47.86928" lon="5.05135">
        <ele>446.57</ele>
        <time>2025-03-11T14:23:47.691Z</time>
      </trkpt>
      <trkpt lat="47.86923" lon="5.05092">
        <ele>445.89</ele>
        <time>2025-03-11T14:23:50.477Z</time>
      </trkpt>
      <trkpt lat="47.86919" lon="5.0505">
        <ele>445.23</ele>
        <time>2025-03-11T14:23:53.268Z</time>
      </trkpt>
      <trkpt lat="47.86917" lon="5.05014">
        <ele>444.51</ele>
        <time>2025-03-11T14:23:56.062Z</time>
      </trkpt>
      <trkpt lat="47.86916" lon="5.04978">
        <ele>443.73</ele>
        <time>2025-03-11T14:23:58.860Z</time>
      </trkpt>
      <trkpt lat="47.86914" lon="5.04938">
        <ele>442.93</ele>
        <time>2025-03-11T14:24:01.663Z</time>
      </trkpt>
      <trkpt lat="47.86913" lon="5.04927">
        <ele>442.15</ele>
        <time>2025-03-11T14:24:04.467Z</time>
      </trkpt>
      <trkpt lat="47.86911" lon="5.04892">
        <ele>441.3</ele>
        <time>2025-03-11T14:24:07.275Z</time>
      </trkpt>
      <trkpt lat="47.8691" lon="5.04857">
        <ele>440.43</ele>
        <time>2025-03-11T14:24:10.086Z</time>
      </trkpt>
      <trkpt lat="47.86907" lon="5.04815">
        <ele>439.52</ele>
        <time>2025-03-11T14:24:12.902Z</time>
      </trkpt>
      <trkpt lat="47.86905" lon="5.04774">
        <ele>438.62</ele>
        <time>2025-03-11T14:24:15.722Z</time>
      </trkpt>
      <trkpt lat="47.86902" lon="5.04734">
        <ele>437.68</ele>
        <time>2025-03-11T14:24:18.547Z</time>
      </trkpt>
      <trkpt lat="47.86899" lon="5.04694">
        <ele>436.73</ele>
        <time>2025-03-11T14:24:21.376Z</time>
      </trkpt>
      <trkpt lat="47.86895" lon="5.0465">
        <ele>435.74</ele>
        <time>2025-03-11T14:24:24.210Z</time>
      </trkpt>
      <trkpt lat="47.86891" lon="5.04606">
        <ele>434.79</ele>
        <time>2025-03-11T14:24:27.049Z</time>
      </trkpt>
      <trkpt lat="47.86886" lon="5.04575">
        <ele>433.92</ele>
        <time>2025-03-11T14:24:29.891Z</time>
      </trkpt>
      <trkpt lat="47.86881" lon="5.04543">
        <ele>433.01</ele>
        <time>2025-03-11T14:24:32.737Z</time>
      </trkpt>
      <trkpt lat="47.86871" lon="5.04506">
        <ele>432.06</ele>
        <time>2025-03-11T14:24:35.587Z</time>
      </trkpt>
      <trkpt lat="47.8686" lon="5.04468">
        <ele>431.12</ele>
        <time>2025-03-11T14:24:38.441Z</time>
      </trkpt>
      <trkpt lat="47.86856" lon="5.04453">
        <ele>430.24</ele>
        <time>2025-03-11T14:24:41.297Z</time>
      </trkpt>
      <trkpt lat="47.86845" lon="5.04411">
        <ele>429.32</ele>
        <time>2025-03-11T14:24:44.158Z</time>
      </trkpt>
      <trkpt lat="47.86834" lon="5.0437">
        <ele>428.32</ele>
        <time>2025-03-11T14:24:47.024Z</time>
      </trkpt>
      <trkpt lat="47.86823" lon="5.0434">
        <ele>427.43</ele>
        <time>2025-03-11T14:24:49.893Z</time>
      </trkpt>
      <trkpt lat="47.86813" lon="5.0431">
        <ele>426.64</ele>
        <time>2025-03-11T14:24:52.766Z</time>
      </trkpt>
      <trkpt lat="47.86801" lon="5.0428">
        <ele>425.9</ele>
        <time>2025-03-11T14:24:55.643Z</time>
      </trkpt>
      <trkpt lat="47.86789" lon="5.0425">
        <ele>425.14</ele>
        <time>2025-03-11T14:24:58.523Z</time>
      </trkpt>
      <trkpt lat="47.86778" lon="5.04224">
        <ele>424.37</ele>
        <time>2025-03-11T14:25:01.407Z</time>
      </trkpt>
      <trkpt lat="47.86768" lon="5.04198">
        <ele>423.62</ele>
        <time>2025-03-11T14:25:04.294Z</time>
      </trkpt>
      <trkpt lat="47.86754" lon="5.04164">
        <ele>422.94</ele>
        <time>2025-03-11T14:25:07.185Z</time>
      </trkpt>
      <trkpt lat="47.8674" lon="5.04129">
        <ele>422.27</ele>
        <time>2025-03-11T14:25:10.081Z</time>
      </trkpt>
      <trkpt lat="47.86727" lon="5.04095">
        <ele>421.55</ele>
        <time>2025-03-11T14:25:12.981Z</time>
      </trkpt>
      <trkpt lat="47.86713" lon="5.0406">
        <ele>420.9</ele>
        <time>2025-03-11T14:25:15.885Z</time>
      </trkpt>
      <trkpt lat="47.86708" lon="5.04049">
        <ele>420.24</ele>
        <time>2025-03-11T14:25:18.791Z</time>
      </trkpt>
      <trkpt lat="47.86699" lon="5.04026">
        <ele>419.57</ele>
        <time>2025-03-11T14:25:21.700Z</time>
      </trkpt>
      <trkpt lat="47.86687" lon="5.03994">
        <ele>418.87</ele>
        <time>2025-03-11T14:25:24.613Z</time>
      </trkpt>
      <trkpt lat="47.86674" lon="5.03963">
        <ele>418.2</ele>
        <time>2025-03-11T14:25:27.529Z</time>
      </trkpt>
      <trkpt lat="47.86662" lon="5.03932">
        <ele>417.54</ele>
        <time>2025-03-11T14:25:30.449Z</time>
      </trkpt>
      <trkpt lat="47.86647" lon="5.03895">
        <ele>416.86</ele>
        <time>2025-03-11T14:25:33.374Z</time>
      </trkpt>
      <trkpt lat="47.86632" lon="5.03858">
        <ele>416.15</ele>
        <time>2025-03-11T14:25:36.304Z</time>
      </trkpt>
      <trkpt lat="47.8662" lon="5.03826">
        <ele>415.43</ele>
        <time>2025-03-11T14:25:39.238Z</time>
      </trkpt>
      <trkpt lat="47.86607" lon="5.03795">
        <ele>414.67</ele>
        <time>2025-03-11T14:25:42.176Z</time>
      </trkpt>
      <trkpt lat="47.86597" lon="5.03761">
        <ele>413.89</ele>
        <time>2025-03-11T14:25:45.118Z</time>
      </trkpt>
      <trkpt lat="47.86588" lon="5.03727">
        <ele>413.06</ele>
        <time>2025-03-11T14:25:48.063Z</time>
      </trkpt>
      <trkpt lat="47.86579" lon="5.03693">
        <ele>412.26</ele>
        <time>2025-03-11T14:25:51.012Z</time>
      </trkpt>
      <trkpt lat="47.8657" lon="5.03658">
        <ele>411.38</ele>
        <time>2025-03-11T14:25:53.965Z</time>
      </trkpt>
      <trkpt lat="47.86563" lon="5.03629">
        <ele>410.48</ele>
        <time>2025-03-11T14:25:56.922Z</time>
      </trkpt>
      <trkpt lat="47.86555" lon="5.03601">
        <ele>409.5</ele>
        <time>2025-03-11T14:25:59.882Z</time>
      </trkpt>
      <trkpt lat="47.86545" lon="5.03562">
        <ele>408.57</ele>
        <time>2025-03-11T14:26:02.847Z</time>
      </trkpt>
      <trkpt lat="47.86535" lon="5.03523">
        <ele>407.57</ele>
        <time>2025-03-11T14:26:05.816Z</time>
      </trkpt>
      <trkpt lat="47.86532" lon="5.03512">
        <ele>406.59</ele>
        <time>2025-03-11T14:26:08.786Z</time>
      </trkpt>
      <trkpt lat="47.86522" lon="5.03473">
        <ele>405.51</ele>
        <time>2025-03-11T14:26:11.761Z</time>
      </trkpt>
      <trkpt lat="47.86512" lon="5.03434">
        <ele>404.42</ele>
        <time>2025-03-11T14:26:14.740Z</time>
      </trkpt>
      <trkpt lat="47.86503" lon="5.03397">
        <ele>403.42</ele>
        <time>2025-03-11T14:26:17.724Z</time>
      </trkpt>
      <trkpt lat="47.86493" lon="5.0336">
        <ele>402.39</ele>
        <time>2025-03-11T14:26:20.712Z</time>
      </trkpt>
      <trkpt lat="47.86484" lon="5.03323">
        <ele>401.37</ele>
        <time>2025-03-11T14:26:23.704Z</time>
      </trkpt>
      <trkpt lat="47.86474" lon="5.03285">
        <ele>400.3</ele>
        <time>2025-03-11T14:26:26.700Z</time>
      </trkpt>
      <trkpt lat="47.86463" lon="5.03244">
        <ele>399.14</ele>
        <time>2025-03-11T14:26:29.701Z</time>
      </trkpt>
      <trkpt lat="47.86451" lon="5.03204">
        <ele>398.05</ele>
        <time>2025-03-11T14:26:32.707Z</time>
      </trkpt>
      <trkpt lat="47.86448" lon="5.03193">
        <ele>397.09</ele>
        <time>2025-03-11T14:26:35.714Z</time>
      </trkpt>
      <trkpt lat="47.8644" lon="5.03168">
        <ele>396.09</ele>
        <time>2025-03-11T14:26:38.724Z</time>
      </trkpt>
      <trkpt lat="47.86432" lon="5.03143">
        <ele>395.07</ele>
        <time>2025-03-11T14:26:41.737Z</time>
      </trkpt>
      <trkpt lat="47.86417" lon="5.03118">
        <ele>394.05</ele>
        <time>2025-03-11T14:26:44.754Z</time>
      </trkpt>
      <trkpt lat="47.86401" lon="5.03093">
        <ele>393.22</ele>
        <time>2025-03-11T14:26:47.774Z</time>
      </trkpt>
      <trkpt lat="47.86385" lon="5.03068">
        <ele>392.52</ele>
        <time>2025-03-11T14:26:50.798Z</time>
      </trkpt>
      <trkpt lat="47.86369" lon="5.03042">
        <ele>391.8</ele>
        <time>2025-03-11T14:26:53.826Z</time>
      </trkpt>
      <trkpt lat="47.86345" lon="5.03019">
        <ele>391.05</ele>
        <time>2025-03-11T14:26:56.859Z</time>
      </trkpt>
      <trkpt lat="47.86321" lon="5.02996">
        <ele>390.28</ele>
        <time>2025-03-11T14:26:59.896Z</time>
      </trkpt>
      <trkpt lat="47.86314" lon="5.02987">
        <ele>389.53</ele>
        <time>2025-03-11T14:27:02.935Z</time>
      </trkpt>
      <trkpt lat="47.86293" lon="5.02959">
        <ele>388.65</ele>
        <time>2025-03-11T14:27:05.978Z</time>
      </trkpt>
      <trkpt lat="47.86279" lon="5.0293">
        <ele>387.8</ele>
        <time>2025-03-11T14:27:09.025Z</time>
      </trkpt>
      <trkpt lat="47.86266" lon="5.02901">
        <ele>387</ele>
        <time>2025-03-11T14:27:12.076Z</time>
      </trkpt>
      <trkpt lat="47.8625" lon="5.02866">
        <ele>386.21</ele>
        <time>2025-03-11T14:27:15.131Z</time>
      </trkpt>
      <trkpt lat="47.86234" lon="5.02831">
        <ele>385.48</ele>
        <time>2025-03-11T14:27:18.191Z</time>
      </trkpt>
      <trkpt lat="47.86222" lon="5.02801">
        <ele>384.68</ele>
        <time>2025-03-11T14:27:21.255Z</time>
      </trkpt>
      <trkpt lat="47.86209" lon="5.0277">
        <ele>383.81</ele>
        <time>2025-03-11T14:27:24.323Z</time>
      </trkpt>
      <trkpt lat="47.86196" lon="5.0273">
        <ele>383.04</ele>
        <time>2025-03-11T14:27:27.395Z</time>
      </trkpt>
      <trkpt lat="47.86182" lon="5.0269">
        <ele>382.25</ele>
        <time>2025-03-11T14:27:30.472Z</time>
      </trkpt>
      <trkpt lat="47.86179" lon="5.02676">
        <ele>381.48</ele>
        <time>2025-03-11T14:27:33.551Z</time>
      </trkpt>
      <trkpt lat="47.8617" lon="5.02642">
        <ele>380.64</ele>
        <time>2025-03-11T14:27:36.634Z</time>
      </trkpt>
      <trkpt lat="47.86161" lon="5.02609">
        <ele>379.84</ele>
        <time>2025-03-11T14:27:39.721Z</time>
      </trkpt>
      <trkpt lat="47.8615" lon="5.0257">
        <ele>379.01</ele>
        <time>2025-03-11T14:27:42.812Z</time>
      </trkpt>
      <trkpt lat="47.8614" lon="5.02531">
        <ele>378.18</ele>
        <time>2025-03-11T14:27:45.908Z</time>
      </trkpt>
      <trkpt lat="47.86133" lon="5.02499">
        <ele>377.23</ele>
        <time>2025-03-11T14:27:49.007Z</time>
      </trkpt>
      <trkpt lat="47.86125" lon="5.02466">
        <ele>376.32</ele>
        <time>2025-03-11T14:27:52.110Z</time>
      </trkpt>
      <trkpt lat="47.86118" lon="5.02427">
        <ele>375.54</ele>
        <time>2025-03-11T14:27:55.217Z</time>
      </trkpt>
      <trkpt lat="47.86111" lon="5.02387">
        <ele>374.59</ele>
        <time>2025-03-11T14:27:58.329Z</time>
      </trkpt>
      <trkpt lat="47.86104" lon="5.02347">
        <ele>373.53</ele>
        <time>2025-03-11T14:28:01.445Z</time>
      </trkpt>
      <trkpt lat="47.86097" lon="5.02306">
        <ele>372.62</ele>
        <time>2025-03-11T14:28:04.566Z</time>
      </trkpt>
      <trkpt lat="47.86092" lon="5.02279">
        <ele>371.64</ele>
        <time>2025-03-11T14:28:07.690Z</time>
      </trkpt>
      <trkpt lat="47.86086" lon="5.02253">
        <ele>370.54</ele>
        <time>2025-03-11T14:28:10.817Z</time>
      </trkpt>
      <trkpt lat="47.86081" lon="5.02242">
        <ele>369.43</ele>
        <time>2025-03-11T14:28:13.945Z</time>
      </trkpt>
      <trkpt lat="47.86065" lon="5.02207">
        <ele>368.08</ele>
        <time>2025-03-11T14:28:17.078Z</time>
      </trkpt>
      <trkpt lat="47.86052" lon="5.02177">
        <ele>366.94</ele>
        <time>2025-03-11T14:28:20.215Z</time>
      </trkpt>
      <trkpt lat="47.86039" lon="5.02147">
        <ele>365.97</ele>
        <time>2025-03-11T14:28:23.356Z</time>
      </trkpt>
      <trkpt lat="47.86017" lon="5.02127">
        <ele>364.73</ele>
        <time>2025-03-11T14:28:26.501Z</time>
      </trkpt>
      <trkpt lat="47.85996" lon="5.02108">
        <ele>363.4</ele>
        <time>2025-03-11T14:28:29.650Z</time>
      </trkpt>
      <trkpt lat="47.85974" lon="5.02089">
        <ele>362.1</ele>
        <time>2025-03-11T14:28:32.803Z</time>
      </trkpt>
      <trkpt lat="47.85952" lon="5.0207">
        <ele>360.93</ele>
        <time>2025-03-11T14:28:35.960Z</time>
      </trkpt>
      <trkpt lat="47.85922" lon="5.02059">
        <ele>359.57</ele>
        <time>2025-03-11T14:28:39.122Z</time>
      </trkpt>
      <trkpt lat="47.85892" lon="5.02048">
        <ele>358.19</ele>
        <time>2025-03-11T14:28:42.289Z</time>
      </trkpt>
      <trkpt lat="47.85872" lon="5.02038">
        <ele>356.89</ele>
        <time>2025-03-11T14:28:45.459Z</time>
      </trkpt>
      <trkpt lat="47.85851" lon="5.02029">
        <ele>355.58</ele>
        <time>2025-03-11T14:28:48.632Z</time>
      </trkpt>
      <trkpt lat="47.85831" lon="5.02019">
        <ele>354.26</ele>
        <time>2025-03-11T14:28:51.809Z</time>
      </trkpt>
      <trkpt lat="47.85822" lon="5.02013">
        <ele>352.97</ele>
        <time>2025-03-11T14:28:54.987Z</time>
      </trkpt>
      <trkpt lat="47.85795" lon="5.01995">
        <ele>351.69</ele>
        <time>2025-03-11T14:28:58.170Z</time>
      </trkpt>
      <trkpt lat="47.85768" lon="5.01978">
        <ele>350.37</ele>
        <time>2025-03-11T14:29:01.358Z</time>
      </trkpt>
      <trkpt lat="47.85738" lon="5.01967">
        <ele>348.79</ele>
        <time>2025-03-11T14:29:04.551Z</time>
      </trkpt>
      <trkpt lat="47.85707" lon="5.01956">
        <ele>347.39</ele>
        <time>2025-03-11T14:29:07.749Z</time>
      </trkpt>
      <trkpt lat="47.85677" lon="5.01954">
        <ele>345.88</ele>
        <time>2025-03-11T14:29:10.952Z</time>
      </trkpt>
      <trkpt lat="47.85646" lon="5.01951">
        <ele>344.32</ele>
        <time>2025-03-11T14:29:14.160Z</time>
      </trkpt>
      <trkpt lat="47.85626" lon="5.01949">
        <ele>342.87</ele>
        <time>2025-03-11T14:29:17.371Z</time>
      </trkpt>
      <trkpt lat="47.85617" lon="5.01948">
        <ele>341.5</ele>
        <time>2025-03-11T14:29:20.583Z</time>
      </trkpt>
      <trkpt lat="47.85587" lon="5.01946">
        <ele>340.11</ele>
        <time>2025-03-11T14:29:23.800Z</time>
      </trkpt>
      <trkpt lat="47.85557" lon="5.01943">
        <ele>338.69</ele>
        <time>2025-03-11T14:29:27.022Z</time>
      </trkpt>
      <trkpt lat="47.85527" lon="5.0194">
        <ele>337.3</ele>
        <time>2025-03-11T14:29:30.249Z</time>
      </trkpt>
      <trkpt lat="47.85517" lon="5.01939">
        <ele>335.94</ele>
        <time>2025-03-11T14:29:33.477Z</time>
      </trkpt>
      <trkpt lat="47.85498" lon="5.01933">
        <ele>334.6</ele>
        <time>2025-03-11T14:29:36.708Z</time>
      </trkpt>
      <trkpt lat="47.8548" lon="5.01926">
        <ele>333.24</ele>
        <time>2025-03-11T14:29:39.942Z</time>
      </trkpt>
      <trkpt lat="47.85459" lon="5.01912">
        <ele>331.96</ele>
        <time>2025-03-11T14:29:43.180Z</time>
      </trkpt>
      <trkpt lat="47.85437" lon="5.01898">
        <ele>330.63</ele>
        <time>2025-03-11T14:29:46.422Z</time>
      </trkpt>
      <trkpt lat="47.85419" lon="5.01877">
        <ele>329.32</ele>
        <time>2025-03-11T14:29:49.668Z</time>
      </trkpt>
      <trkpt lat="47.854" lon="5.01856">
        <ele>327.98</ele>
        <time>2025-03-11T14:29:52.917Z</time>
      </trkpt>
      <trkpt lat="47.85378" lon="5.01831">
        <ele>326.65</ele>
        <time>2025-03-11T14:29:56.171Z</time>
      </trkpt>
      <trkpt lat="47.85356" lon="5.01806">
        <ele>325.3</ele>
        <time>2025-03-11T14:29:59.429Z</time>
      </trkpt>
      <trkpt lat="47.85349" lon="5.01797">
        <ele>324.03</ele>
        <time>2025-03-11T14:30:02.689Z</time>
      </trkpt>
      <trkpt lat="47.85329" lon="5.01768">
        <ele>322.74</ele>
        <time>2025-03-11T14:30:05.953Z</time>
      </trkpt>
      <trkpt lat="47.85309" lon="5.01738">
        <ele>321.51</ele>
        <time>2025-03-11T14:30:09.222Z</time>
      </trkpt>
      <trkpt lat="47.85296" lon="5.01718">
        <ele>320.37</ele>
        <time>2025-03-11T14:30:12.494Z</time>
      </trkpt>
      <trkpt lat="47.85275" lon="5.01685">
        <ele>319.12</ele>
        <time>2025-03-11T14:30:15.771Z</time>
      </trkpt>
      <trkpt lat="47.85253" lon="5.01651">
        <ele>317.91</ele>
        <time>2025-03-11T14:30:19.053Z</time>
      </trkpt>
      <trkpt lat="47.85241" lon="5.01632">
        <ele>316.79</ele>
        <time>2025-03-11T14:30:22.338Z</time>
      </trkpt>
      <trkpt lat="47.85225" lon="5.016">
        <ele>315.71</ele>
        <time>2025-03-11T14:30:25.627Z</time>
      </trkpt>
      <trkpt lat="47.85209" lon="5.01568">
        <ele>314.61</ele>
        <time>2025-03-11T14:30:28.920Z</time>
      </trkpt>
      <trkpt lat="47.85199" lon="5.01536">
        <ele>313.52</ele>
        <time>2025-03-11T14:30:32.217Z</time>
      </trkpt>
      <trkpt lat="47.85188" lon="5.01505">
        <ele>312.48</ele>
        <time>2025-03-11T14:30:35.518Z</time>
      </trkpt>
      <trkpt lat="47.8518" lon="5.01473">
        <ele>311.49</ele>
        <time>2025-03-11T14:30:38.822Z</time>
      </trkpt>
      <trkpt lat="47.85173" lon="5.0144">
        <ele>310.52</ele>
        <time>2025-03-11T14:30:42.130Z</time>
      </trkpt>
      <trkpt lat="47.85169" lon="5.01401">
        <ele>309.68</ele>
        <time>2025-03-11T14:30:45.442Z</time>
      </trkpt>
      <trkpt lat="47.85171" lon="5.01388">
        <ele>308.9</ele>
        <time>2025-03-11T14:30:48.756Z</time>
      </trkpt>
      <trkpt lat="47.85173" lon="5.01375">
        <ele>308.14</ele>
        <time>2025-03-11T14:30:52.071Z</time>
      </trkpt>
      <trkpt lat="47.85176" lon="5.0135">
        <ele>307.44</ele>
        <time>2025-03-11T14:30:55.389Z</time>
      </trkpt>
      <trkpt lat="47.85188" lon="5.01331">
        <ele>306.8</ele>
        <time>2025-03-11T14:30:58.710Z</time>
      </trkpt>
      <trkpt lat="47.852" lon="5.01312">
        <ele>306.12</ele>
        <time>2025-03-11T14:31:02.034Z</time>
      </trkpt>
      <trkpt lat="47.85221" lon="5.01281">
        <ele>305.44</ele>
        <time>2025-03-11T14:31:05.362Z</time>
      </trkpt>
      <trkpt lat="47.85242" lon="5.01249">
        <ele>304.8</ele>
        <time>2025-03-11T14:31:08.695Z</time>
      </trkpt>
      <trkpt lat="47.85255" lon="5.0122">
        <ele>304.19</ele>
        <time>2025-03-11T14:31:12.032Z</time>
      </trkpt>
      <trkpt lat="47.85259" lon="5.01211">
        <ele>303.64</ele>
        <time>2025-03-11T14:31:15.370Z</time>
      </trkpt>
      <trkpt lat="47.85262" lon="5.01199">
        <ele>303.07</ele>
        <time>2025-03-11T14:31:18.709Z</time>
      </trkpt>
      <trkpt lat="47.85256" lon="5.01179">
        <ele>302.41</ele>
        <time>2025-03-11T14:31:22.051Z</time>
      </trkpt>
      <trkpt lat="47.85251" lon="5.0116">
        <ele>301.84</ele>
        <time>2025-03-11T14:31:25.395Z</time>
      </trkpt>
      <trkpt lat="47.85247" lon="5.01153">
        <ele>301.34</ele>
        <time>2025-03-11T14:31:28.740Z</time>
      </trkpt>
      <trkpt lat="47.85226" lon="5.01126">
        <ele>300.79</ele>
        <time>2025-03-11T14:31:32.089Z</time>
      </trkpt>
      <trkpt lat="47.85214" lon="5.01101">
        <ele>300.31</ele>
        <time>2025-03-11T14:31:35.442Z</time>
      </trkpt>
      <trkpt lat="47.8522" lon="5.01094">
        <ele>299.98</ele>
        <time>2025-03-11T14:31:38.796Z</time>
      </trkpt>
      <trkpt lat="47.85223" lon="5.0109">
        <ele>299.69</ele>
        <time>2025-03-11T14:31:42.151Z</time>
      </trkpt>
      <trkpt lat="47.85235" lon="5.01074">
        <ele>299.45</ele>
        <time>2025-03-11T14:31:45.508Z</time>
      </trkpt>
      <trkpt lat="47.85248" lon="5.01058">
        <ele>299.21</ele>
        <time>2025-03-11T14:31:48.868Z</time>
      </trkpt>
      <trkpt lat="47.85252" lon="5.01053">
        <ele>299.05</ele>
        <time>2025-03-11T14:31:52.229Z</time>
      </trkpt>
      <trkpt lat="47.8527" lon="5.0102">
        <ele>299.01</ele>
        <time>2025-03-11T14:31:55.594Z</time>
      </trkpt>
      <trkpt lat="47.85274" lon="5.01013">
        <ele>298.94</ele>
        <time>2025-03-11T14:31:58.960Z</time>
      </trkpt>
      <trkpt lat="47.8528" lon="5.00997">
        <ele>298.92</ele>
        <time>2025-03-11T14:32:02.328Z</time>
      </trkpt>
      <trkpt lat="47.85282" lon="5.00989">
        <ele>298.92</ele>
        <time>2025-03-11T14:32:05.697Z</time>
      </trkpt>
      <trkpt lat="47.85285" lon="5.00963">
        <ele>298.99</ele>
        <time>2025-03-11T14:32:09.069Z</time>
      </trkpt>
      <trkpt lat="47.85287" lon="5.00937">
        <ele>299.06</ele>
        <time>2025-03-11T14:32:12.444Z</time>
      </trkpt>
      <trkpt lat="47.85291" lon="5.009">
        <ele>299.1</ele>
        <time>2025-03-11T14:32:15.823Z</time>
      </trkpt>
      <trkpt lat="47.85294" lon="5.00864">
        <ele>299.2</ele>
        <time>2025-03-11T14:32:19.206Z</time>
      </trkpt>
      <trkpt lat="47.85297" lon="5.00832">
        <ele>299.32</ele>
        <time>2025-03-11T14:32:22.592Z</time>
      </trkpt>
      <trkpt lat="47.853" lon="5.00801">
        <ele>299.38</ele>
        <time>2025-03-11T14:32:25.982Z</time>
      </trkpt>
      <trkpt lat="47.85304" lon="5.00762">
        <ele>299.44</ele>
        <time>2025-03-11T14:32:29.376Z</time>
      </trkpt>
      <trkpt lat="47.85308" lon="5.00723">
        <ele>299.59</ele>
        <time>2025-03-11T14:32:32.774Z</time>
      </trkpt>
      <trkpt lat="47.85312" lon="5.0068">
        <ele>299.78</ele>
        <time>2025-03-11T14:32:36.177Z</time>
      </trkpt>
      <trkpt lat="47.85316" lon="5.00637">
        <ele>299.83</ele>
        <time>2025-03-11T14:32:39.584Z</time>
      </trkpt>
      <trkpt lat="47.85319" lon="5.00601">
        <ele>299.91</ele>
        <time>2025-03-11T14:32:42.995Z</time>
      </trkpt>
      <trkpt lat="47.85323" lon="5.00565">
        <ele>300.09</ele>
        <time>2025-03-11T14:32:46.410Z</time>
      </trkpt>
      <trkpt lat="47.85326" lon="5.00531">
        <ele>300.25</ele>
        <time>2025-03-11T14:32:49.829Z</time>
      </trkpt>
      <trkpt lat="47.85329" lon="5.00496">
        <ele>300.37</ele>
        <time>2025-03-11T14:32:53.252Z</time>
      </trkpt>
      <trkpt lat="47.85332" lon="5.00466">
        <ele>300.37</ele>
        <time>2025-03-11T14:32:56.678Z</time>
      </trkpt>
      <trkpt lat="47.85335" lon="5.00436">
        <ele>300.34</ele>
        <time>2025-03-11T14:33:00.107Z</time>
      </trkpt>
      <trkpt lat="47.85338" lon="5.00407">
        <ele>300.3</ele>
        <time>2025-03-11T14:33:03.540Z</time>
      </trkpt>
      <trkpt lat="47.85339" lon="5.00397">
        <ele>300.3</ele>
        <time>2025-03-11T14:33:06.974Z</time>
      </trkpt>
      <trkpt lat="47.85349" lon="5.00354">
        <ele>300.25</ele>
        <time>2025-03-11T14:33:10.413Z</time>
      </trkpt>
      <trkpt lat="47.85354" lon="5.00338">
        <ele>300.25</ele>
        <time>2025-03-11T14:33:13.853Z</time>
      </trkpt>
      <trkpt lat="47.85363" lon="5.00317">
        <ele>300.21</ele>
        <time>2025-03-11T14:33:17.296Z</time>
      </trkpt>
      <trkpt lat="47.85366" lon="5.0031">
        <ele>300.18</ele>
        <time>2025-03-11T14:33:20.740Z</time>
      </trkpt>
      <trkpt lat="47.85381" lon="5.00272">
        <ele>300.12</ele>
        <time>2025-03-11T14:33:24.189Z</time>
      </trkpt>
      <trkpt lat="47.85391" lon="5.00249">
        <ele>300.08</ele>
        <time>2025-03-11T14:33:27.641Z</time>
      </trkpt>
      <trkpt lat="47.85401" lon="5.00225">
        <ele>300.01</ele>
        <time>2025-03-11T14:33:31.096Z</time>
      </trkpt>
      <trkpt lat="47.85413" lon="5.00195">
        <ele>299.94</ele>
        <time>2025-03-11T14:33:34.554Z</time>
      </trkpt>
      <trkpt lat="47.85425" lon="5.00165">
        <ele>299.81</ele>
        <time>2025-03-11T14:33:38.016Z</time>
      </trkpt>
      <trkpt lat="47.8544" lon="5.00128">
        <ele>299.76</ele>
        <time>2025-03-11T14:33:41.483Z</time>
      </trkpt>
      <trkpt lat="47.85455" lon="5.00091">
        <ele>299.67</ele>
        <time>2025-03-11T14:33:44.955Z</time>
      </trkpt>
      <trkpt lat="47.85467" lon="5.00062">
        <ele>299.6</ele>
        <time>2025-03-11T14:33:48.430Z</time>
      </trkpt>
      <trkpt lat="47.85479" lon="5.00033">
        <ele>299.52</ele>
        <time>2025-03-11T14:33:51.909Z</time>
      </trkpt>
      <trkpt lat="47.8549" lon="5.00005">
        <ele>299.36</ele>
        <time>2025-03-11T14:33:55.391Z</time>
      </trkpt>
      <trkpt lat="47.85501" lon="4.99978">
        <ele>299.33</ele>
        <time>2025-03-11T14:33:58.877Z</time>
      </trkpt>
      <trkpt lat="47.85514" lon="4.99948">
        <ele>299.27</ele>
        <time>2025-03-11T14:34:02.367Z</time>
      </trkpt>
      <trkpt lat="47.85526" lon="4.99918">
        <ele>299.15</ele>
        <time>2025-03-11T14:34:05.860Z</time>
      </trkpt>
      <trkpt lat="47.8554" lon="4.99883">
        <ele>299.03</ele>
        <time>2025-03-11T14:34:09.358Z</time>
      </trkpt>
      <trkpt lat="47.85555" lon="4.99847">
        <ele>298.83</ele>
        <time>2025-03-11T14:34:12.860Z</time>
      </trkpt>
      <trkpt lat="47.85566" lon="4.9982">
        <ele>298.71</ele>
        <time>2025-03-11T14:34:16.366Z</time>
      </trkpt>
      <trkpt lat="47.85577" lon="4.99793">
        <ele>298.58</ele>
        <time>2025-03-11T14:34:19.875Z</time>
      </trkpt>
      <trkpt lat="47.85589" lon="4.99763">
        <ele>298.51</ele>
        <time>2025-03-11T14:34:23.388Z</time>
      </trkpt>
      <trkpt lat="47.85601" lon="4.99733">
        <ele>298.43</ele>
        <time>2025-03-11T14:34:26.905Z</time>
      </trkpt>
      <trkpt lat="47.85616" lon="4.99704">
        <ele>298.35</ele>
        <time>2025-03-11T14:34:30.426Z</time>
      </trkpt>
      <trkpt lat="47.8563" lon="4.99676">
        <ele>298.33</ele>
        <time>2025-03-11T14:34:33.950Z</time>
      </trkpt>
      <trkpt lat="47.85641" lon="4.99655">
        <ele>298.29</ele>
        <time>2025-03-11T14:34:37.477Z</time>
      </trkpt>
      <trkpt lat="47.85652" lon="4.99634">
        <ele>298.2</ele>
        <time>2025-03-11T14:34:41.007Z</time>
      </trkpt>
      <trkpt lat="47.85664" lon="4.99609">
        <ele>298.05</ele>
        <time>2025-03-11T14:34:44.540Z</time>
      </trkpt>
      <trkpt lat="47.85675" lon="4.99589">
        <ele>297.91</ele>
        <time>2025-03-11T14:34:48.076Z</time>
      </trkpt>
      <trkpt lat="47.85685" lon="4.99568">
        <ele>297.77</ele>
        <time>2025-03-11T14:34:51.615Z</time>
      </trkpt>
      <trkpt lat="47.85696" lon="4.99548">
        <ele>297.65</ele>
        <time>2025-03-11T14:34:55.157Z</time>
      </trkpt>
      <trkpt lat="47.857" lon="4.99534">
        <ele>297.54</ele>
        <time>2025-03-11T14:34:58.700Z</time>
      </trkpt>
      <trkpt lat="47.85704" lon="4.9952">
        <ele>297.44</ele>
        <time>2025-03-11T14:35:02.245Z</time>
      </trkpt>
      <trkpt lat="47.85708" lon="4.99501">
        <ele>297.36</ele>
        <time>2025-03-11T14:35:05.792Z</time>
      </trkpt>
      <trkpt lat="47.85709" lon="4.99491">
        <ele>297.27</ele>
        <time>2025-03-11T14:35:09.340Z</time>
      </trkpt>
      <trkpt lat="47.85711" lon="4.9947">
        <ele>297.17</ele>
        <time>2025-03-11T14:35:12.890Z</time>
      </trkpt>
      <trkpt lat="47.85708" lon="4.99442">
        <ele>297.02</ele>
        <time>2025-03-11T14:35:16.444Z</time>
      </trkpt>
      <trkpt lat="47.85706" lon="4.99415">
        <ele>296.83</ele>
        <time>2025-03-11T14:35:20.001Z</time>
      </trkpt>
      <trkpt lat="47.85702" lon="4.99395">
        <ele>296.67</ele>
        <time>2025-03-11T14:35:23.560Z</time>
      </trkpt>
      <trkpt lat="47.85692" lon="4.9938">
        <ele>296.55</ele>
        <time>2025-03-11T14:35:27.121Z</time>
      </trkpt>
      <trkpt lat="47.8568" lon="4.99355">
        <ele>296.42</ele>
        <time>2025-03-11T14:35:30.685Z</time>
      </trkpt>
      <trkpt lat="47.85665" lon="4.99324">
        <ele>296.31</ele>
        <time>2025-03-11T14:35:34.253Z</time>
      </trkpt>
      <trkpt lat="47.85654" lon="4.99301">
        <ele>296.25</ele>
        <time>2025-03-11T14:35:37.825Z</time>
      </trkpt>
      <trkpt lat="47.85643" lon="4.99278">
        <ele>296.24</ele>
        <time>2025-03-11T14:35:41.400Z</time>
      </trkpt>
      <trkpt lat="47.85631" lon="4.99258">
        <ele>296.25</ele>
        <time>2025-03-11T14:35:44.977Z</time>
      </trkpt>
      <trkpt lat="47.85622" lon="4.9924">
        <ele>296.27</ele>
        <time>2025-03-11T14:35:48.557Z</time>
      </trkpt>
      <trkpt lat="47.85609" lon="4.99216">
        <ele>296.27</ele>
        <time>2025-03-11T14:35:52.140Z</time>
      </trkpt>
      <trkpt lat="47.85595" lon="4.99197">
        <ele>296.27</ele>
        <time>2025-03-11T14:35:55.726Z</time>
      </trkpt>
      <trkpt lat="47.85581" lon="4.99179">
        <ele>296.28</ele>
        <time>2025-03-11T14:35:59.315Z</time>
      </trkpt>
      <trkpt lat="47.85574" lon="4.9917">
        <ele>296.28</ele>
        <time>2025-03-11T14:36:02.906Z</time>
      </trkpt>
      <trkpt lat="47.85577" lon="4.99174">
        <ele>296.26</ele>
        <time>2025-03-11T14:36:06.497Z</time>
      </trkpt>
      <trkpt lat="47.85577" lon="4.99174">
        <ele>296.25</ele>
        <time>2025-03-11T14:36:10.088Z</time>
      </trkpt>
      <trkpt lat="47.8558" lon="4.99178">
        <ele>296.24</ele>
        <time>2025-03-11T14:36:13.680Z</time>
      </trkpt>
      <trkpt lat="47.85591" lon="4.99192">
        <ele>296.22</ele>
        <time>2025-03-11T14:36:17.274Z</time>
      </trkpt>
      <trkpt lat="47.85608" lon="4.99215">
        <ele>296.2</ele>
        <time>2025-03-11T14:36:20.872Z</time>
      </trkpt>
      <trkpt lat="47.85626" lon="4.99249">
        <ele>296.15</ele>
        <time>2025-03-11T14:36:24.475Z</time>
      </trkpt>
      <trkpt lat="47.85639" lon="4.99272">
        <ele>296.11</ele>
        <time>2025-03-11T14:36:28.081Z</time>
      </trkpt>
      <trkpt lat="47.85651" lon="4.99295">
        <ele>296.08</ele>
        <time>2025-03-11T14:36:31.690Z</time>
      </trkpt>
      <trkpt lat="47.85669" lon="4.99333">
        <ele>296.12</ele>
        <time>2025-03-11T14:36:35.304Z</time>
      </trkpt>
      <trkpt lat="47.85672" lon="4.99339">
        <ele>296.18</ele>
        <time>2025-03-11T14:36:38.919Z</time>
      </trkpt>
      <trkpt lat="47.85672" lon="4.9934">
        <ele>296.25</ele>
        <time>2025-03-11T14:36:42.534Z</time>
      </trkpt>
      <trkpt lat="47.85675" lon="4.99344">
        <ele>296.33</ele>
        <time>2025-03-11T14:36:46.150Z</time>
      </trkpt>
      <trkpt lat="47.85677" lon="4.9935">
        <ele>296.43</ele>
        <time>2025-03-11T14:36:49.766Z</time>
      </trkpt>
      <trkpt lat="47.85681" lon="4.99357">
        <ele>296.54</ele>
        <time>2025-03-11T14:36:53.383Z</time>
      </trkpt>
      <trkpt lat="47.85694" lon="4.99385">
        <ele>296.7</ele>
        <time>2025-03-11T14:36:57.004Z</time>
      </trkpt>
      <trkpt lat="47.85719" lon="4.99412">
        <ele>296.92</ele>
        <time>2025-03-11T14:37:00.630Z</time>
      </trkpt>
      <trkpt lat="47.85735" lon="4.99428">
        <ele>297.1</ele>
        <time>2025-03-11T14:37:04.259Z</time>
      </trkpt>
      <trkpt lat="47.85745" lon="4.99437">
        <ele>297.21</ele>
        <time>2025-03-11T14:37:07.890Z</time>
      </trkpt>
      <trkpt lat="47.85752" lon="4.99441">
        <ele>297.31</ele>
        <time>2025-03-11T14:37:11.522Z</time>
      </trkpt>
      <trkpt lat="47.85755" lon="4.99441">
        <ele>297.41</ele>
        <time>2025-03-11T14:37:15.154Z</time>
      </trkpt>
      <trkpt lat="47.85775" lon="4.99444">
        <ele>297.5</ele>
        <time>2025-03-11T14:37:18.790Z</time>
      </trkpt>
      <trkpt lat="47.85798" lon="4.99448">
        <ele>297.59</ele>
        <time>2025-03-11T14:37:22.429Z</time>
      </trkpt>
      <trkpt lat="47.85819" lon="4.99451">
        <ele>297.67</ele>
        <time>2025-03-11T14:37:26.072Z</time>
      </trkpt>
      <trkpt lat="47.85827" lon="4.99445">
        <ele>297.74</ele>
        <time>2025-03-11T14:37:29.716Z</time>
      </trkpt>
      <trkpt lat="47.85832" lon="4.99441">
        <ele>297.79</ele>
        <time>2025-03-11T14:37:33.361Z</time>
      </trkpt>
      <trkpt lat="47.85835" lon="4.99438">
        <ele>297.83</ele>
        <time>2025-03-11T14:37:37.007Z</time>
      </trkpt>
      <trkpt lat="47.85848" lon="4.9942">
        <ele>297.83</ele>
        <time>2025-03-11T14:37:40.656Z</time>
      </trkpt>
      <trkpt lat="47.85869" lon="4.99387">
        <ele>297.72</ele>
        <time>2025-03-11T14:37:44.310Z</time>
      </trkpt>
      <trkpt lat="47.85891" lon="4.99354">
        <ele>297.68</ele>
        <time>2025-03-11T14:37:47.968Z</time>
      </trkpt>
      <trkpt lat="47.85896" lon="4.99346">
        <ele>297.67</ele>
        <time>2025-03-11T14:37:51.628Z</time>
      </trkpt>
      <trkpt lat="47.859" lon="4.9934">
        <ele>297.67</ele>
        <time>2025-03-11T14:37:55.289Z</time>
      </trkpt>
      <trkpt lat="47.85903" lon="4.99335">
        <ele>297.67</ele>
        <time>2025-03-11T14:37:58.950Z</time>
      </trkpt>
      <trkpt lat="47.85914" lon="4.99319">
        <ele>297.67</ele>
        <time>2025-03-11T14:38:02.614Z</time>
      </trkpt>
      <trkpt lat="47.85931" lon="4.99294">
        <ele>297.64</ele>
        <time>2025-03-11T14:38:06.282Z</time>
      </trkpt>
      <trkpt lat="47.85946" lon="4.99273">
        <ele>297.64</ele>
        <time>2025-03-11T14:38:09.953Z</time>
      </trkpt>
      <trkpt lat="47.8596" lon="4.99251">
        <ele>297.6</ele>
        <time>2025-03-11T14:38:13.627Z</time>
      </trkpt>
      <trkpt lat="47.85974" lon="4.9923">
        <ele>297.56</ele>
        <time>2025-03-11T14:38:17.304Z</time>
      </trkpt>
      <trkpt lat="47.85989" lon="4.99209">
        <ele>297.52</ele>
        <time>2025-03-11T14:38:20.985Z</time>
      </trkpt>
      <trkpt lat="47.86009" lon="4.99179">
        <ele>297.41</ele>
        <time>2025-03-11T14:38:24.670Z</time>
      </trkpt>
      <trkpt lat="47.86028" lon="4.9915">
        <ele>297.17</ele>
        <time>2025-03-11T14:38:28.360Z</time>
      </trkpt>
      <trkpt lat="47.86046" lon="4.99124">
        <ele>296.94</ele>
        <time>2025-03-11T14:38:32.054Z</time>
      </trkpt>
      <trkpt lat="47.86063" lon="4.99098">
        <ele>296.72</ele>
        <time>2025-03-11T14:38:35.752Z</time>
      </trkpt>
      <trkpt lat="47.86084" lon="4.99067">
        <ele>296.58</ele>
        <time>2025-03-11T14:38:39.454Z</time>
      </trkpt>
      <trkpt lat="47.86105" lon="4.99036">
        <ele>296.42</ele>
        <time>2025-03-11T14:38:43.161Z</time>
      </trkpt>
      <trkpt lat="47.86117" lon="4.99018">
        <ele>296.23</ele>
        <time>2025-03-11T14:38:46.871Z</time>
      </trkpt>
      <trkpt lat="47.86129" lon="4.99">
        <ele>296.02</ele>
        <time>2025-03-11T14:38:50.583Z</time>
      </trkpt>
      <trkpt lat="47.86148" lon="4.98977">
        <ele>295.8</ele>
        <time>2025-03-11T14:38:54.299Z</time>
      </trkpt>
      <trkpt lat="47.86167" lon="4.98954">
        <ele>295.62</ele>
        <time>2025-03-11T14:38:58.019Z</time>
      </trkpt>
      <trkpt lat="47.86189" lon="4.9893">
        <ele>295.38</ele>
        <time>2025-03-11T14:39:01.744Z</time>
      </trkpt>
      <trkpt lat="47.86211" lon="4.98906">
        <ele>295.07</ele>
        <time>2025-03-11T14:39:05.473Z</time>
      </trkpt>
      <trkpt lat="47.86227" lon="4.98889">
        <ele>294.78</ele>
        <time>2025-03-11T14:39:09.205Z</time>
      </trkpt>
      <trkpt lat="47.86242" lon="4.98872">
        <ele>294.52</ele>
        <time>2025-03-11T14:39:12.940Z</time>
      </trkpt>
      <trkpt lat="47.86264" lon="4.98849">
        <ele>294.34</ele>
        <time>2025-03-11T14:39:16.679Z</time>
      </trkpt>
      <trkpt lat="47.86285" lon="4.98826">
        <ele>294.15</ele>
        <time>2025-03-11T14:39:20.423Z</time>
      </trkpt>
      <trkpt lat="47.86306" lon="4.98803">
        <ele>293.89</ele>
        <time>2025-03-11T14:39:24.171Z</time>
      </trkpt>
      <trkpt lat="47.86326" lon="4.9878">
        <ele>293.6</ele>
        <time>2025-03-11T14:39:27.923Z</time>
      </trkpt>
      <trkpt lat="47.86349" lon="4.98755">
        <ele>293.34</ele>
        <time>2025-03-11T14:39:31.679Z</time>
      </trkpt>
      <trkpt lat="47.86372" lon="4.9873">
        <ele>293.2</ele>
        <time>2025-03-11T14:39:35.440Z</time>
      </trkpt>
      <trkpt lat="47.86394" lon="4.98707">
        <ele>292.98</ele>
        <time>2025-03-11T14:39:39.205Z</time>
      </trkpt>
      <trkpt lat="47.86416" lon="4.98683">
        <ele>292.77</ele>
        <time>2025-03-11T14:39:42.975Z</time>
      </trkpt>
      <trkpt lat="47.86422" lon="4.98676">
        <ele>292.56</ele>
        <time>2025-03-11T14:39:46.746Z</time>
      </trkpt>
      <trkpt lat="47.86446" lon="4.9865">
        <ele>292.33</ele>
        <time>2025-03-11T14:39:50.522Z</time>
      </trkpt>
      <trkpt lat="47.8647" lon="4.98624">
        <ele>292.08</ele>
        <time>2025-03-11T14:39:54.302Z</time>
      </trkpt>
      <trkpt lat="47.86485" lon="4.98607">
        <ele>291.85</ele>
        <time>2025-03-11T14:39:58.085Z</time>
      </trkpt>
      <trkpt lat="47.865" lon="4.98591">
        <ele>291.66</ele>
        <time>2025-03-11T14:40:01.871Z</time>
      </trkpt>
      <trkpt lat="47.86522" lon="4.98568">
        <ele>291.52</ele>
        <time>2025-03-11T14:40:05.662Z</time>
      </trkpt>
      <trkpt lat="47.86543" lon="4.98544">
        <ele>291.37</ele>
        <time>2025-03-11T14:40:09.457Z</time>
      </trkpt>
      <trkpt lat="47.86562" lon="4.98523">
        <ele>291.14</ele>
        <time>2025-03-11T14:40:13.256Z</time>
      </trkpt>
      <trkpt lat="47.86581" lon="4.98503">
        <ele>290.94</ele>
        <time>2025-03-11T14:40:17.059Z</time>
      </trkpt>
      <trkpt lat="47.86604" lon="4.98478">
        <ele>290.71</ele>
        <time>2025-03-11T14:40:20.866Z</time>
      </trkpt>
      <trkpt lat="47.86626" lon="4.98454">
        <ele>290.5</ele>
        <time>2025-03-11T14:40:24.677Z</time>
      </trkpt>
      <trkpt lat="47.86649" lon="4.98429">
        <ele>290.3</ele>
        <time>2025-03-11T14:40:28.493Z</time>
      </trkpt>
      <trkpt lat="47.86672" lon="4.98404">
        <ele>290.1</ele>
        <time>2025-03-11T14:40:32.314Z</time>
      </trkpt>
      <trkpt lat="47.86685" lon="4.9839">
        <ele>289.92</ele>
        <time>2025-03-11T14:40:36.137Z</time>
      </trkpt>
      <trkpt lat="47.86707" lon="4.98365">
        <ele>289.77</ele>
        <time>2025-03-11T14:40:39.965Z</time>
      </trkpt>
      <trkpt lat="47.8673" lon="4.98341">
        <ele>289.56</ele>
        <time>2025-03-11T14:40:43.797Z</time>
      </trkpt>
      <trkpt lat="47.86745" lon="4.98324">
        <ele>289.3</ele>
        <time>2025-03-11T14:40:47.632Z</time>
      </trkpt>
      <trkpt lat="47.86761" lon="4.98307">
        <ele>289.04</ele>
        <time>2025-03-11T14:40:51.470Z</time>
      </trkpt>
      <trkpt lat="47.86784" lon="4.98281">
        <ele>288.76</ele>
        <time>2025-03-11T14:40:55.313Z</time>
      </trkpt>
      <trkpt lat="47.86808" lon="4.98256">
        <ele>288.47</ele>
        <time>2025-03-11T14:40:59.161Z</time>
      </trkpt>
      <trkpt lat="47.86832" lon="4.9823">
        <ele>288.16</ele>
        <time>2025-03-11T14:41:03.013Z</time>
      </trkpt>
      <trkpt lat="47.86856" lon="4.98203">
        <ele>287.92</ele>
        <time>2025-03-11T14:41:06.870Z</time>
      </trkpt>
      <trkpt lat="47.86862" lon="4.98196">
        <ele>287.69</ele>
        <time>2025-03-11T14:41:10.728Z</time>
      </trkpt>
      <trkpt lat="47.86887" lon="4.98169">
        <ele>287.41</ele>
        <time>2025-03-11T14:41:14.591Z</time>
      </trkpt>
      <trkpt lat="47.86912" lon="4.98142">
        <ele>287.13</ele>
        <time>2025-03-11T14:41:18.459Z</time>
      </trkpt>
      <trkpt lat="47.86929" lon="4.98124">
        <ele>286.94</ele>
        <time>2025-03-11T14:41:22.331Z</time>
      </trkpt>
      <trkpt lat="47.86947" lon="4.98105">
        <ele>286.72</ele>
        <time>2025-03-11T14:41:26.206Z</time>
      </trkpt>
      <trkpt lat="47.8697" lon="4.98079">
        <ele>286.45</ele>
        <time>2025-03-11T14:41:30.086Z</time>
      </trkpt>
      <trkpt lat="47.86993" lon="4.98054">
        <ele>286.18</ele>
        <time>2025-03-11T14:41:33.970Z</time>
      </trkpt>
      <trkpt lat="47.87016" lon="4.98029">
        <ele>285.96</ele>
        <time>2025-03-11T14:41:37.859Z</time>
      </trkpt>
      <trkpt lat="47.87039" lon="4.98004">
        <ele>285.75</ele>
        <time>2025-03-11T14:41:41.752Z</time>
      </trkpt>
      <trkpt lat="47.8706" lon="4.97981">
        <ele>285.53</ele>
        <time>2025-03-11T14:41:45.650Z</time>
      </trkpt>
      <trkpt lat="47.87081" lon="4.97958">
        <ele>285.25</ele>
        <time>2025-03-11T14:41:49.552Z</time>
      </trkpt>
      <trkpt lat="47.87105" lon="4.97932">
        <ele>284.95</ele>
        <time>2025-03-11T14:41:53.458Z</time>
      </trkpt>
      <trkpt lat="47.87128" lon="4.97906">
        <ele>284.62</ele>
        <time>2025-03-11T14:41:57.369Z</time>
      </trkpt>
      <trkpt lat="47.87153" lon="4.9788">
        <ele>284.29</ele>
        <time>2025-03-11T14:42:01.285Z</time>
      </trkpt>
      <trkpt lat="47.87177" lon="4.97854">
        <ele>284.01</ele>
        <time>2025-03-11T14:42:05.206Z</time>
      </trkpt>
      <trkpt lat="47.87183" lon="4.97847">
        <ele>283.8</ele>
        <time>2025-03-11T14:42:09.128Z</time>
      </trkpt>
      <trkpt lat="47.87205" lon="4.97823">
        <ele>283.6</ele>
        <time>2025-03-11T14:42:13.054Z</time>
      </trkpt>
      <trkpt lat="47.87227" lon="4.97799">
        <ele>283.43</ele>
        <time>2025-03-11T14:42:16.985Z</time>
      </trkpt>
      <trkpt lat="47.87234" lon="4.97792">
        <ele>283.26</ele>
        <time>2025-03-11T14:42:20.917Z</time>
      </trkpt>
      <trkpt lat="47.87256" lon="4.97768">
        <ele>283.16</ele>
        <time>2025-03-11T14:42:24.853Z</time>
      </trkpt>
      <trkpt lat="47.87278" lon="4.97744">
        <ele>283.07</ele>
        <time>2025-03-11T14:42:28.794Z</time>
      </trkpt>
      <trkpt lat="47.87283" lon="4.97737">
        <ele>282.97</ele>
        <time>2025-03-11T14:42:32.736Z</time>
      </trkpt>
      <trkpt lat="47.87307" lon="4.97711">
        <ele>282.95</ele>
        <time>2025-03-11T14:42:36.683Z</time>
      </trkpt>
      <trkpt lat="47.87331" lon="4.97685">
        <ele>282.92</ele>
        <time>2025-03-11T14:42:40.634Z</time>
      </trkpt>
      <trkpt lat="47.87343" lon="4.97672">
        <ele>282.87</ele>
        <time>2025-03-11T14:42:44.588Z</time>
      </trkpt>
      <trkpt lat="47.87367" lon="4.97646">
        <ele>282.75</ele>
        <time>2025-03-11T14:42:48.547Z</time>
      </trkpt>
      <trkpt lat="47.87391" lon="4.9762">
        <ele>282.78</ele>
        <time>2025-03-11T14:42:52.510Z</time>
      </trkpt>
      <trkpt lat="47.87415" lon="4.97594">
        <ele>282.87</ele>
        <time>2025-03-11T14:42:56.478Z</time>
      </trkpt>
      <trkpt lat="47.87439" lon="4.97568">
        <ele>282.95</ele>
        <time>2025-03-11T14:43:00.451Z</time>
      </trkpt>
      <trkpt lat="47.8745" lon="4.97555">
        <ele>283.13</ele>
        <time>2025-03-11T14:43:04.426Z</time>
      </trkpt>
      <trkpt lat="47.87473" lon="4.97531">
        <ele>283.37</ele>
        <time>2025-03-11T14:43:08.406Z</time>
      </trkpt>
      <trkpt lat="47.87496" lon="4.97506">
        <ele>283.56</ele>
        <time>2025-03-11T14:43:12.390Z</time>
      </trkpt>
      <trkpt lat="47.87501" lon="4.975">
        <ele>283.77</ele>
        <time>2025-03-11T14:43:16.375Z</time>
      </trkpt>
      <trkpt lat="47.87519" lon="4.97481">
        <ele>283.99</ele>
        <time>2025-03-11T14:43:20.364Z</time>
      </trkpt>
      <trkpt lat="47.87537" lon="4.97461">
        <ele>284.28</ele>
        <time>2025-03-11T14:43:24.356Z</time>
      </trkpt>
      <trkpt lat="47.87559" lon="4.97437">
        <ele>284.63</ele>
        <time>2025-03-11T14:43:28.353Z</time>
      </trkpt>
      <trkpt lat="47.87581" lon="4.97413">
        <ele>284.94</ele>
        <time>2025-03-11T14:43:32.354Z</time>
      </trkpt>
      <trkpt lat="47.87596" lon="4.97396">
        <ele>285.25</ele>
        <time>2025-03-11T14:43:36.358Z</time>
      </trkpt>
      <trkpt lat="47.87611" lon="4.97379">
        <ele>285.54</ele>
        <time>2025-03-11T14:43:40.365Z</time>
      </trkpt>
      <trkpt lat="47.87631" lon="4.97357">
        <ele>285.86</ele>
        <time>2025-03-11T14:43:44.376Z</time>
      </trkpt>
      <trkpt lat="47.87652" lon="4.97334">
        <ele>286.21</ele>
        <time>2025-03-11T14:43:48.391Z</time>
      </trkpt>
      <trkpt lat="47.87676" lon="4.97308">
        <ele>286.54</ele>
        <time>2025-03-11T14:43:52.411Z</time>
      </trkpt>
      <trkpt lat="47.877" lon="4.97281">
        <ele>286.87</ele>
        <time>2025-03-11T14:43:56.436Z</time>
      </trkpt>
      <trkpt lat="47.8772" lon="4.97259">
        <ele>287.26</ele>
        <time>2025-03-11T14:44:00.465Z</time>
      </trkpt>
      <trkpt lat="47.8774" lon="4.97237">
        <ele>287.63</ele>
        <time>2025-03-11T14:44:04.498Z</time>
      </trkpt>
      <trkpt lat="47.87761" lon="4.97214">
        <ele>287.95</ele>
        <time>2025-03-11T14:44:08.535Z</time>
      </trkpt>
      <trkpt lat="47.87781" lon="4.97191">
        <ele>288.35</ele>
        <time>2025-03-11T14:44:12.576Z</time>
      </trkpt>
      <trkpt lat="47.87796" lon="4.97175">
        <ele>288.75</ele>
        <time>2025-03-11T14:44:16.620Z</time>
      </trkpt>
      <trkpt lat="47.87811" lon="4.97158">
        <ele>289.16</ele>
        <time>2025-03-11T14:44:20.667Z</time>
      </trkpt>
      <trkpt lat="47.87825" lon="4.97143">
        <ele>289.55</ele>
        <time>2025-03-11T14:44:24.717Z</time>
      </trkpt>
      <trkpt lat="47.87837" lon="4.97129">
        <ele>289.92</ele>
        <time>2025-03-11T14:44:28.769Z</time>
      </trkpt>
      <trkpt lat="47.87855" lon="4.97109">
        <ele>290.26</ele>
        <time>2025-03-11T14:44:32.825Z</time>
      </trkpt>
      <trkpt lat="47.87859" lon="4.97105">
        <ele>290.55</ele>
        <time>2025-03-11T14:44:36.881Z</time>
      </trkpt>
      <trkpt lat="47.87872" lon="4.9709">
        <ele>290.83</ele>
        <time>2025-03-11T14:44:40.940Z</time>
      </trkpt>
      <trkpt lat="47.87894" lon="4.97066">
        <ele>291.05</ele>
        <time>2025-03-11T14:44:45.004Z</time>
      </trkpt>
      <trkpt lat="47.87916" lon="4.97041">
        <ele>291.23</ele>
        <time>2025-03-11T14:44:49.072Z</time>
      </trkpt>
      <trkpt lat="47.87941" lon="4.97013">
        <ele>291.4</ele>
        <time>2025-03-11T14:44:53.145Z</time>
      </trkpt>
      <trkpt lat="47.87954" lon="4.96999">
        <ele>291.54</ele>
        <time>2025-03-11T14:44:57.221Z</time>
      </trkpt>
      <trkpt lat="47.87967" lon="4.96985">
        <ele>291.67</ele>
        <time>2025-03-11T14:45:01.299Z</time>
      </trkpt>
      <trkpt lat="47.87976" lon="4.96975">
        <ele>291.74</ele>
        <time>2025-03-11T14:45:05.379Z</time>
      </trkpt>
      <trkpt lat="47.87989" lon="4.9696">
        <ele>291.72</ele>
        <time>2025-03-11T14:45:09.462Z</time>
      </trkpt>
      <trkpt lat="47.88009" lon="4.96938">
        <ele>291.67</ele>
        <time>2025-03-11T14:45:13.548Z</time>
      </trkpt>
      <trkpt lat="47.88028" lon="4.96917">
        <ele>291.55</ele>
        <time>2025-03-11T14:45:17.638Z</time>
      </trkpt>
      <trkpt lat="47.88049" lon="4.96893">
        <ele>291.42</ele>
        <time>2025-03-11T14:45:21.733Z</time>
      </trkpt>
      <trkpt lat="47.88071" lon="4.96869">
        <ele>291.27</ele>
        <time>2025-03-11T14:45:25.832Z</time>
      </trkpt>
      <trkpt lat="47.88093" lon="4.96844">
        <ele>291.06</ele>
        <time>2025-03-11T14:45:29.935Z</time>
      </trkpt>
      <trkpt lat="47.88115" lon="4.96819">
        <ele>290.77</ele>
        <time>2025-03-11T14:45:34.043Z</time>
      </trkpt>
      <trkpt lat="47.88121" lon="4.96813">
        <ele>290.48</ele>
        <time>2025-03-11T14:45:38.152Z</time>
      </trkpt>
      <trkpt lat="47.88144" lon="4.96788">
        <ele>290.11</ele>
        <time>2025-03-11T14:45:42.266Z</time>
      </trkpt>
      <trkpt lat="47.88167" lon="4.96762">
        <ele>289.73</ele>
        <time>2025-03-11T14:45:46.384Z</time>
      </trkpt>
      <trkpt lat="47.88179" lon="4.96749">
        <ele>289.34</ele>
        <time>2025-03-11T14:45:50.504Z</time>
      </trkpt>
      <trkpt lat="47.88199" lon="4.96727">
        <ele>288.95</ele>
        <time>2025-03-11T14:45:54.628Z</time>
      </trkpt>
      <trkpt lat="47.88219" lon="4.96704">
        <ele>288.54</ele>
        <time>2025-03-11T14:45:58.757Z</time>
      </trkpt>
      <trkpt lat="47.88238" lon="4.96683">
        <ele>288.09</ele>
        <time>2025-03-11T14:46:02.889Z</time>
      </trkpt>
      <trkpt lat="47.88257" lon="4.96661">
        <ele>287.55</ele>
        <time>2025-03-11T14:46:07.025Z</time>
      </trkpt>
      <trkpt lat="47.88275" lon="4.96641">
        <ele>286.98</ele>
        <time>2025-03-11T14:46:11.165Z</time>
      </trkpt>
      <trkpt lat="47.88293" lon="4.96621">
        <ele>286.43</ele>
        <time>2025-03-11T14:46:15.308Z</time>
      </trkpt>
      <trkpt lat="47.88314" lon="4.96598">
        <ele>285.8</ele>
        <time>2025-03-11T14:46:19.456Z</time>
      </trkpt>
      <trkpt lat="47.88335" lon="4.96575">
        <ele>285.22</ele>
        <time>2025-03-11T14:46:23.608Z</time>
      </trkpt>
      <trkpt lat="47.88358" lon="4.96549">
        <ele>284.63</ele>
        <time>2025-03-11T14:46:27.764Z</time>
      </trkpt>
      <trkpt lat="47.88382" lon="4.96522">
        <ele>284.08</ele>
        <time>2025-03-11T14:46:31.925Z</time>
      </trkpt>
      <trkpt lat="47.88389" lon="4.96515">
        <ele>283.55</ele>
        <time>2025-03-11T14:46:36.088Z</time>
      </trkpt>
      <trkpt lat="47.88412" lon="4.96489">
        <ele>283.03</ele>
        <time>2025-03-11T14:46:40.255Z</time>
      </trkpt>
      <trkpt lat="47.88434" lon="4.96464">
        <ele>282.52</ele>
        <time>2025-03-11T14:46:44.427Z</time>
      </trkpt>
      <trkpt lat="47.88447" lon="4.9645">
        <ele>282.04</ele>
        <time>2025-03-11T14:46:48.601Z</time>
      </trkpt>
      <trkpt lat="47.88467" lon="4.96428">
        <ele>281.55</ele>
        <time>2025-03-11T14:46:52.779Z</time>
      </trkpt>
      <trkpt lat="47.88487" lon="4.96405">
        <ele>281.09</ele>
        <time>2025-03-11T14:46:56.961Z</time>
      </trkpt>
      <trkpt lat="47.88511" lon="4.96379">
        <ele>280.62</ele>
        <time>2025-03-11T14:47:01.148Z</time>
      </trkpt>
      <trkpt lat="47.88534" lon="4.96353">
        <ele>280.27</ele>
        <time>2025-03-11T14:47:05.340Z</time>
      </trkpt>
      <trkpt lat="47.88558" lon="4.96326">
        <ele>279.9</ele>
        <time>2025-03-11T14:47:09.536Z</time>
      </trkpt>
      <trkpt lat="47.88581" lon="4.963">
        <ele>279.55</ele>
        <time>2025-03-11T14:47:13.737Z</time>
      </trkpt>
      <trkpt lat="47.88596" lon="4.96284">
        <ele>279.23</ele>
        <time>2025-03-11T14:47:17.941Z</time>
      </trkpt>
      <trkpt lat="47.8862" lon="4.96257">
        <ele>278.93</ele>
        <time>2025-03-11T14:47:22.150Z</time>
      </trkpt>
      <trkpt lat="47.88645" lon="4.96229">
        <ele>278.68</ele>
        <time>2025-03-11T14:47:26.364Z</time>
      </trkpt>
      <trkpt lat="47.88659" lon="4.96214">
        <ele>278.51</ele>
        <time>2025-03-11T14:47:30.581Z</time>
      </trkpt>
      <trkpt lat="47.88681" lon="4.9619">
        <ele>278.38</ele>
        <time>2025-03-11T14:47:34.802Z</time>
      </trkpt>
      <trkpt lat="47.88702" lon="4.96165">
        <ele>278.32</ele>
        <time>2025-03-11T14:47:39.027Z</time>
      </trkpt>
      <trkpt lat="47.88709" lon="4.96157">
        <ele>278.3</ele>
        <time>2025-03-11T14:47:43.254Z</time>
      </trkpt>
      <trkpt lat="47.88729" lon="4.96136">
        <ele>278.3</ele>
        <time>2025-03-11T14:47:47.485Z</time>
      </trkpt>
      <trkpt lat="47.88748" lon="4.96115">
        <ele>278.41</ele>
        <time>2025-03-11T14:47:51.719Z</time>
      </trkpt>
      <trkpt lat="47.88754" lon="4.96108">
        <ele>278.55</ele>
        <time>2025-03-11T14:47:55.955Z</time>
      </trkpt>
      <trkpt lat="47.88779" lon="4.9608">
        <ele>278.74</ele>
        <time>2025-03-11T14:48:00.196Z</time>
      </trkpt>
      <trkpt lat="47.88802" lon="4.96055">
        <ele>278.98</ele>
        <time>2025-03-11T14:48:04.441Z</time>
      </trkpt>
      <trkpt lat="47.88824" lon="4.9603">
        <ele>279.3</ele>
        <time>2025-03-11T14:48:08.691Z</time>
      </trkpt>
      <trkpt lat="47.88843" lon="4.96009">
        <ele>279.69</ele>
        <time>2025-03-11T14:48:12.944Z</time>
      </trkpt>
      <trkpt lat="47.88862" lon="4.95988">
        <ele>280.07</ele>
        <time>2025-03-11T14:48:17.201Z</time>
      </trkpt>
      <trkpt lat="47.88882" lon="4.95965">
        <ele>280.46</ele>
        <time>2025-03-11T14:48:21.462Z</time>
      </trkpt>
      <trkpt lat="47.88902" lon="4.95943">
        <ele>280.82</ele>
        <time>2025-03-11T14:48:25.727Z</time>
      </trkpt>
      <trkpt lat="47.8892" lon="4.95909">
        <ele>281.27</ele>
        <time>2025-03-11T14:48:29.997Z</time>
      </trkpt>
      <trkpt lat="47.88933" lon="4.95878">
        <ele>281.66</ele>
        <time>2025-03-11T14:48:34.271Z</time>
      </trkpt>
      <trkpt lat="47.88946" lon="4.95847">
        <ele>282.06</ele>
        <time>2025-03-11T14:48:38.549Z</time>
      </trkpt>
      <trkpt lat="47.88959" lon="4.95814">
        <ele>282.38</ele>
        <time>2025-03-11T14:48:42.831Z</time>
      </trkpt>
      <trkpt lat="47.88973" lon="4.95781">
        <ele>282.73</ele>
        <time>2025-03-11T14:48:47.117Z</time>
      </trkpt>
      <trkpt lat="47.88988" lon="4.95745">
        <ele>283.11</ele>
        <time>2025-03-11T14:48:51.408Z</time>
      </trkpt>
      <trkpt lat="47.89003" lon="4.95709">
        <ele>283.52</ele>
        <time>2025-03-11T14:48:55.703Z</time>
      </trkpt>
      <trkpt lat="47.89013" lon="4.95686">
        <ele>283.84</ele>
        <time>2025-03-11T14:49:00.001Z</time>
      </trkpt>
      <trkpt lat="47.89022" lon="4.95663">
        <ele>284.13</ele>
        <time>2025-03-11T14:49:04.302Z</time>
      </trkpt>
      <trkpt lat="47.89026" lon="4.95656">
        <ele>284.4</ele>
        <time>2025-03-11T14:49:08.604Z</time>
      </trkpt>
      <trkpt lat="47.89038" lon="4.95627">
        <ele>284.63</ele>
        <time>2025-03-11T14:49:12.910Z</time>
      </trkpt>
      <trkpt lat="47.8905" lon="4.95598">
        <ele>284.91</ele>
        <time>2025-03-11T14:49:17.219Z</time>
      </trkpt>
      <trkpt lat="47.89065" lon="4.95561">
        <ele>285.19</ele>
        <time>2025-03-11T14:49:21.533Z</time>
      </trkpt>
      <trkpt lat="47.89081" lon="4.95523">
        <ele>285.49</ele>
        <time>2025-03-11T14:49:25.852Z</time>
      </trkpt>
      <trkpt lat="47.89097" lon="4.95487">
        <ele>285.78</ele>
        <time>2025-03-11T14:49:30.175Z</time>
      </trkpt>
      <trkpt lat="47.89112" lon="4.9545">
        <ele>286.12</ele>
        <time>2025-03-11T14:49:34.503Z</time>
      </trkpt>
      <trkpt lat="47.89125" lon="4.95419">
        <ele>286.4</ele>
        <time>2025-03-11T14:49:38.835Z</time>
      </trkpt>
      <trkpt lat="47.89138" lon="4.95387">
        <ele>286.69</ele>
        <time>2025-03-11T14:49:43.171Z</time>
      </trkpt>
      <trkpt lat="47.8915" lon="4.95353">
        <ele>287</ele>
        <time>2025-03-11T14:49:47.511Z</time>
      </trkpt>
      <trkpt lat="47.89162" lon="4.9532">
        <ele>287.47</ele>
        <time>2025-03-11T14:49:51.855Z</time>
      </trkpt>
      <trkpt lat="47.89168" lon="4.95297">
        <ele>287.91</ele>
        <time>2025-03-11T14:49:56.202Z</time>
      </trkpt>
      <trkpt lat="47.89174" lon="4.95275">
        <ele>288.31</ele>
        <time>2025-03-11T14:50:00.551Z</time>
      </trkpt>
      <trkpt lat="47.89183" lon="4.95242">
        <ele>288.7</ele>
        <time>2025-03-11T14:50:04.904Z</time>
      </trkpt>
      <trkpt lat="47.89189" lon="4.95222">
        <ele>289.13</ele>
        <time>2025-03-11T14:50:09.260Z</time>
      </trkpt>
      <trkpt lat="47.89196" lon="4.95196">
        <ele>289.5</ele>
        <time>2025-03-11T14:50:13.619Z</time>
      </trkpt>
      <trkpt lat="47.89203" lon="4.9517">
        <ele>289.9</ele>
        <time>2025-03-11T14:50:17.981Z</time>
      </trkpt>
      <trkpt lat="47.89217" lon="4.95129">
        <ele>290.37</ele>
        <time>2025-03-11T14:50:22.348Z</time>
      </trkpt>
      <trkpt lat="47.89227" lon="4.95105">
        <ele>290.78</ele>
        <time>2025-03-11T14:50:26.718Z</time>
      </trkpt>
      <trkpt lat="47.89236" lon="4.95081">
        <ele>291.09</ele>
        <time>2025-03-11T14:50:31.091Z</time>
      </trkpt>
      <trkpt lat="47.89247" lon="4.95056">
        <ele>291.27</ele>
        <time>2025-03-11T14:50:35.467Z</time>
      </trkpt>
      <trkpt lat="47.89257" lon="4.9503">
        <ele>291.49</ele>
        <time>2025-03-11T14:50:39.846Z</time>
      </trkpt>
      <trkpt lat="47.89269" lon="4.95002">
        <ele>291.62</ele>
        <time>2025-03-11T14:50:44.229Z</time>
      </trkpt>
      <trkpt lat="47.8928" lon="4.94974">
        <ele>291.77</ele>
        <time>2025-03-11T14:50:48.615Z</time>
      </trkpt>
      <trkpt lat="47.89291" lon="4.94952">
        <ele>291.93</ele>
        <time>2025-03-11T14:50:53.004Z</time>
      </trkpt>
      <trkpt lat="47.89303" lon="4.9493">
        <ele>292.06</ele>
        <time>2025-03-11T14:50:57.396Z</time>
      </trkpt>
      <trkpt lat="47.8932" lon="4.94905">
        <ele>292.2</ele>
        <time>2025-03-11T14:51:01.792Z</time>
      </trkpt>
      <trkpt lat="47.89336" lon="4.9488">
        <ele>292.21</ele>
        <time>2025-03-11T14:51:06.192Z</time>
      </trkpt>
      <trkpt lat="47.89351" lon="4.94864">
        <ele>292.24</ele>
        <time>2025-03-11T14:51:10.595Z</time>
      </trkpt>
      <trkpt lat="47.89366" lon="4.94848">
        <ele>292.26</ele>
        <time>2025-03-11T14:51:15.001Z</time>
      </trkpt>
      <trkpt lat="47.89383" lon="4.94837">
        <ele>292.35</ele>
        <time>2025-03-11T14:51:19.409Z</time>
      </trkpt>
      <trkpt lat="47.89399" lon="4.94826">
        <ele>292.39</ele>
        <time>2025-03-11T14:51:23.820Z</time>
      </trkpt>
      <trkpt lat="47.8942" lon="4.94816">
        <ele>292.46</ele>
        <time>2025-03-11T14:51:28.235Z</time>
      </trkpt>
      <trkpt lat="47.89441" lon="4.94805">
        <ele>292.4</ele>
        <time>2025-03-11T14:51:32.653Z</time>
      </trkpt>
      <trkpt lat="47.89463" lon="4.94794">
        <ele>292.21</ele>
        <time>2025-03-11T14:51:37.075Z</time>
      </trkpt>
      <trkpt lat="47.89486" lon="4.94783">
        <ele>292.02</ele>
        <time>2025-03-11T14:51:41.501Z</time>
      </trkpt>
      <trkpt lat="47.89508" lon="4.94772">
        <ele>291.77</ele>
        <time>2025-03-11T14:51:45.931Z</time>
      </trkpt>
      <trkpt lat="47.8953" lon="4.94761">
        <ele>291.49</ele>
        <time>2025-03-11T14:51:50.364Z</time>
      </trkpt>
      <trkpt lat="47.89557" lon="4.94747">
        <ele>291.12</ele>
        <time>2025-03-11T14:51:54.802Z</time>
      </trkpt>
      <trkpt lat="47.89585" lon="4.94733">
        <ele>290.78</ele>
        <time>2025-03-11T14:51:59.245Z</time>
      </trkpt>
      <trkpt lat="47.8961" lon="4.94721">
        <ele>290.44</ele>
        <time>2025-03-11T14:52:03.692Z</time>
      </trkpt>
      <trkpt lat="47.89635" lon="4.94708">
        <ele>290.05</ele>
        <time>2025-03-11T14:52:08.143Z</time>
      </trkpt>
      <trkpt lat="47.89662" lon="4.94695">
        <ele>289.63</ele>
        <time>2025-03-11T14:52:12.599Z</time>
      </trkpt>
      <trkpt lat="47.89688" lon="4.94682">
        <ele>289.21</ele>
        <time>2025-03-11T14:52:17.059Z</time>
      </trkpt>
      <trkpt lat="47.89717" lon="4.94668">
        <ele>288.84</ele>
        <time>2025-03-11T14:52:21.524Z</time>
      </trkpt>
      <trkpt lat="47.89746" lon="4.94653">
        <ele>288.4</ele>
        <time>2025-03-11T14:52:25.994Z</time>
      </trkpt>
      <trkpt lat="47.89768" lon="4.94642">
        <ele>287.96</ele>
        <time>2025-03-11T14:52:30.468Z</time>
      </trkpt>
      <trkpt lat="47.89796" lon="4.94629">
        <ele>287.52</ele>
        <time>2025-03-11T14:52:34.946Z</time>
      </trkpt>
      <trkpt lat="47.89824" lon="4.94615">
        <ele>287.05</ele>
        <time>2025-03-11T14:52:39.429Z</time>
      </trkpt>
      <trkpt lat="47.8983" lon="4.94611">
        <ele>286.58</ele>
        <time>2025-03-11T14:52:43.913Z</time>
      </trkpt>
      <trkpt lat="47.89858" lon="4.94603">
        <ele>286.13</ele>
        <time>2025-03-11T14:52:48.402Z</time>
      </trkpt>
      <trkpt lat="47.89886" lon="4.94594">
        <ele>285.66</ele>
        <time>2025-03-11T14:52:52.895Z</time>
      </trkpt>
      <trkpt lat="47.89911" lon="4.94588">
        <ele>285.13</ele>
        <time>2025-03-11T14:52:57.392Z</time>
      </trkpt>
      <trkpt lat="47.89937" lon="4.94582">
        <ele>284.53</ele>
        <time>2025-03-11T14:53:01.894Z</time>
      </trkpt>
      <trkpt lat="47.89961" lon="4.94577">
        <ele>283.88</ele>
        <time>2025-03-11T14:53:06.399Z</time>
      </trkpt>
      <trkpt lat="47.89985" lon="4.94571">
        <ele>283.24</ele>
        <time>2025-03-11T14:53:10.908Z</time>
      </trkpt>
      <trkpt lat="47.9001" lon="4.94565">
        <ele>282.68</ele>
        <time>2025-03-11T14:53:15.421Z</time>
      </trkpt>
      <trkpt lat="47.90036" lon="4.94559">
        <ele>282.12</ele>
        <time>2025-03-11T14:53:19.939Z</time>
      </trkpt>
      <trkpt lat="47.90064" lon="4.94552">
        <ele>281.55</ele>
        <time>2025-03-11T14:53:24.461Z</time>
      </trkpt>
      <trkpt lat="47.90091" lon="4.94546">
        <ele>280.85</ele>
        <time>2025-03-11T14:53:28.988Z</time>
      </trkpt>
      <trkpt lat="47.901" lon="4.94544">
        <ele>280.24</ele>
        <time>2025-03-11T14:53:33.516Z</time>
      </trkpt>
      <trkpt lat="47.90131" lon="4.94536">
        <ele>279.56</ele>
        <time>2025-03-11T14:53:38.049Z</time>
      </trkpt>
      <trkpt lat="47.90161" lon="4.94529">
        <ele>278.91</ele>
        <time>2025-03-11T14:53:42.587Z</time>
      </trkpt>
      <trkpt lat="47.90189" lon="4.94523">
        <ele>278.33</ele>
        <time>2025-03-11T14:53:47.129Z</time>
      </trkpt>
      <trkpt lat="47.90216" lon="4.94516">
        <ele>277.74</ele>
        <time>2025-03-11T14:53:51.676Z</time>
      </trkpt>
      <trkpt lat="47.90243" lon="4.9451">
        <ele>277.23</ele>
        <time>2025-03-11T14:53:56.227Z</time>
      </trkpt>
      <trkpt lat="47.90273" lon="4.94503">
        <ele>276.84</ele>
        <time>2025-03-11T14:54:00.783Z</time>
      </trkpt>
      <trkpt lat="47.90304" lon="4.94496">
        <ele>276.45</ele>
        <time>2025-03-11T14:54:05.344Z</time>
      </trkpt>
      <trkpt lat="47.90332" lon="4.94489">
        <ele>276</ele>
        <time>2025-03-11T14:54:09.910Z</time>
      </trkpt>
      <trkpt lat="47.9036" lon="4.94482">
        <ele>275.53</ele>
        <time>2025-03-11T14:54:14.480Z</time>
      </trkpt>
      <trkpt lat="47.90376" lon="4.94478">
        <ele>275.13</ele>
        <time>2025-03-11T14:54:19.053Z</time>
      </trkpt>
      <trkpt lat="47.90403" lon="4.94472">
        <ele>274.76</ele>
        <time>2025-03-11T14:54:23.630Z</time>
      </trkpt>
      <trkpt lat="47.9043" lon="4.94466">
        <ele>274.38</ele>
        <time>2025-03-11T14:54:28.211Z</time>
      </trkpt>
      <trkpt lat="47.90459" lon="4.94459">
        <ele>274.07</ele>
        <time>2025-03-11T14:54:32.797Z</time>
      </trkpt>
      <trkpt lat="47.90488" lon="4.94452">
        <ele>273.87</ele>
        <time>2025-03-11T14:54:37.388Z</time>
      </trkpt>
      <trkpt lat="47.90502" lon="4.94448">
        <ele>273.69</ele>
        <time>2025-03-11T14:54:41.981Z</time>
      </trkpt>
      <trkpt lat="47.90523" lon="4.94438">
        <ele>273.49</ele>
        <time>2025-03-11T14:54:46.578Z</time>
      </trkpt>
      <trkpt lat="47.90535" lon="4.9443">
        <ele>273.31</ele>
        <time>2025-03-11T14:54:51.177Z</time>
      </trkpt>
      <trkpt lat="47.90554" lon="4.94413">
        <ele>273.05</ele>
        <time>2025-03-11T14:54:55.779Z</time>
      </trkpt>
      <trkpt lat="47.90572" lon="4.94397">
        <ele>272.85</ele>
        <time>2025-03-11T14:55:00.385Z</time>
      </trkpt>
      <trkpt lat="47.90595" lon="4.94374">
        <ele>272.67</ele>
        <time>2025-03-11T14:55:04.995Z</time>
      </trkpt>
      <trkpt lat="47.90618" lon="4.94352">
        <ele>272.55</ele>
        <time>2025-03-11T14:55:09.610Z</time>
      </trkpt>
      <trkpt lat="47.90641" lon="4.94329">
        <ele>272.47</ele>
        <time>2025-03-11T14:55:14.229Z</time>
      </trkpt>
      <trkpt lat="47.90664" lon="4.94307">
        <ele>272.43</ele>
        <time>2025-03-11T14:55:18.852Z</time>
      </trkpt>
      <trkpt lat="47.90685" lon="4.94285">
        <ele>272.37</ele>
        <time>2025-03-11T14:55:23.479Z</time>
      </trkpt>
      <trkpt lat="47.90706" lon="4.94264">
        <ele>272.33</ele>
        <time>2025-03-11T14:55:28.110Z</time>
      </trkpt>
      <trkpt lat="47.90728" lon="4.94241">
        <ele>272.21</ele>
        <time>2025-03-11T14:55:32.746Z</time>
      </trkpt>
      <trkpt lat="47.9075" lon="4.94219">
        <ele>271.99</ele>
        <time>2025-03-11T14:55:37.386Z</time>
      </trkpt>
      <trkpt lat="47.9077" lon="4.94198">
        <ele>271.8</ele>
        <time>2025-03-11T14:55:42.030Z</time>
      </trkpt>
      <trkpt lat="47.90789" lon="4.94176">
        <ele>271.63</ele>
        <time>2025-03-11T14:55:46.678Z</time>
      </trkpt>
      <trkpt lat="47.90813" lon="4.94149">
        <ele>271.34</ele>
        <time>2025-03-11T14:55:51.331Z</time>
      </trkpt>
      <trkpt lat="47.90836" lon="4.94121">
        <ele>271.1</ele>
        <time>2025-03-11T14:55:55.988Z</time>
      </trkpt>
      <trkpt lat="47.9085" lon="4.94106">
        <ele>270.91</ele>
        <time>2025-03-11T14:56:00.648Z</time>
      </trkpt>
      <trkpt lat="47.90872" lon="4.9408">
        <ele>270.77</ele>
        <time>2025-03-11T14:56:05.313Z</time>
      </trkpt>
      <trkpt lat="47.90894" lon="4.94055">
        <ele>270.67</ele>
        <time>2025-03-11T14:56:09.982Z</time>
      </trkpt>
      <trkpt lat="47.90912" lon="4.94035">
        <ele>270.59</ele>
        <time>2025-03-11T14:56:14.655Z</time>
      </trkpt>
      <trkpt lat="47.9093" lon="4.94014">
        <ele>270.52</ele>
        <time>2025-03-11T14:56:19.331Z</time>
      </trkpt>
      <trkpt lat="47.90953" lon="4.93988">
        <ele>270.38</ele>
        <time>2025-03-11T14:56:24.012Z</time>
      </trkpt>
      <trkpt lat="47.90975" lon="4.93961">
        <ele>270.37</ele>
        <time>2025-03-11T14:56:28.698Z</time>
      </trkpt>
      <trkpt lat="47.90981" lon="4.93955">
        <ele>270.31</ele>
        <time>2025-03-11T14:56:33.385Z</time>
      </trkpt>
      <trkpt lat="47.91" lon="4.93933">
        <ele>270.3</ele>
        <time>2025-03-11T14:56:38.076Z</time>
      </trkpt>
      <trkpt lat="47.9102" lon="4.93911">
        <ele>270.24</ele>
        <time>2025-03-11T14:56:42.770Z</time>
      </trkpt>
      <trkpt lat="47.91041" lon="4.93887">
        <ele>270.1</ele>
        <time>2025-03-11T14:56:47.469Z</time>
      </trkpt>
      <trkpt lat="47.91062" lon="4.93863">
        <ele>270.01</ele>
        <time>2025-03-11T14:56:52.172Z</time>
      </trkpt>
      <trkpt lat="47.91077" lon="4.93847">
        <ele>269.95</ele>
        <time>2025-03-11T14:56:56.878Z</time>
      </trkpt>
      <trkpt lat="47.91092" lon="4.93831">
        <ele>269.94</ele>
        <time>2025-03-11T14:57:01.587Z</time>
      </trkpt>
      <trkpt lat="47.91108" lon="4.93813">
        <ele>269.93</ele>
        <time>2025-03-11T14:57:06.299Z</time>
      </trkpt>
      <trkpt lat="47.91124" lon="4.93795">
        <ele>269.9</ele>
        <time>2025-03-11T14:57:11.014Z</time>
      </trkpt>
      <trkpt lat="47.91141" lon="4.93777">
        <ele>269.88</ele>
        <time>2025-03-11T14:57:15.733Z</time>
      </trkpt>
      <trkpt lat="47.91157" lon="4.93759">
        <ele>269.86</ele>
        <time>2025-03-11T14:57:20.455Z</time>
      </trkpt>
      <trkpt lat="47.91159" lon="4.93756">
        <ele>269.85</ele>
        <time>2025-03-11T14:57:25.177Z</time>
      </trkpt>
      <trkpt lat="47.91161" lon="4.93754">
        <ele>269.84</ele>
        <time>2025-03-11T14:57:29.900Z</time>
      </trkpt>
      <trkpt lat="47.91157" lon="4.93758">
        <ele>269.84</ele>
        <time>2025-03-11T14:57:34.623Z</time>
      </trkpt>
      <trkpt lat="47.91156" lon="4.93759">
        <ele>269.85</ele>
        <time>2025-03-11T14:57:39.347Z</time>
      </trkpt>
      <trkpt lat="47.91166" lon="4.9375">
        <ele>269.85</ele>
        <time>2025-03-11T14:57:44.073Z</time>
      </trkpt>
      <trkpt lat="47.91176" lon="4.93742">
        <ele>269.87</ele>
        <time>2025-03-11T14:57:48.800Z</time>
      </trkpt>
      <trkpt lat="47.91201" lon="4.93723">
        <ele>269.83</ele>
        <time>2025-03-11T14:57:53.532Z</time>
      </trkpt>
      <trkpt lat="47.91219" lon="4.93709">
        <ele>269.85</ele>
        <time>2025-03-11T14:57:58.267Z</time>
      </trkpt>
      <trkpt lat="47.91236" lon="4.93695">
        <ele>269.88</ele>
        <time>2025-03-11T14:58:03.005Z</time>
      </trkpt>
      <trkpt lat="47.91253" lon="4.93682">
        <ele>269.9</ele>
        <time>2025-03-11T14:58:07.746Z</time>
      </trkpt>
      <trkpt lat="47.9127" lon="4.93669">
        <ele>269.93</ele>
        <time>2025-03-11T14:58:12.490Z</time>
      </trkpt>
      <trkpt lat="47.91289" lon="4.93655">
        <ele>269.94</ele>
        <time>2025-03-11T14:58:17.238Z</time>
      </trkpt>
      <trkpt lat="47.91307" lon="4.93641">
        <ele>269.99</ele>
        <time>2025-03-11T14:58:21.989Z</time>
      </trkpt>
      <trkpt lat="47.91323" lon="4.93632">
        <ele>269.99</ele>
        <time>2025-03-11T14:58:26.743Z</time>
      </trkpt>
      <trkpt lat="47.91339" lon="4.93623">
        <ele>270.03</ele>
        <time>2025-03-11T14:58:31.499Z</time>
      </trkpt>
      <trkpt lat="47.91355" lon="4.93614">
        <ele>270.03</ele>
        <time>2025-03-11T14:58:36.258Z</time>
      </trkpt>
      <trkpt lat="47.9137" lon="4.93606">
        <ele>270.03</ele>
        <time>2025-03-11T14:58:41.020Z</time>
      </trkpt>
      <trkpt lat="47.91375" lon="4.93603">
        <ele>270.03</ele>
        <time>2025-03-11T14:58:45.783Z</time>
      </trkpt>
      <trkpt lat="47.91397" lon="4.93591">
        <ele>270.01</ele>
        <time>2025-03-11T14:58:50.549Z</time>
      </trkpt>
      <trkpt lat="47.91413" lon="4.93576">
        <ele>269.96</ele>
        <time>2025-03-11T14:58:55.318Z</time>
      </trkpt>
      <trkpt lat="47.91428" lon="4.93562">
        <ele>269.97</ele>
        <time>2025-03-11T14:59:00.090Z</time>
      </trkpt>
      <trkpt lat="47.91453" lon="4.93534">
        <ele>270.03</ele>
        <time>2025-03-11T14:59:04.867Z</time>
      </trkpt>
      <trkpt lat="47.91457" lon="4.93528">
        <ele>270.03</ele>
        <time>2025-03-11T14:59:09.645Z</time>
      </trkpt>
      <trkpt lat="47.91471" lon="4.93505">
        <ele>270.03</ele>
        <time>2025-03-11T14:59:14.427Z</time>
      </trkpt>
      <trkpt lat="47.91486" lon="4.93481">
        <ele>269.98</ele>
        <time>2025-03-11T14:59:19.212Z</time>
      </trkpt>
      <trkpt lat="47.91503" lon="4.93455">
        <ele>269.88</ele>
        <time>2025-03-11T14:59:24.001Z</time>
      </trkpt>
      <trkpt lat="47.91505" lon="4.93453">
        <ele>269.86</ele>
        <time>2025-03-11T14:59:28.790Z</time>
      </trkpt>
      <trkpt lat="47.91499" lon="4.93451">
        <ele>269.85</ele>
        <time>2025-03-11T14:59:33.580Z</time>
      </trkpt>
      <trkpt lat="47.91491" lon="4.93438">
        <ele>269.84</ele>
        <time>2025-03-11T14:59:38.372Z</time>
      </trkpt>
      <trkpt lat="47.91485" lon="4.93428">
        <ele>269.83</ele>
        <time>2025-03-11T14:59:43.166Z</time>
      </trkpt>
      <trkpt lat="47.91474" lon="4.93411">
        <ele>269.82</ele>
        <time>2025-03-11T14:59:47.962Z</time>
      </trkpt>
      <trkpt lat="47.91463" lon="4.93394">
        <ele>269.81</ele>
        <time>2025-03-11T14:59:52.761Z</time>
      </trkpt>
      <trkpt lat="47.91453" lon="4.93377">
        <ele>269.77</ele>
        <time>2025-03-11T14:59:57.562Z</time>
      </trkpt>
      <trkpt lat="47.91446" lon="4.93369">
        <ele>269.75</ele>
        <time>2025-03-11T15:00:02.364Z</time>
      </trkpt>
      <trkpt lat="47.91445" lon="4.9337">
        <ele>269.71</ele>
        <time>2025-03-11T15:00:07.167Z</time>
      </trkpt>
      <trkpt lat="47.91444" lon="4.93371">
        <ele>269.66</ele>
        <time>2025-03-11T15:00:11.970Z</time>
      </trkpt>
      <trkpt lat="47.91448" lon="4.93368">
        <ele>269.56</ele>
        <time>2025-03-11T15:00:16.774Z</time>
      </trkpt>
      <trkpt lat="47.91448" lon="4.93369">
        <ele>269.48</ele>
        <time>2025-03-11T15:00:21.578Z</time>
      </trkpt>
      <trkpt lat="47.91452" lon="4.93376">
        <ele>269.39</ele>
        <time>2025-03-11T15:00:26.383Z</time>
      </trkpt>
      <trkpt lat="47.91453" lon="4.93378">
        <ele>269.3</ele>
        <time>2025-03-11T15:00:31.188Z</time>
      </trkpt>
      <trkpt lat="47.91457" lon="4.93384">
        <ele>269.2</ele>
        <time>2025-03-11T15:00:35.994Z</time>
      </trkpt>
      <trkpt lat="47.9146" lon="4.93388">
        <ele>269.1</ele>
        <time>2025-03-11T15:00:40.801Z</time>
      </trkpt>
      <trkpt lat="47.91463" lon="4.93394">
        <ele>268.98</ele>
        <time>2025-03-11T15:00:45.608Z</time>
      </trkpt>
      <trkpt lat="47.91476" lon="4.93414">
        <ele>268.85</ele>
        <time>2025-03-11T15:00:50.418Z</time>
      </trkpt>
      <trkpt lat="47.91494" lon="4.93442">
        <ele>268.69</ele>
        <time>2025-03-11T15:00:55.233Z</time>
      </trkpt>
      <trkpt lat="47.91502" lon="4.93456">
        <ele>268.55</ele>
        <time>2025-03-11T15:01:00.049Z</time>
      </trkpt>
      <trkpt lat="47.91506" lon="4.9345">
        <ele>268.41</ele>
        <time>2025-03-11T15:01:04.866Z</time>
      </trkpt>
      <trkpt lat="47.91508" lon="4.93448">
        <ele>268.28</ele>
        <time>2025-03-11T15:01:09.684Z</time>
      </trkpt>
      <trkpt lat="47.91518" lon="4.93435">
        <ele>268.15</ele>
        <time>2025-03-11T15:01:14.504Z</time>
      </trkpt>
      <trkpt lat="47.91536" lon="4.93414">
        <ele>268.01</ele>
        <time>2025-03-11T15:01:19.327Z</time>
      </trkpt>
      <trkpt lat="47.91553" lon="4.93393">
        <ele>267.9</ele>
        <time>2025-03-11T15:01:24.154Z</time>
      </trkpt>
      <trkpt lat="47.91566" lon="4.93378">
        <ele>267.8</ele>
        <time>2025-03-11T15:01:28.984Z</time>
      </trkpt>
      <trkpt lat="47.9157" lon="4.93373">
        <ele>267.67</ele>
        <time>2025-03-11T15:01:33.815Z</time>
      </trkpt>
      <trkpt lat="47.91592" lon="4.93348">
        <ele>267.5</ele>
        <time>2025-03-11T15:01:38.650Z</time>
      </trkpt>
      <trkpt lat="47.91609" lon="4.93327">
        <ele>267.38</ele>
        <time>2025-03-11T15:01:43.488Z</time>
      </trkpt>
      <trkpt lat="47.91626" lon="4.93306">
        <ele>267.27</ele>
        <time>2025-03-11T15:01:48.330Z</time>
      </trkpt>
      <trkpt lat="47.91647" lon="4.93279">
        <ele>267.17</ele>
        <time>2025-03-11T15:01:53.176Z</time>
      </trkpt>
      <trkpt lat="47.91654" lon="4.93267">
        <ele>267.07</ele>
        <time>2025-03-11T15:01:58.024Z</time>
      </trkpt>
      <trkpt lat="47.91657" lon="4.93261">
        <ele>266.99</ele>
        <time>2025-03-11T15:02:02.873Z</time>
      </trkpt>
      <trkpt lat="47.91671" lon="4.93237">
        <ele>266.88</ele>
        <time>2025-03-11T15:02:07.725Z</time>
      </trkpt>
      <trkpt lat="47.91685" lon="4.93215">
        <ele>266.82</ele>
        <time>2025-03-11T15:02:12.581Z</time>
      </trkpt>
      <trkpt lat="47.917" lon="4.93194">
        <ele>266.79</ele>
        <time>2025-03-11T15:02:17.440Z</time>
      </trkpt>
      <trkpt lat="47.91709" lon="4.93183">
        <ele>266.74</ele>
        <time>2025-03-11T15:02:22.301Z</time>
      </trkpt>
      <trkpt lat="47.91718" lon="4.93174">
        <ele>266.75</ele>
        <time>2025-03-11T15:02:27.164Z</time>
      </trkpt>
      <trkpt lat="47.91734" lon="4.93157">
        <ele>266.75</ele>
        <time>2025-03-11T15:02:32.030Z</time>
      </trkpt>
      <trkpt lat="47.9175" lon="4.93141">
        <ele>266.79</ele>
        <time>2025-03-11T15:02:36.899Z</time>
      </trkpt>
      <trkpt lat="47.91773" lon="4.93118">
        <ele>266.88</ele>
        <time>2025-03-11T15:02:41.772Z</time>
      </trkpt>
      <trkpt lat="47.91795" lon="4.93095">
        <ele>266.98</ele>
        <time>2025-03-11T15:02:46.649Z</time>
      </trkpt>
      <trkpt lat="47.91815" lon="4.93074">
        <ele>267.03</ele>
        <time>2025-03-11T15:02:51.530Z</time>
      </trkpt>
      <trkpt lat="47.91835" lon="4.93053">
        <ele>267.11</ele>
        <time>2025-03-11T15:02:56.415Z</time>
      </trkpt>
      <trkpt lat="47.91858" lon="4.93028">
        <ele>267.18</ele>
        <time>2025-03-11T15:03:01.305Z</time>
      </trkpt>
      <trkpt lat="47.91881" lon="4.93003">
        <ele>267.33</ele>
        <time>2025-03-11T15:03:06.199Z</time>
      </trkpt>
      <trkpt lat="47.91901" lon="4.92977">
        <ele>267.5</ele>
        <time>2025-03-11T15:03:11.098Z</time>
      </trkpt>
      <trkpt lat="47.91922" lon="4.92951">
        <ele>267.79</ele>
        <time>2025-03-11T15:03:16.001Z</time>
      </trkpt>
      <trkpt lat="47.91932" lon="4.92928">
        <ele>268.03</ele>
        <time>2025-03-11T15:03:20.907Z</time>
      </trkpt>
      <trkpt lat="47.91943" lon="4.92905">
        <ele>268.34</ele>
        <time>2025-03-11T15:03:25.816Z</time>
      </trkpt>
      <trkpt lat="47.91948" lon="4.9288">
        <ele>268.65</ele>
        <time>2025-03-11T15:03:30.728Z</time>
      </trkpt>
      <trkpt lat="47.91953" lon="4.92856">
        <ele>268.97</ele>
        <time>2025-03-11T15:03:35.643Z</time>
      </trkpt>
      <trkpt lat="47.91955" lon="4.92838">
        <ele>269.28</ele>
        <time>2025-03-11T15:03:40.560Z</time>
      </trkpt>
      <trkpt lat="47.91957" lon="4.9281">
        <ele>269.56</ele>
        <time>2025-03-11T15:03:45.480Z</time>
      </trkpt>
      <trkpt lat="47.91956" lon="4.9278">
        <ele>269.86</ele>
        <time>2025-03-11T15:03:50.403Z</time>
      </trkpt>
      <trkpt lat="47.91955" lon="4.9275">
        <ele>270.21</ele>
        <time>2025-03-11T15:03:55.329Z</time>
      </trkpt>
      <trkpt lat="47.91954" lon="4.92711">
        <ele>270.61</ele>
        <time>2025-03-11T15:04:00.259Z</time>
      </trkpt>
      <trkpt lat="47.91953" lon="4.92672">
        <ele>270.99</ele>
        <time>2025-03-11T15:04:05.193Z</time>
      </trkpt>
      <trkpt lat="47.91952" lon="4.92634">
        <ele>271.41</ele>
        <time>2025-03-11T15:04:10.132Z</time>
      </trkpt>
      <trkpt lat="47.91951" lon="4.92597">
        <ele>271.81</ele>
        <time>2025-03-11T15:04:15.075Z</time>
      </trkpt>
      <trkpt lat="47.91948" lon="4.92567">
        <ele>272.2</ele>
        <time>2025-03-11T15:04:20.021Z</time>
      </trkpt>
      <trkpt lat="47.91944" lon="4.92536">
        <ele>272.64</ele>
        <time>2025-03-11T15:04:24.970Z</time>
      </trkpt>
      <trkpt lat="47.9194" lon="4.92502">
        <ele>273.09</ele>
        <time>2025-03-11T15:04:29.923Z</time>
      </trkpt>
      <trkpt lat="47.91936" lon="4.92468">
        <ele>273.38</ele>
        <time>2025-03-11T15:04:34.880Z</time>
      </trkpt>
      <trkpt lat="47.9193" lon="4.92431">
        <ele>273.67</ele>
        <time>2025-03-11T15:04:39.841Z</time>
      </trkpt>
      <trkpt lat="47.91924" lon="4.92394">
        <ele>273.99</ele>
        <time>2025-03-11T15:04:44.806Z</time>
      </trkpt>
      <trkpt lat="47.91919" lon="4.92362">
        <ele>274.3</ele>
        <time>2025-03-11T15:04:49.774Z</time>
      </trkpt>
      <trkpt lat="47.91913" lon="4.92329">
        <ele>274.63</ele>
        <time>2025-03-11T15:04:54.746Z</time>
      </trkpt>
      <trkpt lat="47.91906" lon="4.92292">
        <ele>274.86</ele>
        <time>2025-03-11T15:04:59.722Z</time>
      </trkpt>
      <trkpt lat="47.919" lon="4.92255">
        <ele>275.03</ele>
        <time>2025-03-11T15:05:04.702Z</time>
      </trkpt>
      <trkpt lat="47.91898" lon="4.92244">
        <ele>275.14</ele>
        <time>2025-03-11T15:05:09.683Z</time>
      </trkpt>
      <trkpt lat="47.91892" lon="4.92214">
        <ele>275.16</ele>
        <time>2025-03-11T15:05:14.668Z</time>
      </trkpt>
      <trkpt lat="47.91887" lon="4.92183">
        <ele>275.13</ele>
        <time>2025-03-11T15:05:19.656Z</time>
      </trkpt>
      <trkpt lat="47.91881" lon="4.92153">
        <ele>275.07</ele>
        <time>2025-03-11T15:05:24.648Z</time>
      </trkpt>
      <trkpt lat="47.91879" lon="4.92142">
        <ele>275.02</ele>
        <time>2025-03-11T15:05:29.641Z</time>
      </trkpt>
      <trkpt lat="47.91874" lon="4.92109">
        <ele>274.92</ele>
        <time>2025-03-11T15:05:34.638Z</time>
      </trkpt>
      <trkpt lat="47.91867" lon="4.92073">
        <ele>274.87</ele>
        <time>2025-03-11T15:05:39.639Z</time>
      </trkpt>
      <trkpt lat="47.91861" lon="4.92037">
        <ele>274.86</ele>
        <time>2025-03-11T15:05:44.643Z</time>
      </trkpt>
      <trkpt lat="47.91859" lon="4.92027">
        <ele>274.72</ele>
        <time>2025-03-11T15:05:49.649Z</time>
      </trkpt>
      <trkpt lat="47.91851" lon="4.91984">
        <ele>274.64</ele>
        <time>2025-03-11T15:05:54.659Z</time>
      </trkpt>
      <trkpt lat="47.91845" lon="4.91941">
        <ele>274.57</ele>
        <time>2025-03-11T15:05:59.674Z</time>
      </trkpt>
      <trkpt lat="47.91839" lon="4.91898">
        <ele>274.4</ele>
        <time>2025-03-11T15:06:04.694Z</time>
      </trkpt>
      <trkpt lat="47.9184" lon="4.91865">
        <ele>274.25</ele>
        <time>2025-03-11T15:06:09.717Z</time>
      </trkpt>
      <trkpt lat="47.91841" lon="4.91833">
        <ele>274.05</ele>
        <time>2025-03-11T15:06:14.744Z</time>
      </trkpt>
      <trkpt lat="47.91843" lon="4.91798">
        <ele>273.86</ele>
        <time>2025-03-11T15:06:19.775Z</time>
      </trkpt>
      <trkpt lat="47.91845" lon="4.91764">
        <ele>273.7</ele>
        <time>2025-03-11T15:06:24.809Z</time>
      </trkpt>
      <trkpt lat="47.91847" lon="4.91746">
        <ele>273.6</ele>
        <time>2025-03-11T15:06:29.845Z</time>
      </trkpt>
      <trkpt lat="47.91852" lon="4.91712">
        <ele>273.47</ele>
        <time>2025-03-11T15:06:34.885Z</time>
      </trkpt>
      <trkpt lat="47.9186" lon="4.91676">
        <ele>273.39</ele>
        <time>2025-03-11T15:06:39.929Z</time>
      </trkpt>
      <trkpt lat="47.91867" lon="4.9164">
        <ele>273.36</ele>
        <time>2025-03-11T15:06:44.977Z</time>
      </trkpt>
      <trkpt lat="47.91878" lon="4.91607">
        <ele>273.4</ele>
        <time>2025-03-11T15:06:50.029Z</time>
      </trkpt>
      <trkpt lat="47.91888" lon="4.91574">
        <ele>273.44</ele>
        <time>2025-03-11T15:06:55.085Z</time>
      </trkpt>
      <trkpt lat="47.91899" lon="4.91537">
        <ele>273.56</ele>
        <time>2025-03-11T15:07:00.145Z</time>
      </trkpt>
      <trkpt lat="47.9191" lon="4.91501">
        <ele>273.74</ele>
        <time>2025-03-11T15:07:05.210Z</time>
      </trkpt>
      <trkpt lat="47.91916" lon="4.91479">
        <ele>273.95</ele>
        <time>2025-03-11T15:07:10.277Z</time>
      </trkpt>
      <trkpt lat="47.91923" lon="4.91457">
        <ele>274.2</ele>
        <time>2025-03-11T15:07:15.347Z</time>
      </trkpt>
      <trkpt lat="47.9193" lon="4.91434">
        <ele>274.49</ele>
        <time>2025-03-11T15:07:20.419Z</time>
      </trkpt>
      <trkpt lat="47.91937" lon="4.91412">
        <ele>274.79</ele>
        <time>2025-03-11T15:07:25.494Z</time>
      </trkpt>
      <trkpt lat="47.91941" lon="4.91398">
        <ele>275.11</ele>
        <time>2025-03-11T15:07:30.571Z</time>
      </trkpt>
      <trkpt lat="47.91946" lon="4.91379">
        <ele>275.45</ele>
        <time>2025-03-11T15:07:35.650Z</time>
      </trkpt>
      <trkpt lat="47.91962" lon="4.91343">
        <ele>275.87</ele>
        <time>2025-03-11T15:07:40.734Z</time>
      </trkpt>
      <trkpt lat="47.91972" lon="4.91325">
        <ele>276.35</ele>
        <time>2025-03-11T15:07:45.820Z</time>
      </trkpt>
      <trkpt lat="47.91983" lon="4.91307">
        <ele>276.83</ele>
        <time>2025-03-11T15:07:50.909Z</time>
      </trkpt>
      <trkpt lat="47.91989" lon="4.91299">
        <ele>277.32</ele>
        <time>2025-03-11T15:07:55.999Z</time>
      </trkpt>
      <trkpt lat="47.92" lon="4.91281">
        <ele>277.79</ele>
        <time>2025-03-11T15:08:01.092Z</time>
      </trkpt>
      <trkpt lat="47.92012" lon="4.91273">
        <ele>278.3</ele>
        <time>2025-03-11T15:08:06.187Z</time>
      </trkpt>
      <trkpt lat="47.92029" lon="4.91264">
        <ele>278.78</ele>
        <time>2025-03-11T15:08:11.285Z</time>
      </trkpt>
      <trkpt lat="47.9205" lon="4.91256">
        <ele>279.24</ele>
        <time>2025-03-11T15:08:16.386Z</time>
      </trkpt>
      <trkpt lat="47.92072" lon="4.91247">
        <ele>279.68</ele>
        <time>2025-03-11T15:08:21.491Z</time>
      </trkpt>
      <trkpt lat="47.92088" lon="4.91241">
        <ele>280.05</ele>
        <time>2025-03-11T15:08:26.598Z</time>
      </trkpt>
      <trkpt lat="47.92105" lon="4.91236">
        <ele>280.38</ele>
        <time>2025-03-11T15:08:31.708Z</time>
      </trkpt>
      <trkpt lat="47.92122" lon="4.9123">
        <ele>280.7</ele>
        <time>2025-03-11T15:08:36.821Z</time>
      </trkpt>
      <trkpt lat="47.92139" lon="4.91225">
        <ele>281</ele>
        <time>2025-03-11T15:08:41.937Z</time>
      </trkpt>
      <trkpt lat="47.92158" lon="4.91219">
        <ele>281.25</ele>
        <time>2025-03-11T15:08:47.056Z</time>
      </trkpt>
      <trkpt lat="47.92177" lon="4.91213">
        <ele>281.45</ele>
        <time>2025-03-11T15:08:52.178Z</time>
      </trkpt>
      <trkpt lat="47.92194" lon="4.91207">
        <ele>281.56</ele>
        <time>2025-03-11T15:08:57.303Z</time>
      </trkpt>
      <trkpt lat="47.92211" lon="4.91202">
        <ele>281.62</ele>
        <time>2025-03-11T15:09:02.430Z</time>
      </trkpt>
      <trkpt lat="47.92227" lon="4.91196">
        <ele>281.62</ele>
        <time>2025-03-11T15:09:07.560Z</time>
      </trkpt>
      <trkpt lat="47.92244" lon="4.91191">
        <ele>281.51</ele>
        <time>2025-03-11T15:09:12.693Z</time>
      </trkpt>
      <trkpt lat="47.92254" lon="4.91188">
        <ele>281.3</ele>
        <time>2025-03-11T15:09:17.828Z</time>
      </trkpt>
      <trkpt lat="47.92274" lon="4.91181">
        <ele>280.98</ele>
        <time>2025-03-11T15:09:22.966Z</time>
      </trkpt>
      <trkpt lat="47.92299" lon="4.91173">
        <ele>280.56</ele>
        <time>2025-03-11T15:09:28.108Z</time>
      </trkpt>
      <trkpt lat="47.92311" lon="4.91169">
        <ele>280.13</ele>
        <time>2025-03-11T15:09:33.252Z</time>
      </trkpt>
      <trkpt lat="47.92328" lon="4.91164">
        <ele>279.64</ele>
        <time>2025-03-11T15:09:38.399Z</time>
      </trkpt>
      <trkpt lat="47.92342" lon="4.91159">
        <ele>279.09</ele>
        <time>2025-03-11T15:09:43.548Z</time>
      </trkpt>
      <trkpt lat="47.92359" lon="4.91153">
        <ele>278.46</ele>
        <time>2025-03-11T15:09:48.700Z</time>
      </trkpt>
      <trkpt lat="47.92364" lon="4.91143">
        <ele>277.82</ele>
        <time>2025-03-11T15:09:53.853Z</time>
      </trkpt>
      <trkpt lat="47.92366" lon="4.91133">
        <ele>277.19</ele>
        <time>2025-03-11T15:09:59.007Z</time>
      </trkpt>
      <trkpt lat="47.92367" lon="4.91124">
        <ele>276.54</ele>
        <time>2025-03-11T15:10:04.162Z</time>
      </trkpt>
      <trkpt lat="47.92366" lon="4.91122">
        <ele>275.9</ele>
        <time>2025-03-11T15:10:09.318Z</time>
      </trkpt>
      <trkpt lat="47.92363" lon="4.91111">
        <ele>275.23</ele>
        <time>2025-03-11T15:10:14.475Z</time>
      </trkpt>
      <trkpt lat="47.92356" lon="4.9109">
        <ele>274.53</ele>
        <time>2025-03-11T15:10:19.634Z</time>
      </trkpt>
      <trkpt lat="47.92357" lon="4.91087">
        <ele>273.88</ele>
        <time>2025-03-11T15:10:24.794Z</time>
      </trkpt>
      <trkpt lat="47.92354" lon="4.91078">
        <ele>273.23</ele>
        <time>2025-03-11T15:10:29.955Z</time>
      </trkpt>
      <trkpt lat="47.9235" lon="4.91061">
        <ele>272.56</ele>
        <time>2025-03-11T15:10:35.118Z</time>
      </trkpt>
      <trkpt lat="47.92346" lon="4.91056">
        <ele>271.96</ele>
        <time>2025-03-11T15:10:40.282Z</time>
      </trkpt>
      <trkpt lat="47.92341" lon="4.91049">
        <ele>271.36</ele>
        <time>2025-03-11T15:10:45.447Z</time>
      </trkpt>
      <trkpt lat="47.92338" lon="4.91046">
        <ele>270.79</ele>
        <time>2025-03-11T15:10:50.612Z</time>
      </trkpt>
      <trkpt lat="47.92336" lon="4.91042">
        <ele>270.25</ele>
        <time>2025-03-11T15:10:55.778Z</time>
      </trkpt>
      <trkpt lat="47.92332" lon="4.91039">
        <ele>269.74</ele>
        <time>2025-03-11T15:11:00.944Z</time>
      </trkpt>
      <trkpt lat="47.92328" lon="4.91034">
        <ele>269.26</ele>
        <time>2025-03-11T15:11:06.111Z</time>
      </trkpt>
      <trkpt lat="47.92325" lon="4.91029">
        <ele>268.8</ele>
        <time>2025-03-11T15:11:11.279Z</time>
      </trkpt>
      <trkpt lat="47.92321" lon="4.91023">
        <ele>268.38</ele>
        <time>2025-03-11T15:11:16.448Z</time>
      </trkpt>
      <trkpt lat="47.9231" lon="4.91017">
        <ele>267.97</ele>
        <time>2025-03-11T15:11:21.619Z</time>
      </trkpt>
      <trkpt lat="47.92305" lon="4.91017">
        <ele>267.63</ele>
        <time>2025-03-11T15:11:26.790Z</time>
      </trkpt>
      <trkpt lat="47.92291" lon="4.91023">
        <ele>267.32</ele>
        <time>2025-03-11T15:11:31.964Z</time>
      </trkpt>
      <trkpt lat="47.92278" lon="4.91028">
        <ele>267.04</ele>
        <time>2025-03-11T15:11:37.140Z</time>
      </trkpt>
      <trkpt lat="47.92266" lon="4.91037">
        <ele>266.86</ele>
        <time>2025-03-11T15:11:42.318Z</time>
      </trkpt>
      <trkpt lat="47.92249" lon="4.91044">
        <ele>266.65</ele>
        <time>2025-03-11T15:11:47.499Z</time>
      </trkpt>
      <trkpt lat="47.92236" lon="4.91045">
        <ele>266.46</ele>
        <time>2025-03-11T15:11:52.682Z</time>
      </trkpt>
      <trkpt lat="47.92227" lon="4.91042">
        <ele>266.28</ele>
        <time>2025-03-11T15:11:57.866Z</time>
      </trkpt>
      <trkpt lat="47.92225" lon="4.91039">
        <ele>266.15</ele>
        <time>2025-03-11T15:12:03.051Z</time>
      </trkpt>
      <trkpt lat="47.92215" lon="4.91027">
        <ele>266.02</ele>
        <time>2025-03-11T15:12:08.238Z</time>
      </trkpt>
      <trkpt lat="47.92214" lon="4.91025">
        <ele>265.97</ele>
        <time>2025-03-11T15:12:13.425Z</time>
      </trkpt>
      <trkpt lat="47.92204" lon="4.91012">
        <ele>265.91</ele>
        <time>2025-03-11T15:12:18.614Z</time>
      </trkpt>
      <trkpt lat="47.92202" lon="4.91009">
        <ele>265.94</ele>
        <time>2025-03-11T15:12:23.804Z</time>
      </trkpt>
      <trkpt lat="47.92193" lon="4.90991">
        <ele>266.02</ele>
        <time>2025-03-11T15:12:28.996Z</time>
      </trkpt>
      <trkpt lat="47.92184" lon="4.90975">
        <ele>266.14</ele>
        <time>2025-03-11T15:12:34.191Z</time>
      </trkpt>
      <trkpt lat="47.92172" lon="4.90955">
        <ele>266.31</ele>
        <time>2025-03-11T15:12:39.388Z</time>
      </trkpt>
      <trkpt lat="47.92157" lon="4.90934">
        <ele>266.47</ele>
        <time>2025-03-11T15:12:44.589Z</time>
      </trkpt>
      <trkpt lat="47.92154" lon="4.90931">
        <ele>266.59</ele>
        <time>2025-03-11T15:12:49.790Z</time>
      </trkpt>
      <trkpt lat="47.92151" lon="4.90931">
        <ele>266.72</ele>
        <time>2025-03-11T15:12:54.992Z</time>
      </trkpt>
      <trkpt lat="47.92148" lon="4.90928">
        <ele>266.85</ele>
        <time>2025-03-11T15:13:00.194Z</time>
      </trkpt>
      <trkpt lat="47.92139" lon="4.90922">
        <ele>266.98</ele>
        <time>2025-03-11T15:13:05.398Z</time>
      </trkpt>
      <trkpt lat="47.92138" lon="4.90925">
        <ele>267.11</ele>
        <time>2025-03-11T15:13:10.602Z</time>
      </trkpt>
      <trkpt lat="47.92142" lon="4.90925">
        <ele>267.22</ele>
        <time>2025-03-11T15:13:15.807Z</time>
      </trkpt>
      <trkpt lat="47.92146" lon="4.90927">
        <ele>267.32</ele>
        <time>2025-03-11T15:13:21.013Z</time>
      </trkpt>
      <trkpt lat="47.92154" lon="4.90935">
        <ele>267.41</ele>
        <time>2025-03-11T15:13:26.220Z</time>
      </trkpt>
      <trkpt lat="47.9216" lon="4.90944">
        <ele>267.48</ele>
        <time>2025-03-11T15:13:31.429Z</time>
      </trkpt>
      <trkpt lat="47.92162" lon="4.90947">
        <ele>267.55</ele>
        <time>2025-03-11T15:13:36.638Z</time>
      </trkpt>
      <trkpt lat="47.92161" lon="4.90939">
        <ele>267.63</ele>
        <time>2025-03-11T15:13:41.848Z</time>
      </trkpt>
      <trkpt lat="47.92151" lon="4.90927">
        <ele>267.73</ele>
        <time>2025-03-11T15:13:47.060Z</time>
      </trkpt>
      <trkpt lat="47.92133" lon="4.90912">
        <ele>267.78</ele>
        <time>2025-03-11T15:13:52.275Z</time>
      </trkpt>
      <trkpt lat="47.92109" lon="4.90896">
        <ele>267.79</ele>
        <time>2025-03-11T15:13:57.494Z</time>
      </trkpt>
      <trkpt lat="47.92107" lon="4.90896">
        <ele>267.81</ele>
        <time>2025-03-11T15:14:02.714Z</time>
      </trkpt>
      <trkpt lat="47.92099" lon="4.90888">
        <ele>267.8</ele>
        <time>2025-03-11T15:14:07.935Z</time>
      </trkpt>
      <trkpt lat="47.92096" lon="4.90885">
        <ele>267.79</ele>
        <time>2025-03-11T15:14:13.157Z</time>
      </trkpt>
      <trkpt lat="47.92076" lon="4.90873">
        <ele>267.77</ele>
        <time>2025-03-11T15:14:18.382Z</time>
      </trkpt>
      <trkpt lat="47.92067" lon="4.90876">
        <ele>267.75</ele>
        <time>2025-03-11T15:14:23.609Z</time>
      </trkpt>
      <trkpt lat="47.92062" lon="4.90887">
        <ele>267.73</ele>
        <time>2025-03-11T15:14:28.837Z</time>
      </trkpt>
      <trkpt lat="47.92062" lon="4.90891">
        <ele>267.7</ele>
        <time>2025-03-11T15:14:34.066Z</time>
      </trkpt>
      <trkpt lat="47.92059" lon="4.90911">
        <ele>267.67</ele>
        <time>2025-03-11T15:14:39.297Z</time>
      </trkpt>
      <trkpt lat="47.92057" lon="4.90929">
        <ele>267.63</ele>
        <time>2025-03-11T15:14:44.530Z</time>
      </trkpt>
      <trkpt lat="47.92061" lon="4.90951">
        <ele>267.6</ele>
        <time>2025-03-11T15:14:49.765Z</time>
      </trkpt>
      <trkpt lat="47.92065" lon="4.90964">
        <ele>267.57</ele>
        <time>2025-03-11T15:14:55.002Z</time>
      </trkpt>
      <trkpt lat="47.92067" lon="4.90969">
        <ele>267.54</ele>
        <time>2025-03-11T15:15:00.239Z</time>
      </trkpt>
      <trkpt lat="47.92059" lon="4.9099">
        <ele>267.48</ele>
        <time>2025-03-11T15:15:05.479Z</time>
      </trkpt>
      <trkpt lat="47.9205" lon="4.9101">
        <ele>267.42</ele>
        <time>2025-03-11T15:15:10.722Z</time>
      </trkpt>
      <trkpt lat="47.92045" lon="4.9102">
        <ele>267.35</ele>
        <time>2025-03-11T15:15:15.966Z</time>
      </trkpt>
      <trkpt lat="47.92045" lon="4.91023">
        <ele>267.29</ele>
        <time>2025-03-11T15:15:21.210Z</time>
      </trkpt>
      <trkpt lat="47.92041" lon="4.91041">
        <ele>267.22</ele>
        <time>2025-03-11T15:15:26.456Z</time>
      </trkpt>
      <trkpt lat="47.92041" lon="4.91038">
        <ele>267.15</ele>
        <time>2025-03-11T15:15:31.703Z</time>
      </trkpt>
      <trkpt lat="47.92041" lon="4.91027">
        <ele>267.08</ele>
        <time>2025-03-11T15:15:36.951Z</time>
      </trkpt>
      <trkpt lat="47.92041" lon="4.91025">
        <ele>267.01</ele>
        <time>2025-03-11T15:15:42.199Z</time>
      </trkpt>
      <trkpt lat="47.92046" lon="4.91012">
        <ele>266.94</ele>
        <time>2025-03-11T15:15:47.448Z</time>
      </trkpt>
      <trkpt lat="47.92051" lon="4.91005">
        <ele>266.87</ele>
        <time>2025-03-11T15:15:52.699Z</time>
      </trkpt>
      <trkpt lat="47.92056" lon="4.90995">
        <ele>266.8</ele>
        <time>2025-03-11T15:15:57.951Z</time>
      </trkpt>
      <trkpt lat="47.9206" lon="4.9099">
        <ele>266.74</ele>
        <time>2025-03-11T15:16:03.204Z</time>
      </trkpt>
      <trkpt lat="47.92063" lon="4.90985">
        <ele>266.67</ele>
        <time>2025-03-11T15:16:08.458Z</time>
      </trkpt>
      <trkpt lat="47.92063" lon="4.90983">
        <ele>266.61</ele>
        <time>2025-03-11T15:16:13.712Z</time>
      </trkpt>
      <trkpt lat="47.92061" lon="4.90978">
        <ele>266.53</ele>
        <time>2025-03-11T15:16:18.966Z</time>
      </trkpt>
      <trkpt lat="47.92059" lon="4.90964">
        <ele>266.43</ele>
        <time>2025-03-11T15:16:24.222Z</time>
      </trkpt>
      <trkpt lat="47.92057" lon="4.9095">
        <ele>266.35</ele>
        <time>2025-03-11T15:16:29.479Z</time>
      </trkpt>
      <trkpt lat="47.92057" lon="4.90938">
        <ele>266.3</ele>
        <time>2025-03-11T15:16:34.738Z</time>
      </trkpt>
      <trkpt lat="47.92058" lon="4.90931">
        <ele>266.25</ele>
        <time>2025-03-11T15:16:39.997Z</time>
      </trkpt>
      <trkpt lat="47.92058" lon="4.90915">
        <ele>266.2</ele>
        <time>2025-03-11T15:16:45.258Z</time>
      </trkpt>
      <trkpt lat="47.92059" lon="4.90911">
        <ele>266.17</ele>
        <time>2025-03-11T15:16:50.520Z</time>
      </trkpt>
      <trkpt lat="47.92065" lon="4.90888">
        <ele>266.16</ele>
        <time>2025-03-11T15:16:55.784Z</time>
      </trkpt>
      <trkpt lat="47.92069" lon="4.90879">
        <ele>266.15</ele>
        <time>2025-03-11T15:17:01.050Z</time>
      </trkpt>
      <trkpt lat="47.92073" lon="4.90875">
        <ele>266.15</ele>
        <time>2025-03-11T15:17:06.316Z</time>
      </trkpt>
      <trkpt lat="47.92088" lon="4.90877">
        <ele>266.17</ele>
        <time>2025-03-11T15:17:11.585Z</time>
      </trkpt>
      <trkpt lat="47.92108" lon="4.90893">
        <ele>266.25</ele>
        <time>2025-03-11T15:17:16.857Z</time>
      </trkpt>
      <trkpt lat="47.92125" lon="4.90907">
        <ele>266.33</ele>
        <time>2025-03-11T15:17:22.132Z</time>
      </trkpt>
      <trkpt lat="47.92143" lon="4.90918">
        <ele>266.38</ele>
        <time>2025-03-11T15:17:27.411Z</time>
      </trkpt>
      <trkpt lat="47.92161" lon="4.90935">
        <ele>266.41</ele>
        <time>2025-03-11T15:17:32.693Z</time>
      </trkpt>
      <trkpt lat="47.92174" lon="4.90954">
        <ele>266.45</ele>
        <time>2025-03-11T15:17:37.978Z</time>
      </trkpt>
      <trkpt lat="47.92185" lon="4.90968">
        <ele>266.5</ele>
        <time>2025-03-11T15:17:43.265Z</time>
      </trkpt>
      <trkpt lat="47.922" lon="4.90996">
        <ele>266.54</ele>
        <time>2025-03-11T15:17:48.556Z</time>
      </trkpt>
      <trkpt lat="47.92213" lon="4.91022">
        <ele>266.73</ele>
        <time>2025-03-11T15:17:53.851Z</time>
      </trkpt>
      <trkpt lat="47.92222" lon="4.91038">
        <ele>266.98</ele>
        <time>2025-03-11T15:17:59.148Z</time>
      </trkpt>
      <trkpt lat="47.92232" lon="4.91043">
        <ele>267.25</ele>
        <time>2025-03-11T15:18:04.446Z</time>
      </trkpt>
      <trkpt lat="47.92247" lon="4.91041">
        <ele>267.5</ele>
        <time>2025-03-11T15:18:09.747Z</time>
      </trkpt>
      <trkpt lat="47.9226" lon="4.91035">
        <ele>267.77</ele>
        <time>2025-03-11T15:18:15.050Z</time>
      </trkpt>
      <trkpt lat="47.92274" lon="4.91024">
        <ele>267.99</ele>
        <time>2025-03-11T15:18:20.356Z</time>
      </trkpt>
      <trkpt lat="47.92287" lon="4.9102">
        <ele>268.3</ele>
        <time>2025-03-11T15:18:25.664Z</time>
      </trkpt>
      <trkpt lat="47.92304" lon="4.91012">
        <ele>268.62</ele>
        <time>2025-03-11T15:18:30.975Z</time>
      </trkpt>
      <trkpt lat="47.92316" lon="4.91017">
        <ele>269.01</ele>
        <time>2025-03-11T15:18:36.288Z</time>
      </trkpt>
      <trkpt lat="47.92328" lon="4.91032">
        <ele>269.4</ele>
        <time>2025-03-11T15:18:41.603Z</time>
      </trkpt>
      <trkpt lat="47.9233" lon="4.91035">
        <ele>269.79</ele>
        <time>2025-03-11T15:18:46.919Z</time>
      </trkpt>
      <trkpt lat="47.92339" lon="4.91044">
        <ele>270.2</ele>
        <time>2025-03-11T15:18:52.236Z</time>
      </trkpt>
      <trkpt lat="47.9234" lon="4.91048">
        <ele>270.61</ele>
        <time>2025-03-11T15:18:57.554Z</time>
      </trkpt>
      <trkpt lat="47.92342" lon="4.91056">
        <ele>271.05</ele>
        <time>2025-03-11T15:19:02.873Z</time>
      </trkpt>
      <trkpt lat="47.9235" lon="4.91071">
        <ele>271.5</ele>
        <time>2025-03-11T15:19:08.194Z</time>
      </trkpt>
      <trkpt lat="47.92353" lon="4.91083">
        <ele>271.96</ele>
        <time>2025-03-11T15:19:13.516Z</time>
      </trkpt>
      <trkpt lat="47.92354" lon="4.91085">
        <ele>272.39</ele>
        <time>2025-03-11T15:19:18.838Z</time>
      </trkpt>
      <trkpt lat="47.92357" lon="4.91099">
        <ele>272.85</ele>
        <time>2025-03-11T15:19:24.162Z</time>
      </trkpt>
      <trkpt lat="47.92363" lon="4.91115">
        <ele>273.31</ele>
        <time>2025-03-11T15:19:29.488Z</time>
      </trkpt>
      <trkpt lat="47.92365" lon="4.91123">
        <ele>273.74</ele>
        <time>2025-03-11T15:19:34.815Z</time>
      </trkpt>
      <trkpt lat="47.92366" lon="4.91129">
        <ele>274.15</ele>
        <time>2025-03-11T15:19:40.142Z</time>
      </trkpt>
      <trkpt lat="47.92365" lon="4.91135">
        <ele>274.56</ele>
        <time>2025-03-11T15:19:45.470Z</time>
      </trkpt>
      <trkpt lat="47.92364" lon="4.91152">
        <ele>274.98</ele>
        <time>2025-03-11T15:19:50.800Z</time>
      </trkpt>
      <trkpt lat="47.92355" lon="4.91155">
        <ele>275.38</ele>
        <time>2025-03-11T15:19:56.131Z</time>
      </trkpt>
      <trkpt lat="47.9234" lon="4.9116">
        <ele>275.77</ele>
        <time>2025-03-11T15:20:01.465Z</time>
      </trkpt>
      <trkpt lat="47.92326" lon="4.91164">
        <ele>276.1</ele>
        <time>2025-03-11T15:20:06.801Z</time>
      </trkpt>
      <trkpt lat="47.92321" lon="4.91167">
        <ele>276.37</ele>
        <time>2025-03-11T15:20:12.138Z</time>
      </trkpt>
      <trkpt lat="47.92322" lon="4.91169">
        <ele>276.59</ele>
        <time>2025-03-11T15:20:17.475Z</time>
      </trkpt>
      <trkpt lat="47.92321" lon="4.91166">
        <ele>276.78</ele>
        <time>2025-03-11T15:20:22.813Z</time>
      </trkpt>
      <trkpt lat="47.92336" lon="4.91161">
        <ele>276.9</ele>
        <time>2025-03-11T15:20:28.153Z</time>
      </trkpt>
      <trkpt lat="47.9234" lon="4.9116">
        <ele>277.02</ele>
        <time>2025-03-11T15:20:33.494Z</time>
      </trkpt>
      <trkpt lat="47.92357" lon="4.91154">
        <ele>277.05</ele>
        <time>2025-03-11T15:20:38.838Z</time>
      </trkpt>
      <trkpt lat="47.92382" lon="4.91146">
        <ele>277.02</ele>
        <time>2025-03-11T15:20:44.186Z</time>
      </trkpt>
      <trkpt lat="47.92395" lon="4.9114">
        <ele>277.06</ele>
        <time>2025-03-11T15:20:49.536Z</time>
      </trkpt>
      <trkpt lat="47.92407" lon="4.91126">
        <ele>277.07</ele>
        <time>2025-03-11T15:20:54.888Z</time>
      </trkpt>
      <trkpt lat="47.92416" lon="4.91106">
        <ele>277.17</ele>
        <time>2025-03-11T15:21:00.243Z</time>
      </trkpt>
      <trkpt lat="47.92424" lon="4.91087">
        <ele>277.3</ele>
        <time>2025-03-11T15:21:05.600Z</time>
      </trkpt>
      <trkpt lat="47.92439" lon="4.91052">
        <ele>277.54</ele>
        <time>2025-03-11T15:21:10.962Z</time>
      </trkpt>
      <trkpt lat="47.9245" lon="4.91028">
        <ele>277.7</ele>
        <time>2025-03-11T15:21:16.327Z</time>
      </trkpt>
      <trkpt lat="47.92461" lon="4.91003">
        <ele>277.82</ele>
        <time>2025-03-11T15:21:21.695Z</time>
      </trkpt>
      <trkpt lat="47.9247" lon="4.90982">
        <ele>277.92</ele>
        <time>2025-03-11T15:21:27.066Z</time>
      </trkpt>
      <trkpt lat="47.92479" lon="4.90961">
        <ele>277.99</ele>
        <time>2025-03-11T15:21:32.440Z</time>
      </trkpt>
      <trkpt lat="47.92492" lon="4.90931">
        <ele>278.08</ele>
        <time>2025-03-11T15:21:37.817Z</time>
      </trkpt>
      <trkpt lat="47.92505" lon="4.90901">
        <ele>278.18</ele>
        <time>2025-03-11T15:21:43.198Z</time>
      </trkpt>
      <trkpt lat="47.92519" lon="4.90868">
        <ele>278.37</ele>
        <time>2025-03-11T15:21:48.583Z</time>
      </trkpt>
      <trkpt lat="47.92532" lon="4.90836">
        <ele>278.43</ele>
        <time>2025-03-11T15:21:53.972Z</time>
      </trkpt>
      <trkpt lat="47.92544" lon="4.90809">
        <ele>278.44</ele>
        <time>2025-03-11T15:21:59.365Z</time>
      </trkpt>
      <trkpt lat="47.92556" lon="4.90782">
        <ele>278.56</ele>
        <time>2025-03-11T15:22:04.761Z</time>
      </trkpt>
      <trkpt lat="47.92571" lon="4.90747">
        <ele>278.71</ele>
        <time>2025-03-11T15:22:10.162Z</time>
      </trkpt>
      <trkpt lat="47.92586" lon="4.90712">
        <ele>278.8</ele>
        <time>2025-03-11T15:22:15.567Z</time>
      </trkpt>
      <trkpt lat="47.92595" lon="4.90689">
        <ele>278.88</ele>
        <time>2025-03-11T15:22:20.975Z</time>
      </trkpt>
      <trkpt lat="47.92605" lon="4.90665">
        <ele>279.03</ele>
        <time>2025-03-11T15:22:26.386Z</time>
      </trkpt>
      <trkpt lat="47.92613" lon="4.90643">
        <ele>279.14</ele>
        <time>2025-03-11T15:22:31.800Z</time>
      </trkpt>
      <trkpt lat="47.92622" lon="4.9062">
        <ele>279.15</ele>
        <time>2025-03-11T15:22:37.217Z</time>
      </trkpt>
      <trkpt lat="47.92632" lon="4.90594">
        <ele>279.25</ele>
        <time>2025-03-11T15:22:42.637Z</time>
      </trkpt>
      <trkpt lat="47.92638" lon="4.90577">
        <ele>279.33</ele>
        <time>2025-03-11T15:22:48.059Z</time>
      </trkpt>
      <trkpt lat="47.92646" lon="4.90555">
        <ele>279.33</ele>
        <time>2025-03-11T15:22:53.484Z</time>
      </trkpt>
      <trkpt lat="47.92655" lon="4.90533">
        <ele>279.3</ele>
        <time>2025-03-11T15:22:58.912Z</time>
      </trkpt>
      <trkpt lat="47.92664" lon="4.90508">
        <ele>279.22</ele>
        <time>2025-03-11T15:23:04.343Z</time>
      </trkpt>
      <trkpt lat="47.9267" lon="4.90492">
        <ele>279.2</ele>
        <time>2025-03-11T15:23:09.776Z</time>
      </trkpt>
      <trkpt lat="47.92679" lon="4.90468">
        <ele>279.17</ele>
        <time>2025-03-11T15:23:15.212Z</time>
      </trkpt>
      <trkpt lat="47.92688" lon="4.90444">
        <ele>279.19</ele>
        <time>2025-03-11T15:23:20.651Z</time>
      </trkpt>
      <trkpt lat="47.92699" lon="4.90416">
        <ele>279.07</ele>
        <time>2025-03-11T15:23:26.093Z</time>
      </trkpt>
      <trkpt lat="47.92709" lon="4.90388">
        <ele>278.88</ele>
        <time>2025-03-11T15:23:31.538Z</time>
      </trkpt>
      <trkpt lat="47.9272" lon="4.90359">
        <ele>278.66</ele>
        <time>2025-03-11T15:23:36.987Z</time>
      </trkpt>
      <trkpt lat="47.92731" lon="4.9033">
        <ele>278.49</ele>
        <time>2025-03-11T15:23:42.440Z</time>
      </trkpt>
      <trkpt lat="47.92734" lon="4.90322">
        <ele>278.24</ele>
        <time>2025-03-11T15:23:47.894Z</time>
      </trkpt>
      <trkpt lat="47.92749" lon="4.90286">
        <ele>277.92</ele>
        <time>2025-03-11T15:23:53.352Z</time>
      </trkpt>
      <trkpt lat="47.92761" lon="4.9027">
        <ele>277.63</ele>
        <time>2025-03-11T15:23:58.813Z</time>
      </trkpt>
      <trkpt lat="47.92774" lon="4.90254">
        <ele>277.28</ele>
        <time>2025-03-11T15:24:04.276Z</time>
      </trkpt>
      <trkpt lat="47.92789" lon="4.90234">
        <ele>276.83</ele>
        <time>2025-03-11T15:24:09.743Z</time>
      </trkpt>
      <trkpt lat="47.92804" lon="4.90215">
        <ele>276.37</ele>
        <time>2025-03-11T15:24:15.213Z</time>
      </trkpt>
      <trkpt lat="47.92826" lon="4.90187">
        <ele>275.94</ele>
        <time>2025-03-11T15:24:20.687Z</time>
      </trkpt>
      <trkpt lat="47.9284" lon="4.90161">
        <ele>275.51</ele>
        <time>2025-03-11T15:24:26.165Z</time>
      </trkpt>
      <trkpt lat="47.92856" lon="4.90131">
        <ele>275.16</ele>
        <time>2025-03-11T15:24:31.647Z</time>
      </trkpt>
      <trkpt lat="47.92871" lon="4.90101">
        <ele>274.82</ele>
        <time>2025-03-11T15:24:37.133Z</time>
      </trkpt>
      <trkpt lat="47.92886" lon="4.90073">
        <ele>274.53</ele>
        <time>2025-03-11T15:24:42.623Z</time>
      </trkpt>
      <trkpt lat="47.929" lon="4.90045">
        <ele>274.11</ele>
        <time>2025-03-11T15:24:48.117Z</time>
      </trkpt>
      <trkpt lat="47.92916" lon="4.90015">
        <ele>273.72</ele>
        <time>2025-03-11T15:24:53.615Z</time>
      </trkpt>
      <trkpt lat="47.92931" lon="4.89986">
        <ele>273.25</ele>
        <time>2025-03-11T15:24:59.117Z</time>
      </trkpt>
      <trkpt lat="47.92943" lon="4.89965">
        <ele>272.88</ele>
        <time>2025-03-11T15:25:04.622Z</time>
      </trkpt>
      <trkpt lat="47.92955" lon="4.89944">
        <ele>272.45</ele>
        <time>2025-03-11T15:25:10.130Z</time>
      </trkpt>
      <trkpt lat="47.92965" lon="4.89932">
        <ele>272.14</ele>
        <time>2025-03-11T15:25:15.640Z</time>
      </trkpt>
      <trkpt lat="47.9298" lon="4.89915">
        <ele>271.82</ele>
        <time>2025-03-11T15:25:21.153Z</time>
      </trkpt>
      <trkpt lat="47.92995" lon="4.89897">
        <ele>271.54</ele>
        <time>2025-03-11T15:25:26.669Z</time>
      </trkpt>
      <trkpt lat="47.93014" lon="4.89876">
        <ele>271.3</ele>
        <time>2025-03-11T15:25:32.189Z</time>
      </trkpt>
      <trkpt lat="47.93032" lon="4.89854">
        <ele>271.08</ele>
        <time>2025-03-11T15:25:37.712Z</time>
      </trkpt>
      <trkpt lat="47.93051" lon="4.89832">
        <ele>270.91</ele>
        <time>2025-03-11T15:25:43.239Z</time>
      </trkpt>
      <trkpt lat="47.9307" lon="4.8981">
        <ele>270.69</ele>
        <time>2025-03-11T15:25:48.770Z</time>
      </trkpt>
      <trkpt lat="47.93087" lon="4.89789">
        <ele>270.5</ele>
        <time>2025-03-11T15:25:54.305Z</time>
      </trkpt>
      <trkpt lat="47.93105" lon="4.89768">
        <ele>270.38</ele>
        <time>2025-03-11T15:25:59.843Z</time>
      </trkpt>
      <trkpt lat="47.93112" lon="4.8976">
        <ele>270.41</ele>
        <time>2025-03-11T15:26:05.383Z</time>
      </trkpt>
      <trkpt lat="47.93121" lon="4.89739">
        <ele>270.56</ele>
        <time>2025-03-11T15:26:10.925Z</time>
      </trkpt>
      <trkpt lat="47.93122" lon="4.89703">
        <ele>270.8</ele>
        <time>2025-03-11T15:26:16.471Z</time>
      </trkpt>
      <trkpt lat="47.93122" lon="4.89671">
        <ele>271.13</ele>
        <time>2025-03-11T15:26:22.021Z</time>
      </trkpt>
      <trkpt lat="47.93122" lon="4.89639">
        <ele>271.4</ele>
        <time>2025-03-11T15:26:27.574Z</time>
      </trkpt>
      <trkpt lat="47.93122" lon="4.89602">
        <ele>271.72</ele>
        <time>2025-03-11T15:26:33.131Z</time>
      </trkpt>
      <trkpt lat="47.93122" lon="4.89566">
        <ele>272.17</ele>
        <time>2025-03-11T15:26:38.692Z</time>
      </trkpt>
      <trkpt lat="47.93122" lon="4.8953">
        <ele>272.65</ele>
        <time>2025-03-11T15:26:44.257Z</time>
      </trkpt>
      <trkpt lat="47.93122" lon="4.89495">
        <ele>273.27</ele>
        <time>2025-03-11T15:26:49.826Z</time>
      </trkpt>
      <trkpt lat="47.93121" lon="4.89461">
        <ele>273.86</ele>
        <time>2025-03-11T15:26:55.398Z</time>
      </trkpt>
      <trkpt lat="47.9312" lon="4.89427">
        <ele>274.47</ele>
        <time>2025-03-11T15:27:00.974Z</time>
      </trkpt>
      <trkpt lat="47.93116" lon="4.89393">
        <ele>275.12</ele>
        <time>2025-03-11T15:27:06.554Z</time>
      </trkpt>
      <trkpt lat="47.93109" lon="4.89369">
        <ele>275.74</ele>
        <time>2025-03-11T15:27:12.137Z</time>
      </trkpt>
      <trkpt lat="47.93102" lon="4.89346">
        <ele>276.33</ele>
        <time>2025-03-11T15:27:17.722Z</time>
      </trkpt>
      <trkpt lat="47.93095" lon="4.89322">
        <ele>276.89</ele>
        <time>2025-03-11T15:27:23.310Z</time>
      </trkpt>
      <trkpt lat="47.93092" lon="4.89315">
        <ele>277.47</ele>
        <time>2025-03-11T15:27:28.899Z</time>
      </trkpt>
      <trkpt lat="47.93083" lon="4.89288">
        <ele>278.07</ele>
        <time>2025-03-11T15:27:34.491Z</time>
      </trkpt>
      <trkpt lat="47.93076" lon="4.89267">
        <ele>278.65</ele>
        <time>2025-03-11T15:27:40.086Z</time>
      </trkpt>
      <trkpt lat="47.93069" lon="4.89246">
        <ele>279.23</ele>
        <time>2025-03-11T15:27:45.683Z</time>
      </trkpt>
      <trkpt lat="47.9306" lon="4.89227">
        <ele>279.76</ele>
        <time>2025-03-11T15:27:51.283Z</time>
      </trkpt>
      <trkpt lat="47.93051" lon="4.89207">
        <ele>280.26</ele>
        <time>2025-03-11T15:27:56.885Z</time>
      </trkpt>
      <trkpt lat="47.9304" lon="4.89187">
        <ele>280.64</ele>
        <time>2025-03-11T15:28:02.490Z</time>
      </trkpt>
      <trkpt lat="47.93029" lon="4.89166">
        <ele>281.01</ele>
        <time>2025-03-11T15:28:08.098Z</time>
      </trkpt>
      <trkpt lat="47.93019" lon="4.89147">
        <ele>281.37</ele>
        <time>2025-03-11T15:28:13.709Z</time>
      </trkpt>
      <trkpt lat="47.93009" lon="4.89128">
        <ele>281.69</ele>
        <time>2025-03-11T15:28:19.322Z</time>
      </trkpt>
      <trkpt lat="47.92996" lon="4.89104">
        <ele>282.01</ele>
        <time>2025-03-11T15:28:24.938Z</time>
      </trkpt>
      <trkpt lat="47.92983" lon="4.89079">
        <ele>282.25</ele>
        <time>2025-03-11T15:28:30.558Z</time>
      </trkpt>
      <trkpt lat="47.92969" lon="4.89054">
        <ele>282.41</ele>
        <time>2025-03-11T15:28:36.181Z</time>
      </trkpt>
      <trkpt lat="47.92959" lon="4.89028">
        <ele>282.54</ele>
        <time>2025-03-11T15:28:41.808Z</time>
      </trkpt>
      <trkpt lat="47.9295" lon="4.89002">
        <ele>282.54</ele>
        <time>2025-03-11T15:28:47.438Z</time>
      </trkpt>
      <trkpt lat="47.92943" lon="4.88981">
        <ele>282.47</ele>
        <time>2025-03-11T15:28:53.070Z</time>
      </trkpt>
      <trkpt lat="47.92936" lon="4.88959">
        <ele>282.34</ele>
        <time>2025-03-11T15:28:58.705Z</time>
      </trkpt>
      <trkpt lat="47.92924" lon="4.88922">
        <ele>282.16</ele>
        <time>2025-03-11T15:29:04.344Z</time>
      </trkpt>
      <trkpt lat="47.92922" lon="4.88916">
        <ele>281.94</ele>
        <time>2025-03-11T15:29:09.984Z</time>
      </trkpt>
      <trkpt lat="47.9292" lon="4.8891">
        <ele>281.65</ele>
        <time>2025-03-11T15:29:15.625Z</time>
      </trkpt>
      <trkpt lat="47.92912" lon="4.88882">
        <ele>281.24</ele>
        <time>2025-03-11T15:29:21.269Z</time>
      </trkpt>
      <trkpt lat="47.9291" lon="4.88857">
        <ele>280.84</ele>
        <time>2025-03-11T15:29:26.916Z</time>
      </trkpt>
      <trkpt lat="47.92908" lon="4.88831">
        <ele>280.42</ele>
        <time>2025-03-11T15:29:32.566Z</time>
      </trkpt>
      <trkpt lat="47.92905" lon="4.88796">
        <ele>279.96</ele>
        <time>2025-03-11T15:29:38.219Z</time>
      </trkpt>
      <trkpt lat="47.92902" lon="4.88761">
        <ele>279.43</ele>
        <time>2025-03-11T15:29:43.876Z</time>
      </trkpt>
      <trkpt lat="47.929" lon="4.88733">
        <ele>278.91</ele>
        <time>2025-03-11T15:29:49.536Z</time>
      </trkpt>
      <trkpt lat="47.92898" lon="4.88705">
        <ele>278.3</ele>
        <time>2025-03-11T15:29:55.199Z</time>
      </trkpt>
      <trkpt lat="47.92896" lon="4.88672">
        <ele>277.67</ele>
        <time>2025-03-11T15:30:00.866Z</time>
      </trkpt>
      <trkpt lat="47.92893" lon="4.88639">
        <ele>277</ele>
        <time>2025-03-11T15:30:06.536Z</time>
      </trkpt>
      <trkpt lat="47.92888" lon="4.88615">
        <ele>276.24</ele>
        <time>2025-03-11T15:30:12.209Z</time>
      </trkpt>
      <trkpt lat="47.92883" lon="4.88591">
        <ele>275.46</ele>
        <time>2025-03-11T15:30:17.885Z</time>
      </trkpt>
      <trkpt lat="47.92877" lon="4.88566">
        <ele>274.61</ele>
        <time>2025-03-11T15:30:23.564Z</time>
      </trkpt>
      <trkpt lat="47.92872" lon="4.8854">
        <ele>273.73</ele>
        <time>2025-03-11T15:30:29.246Z</time>
      </trkpt>
      <trkpt lat="47.92865" lon="4.88507">
        <ele>272.99</ele>
        <time>2025-03-11T15:30:34.931Z</time>
      </trkpt>
      <trkpt lat="47.92859" lon="4.88482">
        <ele>272.29</ele>
        <time>2025-03-11T15:30:40.619Z</time>
      </trkpt>
      <trkpt lat="47.92854" lon="4.88457">
        <ele>271.61</ele>
        <time>2025-03-11T15:30:46.310Z</time>
      </trkpt>
      <trkpt lat="47.92847" lon="4.88422">
        <ele>270.93</ele>
        <time>2025-03-11T15:30:52.005Z</time>
      </trkpt>
      <trkpt lat="47.92843" lon="4.88407">
        <ele>270.23</ele>
        <time>2025-03-11T15:30:57.702Z</time>
      </trkpt>
      <trkpt lat="47.9284" lon="4.8837">
        <ele>269.5</ele>
        <time>2025-03-11T15:31:03.403Z</time>
      </trkpt>
      <trkpt lat="47.92839" lon="4.8834">
        <ele>268.78</ele>
        <time>2025-03-11T15:31:09.107Z</time>
      </trkpt>
      <trkpt lat="47.92837" lon="4.88297">
        <ele>268.06</ele>
        <time>2025-03-11T15:31:14.815Z</time>
      </trkpt>
      <trkpt lat="47.92835" lon="4.88264">
        <ele>267.35</ele>
        <time>2025-03-11T15:31:20.527Z</time>
      </trkpt>
      <trkpt lat="47.92834" lon="4.88238">
        <ele>266.74</ele>
        <time>2025-03-11T15:31:26.242Z</time>
      </trkpt>
      <trkpt lat="47.92832" lon="4.88204">
        <ele>266.22</ele>
        <time>2025-03-11T15:31:31.960Z</time>
      </trkpt>
      <trkpt lat="47.9283" lon="4.88197">
        <ele>265.69</ele>
        <time>2025-03-11T15:31:37.679Z</time>
      </trkpt>
      <trkpt lat="47.92823" lon="4.8817">
        <ele>265.21</ele>
        <time>2025-03-11T15:31:43.401Z</time>
      </trkpt>
      <trkpt lat="47.9282" lon="4.88158">
        <ele>264.73</ele>
        <time>2025-03-11T15:31:49.125Z</time>
      </trkpt>
      <trkpt lat="47.92812" lon="4.88126">
        <ele>264.27</ele>
        <time>2025-03-11T15:31:54.852Z</time>
      </trkpt>
      <trkpt lat="47.9281" lon="4.8812">
        <ele>263.81</ele>
        <time>2025-03-11T15:32:00.580Z</time>
      </trkpt>
      <trkpt lat="47.92806" lon="4.88092">
        <ele>263.39</ele>
        <time>2025-03-11T15:32:06.311Z</time>
      </trkpt>
      <trkpt lat="47.92804" lon="4.88079">
        <ele>262.96</ele>
        <time>2025-03-11T15:32:12.044Z</time>
      </trkpt>
      <trkpt lat="47.92804" lon="4.88076">
        <ele>262.54</ele>
        <time>2025-03-11T15:32:17.777Z</time>
      </trkpt>
      <trkpt lat="47.92786" lon="4.8808">
        <ele>262.03</ele>
        <time>2025-03-11T15:32:23.513Z</time>
      </trkpt>
      <trkpt lat="47.92771" lon="4.88081">
        <ele>261.56</ele>
        <time>2025-03-11T15:32:29.251Z</time>
      </trkpt>
      <trkpt lat="47.92757" lon="4.88084">
        <ele>261.11</ele>
        <time>2025-03-11T15:32:34.992Z</time>
      </trkpt>
      <trkpt lat="47.92739" lon="4.88087">
        <ele>260.7</ele>
        <time>2025-03-11T15:32:40.735Z</time>
      </trkpt>
      <trkpt lat="47.92721" lon="4.8809">
        <ele>260.32</ele>
        <time>2025-03-11T15:32:46.481Z</time>
      </trkpt>
      <trkpt lat="47.92719" lon="4.88088">
        <ele>259.98</ele>
        <time>2025-03-11T15:32:52.228Z</time>
      </trkpt>
      <trkpt lat="47.92718" lon="4.88084">
        <ele>259.66</ele>
        <time>2025-03-11T15:32:57.975Z</time>
      </trkpt>
      <trkpt lat="47.92716" lon="4.88061">
        <ele>259.35</ele>
        <time>2025-03-11T15:33:03.725Z</time>
      </trkpt>
      <trkpt lat="47.92715" lon="4.88038">
        <ele>259.03</ele>
        <time>2025-03-11T15:33:09.477Z</time>
      </trkpt>
      <trkpt lat="47.92714" lon="4.88031">
        <ele>258.77</ele>
        <time>2025-03-11T15:33:15.230Z</time>
      </trkpt>
      <trkpt lat="47.92709" lon="4.8802">
        <ele>258.52</ele>
        <time>2025-03-11T15:33:20.984Z</time>
      </trkpt>
      <trkpt lat="47.92708" lon="4.8802">
        <ele>258.3</ele>
        <time>2025-03-11T15:33:26.738Z</time>
      </trkpt>
      <trkpt lat="47.92705" lon="4.88013">
        <ele>258.09</ele>
        <time>2025-03-11T15:33:32.493Z</time>
      </trkpt>
      <trkpt lat="47.92707" lon="4.87994">
        <ele>257.91</ele>
        <time>2025-03-11T15:33:38.250Z</time>
      </trkpt>
      <trkpt lat="47.92705" lon="4.87963">
        <ele>257.74</ele>
        <time>2025-03-11T15:33:44.011Z</time>
      </trkpt>
      <trkpt lat="47.92704" lon="4.87958">
        <ele>257.58</ele>
        <time>2025-03-11T15:33:49.772Z</time>
      </trkpt>
      <trkpt lat="47.92704" lon="4.87952">
        <ele>257.44</ele>
        <time>2025-03-11T15:33:55.534Z</time>
      </trkpt>
      <trkpt lat="47.92706" lon="4.87931">
        <ele>257.35</ele>
        <time>2025-03-11T15:34:01.298Z</time>
      </trkpt>
      <trkpt lat="47.92705" lon="4.87903">
        <ele>257.23</ele>
        <time>2025-03-11T15:34:07.065Z</time>
      </trkpt>
      <trkpt lat="47.92704" lon="4.87878">
        <ele>257.11</ele>
        <time>2025-03-11T15:34:12.835Z</time>
      </trkpt>
      <trkpt lat="47.92702" lon="4.87853">
        <ele>256.96</ele>
        <time>2025-03-11T15:34:18.608Z</time>
      </trkpt>
      <trkpt lat="47.92697" lon="4.87823">
        <ele>256.83</ele>
        <time>2025-03-11T15:34:24.384Z</time>
      </trkpt>
      <trkpt lat="47.92686" lon="4.87788">
        <ele>256.71</ele>
        <time>2025-03-11T15:34:30.164Z</time>
      </trkpt>
      <trkpt lat="47.92683" lon="4.87776">
        <ele>256.61</ele>
        <time>2025-03-11T15:34:35.946Z</time>
      </trkpt>
      <trkpt lat="47.92675" lon="4.87752">
        <ele>256.52</ele>
        <time>2025-03-11T15:34:41.730Z</time>
      </trkpt>
      <trkpt lat="47.92673" lon="4.87731">
        <ele>256.42</ele>
        <time>2025-03-11T15:34:47.517Z</time>
      </trkpt>
      <trkpt lat="47.92672" lon="4.87724">
        <ele>256.33</ele>
        <time>2025-03-11T15:34:53.304Z</time>
      </trkpt>
      <trkpt lat="47.92672" lon="4.87718">
        <ele>256.24</ele>
        <time>2025-03-11T15:34:59.092Z</time>
      </trkpt>
      <trkpt lat="47.9267" lon="4.877">
        <ele>256.16</ele>
        <time>2025-03-11T15:35:04.882Z</time>
      </trkpt>
      <trkpt lat="47.92669" lon="4.87682">
        <ele>256.06</ele>
        <time>2025-03-11T15:35:10.674Z</time>
      </trkpt>
      <trkpt lat="47.92669" lon="4.87679">
        <ele>255.96</ele>
        <time>2025-03-11T15:35:16.466Z</time>
      </trkpt>
      <trkpt lat="47.92668" lon="4.87663">
        <ele>255.83</ele>
        <time>2025-03-11T15:35:22.260Z</time>
      </trkpt>
      <trkpt lat="47.92669" lon="4.87648">
        <ele>255.72</ele>
        <time>2025-03-11T15:35:28.056Z</time>
      </trkpt>
      <trkpt lat="47.92672" lon="4.87617">
        <ele>255.62</ele>
        <time>2025-03-11T15:35:33.855Z</time>
      </trkpt>
      <trkpt lat="47.92674" lon="4.87589">
        <ele>255.51</ele>
        <time>2025-03-11T15:35:39.657Z</time>
      </trkpt>
      <trkpt lat="47.92673" lon="4.87576">
        <ele>255.45</ele>
        <time>2025-03-11T15:35:45.461Z</time>
      </trkpt>
      <trkpt lat="47.92671" lon="4.87564">
        <ele>255.41</ele>
        <time>2025-03-11T15:35:51.266Z</time>
      </trkpt>
      <trkpt lat="47.92663" lon="4.87529">
        <ele>255.37</ele>
        <time>2025-03-11T15:35:57.075Z</time>
      </trkpt>
      <trkpt lat="47.92652" lon="4.87488">
        <ele>255.35</ele>
        <time>2025-03-11T15:36:02.889Z</time>
      </trkpt>
      <trkpt lat="47.92649" lon="4.87474">
        <ele>255.36</ele>
        <time>2025-03-11T15:36:08.704Z</time>
      </trkpt>
      <trkpt lat="47.92646" lon="4.87451">
        <ele>255.4</ele>
        <time>2025-03-11T15:36:14.522Z</time>
      </trkpt>
      <trkpt lat="47.92644" lon="4.87438">
        <ele>255.47</ele>
        <time>2025-03-11T15:36:20.341Z</time>
      </trkpt>
      <trkpt lat="47.92642" lon="4.87426">
        <ele>255.57</ele>
        <time>2025-03-11T15:36:26.161Z</time>
      </trkpt>
      <trkpt lat="47.92641" lon="4.87414">
        <ele>255.65</ele>
        <time>2025-03-11T15:36:31.983Z</time>
      </trkpt>
      <trkpt lat="47.92627" lon="4.87383">
        <ele>255.76</ele>
        <time>2025-03-11T15:36:37.809Z</time>
      </trkpt>
      <trkpt lat="47.92621" lon="4.87372">
        <ele>255.91</ele>
        <time>2025-03-11T15:36:43.636Z</time>
      </trkpt>
      <trkpt lat="47.92612" lon="4.87357">
        <ele>256.11</ele>
        <time>2025-03-11T15:36:49.465Z</time>
      </trkpt>
      <trkpt lat="47.9261" lon="4.87352">
        <ele>256.32</ele>
        <time>2025-03-11T15:36:55.295Z</time>
      </trkpt>
      <trkpt lat="47.92601" lon="4.87336">
        <ele>256.55</ele>
        <time>2025-03-11T15:37:01.127Z</time>
      </trkpt>
      <trkpt lat="47.92589" lon="4.87319">
        <ele>256.78</ele>
        <time>2025-03-11T15:37:06.962Z</time>
      </trkpt>
      <trkpt lat="47.92576" lon="4.87302">
        <ele>257.06</ele>
        <time>2025-03-11T15:37:12.800Z</time>
      </trkpt>
      <trkpt lat="47.92563" lon="4.87284">
        <ele>257.36</ele>
        <time>2025-03-11T15:37:18.640Z</time>
      </trkpt>
      <trkpt lat="47.92558" lon="4.87273">
        <ele>257.65</ele>
        <time>2025-03-11T15:37:24.482Z</time>
      </trkpt>
      <trkpt lat="47.92552" lon="4.87254">
        <ele>257.97</ele>
        <time>2025-03-11T15:37:30.326Z</time>
      </trkpt>
      <trkpt lat="47.92547" lon="4.87237">
        <ele>258.28</ele>
        <time>2025-03-11T15:37:36.172Z</time>
      </trkpt>
      <trkpt lat="47.92539" lon="4.87214">
        <ele>258.59</ele>
        <time>2025-03-11T15:37:42.021Z</time>
      </trkpt>
      <trkpt lat="47.92529" lon="4.87197">
        <ele>258.9</ele>
        <time>2025-03-11T15:37:47.873Z</time>
      </trkpt>
      <trkpt lat="47.92532" lon="4.87192">
        <ele>259.22</ele>
        <time>2025-03-11T15:37:53.725Z</time>
      </trkpt>
      <trkpt lat="47.92538" lon="4.87189">
        <ele>259.54</ele>
        <time>2025-03-11T15:37:59.578Z</time>
      </trkpt>
      <trkpt lat="47.92541" lon="4.87187">
        <ele>259.84</ele>
        <time>2025-03-11T15:38:05.432Z</time>
      </trkpt>
      <trkpt lat="47.92558" lon="4.87176">
        <ele>260.15</ele>
        <time>2025-03-11T15:38:11.289Z</time>
      </trkpt>
      <trkpt lat="47.92584" lon="4.8716">
        <ele>260.44</ele>
        <time>2025-03-11T15:38:17.150Z</time>
      </trkpt>
      <trkpt lat="47.92603" lon="4.87148">
        <ele>260.75</ele>
        <time>2025-03-11T15:38:23.015Z</time>
      </trkpt>
      <trkpt lat="47.9263" lon="4.87134">
        <ele>261.07</ele>
        <time>2025-03-11T15:38:28.884Z</time>
      </trkpt>
      <trkpt lat="47.92647" lon="4.87127">
        <ele>261.33</ele>
        <time>2025-03-11T15:38:34.756Z</time>
      </trkpt>
      <trkpt lat="47.92668" lon="4.87118">
        <ele>261.61</ele>
        <time>2025-03-11T15:38:40.631Z</time>
      </trkpt>
      <trkpt lat="47.92672" lon="4.87118">
        <ele>261.78</ele>
        <time>2025-03-11T15:38:46.507Z</time>
      </trkpt>
      <trkpt lat="47.92676" lon="4.8713">
        <ele>261.89</ele>
        <time>2025-03-11T15:38:52.384Z</time>
      </trkpt>
      <trkpt lat="47.92686" lon="4.87161">
        <ele>261.96</ele>
        <time>2025-03-11T15:38:58.265Z</time>
      </trkpt>
      <trkpt lat="47.92691" lon="4.87187">
        <ele>261.99</ele>
        <time>2025-03-11T15:39:04.149Z</time>
      </trkpt>
      <trkpt lat="47.92697" lon="4.87213">
        <ele>262</ele>
        <time>2025-03-11T15:39:10.036Z</time>
      </trkpt>
      <trkpt lat="47.92702" lon="4.87237">
        <ele>262.02</ele>
        <time>2025-03-11T15:39:15.926Z</time>
      </trkpt>
      <trkpt lat="47.92706" lon="4.87261">
        <ele>262</ele>
        <time>2025-03-11T15:39:21.818Z</time>
      </trkpt>
      <trkpt lat="47.92713" lon="4.87292">
        <ele>261.9</ele>
        <time>2025-03-11T15:39:27.714Z</time>
      </trkpt>
      <trkpt lat="47.92719" lon="4.87324">
        <ele>261.82</ele>
        <time>2025-03-11T15:39:33.614Z</time>
      </trkpt>
      <trkpt lat="47.92725" lon="4.87352">
        <ele>261.71</ele>
        <time>2025-03-11T15:39:39.517Z</time>
      </trkpt>
      <trkpt lat="47.92731" lon="4.87379">
        <ele>261.55</ele>
        <time>2025-03-11T15:39:45.423Z</time>
      </trkpt>
      <trkpt lat="47.92736" lon="4.87404">
        <ele>261.36</ele>
        <time>2025-03-11T15:39:51.332Z</time>
      </trkpt>
      <trkpt lat="47.92741" lon="4.87429">
        <ele>261.18</ele>
        <time>2025-03-11T15:39:57.243Z</time>
      </trkpt>
      <trkpt lat="47.92746" lon="4.87455">
        <ele>260.98</ele>
        <time>2025-03-11T15:40:03.157Z</time>
      </trkpt>
      <trkpt lat="47.92751" lon="4.87481">
        <ele>260.82</ele>
        <time>2025-03-11T15:40:09.074Z</time>
      </trkpt>
      <trkpt lat="47.92755" lon="4.87504">
        <ele>260.68</ele>
        <time>2025-03-11T15:40:14.994Z</time>
      </trkpt>
      <trkpt lat="47.92759" lon="4.87527">
        <ele>260.56</ele>
        <time>2025-03-11T15:40:20.916Z</time>
      </trkpt>
      <trkpt lat="47.92761" lon="4.87555">
        <ele>260.43</ele>
        <time>2025-03-11T15:40:26.841Z</time>
      </trkpt>
      <trkpt lat="47.92764" lon="4.87583">
        <ele>260.33</ele>
        <time>2025-03-11T15:40:32.769Z</time>
      </trkpt>
      <trkpt lat="47.92766" lon="4.87608">
        <ele>260.25</ele>
        <time>2025-03-11T15:40:38.700Z</time>
      </trkpt>
      <trkpt lat="47.92769" lon="4.87633">
        <ele>260.2</ele>
        <time>2025-03-11T15:40:44.634Z</time>
      </trkpt>
      <trkpt lat="47.92771" lon="4.87657">
        <ele>260.18</ele>
        <time>2025-03-11T15:40:50.570Z</time>
      </trkpt>
      <trkpt lat="47.92773" lon="4.8768">
        <ele>260.18</ele>
        <time>2025-03-11T15:40:56.509Z</time>
      </trkpt>
      <trkpt lat="47.92775" lon="4.87708">
        <ele>260.22</ele>
        <time>2025-03-11T15:41:02.451Z</time>
      </trkpt>
      <trkpt lat="47.92777" lon="4.87735">
        <ele>260.27</ele>
        <time>2025-03-11T15:41:08.396Z</time>
      </trkpt>
      <trkpt lat="47.92779" lon="4.87759">
        <ele>260.34</ele>
        <time>2025-03-11T15:41:14.343Z</time>
      </trkpt>
      <trkpt lat="47.9278" lon="4.87782">
        <ele>260.5</ele>
        <time>2025-03-11T15:41:20.293Z</time>
      </trkpt>
      <trkpt lat="47.92782" lon="4.87812">
        <ele>260.76</ele>
        <time>2025-03-11T15:41:26.246Z</time>
      </trkpt>
      <trkpt lat="47.92783" lon="4.87826">
        <ele>261.05</ele>
        <time>2025-03-11T15:41:32.201Z</time>
      </trkpt>
      <trkpt lat="47.92785" lon="4.87857">
        <ele>261.41</ele>
        <time>2025-03-11T15:41:38.159Z</time>
      </trkpt>
      <trkpt lat="47.92787" lon="4.87887">
        <ele>261.8</ele>
        <time>2025-03-11T15:41:44.120Z</time>
      </trkpt>
      <trkpt lat="47.9279" lon="4.87933">
        <ele>262.18</ele>
        <time>2025-03-11T15:41:50.086Z</time>
      </trkpt>
      <trkpt lat="47.9279" lon="4.87957">
        <ele>262.67</ele>
        <time>2025-03-11T15:41:56.055Z</time>
      </trkpt>
      <trkpt lat="47.92795" lon="4.87959">
        <ele>263.22</ele>
        <time>2025-03-11T15:42:02.025Z</time>
      </trkpt>
      <trkpt lat="47.92798" lon="4.87959">
        <ele>263.83</ele>
        <time>2025-03-11T15:42:07.995Z</time>
      </trkpt>
      <trkpt lat="47.92804" lon="4.87957">
        <ele>264.51</ele>
        <time>2025-03-11T15:42:13.966Z</time>
      </trkpt>
      <trkpt lat="47.9282" lon="4.87954">
        <ele>265.29</ele>
        <time>2025-03-11T15:42:19.940Z</time>
      </trkpt>
      <trkpt lat="47.92835" lon="4.87951">
        <ele>266.14</ele>
        <time>2025-03-11T15:42:25.916Z</time>
      </trkpt>
      <trkpt lat="47.92862" lon="4.87946">
        <ele>267.06</ele>
        <time>2025-03-11T15:42:31.897Z</time>
      </trkpt>
      <trkpt lat="47.92879" lon="4.87943">
        <ele>268.01</ele>
        <time>2025-03-11T15:42:37.880Z</time>
      </trkpt>
      <trkpt lat="47.92896" lon="4.8794">
        <ele>269.01</ele>
        <time>2025-03-11T15:42:43.866Z</time>
      </trkpt>
      <trkpt lat="47.92901" lon="4.87939">
        <ele>270.03</ele>
        <time>2025-03-11T15:42:49.853Z</time>
      </trkpt>
      <trkpt lat="47.92921" lon="4.87966">
        <ele>271.07</ele>
        <time>2025-03-11T15:42:55.844Z</time>
      </trkpt>
      <trkpt lat="47.9294" lon="4.87994">
        <ele>272.19</ele>
        <time>2025-03-11T15:43:01.839Z</time>
      </trkpt>
      <trkpt lat="47.92962" lon="4.88012">
        <ele>273.4</ele>
        <time>2025-03-11T15:43:07.839Z</time>
      </trkpt>
      <trkpt lat="47.92982" lon="4.88027">
        <ele>274.64</ele>
        <time>2025-03-11T15:43:13.842Z</time>
      </trkpt>
      <trkpt lat="47.93001" lon="4.88026">
        <ele>275.97</ele>
        <time>2025-03-11T15:43:19.848Z</time>
      </trkpt>
      <trkpt lat="47.9302" lon="4.88024">
        <ele>277.3</ele>
        <time>2025-03-11T15:43:25.857Z</time>
      </trkpt>
      <trkpt lat="47.93042" lon="4.88022">
        <ele>278.66</ele>
        <time>2025-03-11T15:43:31.870Z</time>
      </trkpt>
      <trkpt lat="47.93059" lon="4.88021">
        <ele>280.03</ele>
        <time>2025-03-11T15:43:37.885Z</time>
      </trkpt>
      <trkpt lat="47.93079" lon="4.8802">
        <ele>281.41</ele>
        <time>2025-03-11T15:43:43.904Z</time>
      </trkpt>
      <trkpt lat="47.93097" lon="4.88021">
        <ele>282.79</ele>
        <time>2025-03-11T15:43:49.925Z</time>
      </trkpt>
      <trkpt lat="47.93113" lon="4.88025">
        <ele>284.16</ele>
        <time>2025-03-11T15:43:55.949Z</time>
      </trkpt>
      <trkpt lat="47.93131" lon="4.88029">
        <ele>285.55</ele>
        <time>2025-03-11T15:44:01.976Z</time>
      </trkpt>
      <trkpt lat="47.93154" lon="4.88033">
        <ele>286.97</ele>
        <time>2025-03-11T15:44:08.007Z</time>
      </trkpt>
      <trkpt lat="47.93173" lon="4.88034">
        <ele>288.32</ele>
        <time>2025-03-11T15:44:14.041Z</time>
      </trkpt>
      <trkpt lat="47.93196" lon="4.88033">
        <ele>289.63</ele>
        <time>2025-03-11T15:44:20.078Z</time>
      </trkpt>
      <trkpt lat="47.93217" lon="4.88029">
        <ele>290.89</ele>
        <time>2025-03-11T15:44:26.119Z</time>
      </trkpt>
      <trkpt lat="47.93233" lon="4.88023">
        <ele>292.12</ele>
        <time>2025-03-11T15:44:32.163Z</time>
      </trkpt>
      <trkpt lat="47.93253" lon="4.88021">
        <ele>293.32</ele>
        <time>2025-03-11T15:44:38.210Z</time>
      </trkpt>
      <trkpt lat="47.93276" lon="4.88023">
        <ele>294.49</ele>
        <time>2025-03-11T15:44:44.260Z</time>
      </trkpt>
      <trkpt lat="47.93305" lon="4.88028">
        <ele>295.61</ele>
        <time>2025-03-11T15:44:50.315Z</time>
      </trkpt>
      <trkpt lat="47.93336" lon="4.88032">
        <ele>296.68</ele>
        <time>2025-03-11T15:44:56.375Z</time>
      </trkpt>
      <trkpt lat="47.93363" lon="4.88037">
        <ele>297.69</ele>
        <time>2025-03-11T15:45:02.439Z</time>
      </trkpt>
      <trkpt lat="47.93382" lon="4.8804">
        <ele>298.64</ele>
        <time>2025-03-11T15:45:08.506Z</time>
      </trkpt>
      <trkpt lat="47.93386" lon="4.8804">
        <ele>299.49</ele>
        <time>2025-03-11T15:45:14.574Z</time>
      </trkpt>
      <trkpt lat="47.93408" lon="4.88043">
        <ele>300.34</ele>
        <time>2025-03-11T15:45:20.646Z</time>
      </trkpt>
      <trkpt lat="47.93431" lon="4.88048">
        <ele>301.1</ele>
        <time>2025-03-11T15:45:26.721Z</time>
      </trkpt>
      <trkpt lat="47.93455" lon="4.88055">
        <ele>301.74</ele>
        <time>2025-03-11T15:45:32.800Z</time>
      </trkpt>
      <trkpt lat="47.93483" lon="4.88063">
        <ele>302.32</ele>
        <time>2025-03-11T15:45:38.884Z</time>
      </trkpt>
      <trkpt lat="47.93487" lon="4.88064">
        <ele>302.82</ele>
        <time>2025-03-11T15:45:44.968Z</time>
      </trkpt>
      <trkpt lat="47.93503" lon="4.88068">
        <ele>303.24</ele>
        <time>2025-03-11T15:45:51.055Z</time>
      </trkpt>
      <trkpt lat="47.93519" lon="4.88072">
        <ele>303.61</ele>
        <time>2025-03-11T15:45:57.145Z</time>
      </trkpt>
      <trkpt lat="47.93544" lon="4.88076">
        <ele>303.98</ele>
        <time>2025-03-11T15:46:03.239Z</time>
      </trkpt>
      <trkpt lat="47.93568" lon="4.88079">
        <ele>304.25</ele>
        <time>2025-03-11T15:46:09.337Z</time>
      </trkpt>
      <trkpt lat="47.93596" lon="4.8808">
        <ele>304.46</ele>
        <time>2025-03-11T15:46:15.439Z</time>
      </trkpt>
      <trkpt lat="47.93621" lon="4.88078">
        <ele>304.61</ele>
        <time>2025-03-11T15:46:21.545Z</time>
      </trkpt>
      <trkpt lat="47.93648" lon="4.88079">
        <ele>304.66</ele>
        <time>2025-03-11T15:46:27.655Z</time>
      </trkpt>
      <trkpt lat="47.9367" lon="4.88082">
        <ele>304.61</ele>
        <time>2025-03-11T15:46:33.769Z</time>
      </trkpt>
      <trkpt lat="47.93691" lon="4.88086">
        <ele>304.51</ele>
        <time>2025-03-11T15:46:39.886Z</time>
      </trkpt>
      <trkpt lat="47.93714" lon="4.88088">
        <ele>304.38</ele>
        <time>2025-03-11T15:46:46.007Z</time>
      </trkpt>
      <trkpt lat="47.93738" lon="4.88091">
        <ele>304.23</ele>
        <time>2025-03-11T15:46:52.132Z</time>
      </trkpt>
      <trkpt lat="47.93763" lon="4.8809">
        <ele>304.02</ele>
        <time>2025-03-11T15:46:58.261Z</time>
      </trkpt>
      <trkpt lat="47.93789" lon="4.8809">
        <ele>303.83</ele>
        <time>2025-03-11T15:47:04.394Z</time>
      </trkpt>
      <trkpt lat="47.93807" lon="4.88086">
        <ele>303.64</ele>
        <time>2025-03-11T15:47:10.530Z</time>
      </trkpt>
      <trkpt lat="47.93826" lon="4.88081">
        <ele>303.35</ele>
        <time>2025-03-11T15:47:16.669Z</time>
      </trkpt>
      <trkpt lat="47.93846" lon="4.88074">
        <ele>303.08</ele>
        <time>2025-03-11T15:47:22.811Z</time>
      </trkpt>
      <trkpt lat="47.93866" lon="4.88067">
        <ele>302.86</ele>
        <time>2025-03-11T15:47:28.957Z</time>
      </trkpt>
      <trkpt lat="47.93887" lon="4.88057">
        <ele>302.61</ele>
        <time>2025-03-11T15:47:35.106Z</time>
      </trkpt>
      <trkpt lat="47.93908" lon="4.88047">
        <ele>302.35</ele>
        <time>2025-03-11T15:47:41.259Z</time>
      </trkpt>
      <trkpt lat="47.93931" lon="4.88038">
        <ele>302.07</ele>
        <time>2025-03-11T15:47:47.415Z</time>
      </trkpt>
      <trkpt lat="47.93953" lon="4.88028">
        <ele>301.87</ele>
        <time>2025-03-11T15:47:53.575Z</time>
      </trkpt>
      <trkpt lat="47.9397" lon="4.88027">
        <ele>301.74</ele>
        <time>2025-03-11T15:47:59.738Z</time>
      </trkpt>
      <trkpt lat="47.93986" lon="4.88026">
        <ele>301.62</ele>
        <time>2025-03-11T15:48:05.903Z</time>
      </trkpt>
      <trkpt lat="47.94004" lon="4.8803">
        <ele>301.54</ele>
        <time>2025-03-11T15:48:12.071Z</time>
      </trkpt>
      <trkpt lat="47.94021" lon="4.88034">
        <ele>301.49</ele>
        <time>2025-03-11T15:48:18.242Z</time>
      </trkpt>
      <trkpt lat="47.94039" lon="4.8804">
        <ele>301.47</ele>
        <time>2025-03-11T15:48:24.416Z</time>
      </trkpt>
      <trkpt lat="47.94056" lon="4.88045">
        <ele>301.44</ele>
        <time>2025-03-11T15:48:30.593Z</time>
      </trkpt>
      <trkpt lat="47.94075" lon="4.88054">
        <ele>301.45</ele>
        <time>2025-03-11T15:48:36.773Z</time>
      </trkpt>
      <trkpt lat="47.94085" lon="4.88057">
        <ele>301.49</ele>
        <time>2025-03-11T15:48:42.955Z</time>
      </trkpt>
      <trkpt lat="47.94105" lon="4.88064">
        <ele>301.62</ele>
        <time>2025-03-11T15:48:49.140Z</time>
      </trkpt>
      <trkpt lat="47.94126" lon="4.88071">
        <ele>301.77</ele>
        <time>2025-03-11T15:48:55.328Z</time>
      </trkpt>
      <trkpt lat="47.94152" lon="4.88081">
        <ele>301.88</ele>
        <time>2025-03-11T15:49:01.521Z</time>
      </trkpt>
      <trkpt lat="47.94169" lon="4.88087">
        <ele>302</ele>
        <time>2025-03-11T15:49:07.716Z</time>
      </trkpt>
      <trkpt lat="47.94186" lon="4.88093">
        <ele>302.12</ele>
        <time>2025-03-11T15:49:13.914Z</time>
      </trkpt>
      <trkpt lat="47.94203" lon="4.881">
        <ele>302.25</ele>
        <time>2025-03-11T15:49:20.115Z</time>
      </trkpt>
      <trkpt lat="47.94219" lon="4.88106">
        <ele>302.38</ele>
        <time>2025-03-11T15:49:26.319Z</time>
      </trkpt>
      <trkpt lat="47.94247" lon="4.88114">
        <ele>302.54</ele>
        <time>2025-03-11T15:49:32.527Z</time>
      </trkpt>
      <trkpt lat="47.94274" lon="4.88117">
        <ele>302.75</ele>
        <time>2025-03-11T15:49:38.740Z</time>
      </trkpt>
      <trkpt lat="47.94286" lon="4.88137">
        <ele>302.95</ele>
        <time>2025-03-11T15:49:44.956Z</time>
      </trkpt>
      <trkpt lat="47.94297" lon="4.88159">
        <ele>303.12</ele>
        <time>2025-03-11T15:49:51.174Z</time>
      </trkpt>
      <trkpt lat="47.94309" lon="4.8818">
        <ele>303.25</ele>
        <time>2025-03-11T15:49:57.395Z</time>
      </trkpt>
      <trkpt lat="47.94319" lon="4.882">
        <ele>303.37</ele>
        <time>2025-03-11T15:50:03.619Z</time>
      </trkpt>
      <trkpt lat="47.9433" lon="4.88219">
        <ele>303.49</ele>
        <time>2025-03-11T15:50:09.846Z</time>
      </trkpt>
      <trkpt lat="47.94341" lon="4.88239">
        <ele>303.6</ele>
        <time>2025-03-11T15:50:16.076Z</time>
      </trkpt>
      <trkpt lat="47.94352" lon="4.88259">
        <ele>303.69</ele>
        <time>2025-03-11T15:50:22.308Z</time>
      </trkpt>
      <trkpt lat="47.94365" lon="4.88284">
        <ele>303.78</ele>
        <time>2025-03-11T15:50:28.544Z</time>
      </trkpt>
      <trkpt lat="47.94379" lon="4.88309">
        <ele>303.91</ele>
        <time>2025-03-11T15:50:34.783Z</time>
      </trkpt>
      <trkpt lat="47.94395" lon="4.88338">
        <ele>304.07</ele>
        <time>2025-03-11T15:50:41.026Z</time>
      </trkpt>
      <trkpt lat="47.9441" lon="4.88367">
        <ele>304.15</ele>
        <time>2025-03-11T15:50:47.273Z</time>
      </trkpt>
      <trkpt lat="47.94422" lon="4.88389">
        <ele>304.21</ele>
        <time>2025-03-11T15:50:53.523Z</time>
      </trkpt>
      <trkpt lat="47.94433" lon="4.8841">
        <ele>304.25</ele>
        <time>2025-03-11T15:50:59.776Z</time>
      </trkpt>
      <trkpt lat="47.94441" lon="4.88431">
        <ele>304.26</ele>
        <time>2025-03-11T15:51:06.032Z</time>
      </trkpt>
      <trkpt lat="47.94449" lon="4.88453">
        <ele>304.24</ele>
        <time>2025-03-11T15:51:12.290Z</time>
      </trkpt>
      <trkpt lat="47.94455" lon="4.88477">
        <ele>304.21</ele>
        <time>2025-03-11T15:51:18.551Z</time>
      </trkpt>
      <trkpt lat="47.94461" lon="4.88502">
        <ele>304.17</ele>
        <time>2025-03-11T15:51:24.815Z</time>
      </trkpt>
      <trkpt lat="47.9447" lon="4.88525">
        <ele>304.12</ele>
        <time>2025-03-11T15:51:31.082Z</time>
      </trkpt>
      <trkpt lat="47.94479" lon="4.88549">
        <ele>304.07</ele>
        <time>2025-03-11T15:51:37.352Z</time>
      </trkpt>
      <trkpt lat="47.94489" lon="4.88571">
        <ele>304.03</ele>
        <time>2025-03-11T15:51:43.625Z</time>
      </trkpt>
      <trkpt lat="47.945" lon="4.88594">
        <ele>303.95</ele>
        <time>2025-03-11T15:51:49.901Z</time>
      </trkpt>
      <trkpt lat="47.94514" lon="4.88619">
        <ele>303.91</ele>
        <time>2025-03-11T15:51:56.180Z</time>
      </trkpt>
      <trkpt lat="47.94528" lon="4.88645">
        <ele>303.83</ele>
        <time>2025-03-11T15:52:02.463Z</time>
      </trkpt>
      <trkpt lat="47.94549" lon="4.8867">
        <ele>303.79</ele>
        <time>2025-03-11T15:52:08.750Z</time>
      </trkpt>
      <trkpt lat="47.94569" lon="4.88696">
        <ele>303.72</ele>
        <time>2025-03-11T15:52:15.041Z</time>
      </trkpt>
      <trkpt lat="47.94591" lon="4.8872">
        <ele>303.58</ele>
        <time>2025-03-11T15:52:21.337Z</time>
      </trkpt>
      <trkpt lat="47.94613" lon="4.88744">
        <ele>303.48</ele>
        <time>2025-03-11T15:52:27.637Z</time>
      </trkpt>
      <trkpt lat="47.94637" lon="4.88766">
        <ele>303.42</ele>
        <time>2025-03-11T15:52:33.942Z</time>
      </trkpt>
      <trkpt lat="47.9466" lon="4.88789">
        <ele>303.4</ele>
        <time>2025-03-11T15:52:40.251Z</time>
      </trkpt>
      <trkpt lat="47.94666" lon="4.88794">
        <ele>303.39</ele>
        <time>2025-03-11T15:52:46.561Z</time>
      </trkpt>
      <trkpt lat="47.9469" lon="4.88821">
        <ele>303.37</ele>
        <time>2025-03-11T15:52:52.876Z</time>
      </trkpt>
      <trkpt lat="47.94713" lon="4.88848">
        <ele>303.45</ele>
        <time>2025-03-11T15:52:59.196Z</time>
      </trkpt>
      <trkpt lat="47.94736" lon="4.88876">
        <ele>303.58</ele>
        <time>2025-03-11T15:53:05.520Z</time>
      </trkpt>
      <trkpt lat="47.94759" lon="4.88904">
        <ele>303.65</ele>
        <time>2025-03-11T15:53:11.849Z</time>
      </trkpt>
      <trkpt lat="47.94765" lon="4.8891">
        <ele>303.74</ele>
        <time>2025-03-11T15:53:18.179Z</time>
      </trkpt>
      <trkpt lat="47.94784" lon="4.88933">
        <ele>303.82</ele>
        <time>2025-03-11T15:53:24.513Z</time>
      </trkpt>
      <trkpt lat="47.94802" lon="4.88956">
        <ele>303.93</ele>
        <time>2025-03-11T15:53:30.851Z</time>
      </trkpt>
      <trkpt lat="47.94823" lon="4.88983">
        <ele>304.1</ele>
        <time>2025-03-11T15:53:37.194Z</time>
      </trkpt>
      <trkpt lat="47.94843" lon="4.89011">
        <ele>304.33</ele>
        <time>2025-03-11T15:53:43.541Z</time>
      </trkpt>
      <trkpt lat="47.94858" lon="4.89038">
        <ele>304.57</ele>
        <time>2025-03-11T15:53:49.892Z</time>
      </trkpt>
      <trkpt lat="47.94872" lon="4.89064">
        <ele>304.87</ele>
        <time>2025-03-11T15:53:56.246Z</time>
      </trkpt>
      <trkpt lat="47.94888" lon="4.89093">
        <ele>305.12</ele>
        <time>2025-03-11T15:54:02.604Z</time>
      </trkpt>
      <trkpt lat="47.94904" lon="4.89121">
        <ele>305.39</ele>
        <time>2025-03-11T15:54:08.966Z</time>
      </trkpt>
      <trkpt lat="47.94914" lon="4.89141">
        <ele>305.68</ele>
        <time>2025-03-11T15:54:15.331Z</time>
      </trkpt>
      <trkpt lat="47.94925" lon="4.8916">
        <ele>306</ele>
        <time>2025-03-11T15:54:21.699Z</time>
      </trkpt>
      <trkpt lat="47.94939" lon="4.89186">
        <ele>306.31</ele>
        <time>2025-03-11T15:54:28.070Z</time>
      </trkpt>
      <trkpt lat="47.94954" lon="4.89212">
        <ele>306.61</ele>
        <time>2025-03-11T15:54:34.445Z</time>
      </trkpt>
      <trkpt lat="47.94967" lon="4.89236">
        <ele>306.94</ele>
        <time>2025-03-11T15:54:40.823Z</time>
      </trkpt>
      <trkpt lat="47.9498" lon="4.8926">
        <ele>307.26</ele>
        <time>2025-03-11T15:54:47.205Z</time>
      </trkpt>
      <trkpt lat="47.94996" lon="4.89285">
        <ele>307.54</ele>
        <time>2025-03-11T15:54:53.590Z</time>
      </trkpt>
      <trkpt lat="47.95012" lon="4.8931">
        <ele>307.81</ele>
        <time>2025-03-11T15:54:59.979Z</time>
      </trkpt>
      <trkpt lat="47.95031" lon="4.89338">
        <ele>308.1</ele>
        <time>2025-03-11T15:55:06.372Z</time>
      </trkpt>
      <trkpt lat="47.95049" lon="4.89365">
        <ele>308.32</ele>
        <time>2025-03-11T15:55:12.769Z</time>
      </trkpt>
      <trkpt lat="47.95062" lon="4.89387">
        <ele>308.52</ele>
        <time>2025-03-11T15:55:19.170Z</time>
      </trkpt>
      <trkpt lat="47.95075" lon="4.8941">
        <ele>308.73</ele>
        <time>2025-03-11T15:55:25.574Z</time>
      </trkpt>
      <trkpt lat="47.95088" lon="4.89433">
        <ele>308.96</ele>
        <time>2025-03-11T15:55:31.981Z</time>
      </trkpt>
      <trkpt lat="47.95101" lon="4.89457">
        <ele>309.18</ele>
        <time>2025-03-11T15:55:38.391Z</time>
      </trkpt>
      <trkpt lat="47.95119" lon="4.89491">
        <ele>309.38</ele>
        <time>2025-03-11T15:55:44.806Z</time>
      </trkpt>
      <trkpt lat="47.95137" lon="4.89524">
        <ele>309.51</ele>
        <time>2025-03-11T15:55:51.226Z</time>
      </trkpt>
      <trkpt lat="47.95155" lon="4.89557">
        <ele>309.66</ele>
        <time>2025-03-11T15:55:57.650Z</time>
      </trkpt>
      <trkpt lat="47.95173" lon="4.8959">
        <ele>309.79</ele>
        <time>2025-03-11T15:56:04.079Z</time>
      </trkpt>
      <trkpt lat="47.95189" lon="4.8962">
        <ele>309.93</ele>
        <time>2025-03-11T15:56:10.512Z</time>
      </trkpt>
      <trkpt lat="47.95206" lon="4.8965">
        <ele>310.06</ele>
        <time>2025-03-11T15:56:16.949Z</time>
      </trkpt>
      <trkpt lat="47.95223" lon="4.89682">
        <ele>310.12</ele>
        <time>2025-03-11T15:56:23.390Z</time>
      </trkpt>
      <trkpt lat="47.95241" lon="4.89714">
        <ele>310.19</ele>
        <time>2025-03-11T15:56:29.836Z</time>
      </trkpt>
      <trkpt lat="47.95254" lon="4.89736">
        <ele>310.29</ele>
        <time>2025-03-11T15:56:36.285Z</time>
      </trkpt>
      <trkpt lat="47.95267" lon="4.89757">
        <ele>310.32</ele>
        <time>2025-03-11T15:56:42.737Z</time>
      </trkpt>
      <trkpt lat="47.95282" lon="4.8978">
        <ele>310.34</ele>
        <time>2025-03-11T15:56:49.193Z</time>
      </trkpt>
      <trkpt lat="47.95296" lon="4.89804">
        <ele>310.32</ele>
        <time>2025-03-11T15:56:55.652Z</time>
      </trkpt>
      <trkpt lat="47.9531" lon="4.89826">
        <ele>310.3</ele>
        <time>2025-03-11T15:57:02.114Z</time>
      </trkpt>
      <trkpt lat="47.95324" lon="4.89848">
        <ele>310.29</ele>
        <time>2025-03-11T15:57:08.579Z</time>
      </trkpt>
      <trkpt lat="47.95334" lon="4.89873">
        <ele>310.29</ele>
        <time>2025-03-11T15:57:15.048Z</time>
      </trkpt>
      <trkpt lat="47.95343" lon="4.89898">
        <ele>310.27</ele>
        <time>2025-03-11T15:57:21.520Z</time>
      </trkpt>
      <trkpt lat="47.95354" lon="4.8993">
        <ele>310.22</ele>
        <time>2025-03-11T15:57:27.995Z</time>
      </trkpt>
      <trkpt lat="47.95365" lon="4.89961">
        <ele>310.13</ele>
        <time>2025-03-11T15:57:34.474Z</time>
      </trkpt>
      <trkpt lat="47.95373" lon="4.89987">
        <ele>310.05</ele>
        <time>2025-03-11T15:57:40.956Z</time>
      </trkpt>
      <trkpt lat="47.95382" lon="4.90012">
        <ele>309.96</ele>
        <time>2025-03-11T15:57:47.441Z</time>
      </trkpt>
      <trkpt lat="47.95393" lon="4.90044">
        <ele>309.89</ele>
        <time>2025-03-11T15:57:53.930Z</time>
      </trkpt>
      <trkpt lat="47.95404" lon="4.90075">
        <ele>309.79</ele>
        <time>2025-03-11T15:58:00.423Z</time>
      </trkpt>
      <trkpt lat="47.95417" lon="4.90113">
        <ele>309.7</ele>
        <time>2025-03-11T15:58:06.921Z</time>
      </trkpt>
      <trkpt lat="47.9543" lon="4.90151">
        <ele>309.54</ele>
        <time>2025-03-11T15:58:13.423Z</time>
      </trkpt>
      <trkpt lat="47.95441" lon="4.90185">
        <ele>309.47</ele>
        <time>2025-03-11T15:58:19.929Z</time>
      </trkpt>
      <trkpt lat="47.95453" lon="4.90218">
        <ele>309.4</ele>
        <time>2025-03-11T15:58:26.439Z</time>
      </trkpt>
      <trkpt lat="47.95465" lon="4.90255">
        <ele>309.29</ele>
        <time>2025-03-11T15:58:32.954Z</time>
      </trkpt>
      <trkpt lat="47.95467" lon="4.90261">
        <ele>309.17</ele>
        <time>2025-03-11T15:58:39.470Z</time>
      </trkpt>
      <trkpt lat="47.95471" lon="4.90273">
        <ele>309.03</ele>
        <time>2025-03-11T15:58:45.987Z</time>
      </trkpt>
      <trkpt lat="47.95477" lon="4.90288">
        <ele>308.91</ele>
        <time>2025-03-11T15:58:52.506Z</time>
      </trkpt>
      <trkpt lat="47.95487" lon="4.90317">
        <ele>308.8</ele>
        <time>2025-03-11T15:58:59.028Z</time>
      </trkpt>
      <trkpt lat="47.95501" lon="4.90347">
        <ele>308.66</ele>
        <time>2025-03-11T15:59:05.554Z</time>
      </trkpt>
      <trkpt lat="47.9551" lon="4.90366">
        <ele>308.55</ele>
        <time>2025-03-11T15:59:12.083Z</time>
      </trkpt>
      <trkpt lat="47.95516" lon="4.90378">
        <ele>308.4</ele>
        <time>2025-03-11T15:59:18.613Z</time>
      </trkpt>
      <trkpt lat="47.95523" lon="4.90392">
        <ele>308.23</ele>
        <time>2025-03-11T15:59:25.145Z</time>
      </trkpt>
      <trkpt lat="47.9553" lon="4.90405">
        <ele>308.06</ele>
        <time>2025-03-11T15:59:31.679Z</time>
      </trkpt>
      <trkpt lat="47.95534" lon="4.90415">
        <ele>307.9</ele>
        <time>2025-03-11T15:59:38.214Z</time>
      </trkpt>
      <trkpt lat="47.95548" lon="4.90443">
        <ele>307.7</ele>
        <time>2025-03-11T15:59:44.753Z</time>
      </trkpt>
      <trkpt lat="47.95557" lon="4.90461">
        <ele>307.53</ele>
        <time>2025-03-11T15:59:51.294Z</time>
      </trkpt>
      <trkpt lat="47.9556" lon="4.90465">
        <ele>307.44</ele>
        <time>2025-03-11T15:59:57.836Z</time>
      </trkpt>
      <trkpt lat="47.95576" lon="4.90497">
        <ele>307.33</ele>
        <time>2025-03-11T16:00:04.382Z</time>
      </trkpt>
      <trkpt lat="47.95584" lon="4.90514">
        <ele>307.27</ele>
        <time>2025-03-11T16:00:10.931Z</time>
      </trkpt>
      <trkpt lat="47.95591" lon="4.90528">
        <ele>307.25</ele>
        <time>2025-03-11T16:00:17.481Z</time>
      </trkpt>
      <trkpt lat="47.95602" lon="4.90549">
        <ele>307.26</ele>
        <time>2025-03-11T16:00:24.034Z</time>
      </trkpt>
      <trkpt lat="47.95618" lon="4.9058">
        <ele>307.32</ele>
        <time>2025-03-11T16:00:30.592Z</time>
      </trkpt>
      <trkpt lat="47.95627" lon="4.90598">
        <ele>307.43</ele>
        <time>2025-03-11T16:00:37.152Z</time>
      </trkpt>
      <trkpt lat="47.95635" lon="4.90615">
        <ele>307.62</ele>
        <time>2025-03-11T16:00:43.714Z</time>
      </trkpt>
      <trkpt lat="47.95638" lon="4.90621">
        <ele>307.81</ele>
        <time>2025-03-11T16:00:50.277Z</time>
      </trkpt>
      <trkpt lat="47.95653" lon="4.90651">
        <ele>308.06</ele>
        <time>2025-03-11T16:00:56.844Z</time>
      </trkpt>
      <trkpt lat="47.95664" lon="4.90673">
        <ele>308.28</ele>
        <time>2025-03-11T16:01:03.414Z</time>
      </trkpt>
      <trkpt lat="47.95675" lon="4.90694">
        <ele>308.51</ele>
        <time>2025-03-11T16:01:09.987Z</time>
      </trkpt>
      <trkpt lat="47.95692" lon="4.90728">
        <ele>308.79</ele>
        <time>2025-03-11T16:01:16.564Z</time>
      </trkpt>
      <trkpt lat="47.95704" lon="4.90753">
        <ele>309.13</ele>
        <time>2025-03-11T16:01:23.145Z</time>
      </trkpt>
      <trkpt lat="47.95715" lon="4.90782">
        <ele>309.55</ele>
        <time>2025-03-11T16:01:29.729Z</time>
      </trkpt>
      <trkpt lat="47.95729" lon="4.90821">
        <ele>310</ele>
        <time>2025-03-11T16:01:36.318Z</time>
      </trkpt>
      <trkpt lat="47.95743" lon="4.90855">
        <ele>310.44</ele>
        <time>2025-03-11T16:01:42.911Z</time>
      </trkpt>
      <trkpt lat="47.95751" lon="4.90878">
        <ele>310.91</ele>
        <time>2025-03-11T16:01:49.507Z</time>
      </trkpt>
      <trkpt lat="47.95761" lon="4.90903">
        <ele>311.36</ele>
        <time>2025-03-11T16:01:56.106Z</time>
      </trkpt>
      <trkpt lat="47.95773" lon="4.90936">
        <ele>311.88</ele>
        <time>2025-03-11T16:02:02.709Z</time>
      </trkpt>
      <trkpt lat="47.95781" lon="4.90957">
        <ele>312.37</ele>
        <time>2025-03-11T16:02:09.315Z</time>
      </trkpt>
      <trkpt lat="47.95792" lon="4.90986">
        <ele>312.87</ele>
        <time>2025-03-11T16:02:15.924Z</time>
      </trkpt>
      <trkpt lat="47.95801" lon="4.9101">
        <ele>313.41</ele>
        <time>2025-03-11T16:02:22.536Z</time>
      </trkpt>
      <trkpt lat="47.95808" lon="4.91029">
        <ele>313.97</ele>
        <time>2025-03-11T16:02:29.151Z</time>
      </trkpt>
      <trkpt lat="47.95816" lon="4.91048">
        <ele>314.49</ele>
        <time>2025-03-11T16:02:35.768Z</time>
      </trkpt>
      <trkpt lat="47.95823" lon="4.91067">
        <ele>314.99</ele>
        <time>2025-03-11T16:02:42.387Z</time>
      </trkpt>
      <trkpt lat="47.95833" lon="4.91093">
        <ele>315.46</ele>
        <time>2025-03-11T16:02:49.010Z</time>
      </trkpt>
      <trkpt lat="47.95844" lon="4.91125">
        <ele>315.89</ele>
        <time>2025-03-11T16:02:55.637Z</time>
      </trkpt>
      <trkpt lat="47.95853" lon="4.91151">
        <ele>316.23</ele>
        <time>2025-03-11T16:03:02.267Z</time>
      </trkpt>
      <trkpt lat="47.95863" lon="4.91179">
        <ele>316.56</ele>
        <time>2025-03-11T16:03:08.900Z</time>
      </trkpt>
      <trkpt lat="47.95874" lon="4.91212">
        <ele>316.8</ele>
        <time>2025-03-11T16:03:15.537Z</time>
      </trkpt>
      <trkpt lat="47.95877" lon="4.91236">
        <ele>316.98</ele>
        <time>2025-03-11T16:03:22.177Z</time>
      </trkpt>
      <trkpt lat="47.95879" lon="4.91254">
        <ele>317.1</ele>
        <time>2025-03-11T16:03:28.819Z</time>
      </trkpt>
      <trkpt lat="47.95879" lon="4.91262">
        <ele>317.17</ele>
        <time>2025-03-11T16:03:35.461Z</time>
      </trkpt>
      <trkpt lat="47.9588" lon="4.91268">
        <ele>317.17</ele>
        <time>2025-03-11T16:03:42.104Z</time>
      </trkpt>
      <trkpt lat="47.95883" lon="4.91299">
        <ele>317.09</ele>
        <time>2025-03-11T16:03:48.750Z</time>
      </trkpt>
      <trkpt lat="47.95881" lon="4.91323">
        <ele>317</ele>
        <time>2025-03-11T16:03:55.399Z</time>
      </trkpt>
      <trkpt lat="47.95879" lon="4.91347">
        <ele>316.81</ele>
        <time>2025-03-11T16:04:02.051Z</time>
      </trkpt>
      <trkpt lat="47.95877" lon="4.91361">
        <ele>316.58</ele>
        <time>2025-03-11T16:04:08.704Z</time>
      </trkpt>
      <trkpt lat="47.95874" lon="4.9138">
        <ele>316.3</ele>
        <time>2025-03-11T16:04:15.359Z</time>
      </trkpt>
      <trkpt lat="47.95869" lon="4.914">
        <ele>315.97</ele>
        <time>2025-03-11T16:04:22.017Z</time>
      </trkpt>
      <trkpt lat="47.95863" lon="4.91419">
        <ele>315.63</ele>
        <time>2025-03-11T16:04:28.677Z</time>
      </trkpt>
      <trkpt lat="47.95857" lon="4.91439">
        <ele>315.21</ele>
        <time>2025-03-11T16:04:35.339Z</time>
      </trkpt>
      <trkpt lat="47.95851" lon="4.91462">
        <ele>314.73</ele>
        <time>2025-03-11T16:04:42.004Z</time>
      </trkpt>
      <trkpt lat="47.95842" lon="4.91491">
        <ele>314.28</ele>
        <time>2025-03-11T16:04:48.672Z</time>
      </trkpt>
      <trkpt lat="47.95834" lon="4.91518">
        <ele>313.81</ele>
        <time>2025-03-11T16:04:55.344Z</time>
      </trkpt>
      <trkpt lat="47.95829" lon="4.91537">
        <ele>313.37</ele>
        <time>2025-03-11T16:05:02.018Z</time>
      </trkpt>
      <trkpt lat="47.95825" lon="4.91551">
        <ele>312.9</ele>
        <time>2025-03-11T16:05:08.693Z</time>
      </trkpt>
      <trkpt lat="47.95818" lon="4.91582">
        <ele>312.42</ele>
        <time>2025-03-11T16:05:15.372Z</time>
      </trkpt>
      <trkpt lat="47.95812" lon="4.91609">
        <ele>311.96</ele>
        <time>2025-03-11T16:05:22.054Z</time>
      </trkpt>
      <trkpt lat="47.95812" lon="4.91646">
        <ele>311.53</ele>
        <time>2025-03-11T16:05:28.740Z</time>
      </trkpt>
      <trkpt lat="47.95816" lon="4.91675">
        <ele>311.13</ele>
        <time>2025-03-11T16:05:35.429Z</time>
      </trkpt>
      <trkpt lat="47.95817" lon="4.91681">
        <ele>310.64</ele>
        <time>2025-03-11T16:05:42.119Z</time>
      </trkpt>
      <trkpt lat="47.95819" lon="4.91693">
        <ele>310.15</ele>
        <time>2025-03-11T16:05:48.810Z</time>
      </trkpt>
      <trkpt lat="47.95823" lon="4.91705">
        <ele>309.64</ele>
        <time>2025-03-11T16:05:55.503Z</time>
      </trkpt>
      <trkpt lat="47.95839" lon="4.91732">
        <ele>309.11</ele>
        <time>2025-03-11T16:06:02.199Z</time>
      </trkpt>
      <trkpt lat="47.95843" lon="4.91739">
        <ele>308.61</ele>
        <time>2025-03-11T16:06:08.896Z</time>
      </trkpt>
      <trkpt lat="47.95858" lon="4.91763">
        <ele>308.01</ele>
        <time>2025-03-11T16:06:15.597Z</time>
      </trkpt>
      <trkpt lat="47.95873" lon="4.91786">
        <ele>307.48</ele>
        <time>2025-03-11T16:06:22.301Z</time>
      </trkpt>
      <trkpt lat="47.95892" lon="4.91805">
        <ele>307</ele>
        <time>2025-03-11T16:06:29.009Z</time>
      </trkpt>
      <trkpt lat="47.95911" lon="4.91824">
        <ele>306.59</ele>
        <time>2025-03-11T16:06:35.721Z</time>
      </trkpt>
      <trkpt lat="47.95928" lon="4.91837">
        <ele>306.25</ele>
        <time>2025-03-11T16:06:42.436Z</time>
      </trkpt>
      <trkpt lat="47.95938" lon="4.91845">
        <ele>305.94</ele>
        <time>2025-03-11T16:06:49.153Z</time>
      </trkpt>
      <trkpt lat="47.95953" lon="4.91862">
        <ele>305.69</ele>
        <time>2025-03-11T16:06:55.873Z</time>
      </trkpt>
      <trkpt lat="47.95968" lon="4.91878">
        <ele>305.45</ele>
        <time>2025-03-11T16:07:02.595Z</time>
      </trkpt>
      <trkpt lat="47.95981" lon="4.91897">
        <ele>305.24</ele>
        <time>2025-03-11T16:07:09.320Z</time>
      </trkpt>
      <trkpt lat="47.95995" lon="4.91916">
        <ele>305.1</ele>
        <time>2025-03-11T16:07:16.048Z</time>
      </trkpt>
      <trkpt lat="47.96006" lon="4.91933">
        <ele>305</ele>
        <time>2025-03-11T16:07:22.779Z</time>
      </trkpt>
      <trkpt lat="47.96018" lon="4.91951">
        <ele>304.91</ele>
        <time>2025-03-11T16:07:29.513Z</time>
      </trkpt>
      <trkpt lat="47.9603" lon="4.91968">
        <ele>304.81</ele>
        <time>2025-03-11T16:07:36.249Z</time>
      </trkpt>
      <trkpt lat="47.96041" lon="4.91985">
        <ele>304.73</ele>
        <time>2025-03-11T16:07:42.988Z</time>
      </trkpt>
      <trkpt lat="47.96056" lon="4.92022">
        <ele>304.69</ele>
        <time>2025-03-11T16:07:49.732Z</time>
      </trkpt>
      <trkpt lat="47.96069" lon="4.92063">
        <ele>304.7</ele>
        <time>2025-03-11T16:07:56.480Z</time>
      </trkpt>
      <trkpt lat="47.96071" lon="4.9207">
        <ele>304.75</ele>
        <time>2025-03-11T16:08:03.229Z</time>
      </trkpt>
      <trkpt lat="47.96082" lon="4.92098">
        <ele>304.82</ele>
        <time>2025-03-11T16:08:09.982Z</time>
      </trkpt>
      <trkpt lat="47.96092" lon="4.92125">
        <ele>304.95</ele>
        <time>2025-03-11T16:08:16.738Z</time>
      </trkpt>
      <trkpt lat="47.96105" lon="4.92153">
        <ele>305.14</ele>
        <time>2025-03-11T16:08:23.498Z</time>
      </trkpt>
      <trkpt lat="47.96118" lon="4.92182">
        <ele>305.31</ele>
        <time>2025-03-11T16:08:30.261Z</time>
      </trkpt>
      <trkpt lat="47.96134" lon="4.92219">
        <ele>305.47</ele>
        <time>2025-03-11T16:08:37.029Z</time>
      </trkpt>
      <trkpt lat="47.96148" lon="4.92247">
        <ele>305.68</ele>
        <time>2025-03-11T16:08:43.801Z</time>
      </trkpt>
      <trkpt lat="47.96158" lon="4.9227">
        <ele>305.9</ele>
        <time>2025-03-11T16:08:50.576Z</time>
      </trkpt>
      <trkpt lat="47.96168" lon="4.92294">
        <ele>306.09</ele>
        <time>2025-03-11T16:08:57.354Z</time>
      </trkpt>
      <trkpt lat="47.96178" lon="4.92323">
        <ele>306.23</ele>
        <time>2025-03-11T16:09:04.135Z</time>
      </trkpt>
      <trkpt lat="47.96188" lon="4.92352">
        <ele>306.37</ele>
        <time>2025-03-11T16:09:10.920Z</time>
      </trkpt>
      <trkpt lat="47.96199" lon="4.92381">
        <ele>306.52</ele>
        <time>2025-03-11T16:09:17.709Z</time>
      </trkpt>
      <trkpt lat="47.96209" lon="4.9241">
        <ele>306.7</ele>
        <time>2025-03-11T16:09:24.501Z</time>
      </trkpt>
      <trkpt lat="47.96216" lon="4.92436">
        <ele>306.85</ele>
        <time>2025-03-11T16:09:31.296Z</time>
      </trkpt>
      <trkpt lat="47.96222" lon="4.92462">
        <ele>306.96</ele>
        <time>2025-03-11T16:09:38.094Z</time>
      </trkpt>
      <trkpt lat="47.96227" lon="4.92487">
        <ele>307.07</ele>
        <time>2025-03-11T16:09:44.895Z</time>
      </trkpt>
      <trkpt lat="47.96233" lon="4.92512">
        <ele>307.13</ele>
        <time>2025-03-11T16:09:51.699Z</time>
      </trkpt>
      <trkpt lat="47.96238" lon="4.92537">
        <ele>307.19</ele>
        <time>2025-03-11T16:09:58.505Z</time>
      </trkpt>
      <trkpt lat="47.96248" lon="4.9256">
        <ele>307.17</ele>
        <time>2025-03-11T16:10:05.314Z</time>
      </trkpt>
      <trkpt lat="47.96255" lon="4.92575">
        <ele>307.17</ele>
        <time>2025-03-11T16:10:12.125Z</time>
      </trkpt>
      <trkpt lat="47.96272" lon="4.92602">
        <ele>307.18</ele>
        <time>2025-03-11T16:10:18.940Z</time>
      </trkpt>
      <trkpt lat="47.96286" lon="4.9262">
        <ele>307.22</ele>
        <time>2025-03-11T16:10:25.758Z</time>
      </trkpt>
      <trkpt lat="47.96299" lon="4.92637">
        <ele>307.25</ele>
        <time>2025-03-11T16:10:32.579Z</time>
      </trkpt>
      <trkpt lat="47.96315" lon="4.92661">
        <ele>307.27</ele>
        <time>2025-03-11T16:10:39.404Z</time>
      </trkpt>
      <trkpt lat="47.9633" lon="4.92684">
        <ele>307.22</ele>
        <time>2025-03-11T16:10:46.232Z</time>
      </trkpt>
      <trkpt lat="47.96342" lon="4.92711">
        <ele>307.09</ele>
        <time>2025-03-11T16:10:53.064Z</time>
      </trkpt>
      <trkpt lat="47.96354" lon="4.92737">
        <ele>307.01</ele>
        <time>2025-03-11T16:10:59.899Z</time>
      </trkpt>
      <trkpt lat="47.96368" lon="4.92768">
        <ele>306.99</ele>
        <time>2025-03-11T16:11:06.738Z</time>
      </trkpt>
      <trkpt lat="47.96382" lon="4.92799">
        <ele>306.93</ele>
        <time>2025-03-11T16:11:13.581Z</time>
      </trkpt>
      <trkpt lat="47.96396" lon="4.9283">
        <ele>306.82</ele>
        <time>2025-03-11T16:11:20.428Z</time>
      </trkpt>
      <trkpt lat="47.9641" lon="4.9286">
        <ele>306.67</ele>
        <time>2025-03-11T16:11:27.279Z</time>
      </trkpt>
      <trkpt lat="47.9642" lon="4.92883">
        <ele>306.51</ele>
        <time>2025-03-11T16:11:34.133Z</time>
      </trkpt>
      <trkpt lat="47.96434" lon="4.92903">
        <ele>306.34</ele>
        <time>2025-03-11T16:11:40.990Z</time>
      </trkpt>
      <trkpt lat="47.96445" lon="4.92912">
        <ele>306.15</ele>
        <time>2025-03-11T16:11:47.849Z</time>
      </trkpt>
      <trkpt lat="47.96457" lon="4.92919">
        <ele>305.95</ele>
        <time>2025-03-11T16:11:54.710Z</time>
      </trkpt>
      <trkpt lat="47.96478" lon="4.92922">
        <ele>305.72</ele>
        <time>2025-03-11T16:12:01.575Z</time>
      </trkpt>
      <trkpt lat="47.96499" lon="4.92925">
        <ele>305.51</ele>
        <time>2025-03-11T16:12:08.443Z</time>
      </trkpt>
      <trkpt lat="47.96528" lon="4.92929">
        <ele>305.26</ele>
        <time>2025-03-11T16:12:15.316Z</time>
      </trkpt>
      <trkpt lat="47.96556" lon="4.92934">
        <ele>305.01</ele>
        <time>2025-03-11T16:12:22.193Z</time>
      </trkpt>
      <trkpt lat="47.9658" lon="4.9294">
        <ele>304.82</ele>
        <time>2025-03-11T16:12:29.074Z</time>
      </trkpt>
      <trkpt lat="47.96603" lon="4.92947">
        <ele>304.64</ele>
        <time>2025-03-11T16:12:35.959Z</time>
      </trkpt>
      <trkpt lat="47.96616" lon="4.92956">
        <ele>304.39</ele>
        <time>2025-03-11T16:12:42.846Z</time>
      </trkpt>
      <trkpt lat="47.96632" lon="4.92975">
        <ele>304.08</ele>
        <time>2025-03-11T16:12:49.736Z</time>
      </trkpt>
      <trkpt lat="47.96654" lon="4.93001">
        <ele>303.71</ele>
        <time>2025-03-11T16:12:56.631Z</time>
      </trkpt>
      <trkpt lat="47.96676" lon="4.93027">
        <ele>303.34</ele>
        <time>2025-03-11T16:13:03.530Z</time>
      </trkpt>
      <trkpt lat="47.96698" lon="4.93053">
        <ele>303.09</ele>
        <time>2025-03-11T16:13:10.434Z</time>
      </trkpt>
      <trkpt lat="47.9672" lon="4.9308">
        <ele>302.84</ele>
        <time>2025-03-11T16:13:17.342Z</time>
      </trkpt>
      <trkpt lat="47.96742" lon="4.93107">
        <ele>302.49</ele>
        <time>2025-03-11T16:13:24.255Z</time>
      </trkpt>
      <trkpt lat="47.96765" lon="4.93133">
        <ele>302.06</ele>
        <time>2025-03-11T16:13:31.173Z</time>
      </trkpt>
      <trkpt lat="47.96782" lon="4.93153">
        <ele>301.68</ele>
        <time>2025-03-11T16:13:38.094Z</time>
      </trkpt>
      <trkpt lat="47.96798" lon="4.93173">
        <ele>301.31</ele>
        <time>2025-03-11T16:13:45.018Z</time>
      </trkpt>
      <trkpt lat="47.96808" lon="4.93192">
        <ele>300.99</ele>
        <time>2025-03-11T16:13:51.945Z</time>
      </trkpt>
      <trkpt lat="47.96812" lon="4.93203">
        <ele>300.66</ele>
        <time>2025-03-11T16:13:58.873Z</time>
      </trkpt>
      <trkpt lat="47.9682" lon="4.93226">
        <ele>300.31</ele>
        <time>2025-03-11T16:14:05.804Z</time>
      </trkpt>
      <trkpt lat="47.96831" lon="4.93248">
        <ele>299.93</ele>
        <time>2025-03-11T16:14:12.738Z</time>
      </trkpt>
      <trkpt lat="47.96845" lon="4.9326">
        <ele>299.51</ele>
        <time>2025-03-11T16:14:19.675Z</time>
      </trkpt>
      <trkpt lat="47.96859" lon="4.93271">
        <ele>299.05</ele>
        <time>2025-03-11T16:14:26.614Z</time>
      </trkpt>
      <trkpt lat="47.96885" lon="4.93287">
        <ele>298.56</ele>
        <time>2025-03-11T16:14:33.558Z</time>
      </trkpt>
      <trkpt lat="47.96911" lon="4.93303">
        <ele>298.13</ele>
        <time>2025-03-11T16:14:40.506Z</time>
      </trkpt>
      <trkpt lat="47.96918" lon="4.93307">
        <ele>297.64</ele>
        <time>2025-03-11T16:14:47.455Z</time>
      </trkpt>
      <trkpt lat="47.96946" lon="4.93325">
        <ele>297.11</ele>
        <time>2025-03-11T16:14:54.409Z</time>
      </trkpt>
      <trkpt lat="47.96957" lon="4.93338">
        <ele>296.5</ele>
        <time>2025-03-11T16:15:01.366Z</time>
      </trkpt>
      <trkpt lat="47.96977" lon="4.93362">
        <ele>295.86</ele>
        <time>2025-03-11T16:15:08.327Z</time>
      </trkpt>
      <trkpt lat="47.96996" lon="4.93386">
        <ele>295.2</ele>
        <time>2025-03-11T16:15:15.292Z</time>
      </trkpt>
      <trkpt lat="47.97018" lon="4.93413">
        <ele>294.47</ele>
        <time>2025-03-11T16:15:22.261Z</time>
      </trkpt>
      <trkpt lat="47.9704" lon="4.9344">
        <ele>293.59</ele>
        <time>2025-03-11T16:15:29.235Z</time>
      </trkpt>
      <trkpt lat="47.97062" lon="4.93467">
        <ele>292.74</ele>
        <time>2025-03-11T16:15:36.213Z</time>
      </trkpt>
      <trkpt lat="47.97084" lon="4.93493">
        <ele>291.86</ele>
        <time>2025-03-11T16:15:43.196Z</time>
      </trkpt>
      <trkpt lat="47.97103" lon="4.93517">
        <ele>290.9</ele>
        <time>2025-03-11T16:15:50.183Z</time>
      </trkpt>
      <trkpt lat="47.97123" lon="4.93541">
        <ele>289.83</ele>
        <time>2025-03-11T16:15:57.174Z</time>
      </trkpt>
      <trkpt lat="47.97142" lon="4.93564">
        <ele>288.58</ele>
        <time>2025-03-11T16:16:04.169Z</time>
      </trkpt>
      <trkpt lat="47.9716" lon="4.93586">
        <ele>287.29</ele>
        <time>2025-03-11T16:16:11.168Z</time>
      </trkpt>
      <trkpt lat="47.97185" lon="4.93612">
        <ele>285.93</ele>
        <time>2025-03-11T16:16:18.172Z</time>
      </trkpt>
      <trkpt lat="47.9721" lon="4.93638">
        <ele>284.53</ele>
        <time>2025-03-11T16:16:25.180Z</time>
      </trkpt>
      <trkpt lat="47.97233" lon="4.9366">
        <ele>282.99</ele>
        <time>2025-03-11T16:16:32.193Z</time>
      </trkpt>
      <trkpt lat="47.97256" lon="4.93681">
        <ele>281.38</ele>
        <time>2025-03-11T16:16:39.210Z</time>
      </trkpt>
      <trkpt lat="47.97264" lon="4.93689">
        <ele>279.87</ele>
        <time>2025-03-11T16:16:46.229Z</time>
      </trkpt>
      <trkpt lat="47.97289" lon="4.93712">
        <ele>278.35</ele>
        <time>2025-03-11T16:16:53.252Z</time>
      </trkpt>
      <trkpt lat="47.97314" lon="4.93736">
        <ele>276.77</ele>
        <time>2025-03-11T16:17:00.280Z</time>
      </trkpt>
      <trkpt lat="47.97322" lon="4.93744">
        <ele>275.23</ele>
        <time>2025-03-11T16:17:07.310Z</time>
      </trkpt>
      <trkpt lat="47.97343" lon="4.9377">
        <ele>273.62</ele>
        <time>2025-03-11T16:17:14.344Z</time>
      </trkpt>
      <trkpt lat="47.97364" lon="4.93796">
        <ele>271.95</ele>
        <time>2025-03-11T16:17:21.382Z</time>
      </trkpt>
      <trkpt lat="47.97373" lon="4.93806">
        <ele>270.38</ele>
        <time>2025-03-11T16:17:28.422Z</time>
      </trkpt>
      <trkpt lat="47.9739" lon="4.93834">
        <ele>268.79</ele>
        <time>2025-03-11T16:17:35.466Z</time>
      </trkpt>
      <trkpt lat="47.97406" lon="4.93863">
        <ele>267.3</ele>
        <time>2025-03-11T16:17:42.514Z</time>
      </trkpt>
      <trkpt lat="47.97426" lon="4.93897">
        <ele>265.9</ele>
        <time>2025-03-11T16:17:49.567Z</time>
      </trkpt>
      <trkpt lat="47.97445" lon="4.93932">
        <ele>264.51</ele>
        <time>2025-03-11T16:17:56.625Z</time>
      </trkpt>
      <trkpt lat="47.9746" lon="4.93958">
        <ele>263.23</ele>
        <time>2025-03-11T16:18:03.687Z</time>
      </trkpt>
      <trkpt lat="47.97474" lon="4.93984">
        <ele>261.94</ele>
        <time>2025-03-11T16:18:10.752Z</time>
      </trkpt>
      <trkpt lat="47.97485" lon="4.94011">
        <ele>260.66</ele>
        <time>2025-03-11T16:18:17.821Z</time>
      </trkpt>
      <trkpt lat="47.97496" lon="4.94038">
        <ele>259.51</ele>
        <time>2025-03-11T16:18:24.893Z</time>
      </trkpt>
      <trkpt lat="47.9751" lon="4.94073">
        <ele>258.41</ele>
        <time>2025-03-11T16:18:31.969Z</time>
      </trkpt>
      <trkpt lat="47.97524" lon="4.94107">
        <ele>257.41</ele>
        <time>2025-03-11T16:18:39.050Z</time>
      </trkpt>
      <trkpt lat="47.97536" lon="4.94137">
        <ele>256.54</ele>
        <time>2025-03-11T16:18:46.134Z</time>
      </trkpt>
      <trkpt lat="47.97548" lon="4.94167">
        <ele>255.8</ele>
        <time>2025-03-11T16:18:53.222Z</time>
      </trkpt>
      <trkpt lat="47.97555" lon="4.94183">
        <ele>255.12</ele>
        <time>2025-03-11T16:19:00.312Z</time>
      </trkpt>
      <trkpt lat="47.97558" lon="4.9419">
        <ele>254.5</ele>
        <time>2025-03-11T16:19:07.403Z</time>
      </trkpt>
      <trkpt lat="47.97564" lon="4.94202">
        <ele>253.95</ele>
        <time>2025-03-11T16:19:14.496Z</time>
      </trkpt>
      <trkpt lat="47.97571" lon="4.9421">
        <ele>253.47</ele>
        <time>2025-03-11T16:19:21.590Z</time>
      </trkpt>
      <trkpt lat="47.97592" lon="4.94234">
        <ele>253.1</ele>
        <time>2025-03-11T16:19:28.688Z</time>
      </trkpt>
      <trkpt lat="47.97605" lon="4.9424">
        <ele>252.74</ele>
        <time>2025-03-11T16:19:35.789Z</time>
      </trkpt>
      <trkpt lat="47.97618" lon="4.94242">
        <ele>252.43</ele>
        <time>2025-03-11T16:19:42.892Z</time>
      </trkpt>
      <trkpt lat="47.97624" lon="4.94245">
        <ele>252.19</ele>
        <time>2025-03-11T16:19:49.996Z</time>
      </trkpt>
      <trkpt lat="47.97639" lon="4.9426">
        <ele>251.98</ele>
        <time>2025-03-11T16:19:57.103Z</time>
      </trkpt>
      <trkpt lat="47.97654" lon="4.94274">
        <ele>251.81</ele>
        <time>2025-03-11T16:20:04.212Z</time>
      </trkpt>
      <trkpt lat="47.97671" lon="4.94282">
        <ele>251.67</ele>
        <time>2025-03-11T16:20:11.324Z</time>
      </trkpt>
      <trkpt lat="47.97688" lon="4.9429">
        <ele>251.62</ele>
        <time>2025-03-11T16:20:18.439Z</time>
      </trkpt>
      <trkpt lat="47.97713" lon="4.94299">
        <ele>251.63</ele>
        <time>2025-03-11T16:20:25.558Z</time>
      </trkpt>
      <trkpt lat="47.97737" lon="4.94325">
        <ele>251.67</ele>
        <time>2025-03-11T16:20:32.682Z</time>
      </trkpt>
      <trkpt lat="47.97748" lon="4.94343">
        <ele>251.79</ele>
        <time>2025-03-11T16:20:39.809Z</time>
      </trkpt>
      <trkpt lat="47.97754" lon="4.94355">
        <ele>251.95</ele>
        <time>2025-03-11T16:20:46.937Z</time>
      </trkpt>
      <trkpt lat="47.97757" lon="4.94372">
        <ele>252.15</ele>
        <time>2025-03-11T16:20:54.067Z</time>
      </trkpt>
      <trkpt lat="47.97757" lon="4.9438">
        <ele>252.39</ele>
        <time>2025-03-11T16:21:01.198Z</time>
      </trkpt>
      <trkpt lat="47.97747" lon="4.9441">
        <ele>252.67</ele>
        <time>2025-03-11T16:21:08.333Z</time>
      </trkpt>
      <trkpt lat="47.97744" lon="4.94418">
        <ele>252.96</ele>
        <time>2025-03-11T16:21:15.469Z</time>
      </trkpt>
      <trkpt lat="47.97736" lon="4.94441">
        <ele>253.28</ele>
        <time>2025-03-11T16:21:22.607Z</time>
      </trkpt>
      <trkpt lat="47.97727" lon="4.94464">
        <ele>253.65</ele>
        <time>2025-03-11T16:21:29.748Z</time>
      </trkpt>
      <trkpt lat="47.97719" lon="4.94492">
        <ele>254.02</ele>
        <time>2025-03-11T16:21:36.893Z</time>
      </trkpt>
      <trkpt lat="47.9771" lon="4.9452">
        <ele>254.37</ele>
        <time>2025-03-11T16:21:44.041Z</time>
      </trkpt>
      <trkpt lat="47.97708" lon="4.94546">
        <ele>254.74</ele>
        <time>2025-03-11T16:21:51.192Z</time>
      </trkpt>
      <trkpt lat="47.97706" lon="4.94572">
        <ele>255.15</ele>
        <time>2025-03-11T16:21:58.345Z</time>
      </trkpt>
      <trkpt lat="47.97706" lon="4.94581">
        <ele>255.55</ele>
        <time>2025-03-11T16:22:05.499Z</time>
      </trkpt>
      <trkpt lat="47.97706" lon="4.9459">
        <ele>255.93</ele>
        <time>2025-03-11T16:22:12.654Z</time>
      </trkpt>
      <trkpt lat="47.97707" lon="4.94627">
        <ele>256.35</ele>
        <time>2025-03-11T16:22:19.813Z</time>
      </trkpt>
      <trkpt lat="47.97709" lon="4.94658">
        <ele>256.73</ele>
        <time>2025-03-11T16:22:26.976Z</time>
      </trkpt>
      <trkpt lat="47.97711" lon="4.9469">
        <ele>257.06</ele>
        <time>2025-03-11T16:22:34.142Z</time>
      </trkpt>
      <trkpt lat="47.9771" lon="4.94719">
        <ele>257.29</ele>
        <time>2025-03-11T16:22:41.311Z</time>
      </trkpt>
      <trkpt lat="47.97708" lon="4.94748">
        <ele>257.48</ele>
        <time>2025-03-11T16:22:48.483Z</time>
      </trkpt>
      <trkpt lat="47.97702" lon="4.94778">
        <ele>257.68</ele>
        <time>2025-03-11T16:22:55.659Z</time>
      </trkpt>
      <trkpt lat="47.97696" lon="4.94808">
        <ele>257.98</ele>
        <time>2025-03-11T16:23:02.838Z</time>
      </trkpt>
      <trkpt lat="47.97689" lon="4.94826">
        <ele>258.15</ele>
        <time>2025-03-11T16:23:10.019Z</time>
      </trkpt>
      <trkpt lat="47.97676" lon="4.94852">
        <ele>258.36</ele>
        <time>2025-03-11T16:23:17.204Z</time>
      </trkpt>
      <trkpt lat="47.97663" lon="4.94871">
        <ele>258.4</ele>
        <time>2025-03-11T16:23:24.392Z</time>
      </trkpt>
      <trkpt lat="47.97649" lon="4.9489">
        <ele>258.41</ele>
        <time>2025-03-11T16:23:31.583Z</time>
      </trkpt>
      <trkpt lat="47.97631" lon="4.94906">
        <ele>258.3</ele>
        <time>2025-03-11T16:23:38.777Z</time>
      </trkpt>
      <trkpt lat="47.97614" lon="4.94922">
        <ele>258.18</ele>
        <time>2025-03-11T16:23:45.974Z</time>
      </trkpt>
      <trkpt lat="47.97594" lon="4.9494">
        <ele>258.03</ele>
        <time>2025-03-11T16:23:53.175Z</time>
      </trkpt>
      <trkpt lat="47.97575" lon="4.94958">
        <ele>257.89</ele>
        <time>2025-03-11T16:24:00.380Z</time>
      </trkpt>
      <trkpt lat="47.97559" lon="4.94973">
        <ele>257.86</ele>
        <time>2025-03-11T16:24:07.588Z</time>
      </trkpt>
      <trkpt lat="47.97543" lon="4.94987">
        <ele>257.75</ele>
        <time>2025-03-11T16:24:14.799Z</time>
      </trkpt>
      <trkpt lat="47.97525" lon="4.95004">
        <ele>257.71</ele>
        <time>2025-03-11T16:24:22.013Z</time>
      </trkpt>
      <trkpt lat="47.97507" lon="4.9502">
        <ele>257.6</ele>
        <time>2025-03-11T16:24:29.231Z</time>
      </trkpt>
      <trkpt lat="47.9749" lon="4.95033">
        <ele>257.51</ele>
        <time>2025-03-11T16:24:36.452Z</time>
      </trkpt>
      <trkpt lat="47.97474" lon="4.95046">
        <ele>257.45</ele>
        <time>2025-03-11T16:24:43.676Z</time>
      </trkpt>
      <trkpt lat="47.97458" lon="4.95058">
        <ele>257.36</ele>
        <time>2025-03-11T16:24:50.902Z</time>
      </trkpt>
      <trkpt lat="47.97443" lon="4.95069">
        <ele>257.27</ele>
        <time>2025-03-11T16:24:58.131Z</time>
      </trkpt>
      <trkpt lat="47.97425" lon="4.95082">
        <ele>257.21</ele>
        <time>2025-03-11T16:25:05.363Z</time>
      </trkpt>
      <trkpt lat="47.97408" lon="4.95095">
        <ele>257.12</ele>
        <time>2025-03-11T16:25:12.598Z</time>
      </trkpt>
      <trkpt lat="47.97384" lon="4.95113">
        <ele>257.05</ele>
        <time>2025-03-11T16:25:19.838Z</time>
      </trkpt>
      <trkpt lat="47.9736" lon="4.9513">
        <ele>257.02</ele>
        <time>2025-03-11T16:25:27.082Z</time>
      </trkpt>
      <trkpt lat="47.97341" lon="4.95147">
        <ele>257.04</ele>
        <time>2025-03-11T16:25:34.329Z</time>
      </trkpt>
      <trkpt lat="47.97323" lon="4.95163">
        <ele>257.03</ele>
        <time>2025-03-11T16:25:41.580Z</time>
      </trkpt>
      <trkpt lat="47.973" lon="4.95186">
        <ele>257.11</ele>
        <time>2025-03-11T16:25:48.835Z</time>
      </trkpt>
      <trkpt lat="47.97277" lon="4.95208">
        <ele>257.27</ele>
        <time>2025-03-11T16:25:56.095Z</time>
      </trkpt>
      <trkpt lat="47.97265" lon="4.95228">
        <ele>257.41</ele>
        <time>2025-03-11T16:26:03.357Z</time>
      </trkpt>
      <trkpt lat="47.97253" lon="4.95247">
        <ele>257.52</ele>
        <time>2025-03-11T16:26:10.622Z</time>
      </trkpt>
      <trkpt lat="47.97249" lon="4.95255">
        <ele>257.65</ele>
        <time>2025-03-11T16:26:17.888Z</time>
      </trkpt>
      <trkpt lat="47.97234" lon="4.95287">
        <ele>257.81</ele>
        <time>2025-03-11T16:26:25.159Z</time>
      </trkpt>
      <trkpt lat="47.97219" lon="4.95318">
        <ele>257.98</ele>
        <time>2025-03-11T16:26:32.434Z</time>
      </trkpt>
      <trkpt lat="47.97207" lon="4.95354">
        <ele>258.23</ele>
        <time>2025-03-11T16:26:39.713Z</time>
      </trkpt>
      <trkpt lat="47.97195" lon="4.95388">
        <ele>258.48</ele>
        <time>2025-03-11T16:26:46.996Z</time>
      </trkpt>
      <trkpt lat="47.97183" lon="4.95426">
        <ele>258.71</ele>
        <time>2025-03-11T16:26:54.284Z</time>
      </trkpt>
      <trkpt lat="47.97171" lon="4.95464">
        <ele>259.03</ele>
        <time>2025-03-11T16:27:01.576Z</time>
      </trkpt>
      <trkpt lat="47.97168" lon="4.95474">
        <ele>259.34</ele>
        <time>2025-03-11T16:27:08.869Z</time>
      </trkpt>
      <trkpt lat="47.97159" lon="4.95503">
        <ele>259.6</ele>
        <time>2025-03-11T16:27:16.166Z</time>
      </trkpt>
      <trkpt lat="47.9715" lon="4.95531">
        <ele>259.87</ele>
        <time>2025-03-11T16:27:23.466Z</time>
      </trkpt>
      <trkpt lat="47.97144" lon="4.95559">
        <ele>260.25</ele>
        <time>2025-03-11T16:27:30.769Z</time>
      </trkpt>
      <trkpt lat="47.97138" lon="4.95586">
        <ele>260.65</ele>
        <time>2025-03-11T16:27:38.075Z</time>
      </trkpt>
      <trkpt lat="47.97133" lon="4.95619">
        <ele>261.03</ele>
        <time>2025-03-11T16:27:45.385Z</time>
      </trkpt>
      <trkpt lat="47.97127" lon="4.95651">
        <ele>261.37</ele>
        <time>2025-03-11T16:27:52.699Z</time>
      </trkpt>
      <trkpt lat="47.97128" lon="4.95685">
        <ele>261.78</ele>
        <time>2025-03-11T16:28:00.016Z</time>
      </trkpt>
      <trkpt lat="47.97128" lon="4.95719">
        <ele>262.18</ele>
        <time>2025-03-11T16:28:07.337Z</time>
      </trkpt>
      <trkpt lat="47.97131" lon="4.95751">
        <ele>262.57</ele>
        <time>2025-03-11T16:28:14.661Z</time>
      </trkpt>
      <trkpt lat="47.97133" lon="4.95784">
        <ele>262.93</ele>
        <time>2025-03-11T16:28:21.989Z</time>
      </trkpt>
      <trkpt lat="47.97138" lon="4.95821">
        <ele>263.26</ele>
        <time>2025-03-11T16:28:29.321Z</time>
      </trkpt>
      <trkpt lat="47.97143" lon="4.95859">
        <ele>263.54</ele>
        <time>2025-03-11T16:28:36.657Z</time>
      </trkpt>
      <trkpt lat="47.97148" lon="4.95889">
        <ele>263.81</ele>
        <time>2025-03-11T16:28:43.996Z</time>
      </trkpt>
      <trkpt lat="47.97153" lon="4.95919">
        <ele>264.04</ele>
        <time>2025-03-11T16:28:51.339Z</time>
      </trkpt>
      <trkpt lat="47.97159" lon="4.95952">
        <ele>264.28</ele>
        <time>2025-03-11T16:28:58.685Z</time>
      </trkpt>
      <trkpt lat="47.97165" lon="4.95984">
        <ele>264.5</ele>
        <time>2025-03-11T16:29:06.035Z</time>
      </trkpt>
      <trkpt lat="47.97177" lon="4.96028">
        <ele>264.78</ele>
        <time>2025-03-11T16:29:13.390Z</time>
      </trkpt>
      <trkpt lat="47.97183" lon="4.96053">
        <ele>264.94</ele>
        <time>2025-03-11T16:29:20.748Z</time>
      </trkpt>
      <trkpt lat="47.9719" lon="4.96079">
        <ele>265.04</ele>
        <time>2025-03-11T16:29:28.109Z</time>
      </trkpt>
      <trkpt lat="47.97198" lon="4.96114">
        <ele>265.14</ele>
        <time>2025-03-11T16:29:35.474Z</time>
      </trkpt>
      <trkpt lat="47.97206" lon="4.96148">
        <ele>265.22</ele>
        <time>2025-03-11T16:29:42.843Z</time>
      </trkpt>
      <trkpt lat="47.9721" lon="4.96179">
        <ele>265.23</ele>
        <time>2025-03-11T16:29:50.215Z</time>
      </trkpt>
      <trkpt lat="47.97213" lon="4.9621">
        <ele>265.31</ele>
        <time>2025-03-11T16:29:57.591Z</time>
      </trkpt>
      <trkpt lat="47.97218" lon="4.9625">
        <ele>265.38</ele>
        <time>2025-03-11T16:30:04.971Z</time>
      </trkpt>
      <trkpt lat="47.97223" lon="4.96289">
        <ele>265.45</ele>
        <time>2025-03-11T16:30:12.355Z</time>
      </trkpt>
      <trkpt lat="47.97226" lon="4.96301">
        <ele>265.55</ele>
        <time>2025-03-11T16:30:19.741Z</time>
      </trkpt>
      <trkpt lat="47.97235" lon="4.96327">
        <ele>265.65</ele>
        <time>2025-03-11T16:30:27.130Z</time>
      </trkpt>
      <trkpt lat="47.97243" lon="4.96352">
        <ele>265.8</ele>
        <time>2025-03-11T16:30:34.522Z</time>
      </trkpt>
      <trkpt lat="47.97256" lon="4.96388">
        <ele>266.01</ele>
        <time>2025-03-11T16:30:41.918Z</time>
      </trkpt>
      <trkpt lat="47.97269" lon="4.96424">
        <ele>266.24</ele>
        <time>2025-03-11T16:30:49.318Z</time>
      </trkpt>
      <trkpt lat="47.97279" lon="4.9646">
        <ele>266.49</ele>
        <time>2025-03-11T16:30:56.723Z</time>
      </trkpt>
      <trkpt lat="47.9729" lon="4.96496">
        <ele>266.69</ele>
        <time>2025-03-11T16:31:04.132Z</time>
      </trkpt>
      <trkpt lat="47.97299" lon="4.96531">
        <ele>266.8</ele>
        <time>2025-03-11T16:31:11.545Z</time>
      </trkpt>
      <trkpt lat="47.97308" lon="4.96567">
        <ele>266.9</ele>
        <time>2025-03-11T16:31:18.962Z</time>
      </trkpt>
      <trkpt lat="47.97314" lon="4.96602">
        <ele>266.94</ele>
        <time>2025-03-11T16:31:26.383Z</time>
      </trkpt>
      <trkpt lat="47.97319" lon="4.96638">
        <ele>266.96</ele>
        <time>2025-03-11T16:31:33.808Z</time>
      </trkpt>
      <trkpt lat="47.97322" lon="4.96676">
        <ele>266.87</ele>
        <time>2025-03-11T16:31:41.237Z</time>
      </trkpt>
      <trkpt lat="47.97324" lon="4.96713">
        <ele>266.81</ele>
        <time>2025-03-11T16:31:48.670Z</time>
      </trkpt>
      <trkpt lat="47.9732" lon="4.96754">
        <ele>266.76</ele>
        <time>2025-03-11T16:31:56.107Z</time>
      </trkpt>
      <trkpt lat="47.97317" lon="4.96795">
        <ele>266.7</ele>
        <time>2025-03-11T16:32:03.549Z</time>
      </trkpt>
      <trkpt lat="47.97312" lon="4.96818">
        <ele>266.61</ele>
        <time>2025-03-11T16:32:10.994Z</time>
      </trkpt>
      <trkpt lat="47.97306" lon="4.96842">
        <ele>266.53</ele>
        <time>2025-03-11T16:32:18.441Z</time>
      </trkpt>
      <trkpt lat="47.97304" lon="4.96851">
        <ele>266.45</ele>
        <time>2025-03-11T16:32:25.889Z</time>
      </trkpt>
      <trkpt lat="47.97291" lon="4.96879">
        <ele>266.36</ele>
        <time>2025-03-11T16:32:33.341Z</time>
      </trkpt>
      <trkpt lat="47.97278" lon="4.96907">
        <ele>266.29</ele>
        <time>2025-03-11T16:32:40.797Z</time>
      </trkpt>
      <trkpt lat="47.97266" lon="4.96928">
        <ele>266.14</ele>
        <time>2025-03-11T16:32:48.256Z</time>
      </trkpt>
      <trkpt lat="47.97255" lon="4.96949">
        <ele>266.01</ele>
        <time>2025-03-11T16:32:55.717Z</time>
      </trkpt>
      <trkpt lat="47.97242" lon="4.96971">
        <ele>265.83</ele>
        <time>2025-03-11T16:33:03.182Z</time>
      </trkpt>
      <trkpt lat="47.97228" lon="4.96992">
        <ele>265.72</ele>
        <time>2025-03-11T16:33:10.650Z</time>
      </trkpt>
      <trkpt lat="47.97216" lon="4.97011">
        <ele>265.57</ele>
        <time>2025-03-11T16:33:18.121Z</time>
      </trkpt>
      <trkpt lat="47.97204" lon="4.9703">
        <ele>265.41</ele>
        <time>2025-03-11T16:33:25.594Z</time>
      </trkpt>
      <trkpt lat="47.97189" lon="4.9705">
        <ele>265.33</ele>
        <time>2025-03-11T16:33:33.071Z</time>
      </trkpt>
      <trkpt lat="47.97175" lon="4.97069">
        <ele>265.27</ele>
        <time>2025-03-11T16:33:40.551Z</time>
      </trkpt>
      <trkpt lat="47.9716" lon="4.97086">
        <ele>265.23</ele>
        <time>2025-03-11T16:33:48.034Z</time>
      </trkpt>
      <trkpt lat="47.97145" lon="4.97103">
        <ele>265.15</ele>
        <time>2025-03-11T16:33:55.520Z</time>
      </trkpt>
      <trkpt lat="47.97135" lon="4.97109">
        <ele>265.07</ele>
        <time>2025-03-11T16:34:03.007Z</time>
      </trkpt>
      <trkpt lat="47.97125" lon="4.97115">
        <ele>265</ele>
        <time>2025-03-11T16:34:10.496Z</time>
      </trkpt>
      <trkpt lat="47.971" lon="4.97129">
        <ele>264.83</ele>
        <time>2025-03-11T16:34:17.989Z</time>
      </trkpt>
      <trkpt lat="47.97076" lon="4.97143">
        <ele>264.79</ele>
        <time>2025-03-11T16:34:25.487Z</time>
      </trkpt>
      <trkpt lat="47.97055" lon="4.97155">
        <ele>264.77</ele>
        <time>2025-03-11T16:34:32.988Z</time>
      </trkpt>
      <trkpt lat="47.97035" lon="4.97166">
        <ele>264.78</ele>
        <time>2025-03-11T16:34:40.493Z</time>
      </trkpt>
      <trkpt lat="47.97014" lon="4.97179">
        <ele>264.79</ele>
        <time>2025-03-11T16:34:48.001Z</time>
      </trkpt>
      <trkpt lat="47.96992" lon="4.97192">
        <ele>264.93</ele>
        <time>2025-03-11T16:34:55.513Z</time>
      </trkpt>
      <trkpt lat="47.96976" lon="4.97204">
        <ele>265.07</ele>
        <time>2025-03-11T16:35:03.028Z</time>
      </trkpt>
      <trkpt lat="47.9696" lon="4.97216">
        <ele>265.27</ele>
        <time>2025-03-11T16:35:10.546Z</time>
      </trkpt>
      <trkpt lat="47.96941" lon="4.97231">
        <ele>265.47</ele>
        <time>2025-03-11T16:35:18.067Z</time>
      </trkpt>
      <trkpt lat="47.96922" lon="4.97245">
        <ele>265.68</ele>
        <time>2025-03-11T16:35:25.592Z</time>
      </trkpt>
      <trkpt lat="47.969" lon="4.97261">
        <ele>265.87</ele>
        <time>2025-03-11T16:35:33.120Z</time>
      </trkpt>
      <trkpt lat="47.96878" lon="4.97278">
        <ele>266.04</ele>
        <time>2025-03-11T16:35:40.652Z</time>
      </trkpt>
      <trkpt lat="47.96857" lon="4.97294">
        <ele>266.22</ele>
        <time>2025-03-11T16:35:48.188Z</time>
      </trkpt>
      <trkpt lat="47.96836" lon="4.97309">
        <ele>266.51</ele>
        <time>2025-03-11T16:35:55.728Z</time>
      </trkpt>
      <trkpt lat="47.96822" lon="4.9732">
        <ele>266.75</ele>
        <time>2025-03-11T16:36:03.270Z</time>
      </trkpt>
      <trkpt lat="47.96807" lon="4.97331">
        <ele>267</ele>
        <time>2025-03-11T16:36:10.815Z</time>
      </trkpt>
      <trkpt lat="47.96792" lon="4.97345">
        <ele>267.25</ele>
        <time>2025-03-11T16:36:18.363Z</time>
      </trkpt>
      <trkpt lat="47.96778" lon="4.97359">
        <ele>267.5</ele>
        <time>2025-03-11T16:36:25.914Z</time>
      </trkpt>
      <trkpt lat="47.96766" lon="4.97374">
        <ele>267.7</ele>
        <time>2025-03-11T16:36:33.467Z</time>
      </trkpt>
      <trkpt lat="47.96758" lon="4.97384">
        <ele>267.88</ele>
        <time>2025-03-11T16:36:41.022Z</time>
      </trkpt>
      <trkpt lat="47.96747" lon="4.97407">
        <ele>268.02</ele>
        <time>2025-03-11T16:36:48.580Z</time>
      </trkpt>
      <trkpt lat="47.96736" lon="4.97429">
        <ele>268.13</ele>
        <time>2025-03-11T16:36:56.141Z</time>
      </trkpt>
      <trkpt lat="47.96728" lon="4.97454">
        <ele>268.28</ele>
        <time>2025-03-11T16:37:03.705Z</time>
      </trkpt>
      <trkpt lat="47.9672" lon="4.97479">
        <ele>268.39</ele>
        <time>2025-03-11T16:37:11.272Z</time>
      </trkpt>
      <trkpt lat="47.96716" lon="4.97503">
        <ele>268.48</ele>
        <time>2025-03-11T16:37:18.841Z</time>
      </trkpt>
      <trkpt lat="47.96712" lon="4.97526">
        <ele>268.52</ele>
        <time>2025-03-11T16:37:26.413Z</time>
      </trkpt>
      <trkpt lat="47.9671" lon="4.97553">
        <ele>268.53</ele>
        <time>2025-03-11T16:37:33.988Z</time>
      </trkpt>
      <trkpt lat="47.96707" lon="4.97581">
        <ele>268.43</ele>
        <time>2025-03-11T16:37:41.566Z</time>
      </trkpt>
      <trkpt lat="47.96708" lon="4.97601">
        <ele>268.31</ele>
        <time>2025-03-11T16:37:49.146Z</time>
      </trkpt>
      <trkpt lat="47.96712" lon="4.97622">
        <ele>268.2</ele>
        <time>2025-03-11T16:37:56.728Z</time>
      </trkpt>
      <trkpt lat="47.96718" lon="4.97657">
        <ele>268</ele>
        <time>2025-03-11T16:38:04.314Z</time>
      </trkpt>
      <trkpt lat="47.96719" lon="4.97682">
        <ele>267.81</ele>
        <time>2025-03-11T16:38:11.903Z</time>
      </trkpt>
      <trkpt lat="47.96715" lon="4.97707">
        <ele>267.57</ele>
        <time>2025-03-11T16:38:19.495Z</time>
      </trkpt>
      <trkpt lat="47.96712" lon="4.97719">
        <ele>267.41</ele>
        <time>2025-03-11T16:38:27.088Z</time>
      </trkpt>
      <trkpt lat="47.96708" lon="4.9773">
        <ele>267.26</ele>
        <time>2025-03-11T16:38:34.683Z</time>
      </trkpt>
      <trkpt lat="47.96698" lon="4.97753">
        <ele>267.16</ele>
        <time>2025-03-11T16:38:42.281Z</time>
      </trkpt>
      <trkpt lat="47.96685" lon="4.9777">
        <ele>267.07</ele>
        <time>2025-03-11T16:38:49.881Z</time>
      </trkpt>
      <trkpt lat="47.96673" lon="4.97786">
        <ele>267.05</ele>
        <time>2025-03-11T16:38:57.484Z</time>
      </trkpt>
      <trkpt lat="47.96653" lon="4.97813">
        <ele>267.07</ele>
        <time>2025-03-11T16:39:05.091Z</time>
      </trkpt>
      <trkpt lat="47.96648" lon="4.97819">
        <ele>267.03</ele>
        <time>2025-03-11T16:39:12.699Z</time>
      </trkpt>
      <trkpt lat="47.96641" lon="4.97831">
        <ele>267.02</ele>
        <time>2025-03-11T16:39:20.309Z</time>
      </trkpt>
      <trkpt lat="47.96636" lon="4.97847">
        <ele>267.02</ele>
        <time>2025-03-11T16:39:27.921Z</time>
      </trkpt>
      <trkpt lat="47.96628" lon="4.97879">
        <ele>267.03</ele>
        <time>2025-03-11T16:39:35.536Z</time>
      </trkpt>
      <trkpt lat="47.96619" lon="4.97911">
        <ele>267.03</ele>
        <time>2025-03-11T16:39:43.155Z</time>
      </trkpt>
      <trkpt lat="47.96611" lon="4.97944">
        <ele>267.03</ele>
        <time>2025-03-11T16:39:50.778Z</time>
      </trkpt>
      <trkpt lat="47.96602" lon="4.97976">
        <ele>267.07</ele>
        <time>2025-03-11T16:39:58.405Z</time>
      </trkpt>
      <trkpt lat="47.96592" lon="4.98011">
        <ele>267.12</ele>
        <time>2025-03-11T16:40:06.036Z</time>
      </trkpt>
      <trkpt lat="47.96582" lon="4.98046">
        <ele>267.22</ele>
        <time>2025-03-11T16:40:13.671Z</time>
      </trkpt>
      <trkpt lat="47.96573" lon="4.98069">
        <ele>267.27</ele>
        <time>2025-03-11T16:40:21.309Z</time>
      </trkpt>
      <trkpt lat="47.96563" lon="4.98092">
        <ele>267.32</ele>
        <time>2025-03-11T16:40:28.950Z</time>
      </trkpt>
      <trkpt lat="47.96553" lon="4.98121">
        <ele>267.33</ele>
        <time>2025-03-11T16:40:36.594Z</time>
      </trkpt>
      <trkpt lat="47.96543" lon="4.98149">
        <ele>267.36</ele>
        <time>2025-03-11T16:40:44.242Z</time>
      </trkpt>
      <trkpt lat="47.96535" lon="4.98183">
        <ele>267.47</ele>
        <time>2025-03-11T16:40:51.893Z</time>
      </trkpt>
      <trkpt lat="47.96527" lon="4.98216">
        <ele>267.62</ele>
        <time>2025-03-11T16:40:59.548Z</time>
      </trkpt>
      <trkpt lat="47.96524" lon="4.98249">
        <ele>267.77</ele>
        <time>2025-03-11T16:41:07.207Z</time>
      </trkpt>
      <trkpt lat="47.96522" lon="4.98282">
        <ele>267.87</ele>
        <time>2025-03-11T16:41:14.869Z</time>
      </trkpt>
      <trkpt lat="47.96522" lon="4.98322">
        <ele>267.96</ele>
        <time>2025-03-11T16:41:22.536Z</time>
      </trkpt>
      <trkpt lat="47.96523" lon="4.98363">
        <ele>268.18</ele>
        <time>2025-03-11T16:41:30.207Z</time>
      </trkpt>
      <trkpt lat="47.96523" lon="4.98397">
        <ele>268.37</ele>
        <time>2025-03-11T16:41:37.882Z</time>
      </trkpt>
      <trkpt lat="47.96522" lon="4.98431">
        <ele>268.58</ele>
        <time>2025-03-11T16:41:45.560Z</time>
      </trkpt>
      <trkpt lat="47.96516" lon="4.98462">
        <ele>268.65</ele>
        <time>2025-03-11T16:41:53.242Z</time>
      </trkpt>
      <trkpt lat="47.96508" lon="4.98491">
        <ele>268.72</ele>
        <time>2025-03-11T16:42:00.927Z</time>
      </trkpt>
      <trkpt lat="47.96505" lon="4.98501">
        <ele>268.83</ele>
        <time>2025-03-11T16:42:08.613Z</time>
      </trkpt>
      <trkpt lat="47.96493" lon="4.9854">
        <ele>268.9</ele>
        <time>2025-03-11T16:42:16.304Z</time>
      </trkpt>
      <trkpt lat="47.96482" lon="4.98565">
        <ele>268.94</ele>
        <time>2025-03-11T16:42:23.998Z</time>
      </trkpt>
      <trkpt lat="47.9647" lon="4.98589">
        <ele>268.96</ele>
        <time>2025-03-11T16:42:31.695Z</time>
      </trkpt>
      <trkpt lat="47.96457" lon="4.98608">
        <ele>268.94</ele>
        <time>2025-03-11T16:42:39.395Z</time>
      </trkpt>
      <trkpt lat="47.96445" lon="4.98627">
        <ele>268.95</ele>
        <time>2025-03-11T16:42:47.098Z</time>
      </trkpt>
      <trkpt lat="47.96431" lon="4.98641">
        <ele>268.9</ele>
        <time>2025-03-11T16:42:54.804Z</time>
      </trkpt>
      <trkpt lat="47.96418" lon="4.98655">
        <ele>268.85</ele>
        <time>2025-03-11T16:43:02.512Z</time>
      </trkpt>
      <trkpt lat="47.96412" lon="4.9866">
        <ele>268.78</ele>
        <time>2025-03-11T16:43:10.222Z</time>
      </trkpt>
      <trkpt lat="47.96391" lon="4.98671">
        <ele>268.68</ele>
        <time>2025-03-11T16:43:17.935Z</time>
      </trkpt>
      <trkpt lat="47.9637" lon="4.98681">
        <ele>268.6</ele>
        <time>2025-03-11T16:43:25.652Z</time>
      </trkpt>
      <trkpt lat="47.9635" lon="4.98692">
        <ele>268.46</ele>
        <time>2025-03-11T16:43:33.372Z</time>
      </trkpt>
      <trkpt lat="47.96329" lon="4.98702">
        <ele>268.3</ele>
        <time>2025-03-11T16:43:41.096Z</time>
      </trkpt>
      <trkpt lat="47.96308" lon="4.98715">
        <ele>268.14</ele>
        <time>2025-03-11T16:43:48.823Z</time>
      </trkpt>
      <trkpt lat="47.96288" lon="4.98728">
        <ele>268.02</ele>
        <time>2025-03-11T16:43:56.554Z</time>
      </trkpt>
      <trkpt lat="47.96269" lon="4.9874">
        <ele>268.02</ele>
        <time>2025-03-11T16:44:04.288Z</time>
      </trkpt>
      <trkpt lat="47.9625" lon="4.98753">
        <ele>268.04</ele>
        <time>2025-03-11T16:44:12.025Z</time>
      </trkpt>
      <trkpt lat="47.96229" lon="4.98768">
        <ele>268.01</ele>
        <time>2025-03-11T16:44:19.766Z</time>
      </trkpt>
      <trkpt lat="47.96207" lon="4.98784">
        <ele>268.01</ele>
        <time>2025-03-11T16:44:27.511Z</time>
      </trkpt>
      <trkpt lat="47.96192" lon="4.98798">
        <ele>268.05</ele>
        <time>2025-03-11T16:44:35.259Z</time>
      </trkpt>
      <trkpt lat="47.96176" lon="4.98813">
        <ele>268.12</ele>
        <time>2025-03-11T16:44:43.010Z</time>
      </trkpt>
      <trkpt lat="47.96151" lon="4.98837">
        <ele>268.13</ele>
        <time>2025-03-11T16:44:50.766Z</time>
      </trkpt>
      <trkpt lat="47.96126" lon="4.98861">
        <ele>268.12</ele>
        <time>2025-03-11T16:44:58.526Z</time>
      </trkpt>
      <trkpt lat="47.96102" lon="4.98884">
        <ele>268.12</ele>
        <time>2025-03-11T16:45:06.291Z</time>
      </trkpt>
      <trkpt lat="47.96078" lon="4.98906">
        <ele>268.12</ele>
        <time>2025-03-11T16:45:14.061Z</time>
      </trkpt>
      <trkpt lat="47.96058" lon="4.98925">
        <ele>268.2</ele>
        <time>2025-03-11T16:45:21.834Z</time>
      </trkpt>
      <trkpt lat="47.96038" lon="4.98944">
        <ele>268.3</ele>
        <time>2025-03-11T16:45:29.611Z</time>
      </trkpt>
      <trkpt lat="47.96032" lon="4.9895">
        <ele>268.39</ele>
        <time>2025-03-11T16:45:37.389Z</time>
      </trkpt>
      <trkpt lat="47.96012" lon="4.98969">
        <ele>268.49</ele>
        <time>2025-03-11T16:45:45.171Z</time>
      </trkpt>
      <trkpt lat="47.95996" lon="4.98991">
        <ele>268.6</ele>
        <time>2025-03-11T16:45:52.957Z</time>
      </trkpt>
      <trkpt lat="47.95979" lon="4.99013">
        <ele>268.64</ele>
        <time>2025-03-11T16:46:00.746Z</time>
      </trkpt>
      <trkpt lat="47.95966" lon="4.99032">
        <ele>268.65</ele>
        <time>2025-03-11T16:46:08.538Z</time>
      </trkpt>
      <trkpt lat="47.95952" lon="4.99052">
        <ele>268.61</ele>
        <time>2025-03-11T16:46:16.333Z</time>
      </trkpt>
      <trkpt lat="47.95935" lon="4.9908">
        <ele>268.53</ele>
        <time>2025-03-11T16:46:24.132Z</time>
      </trkpt>
      <trkpt lat="47.95919" lon="4.99108">
        <ele>268.56</ele>
        <time>2025-03-11T16:46:31.935Z</time>
      </trkpt>
      <trkpt lat="47.95903" lon="4.99134">
        <ele>268.63</ele>
        <time>2025-03-11T16:46:39.742Z</time>
      </trkpt>
      <trkpt lat="47.95888" lon="4.9916">
        <ele>268.69</ele>
        <time>2025-03-11T16:46:47.553Z</time>
      </trkpt>
      <trkpt lat="47.95874" lon="4.99189">
        <ele>268.67</ele>
        <time>2025-03-11T16:46:55.367Z</time>
      </trkpt>
      <trkpt lat="47.9586" lon="4.99218">
        <ele>268.62</ele>
        <time>2025-03-11T16:47:03.185Z</time>
      </trkpt>
      <trkpt lat="47.95848" lon="4.99246">
        <ele>268.63</ele>
        <time>2025-03-11T16:47:11.007Z</time>
      </trkpt>
      <trkpt lat="47.95836" lon="4.99273">
        <ele>268.64</ele>
        <time>2025-03-11T16:47:18.832Z</time>
      </trkpt>
      <trkpt lat="47.95823" lon="4.99305">
        <ele>268.61</ele>
        <time>2025-03-11T16:47:26.661Z</time>
      </trkpt>
      <trkpt lat="47.9581" lon="4.99336">
        <ele>268.6</ele>
        <time>2025-03-11T16:47:34.494Z</time>
      </trkpt>
      <trkpt lat="47.958" lon="4.99363">
        <ele>268.56</ele>
        <time>2025-03-11T16:47:42.331Z</time>
      </trkpt>
      <trkpt lat="47.9579" lon="4.9939">
        <ele>268.48</ele>
        <time>2025-03-11T16:47:50.171Z</time>
      </trkpt>
      <trkpt lat="47.95781" lon="4.99423">
        <ele>268.4</ele>
        <time>2025-03-11T16:47:58.015Z</time>
      </trkpt>
      <trkpt lat="47.95772" lon="4.99456">
        <ele>268.35</ele>
        <time>2025-03-11T16:48:05.863Z</time>
      </trkpt>
      <trkpt lat="47.95766" lon="4.99491">
        <ele>268.29</ele>
        <time>2025-03-11T16:48:13.715Z</time>
      </trkpt>
      <trkpt lat="47.9576" lon="4.99527">
        <ele>268.31</ele>
        <time>2025-03-11T16:48:21.571Z</time>
      </trkpt>
      <trkpt lat="47.95759" lon="4.99557">
        <ele>268.3</ele>
        <time>2025-03-11T16:48:29.430Z</time>
      </trkpt>
      <trkpt lat="47.95758" lon="4.99588">
        <ele>268.32</ele>
        <time>2025-03-11T16:48:37.292Z</time>
      </trkpt>
      <trkpt lat="47.95757" lon="4.99617">
        <ele>268.42</ele>
        <time>2025-03-11T16:48:45.157Z</time>
      </trkpt>
      <trkpt lat="47.95757" lon="4.99645">
        <ele>268.54</ele>
        <time>2025-03-11T16:48:53.025Z</time>
      </trkpt>
      <trkpt lat="47.95755" lon="4.99678">
        <ele>268.71</ele>
        <time>2025-03-11T16:49:00.897Z</time>
      </trkpt>
      <trkpt lat="47.95754" lon="4.99712">
        <ele>268.87</ele>
        <time>2025-03-11T16:49:08.772Z</time>
      </trkpt>
      <trkpt lat="47.95751" lon="4.99739">
        <ele>268.94</ele>
        <time>2025-03-11T16:49:16.650Z</time>
      </trkpt>
      <trkpt lat="47.95748" lon="4.99767">
        <ele>269</ele>
        <time>2025-03-11T16:49:24.531Z</time>
      </trkpt>
      <trkpt lat="47.95742" lon="4.99799">
        <ele>269.02</ele>
        <time>2025-03-11T16:49:32.416Z</time>
      </trkpt>
      <trkpt lat="47.95735" lon="4.99831">
        <ele>269.09</ele>
        <time>2025-03-11T16:49:40.305Z</time>
      </trkpt>
      <trkpt lat="47.95728" lon="4.99855">
        <ele>269.19</ele>
        <time>2025-03-11T16:49:48.196Z</time>
      </trkpt>
      <trkpt lat="47.95722" lon="4.99879">
        <ele>269.31</ele>
        <time>2025-03-11T16:49:56.090Z</time>
      </trkpt>
      <trkpt lat="47.95719" lon="4.99886">
        <ele>269.47</ele>
        <time>2025-03-11T16:50:03.985Z</time>
      </trkpt>
      <trkpt lat="47.95711" lon="4.99916">
        <ele>269.58</ele>
        <time>2025-03-11T16:50:11.884Z</time>
      </trkpt>
      <trkpt lat="47.95702" lon="4.99942">
        <ele>269.69</ele>
        <time>2025-03-11T16:50:19.786Z</time>
      </trkpt>
      <trkpt lat="47.95693" lon="4.99968">
        <ele>269.82</ele>
        <time>2025-03-11T16:50:27.691Z</time>
      </trkpt>
      <trkpt lat="47.95684" lon="4.99991">
        <ele>269.88</ele>
        <time>2025-03-11T16:50:35.599Z</time>
      </trkpt>
      <trkpt lat="47.95675" lon="5.00014">
        <ele>270.26</ele>
        <time>2025-03-11T16:50:43.510Z</time>
      </trkpt>
      <trkpt lat="47.95661" lon="5.00051">
        <ele>270.42</ele>
        <time>2025-03-11T16:50:51.425Z</time>
      </trkpt>
      <trkpt lat="47.95647" lon="5.00088">
        <ele>270.73</ele>
        <time>2025-03-11T16:50:59.345Z</time>
      </trkpt>
      <trkpt lat="47.95635" lon="5.00121">
        <ele>270.91</ele>
        <time>2025-03-11T16:51:07.269Z</time>
      </trkpt>
      <trkpt lat="47.95622" lon="5.00154">
        <ele>271.01</ele>
        <time>2025-03-11T16:51:15.197Z</time>
      </trkpt>
      <trkpt lat="47.95614" lon="5.00177">
        <ele>271.11</ele>
        <time>2025-03-11T16:51:23.128Z</time>
      </trkpt>
      <trkpt lat="47.95605" lon="5.00199">
        <ele>271.27</ele>
        <time>2025-03-11T16:51:31.061Z</time>
      </trkpt>
      <trkpt lat="47.95595" lon="5.00221">
        <ele>271.51</ele>
        <time>2025-03-11T16:51:38.997Z</time>
      </trkpt>
      <trkpt lat="47.9558" lon="5.00247">
        <ele>271.68</ele>
        <time>2025-03-11T16:51:46.937Z</time>
      </trkpt>
      <trkpt lat="47.95568" lon="5.00268">
        <ele>271.88</ele>
        <time>2025-03-11T16:51:54.880Z</time>
      </trkpt>
      <trkpt lat="47.95556" lon="5.00289">
        <ele>272.05</ele>
        <time>2025-03-11T16:52:02.826Z</time>
      </trkpt>
      <trkpt lat="47.95546" lon="5.00314">
        <ele>272.26</ele>
        <time>2025-03-11T16:52:10.775Z</time>
      </trkpt>
      <trkpt lat="47.95535" lon="5.0034">
        <ele>272.47</ele>
        <time>2025-03-11T16:52:18.727Z</time>
      </trkpt>
      <trkpt lat="47.95524" lon="5.00367">
        <ele>272.67</ele>
        <time>2025-03-11T16:52:26.683Z</time>
      </trkpt>
      <trkpt lat="47.95513" lon="5.00395">
        <ele>272.91</ele>
        <time>2025-03-11T16:52:34.642Z</time>
      </trkpt>
      <trkpt lat="47.95504" lon="5.00416">
        <ele>273.25</ele>
        <time>2025-03-11T16:52:42.604Z</time>
      </trkpt>
      <trkpt lat="47.95495" lon="5.00437">
        <ele>273.6</ele>
        <time>2025-03-11T16:52:50.569Z</time>
      </trkpt>
      <trkpt lat="47.95484" lon="5.00458">
        <ele>273.9</ele>
        <time>2025-03-11T16:52:58.536Z</time>
      </trkpt>
      <trkpt lat="47.95474" lon="5.00479">
        <ele>274.14</ele>
        <time>2025-03-11T16:53:06.506Z</time>
      </trkpt>
      <trkpt lat="47.9547" lon="5.00486">
        <ele>274.3</ele>
        <time>2025-03-11T16:53:14.477Z</time>
      </trkpt>
      <trkpt lat="47.95446" lon="5.00514">
        <ele>274.47</ele>
        <time>2025-03-11T16:53:22.453Z</time>
      </trkpt>
      <trkpt lat="47.95441" lon="5.00519">
        <ele>274.6</ele>
        <time>2025-03-11T16:53:30.430Z</time>
      </trkpt>
      <trkpt lat="47.95426" lon="5.00533">
        <ele>274.71</ele>
        <time>2025-03-11T16:53:38.410Z</time>
      </trkpt>
      <trkpt lat="47.9541" lon="5.00542">
        <ele>274.77</ele>
        <time>2025-03-11T16:53:46.393Z</time>
      </trkpt>
      <trkpt lat="47.95382" lon="5.00554">
        <ele>274.77</ele>
        <time>2025-03-11T16:53:54.380Z</time>
      </trkpt>
      <trkpt lat="47.9537" lon="5.00558">
        <ele>274.79</ele>
        <time>2025-03-11T16:54:02.369Z</time>
      </trkpt>
      <trkpt lat="47.95344" lon="5.00566">
        <ele>274.75</ele>
        <time>2025-03-11T16:54:10.362Z</time>
      </trkpt>
      <trkpt lat="47.95339" lon="5.00568">
        <ele>274.75</ele>
        <time>2025-03-11T16:54:18.356Z</time>
      </trkpt>
      <trkpt lat="47.95323" lon="5.00579">
        <ele>274.72</ele>
        <time>2025-03-11T16:54:26.353Z</time>
      </trkpt>
      <trkpt lat="47.95307" lon="5.0059">
        <ele>274.69</ele>
        <time>2025-03-11T16:54:34.353Z</time>
      </trkpt>
      <trkpt lat="47.9529" lon="5.00607">
        <ele>274.63</ele>
        <time>2025-03-11T16:54:42.356Z</time>
      </trkpt>
      <trkpt lat="47.95272" lon="5.00623">
        <ele>274.62</ele>
        <time>2025-03-11T16:54:50.363Z</time>
      </trkpt>
      <trkpt lat="47.95257" lon="5.00634">
        <ele>274.5</ele>
        <time>2025-03-11T16:54:58.372Z</time>
      </trkpt>
      <trkpt lat="47.95246" lon="5.0064">
        <ele>274.32</ele>
        <time>2025-03-11T16:55:06.383Z</time>
      </trkpt>
      <trkpt lat="47.9523" lon="5.00638">
        <ele>274.09</ele>
        <time>2025-03-11T16:55:14.397Z</time>
      </trkpt>
      <trkpt lat="47.95219" lon="5.00635">
        <ele>273.82</ele>
        <time>2025-03-11T16:55:22.413Z</time>
      </trkpt>
      <trkpt lat="47.95198" lon="5.00627">
        <ele>273.47</ele>
        <time>2025-03-11T16:55:30.432Z</time>
      </trkpt>
      <trkpt lat="47.95177" lon="5.00619">
        <ele>273.05</ele>
        <time>2025-03-11T16:55:38.454Z</time>
      </trkpt>
      <trkpt lat="47.95153" lon="5.0061">
        <ele>272.66</ele>
        <time>2025-03-11T16:55:46.480Z</time>
      </trkpt>
      <trkpt lat="47.95129" lon="5.00601">
        <ele>272.24</ele>
        <time>2025-03-11T16:55:54.510Z</time>
      </trkpt>
      <trkpt lat="47.95106" lon="5.00594">
        <ele>271.81</ele>
        <time>2025-03-11T16:56:02.544Z</time>
      </trkpt>
      <trkpt lat="47.95084" lon="5.00588">
        <ele>271.45</ele>
        <time>2025-03-11T16:56:10.582Z</time>
      </trkpt>
      <trkpt lat="47.95076" lon="5.00587">
        <ele>271.14</ele>
        <time>2025-03-11T16:56:18.621Z</time>
      </trkpt>
      <trkpt lat="47.95054" lon="5.00593">
        <ele>270.85</ele>
        <time>2025-03-11T16:56:26.664Z</time>
      </trkpt>
      <trkpt lat="47.95032" lon="5.006">
        <ele>270.54</ele>
        <time>2025-03-11T16:56:34.710Z</time>
      </trkpt>
      <trkpt lat="47.95009" lon="5.00615">
        <ele>270.28</ele>
        <time>2025-03-11T16:56:42.760Z</time>
      </trkpt>
      <trkpt lat="47.94985" lon="5.00629">
        <ele>270.11</ele>
        <time>2025-03-11T16:56:50.814Z</time>
      </trkpt>
      <trkpt lat="47.94975" lon="5.00643">
        <ele>270.07</ele>
        <time>2025-03-11T16:56:58.871Z</time>
      </trkpt>
      <trkpt lat="47.94966" lon="5.00657">
        <ele>270.14</ele>
        <time>2025-03-11T16:57:06.930Z</time>
      </trkpt>
      <trkpt lat="47.9495" lon="5.00681">
        <ele>270.18</ele>
        <time>2025-03-11T16:57:14.992Z</time>
      </trkpt>
      <trkpt lat="47.94933" lon="5.00705">
        <ele>270.28</ele>
        <time>2025-03-11T16:57:23.058Z</time>
      </trkpt>
      <trkpt lat="47.94924" lon="5.00719">
        <ele>270.37</ele>
        <time>2025-03-11T16:57:31.126Z</time>
      </trkpt>
      <trkpt lat="47.94912" lon="5.00738">
        <ele>270.51</ele>
        <time>2025-03-11T16:57:39.197Z</time>
      </trkpt>
      <trkpt lat="47.94904" lon="5.0075">
        <ele>270.67</ele>
        <time>2025-03-11T16:57:47.270Z</time>
      </trkpt>
      <trkpt lat="47.94893" lon="5.00771">
        <ele>270.84</ele>
        <time>2025-03-11T16:57:55.346Z</time>
      </trkpt>
      <trkpt lat="47.94874" lon="5.00808">
        <ele>271.09</ele>
        <time>2025-03-11T16:58:03.427Z</time>
      </trkpt>
      <trkpt lat="47.94869" lon="5.00819">
        <ele>271.24</ele>
        <time>2025-03-11T16:58:11.509Z</time>
      </trkpt>
      <trkpt lat="47.94863" lon="5.00819">
        <ele>271.37</ele>
        <time>2025-03-11T16:58:19.592Z</time>
      </trkpt>
      <trkpt lat="47.94842" lon="5.00802">
        <ele>271.5</ele>
        <time>2025-03-11T16:58:27.679Z</time>
      </trkpt>
      <trkpt lat="47.9483" lon="5.0079">
        <ele>271.72</ele>
        <time>2025-03-11T16:58:35.768Z</time>
      </trkpt>
      <trkpt lat="47.94823" lon="5.00785">
        <ele>271.97</ele>
        <time>2025-03-11T16:58:43.858Z</time>
      </trkpt>
      <trkpt lat="47.94813" lon="5.00764">
        <ele>272.23</ele>
        <time>2025-03-11T16:58:51.951Z</time>
      </trkpt>
      <trkpt lat="47.94803" lon="5.00747">
        <ele>272.48</ele>
        <time>2025-03-11T16:59:00.046Z</time>
      </trkpt>
      <trkpt lat="47.94783" lon="5.0076">
        <ele>272.7</ele>
        <time>2025-03-11T16:59:08.145Z</time>
      </trkpt>
      <trkpt lat="47.94772" lon="5.00768">
        <ele>272.86</ele>
        <time>2025-03-11T16:59:16.246Z</time>
      </trkpt>
    </trkseg>
  </trk>
</gpx>